<?xml version="1.0" encoding="UTF-8" standalone="no" ?>
<gpx xmlns="http://www.topografix.com/GPX/1/1" xmlns:xsi="http://www.w3.org/2001/XMLSchema-instance" xsi:schemaLocation="http://www.topografix.com/GPX/1/1 http://www.topografix.com/GPX/1/1/gpx.xsd" version="1.1" creator="VisuGPX - https://www.visugpx.com">
  <metadata>
    <name>Nordique Bellifontaine</name>
    <desc><![CDATA[Un très beau parcours dans la forêt de Fontainebleau]]></desc>
  </metadata>
  <trk>
    <name><![CDATA[2014-05-08 09:56]]></name>
    <desc><![CDATA[]]></desc>
    <trkseg>
      <trkpt lat="48.34495" lon="2.73811">
        <ele>131</ele>
        <time>2014-05-08T07:56:50.512Z</time>
      </trkpt>
      <trkpt lat="48.34495" lon="2.73811">
        <ele>131</ele>
        <time>2014-05-08T07:56:50.517Z</time>
      </trkpt>
      <trkpt lat="48.34503" lon="2.73821">
        <ele>132</ele>
        <time>2014-05-08T07:58:50.583Z</time>
      </trkpt>
      <trkpt lat="48.34503" lon="2.73816">
        <ele>132</ele>
        <time>2014-05-08T07:58:52.524Z</time>
      </trkpt>
      <trkpt lat="48.34503" lon="2.73815">
        <ele>132</ele>
        <time>2014-05-08T07:58:53.522Z</time>
      </trkpt>
      <trkpt lat="48.34503" lon="2.73815">
        <ele>132</ele>
        <time>2014-05-08T07:58:53.525Z</time>
      </trkpt>
      <trkpt lat="48.34503" lon="2.73816">
        <ele>132</ele>
        <time>2014-05-08T07:58:54.543Z</time>
      </trkpt>
      <trkpt lat="48.34503" lon="2.73816">
        <ele>132</ele>
        <time>2014-05-08T07:58:55.540Z</time>
      </trkpt>
      <trkpt lat="48.34502" lon="2.73816">
        <ele>132</ele>
        <time>2014-05-08T07:58:56.520Z</time>
      </trkpt>
      <trkpt lat="48.34501" lon="2.73815">
        <ele>132</ele>
        <time>2014-05-08T07:58:58.520Z</time>
      </trkpt>
      <trkpt lat="48.34501" lon="2.73814">
        <ele>132</ele>
        <time>2014-05-08T07:58:59.519Z</time>
      </trkpt>
      <trkpt lat="48.34501" lon="2.73813">
        <ele>132</ele>
        <time>2014-05-08T07:59:00.516Z</time>
      </trkpt>
      <trkpt lat="48.34501" lon="2.7381">
        <ele>132</ele>
        <time>2014-05-08T07:59:01.518Z</time>
      </trkpt>
      <trkpt lat="48.345" lon="2.73809">
        <ele>132</ele>
        <time>2014-05-08T07:59:02.539Z</time>
      </trkpt>
      <trkpt lat="48.34502" lon="2.73809">
        <ele>132</ele>
        <time>2014-05-08T07:59:04.526Z</time>
      </trkpt>
      <trkpt lat="48.34501" lon="2.73808">
        <ele>132</ele>
        <time>2014-05-08T07:59:05.533Z</time>
      </trkpt>
      <trkpt lat="48.34501" lon="2.73808">
        <ele>132</ele>
        <time>2014-05-08T07:59:06.521Z</time>
      </trkpt>
      <trkpt lat="48.34499" lon="2.73807">
        <ele>132</ele>
        <time>2014-05-08T07:59:10.526Z</time>
      </trkpt>
      <trkpt lat="48.34497" lon="2.73807">
        <ele>132</ele>
        <time>2014-05-08T07:59:11.518Z</time>
      </trkpt>
      <trkpt lat="48.34494" lon="2.73807">
        <ele>132</ele>
        <time>2014-05-08T07:59:20.529Z</time>
      </trkpt>
      <trkpt lat="48.34494" lon="2.73807">
        <ele>132</ele>
        <time>2014-05-08T07:59:21.548Z</time>
      </trkpt>
      <trkpt lat="48.34494" lon="2.73807">
        <ele>132</ele>
        <time>2014-05-08T07:59:21.557Z</time>
      </trkpt>
      <trkpt lat="48.34494" lon="2.73805">
        <ele>132</ele>
        <time>2014-05-08T07:59:22.518Z</time>
      </trkpt>
      <trkpt lat="48.34494" lon="2.73805">
        <ele>132</ele>
        <time>2014-05-08T07:59:22.526Z</time>
      </trkpt>
      <trkpt lat="48.34495" lon="2.73805">
        <ele>132</ele>
        <time>2014-05-08T07:59:23.533Z</time>
      </trkpt>
      <trkpt lat="48.34495" lon="2.73805">
        <ele>132</ele>
        <time>2014-05-08T07:59:23.537Z</time>
      </trkpt>
      <trkpt lat="48.34494" lon="2.73805">
        <ele>132</ele>
        <time>2014-05-08T07:59:24.514Z</time>
      </trkpt>
      <trkpt lat="48.34494" lon="2.73805">
        <ele>132</ele>
        <time>2014-05-08T07:59:24.521Z</time>
      </trkpt>
      <trkpt lat="48.34495" lon="2.73805">
        <ele>132</ele>
        <time>2014-05-08T07:59:25.519Z</time>
      </trkpt>
      <trkpt lat="48.34495" lon="2.73807">
        <ele>132</ele>
        <time>2014-05-08T07:59:33.528Z</time>
      </trkpt>
      <trkpt lat="48.34496" lon="2.73807">
        <ele>132</ele>
        <time>2014-05-08T07:59:34.520Z</time>
      </trkpt>
      <trkpt lat="48.34496" lon="2.73807">
        <ele>132</ele>
        <time>2014-05-08T07:59:34.527Z</time>
      </trkpt>
      <trkpt lat="48.34496" lon="2.73806">
        <ele>132</ele>
        <time>2014-05-08T07:59:35.527Z</time>
      </trkpt>
      <trkpt lat="48.34496" lon="2.73805">
        <ele>132</ele>
        <time>2014-05-08T07:59:36.529Z</time>
      </trkpt>
      <trkpt lat="48.34498" lon="2.73806">
        <ele>132</ele>
        <time>2014-05-08T07:59:37.525Z</time>
      </trkpt>
      <trkpt lat="48.34499" lon="2.73807">
        <ele>132</ele>
        <time>2014-05-08T07:59:42.515Z</time>
      </trkpt>
      <trkpt lat="48.34499" lon="2.73807">
        <ele>132</ele>
        <time>2014-05-08T07:59:43.520Z</time>
      </trkpt>
      <trkpt lat="48.34499" lon="2.73807">
        <ele>132</ele>
        <time>2014-05-08T07:59:43.523Z</time>
      </trkpt>
      <trkpt lat="48.34499" lon="2.73808">
        <ele>132</ele>
        <time>2014-05-08T07:59:44.521Z</time>
      </trkpt>
      <trkpt lat="48.34499" lon="2.73807">
        <ele>132</ele>
        <time>2014-05-08T07:59:50.523Z</time>
      </trkpt>
      <trkpt lat="48.34498" lon="2.73806">
        <ele>132</ele>
        <time>2014-05-08T07:59:51.541Z</time>
      </trkpt>
      <trkpt lat="48.34496" lon="2.73805">
        <ele>132</ele>
        <time>2014-05-08T07:59:52.539Z</time>
      </trkpt>
      <trkpt lat="48.34496" lon="2.73804">
        <ele>132</ele>
        <time>2014-05-08T07:59:53.507Z</time>
      </trkpt>
      <trkpt lat="48.34493" lon="2.73802">
        <ele>132</ele>
        <time>2014-05-08T07:59:56.540Z</time>
      </trkpt>
      <trkpt lat="48.34494" lon="2.73802">
        <ele>132</ele>
        <time>2014-05-08T07:59:57.533Z</time>
      </trkpt>
      <trkpt lat="48.34492" lon="2.738">
        <ele>132</ele>
        <time>2014-05-08T08:00:00.517Z</time>
      </trkpt>
      <trkpt lat="48.34492" lon="2.738">
        <ele>132</ele>
        <time>2014-05-08T08:00:01.520Z</time>
      </trkpt>
      <trkpt lat="48.34492" lon="2.738">
        <ele>132</ele>
        <time>2014-05-08T08:00:01.528Z</time>
      </trkpt>
      <trkpt lat="48.34491" lon="2.738">
        <ele>132</ele>
        <time>2014-05-08T08:00:02.520Z</time>
      </trkpt>
      <trkpt lat="48.34491" lon="2.738">
        <ele>132</ele>
        <time>2014-05-08T08:00:03.551Z</time>
      </trkpt>
      <trkpt lat="48.34493" lon="2.738">
        <ele>132</ele>
        <time>2014-05-08T08:00:04.524Z</time>
      </trkpt>
      <trkpt lat="48.345" lon="2.73799">
        <ele>132</ele>
        <time>2014-05-08T08:00:07.527Z</time>
      </trkpt>
      <trkpt lat="48.34502" lon="2.73798">
        <ele>133</ele>
        <time>2014-05-08T08:00:08.537Z</time>
      </trkpt>
      <trkpt lat="48.34511" lon="2.73798">
        <ele>133</ele>
        <time>2014-05-08T08:00:11.549Z</time>
      </trkpt>
      <trkpt lat="48.34514" lon="2.73799">
        <ele>133</ele>
        <time>2014-05-08T08:00:12.526Z</time>
      </trkpt>
      <trkpt lat="48.34522" lon="2.73796">
        <ele>133</ele>
        <time>2014-05-08T08:00:15.531Z</time>
      </trkpt>
      <trkpt lat="48.34525" lon="2.73795">
        <ele>133</ele>
        <time>2014-05-08T08:00:16.514Z</time>
      </trkpt>
      <trkpt lat="48.34532" lon="2.73794">
        <ele>133</ele>
        <time>2014-05-08T08:00:18.531Z</time>
      </trkpt>
      <trkpt lat="48.34534" lon="2.73792">
        <ele>133</ele>
        <time>2014-05-08T08:00:19.529Z</time>
      </trkpt>
      <trkpt lat="48.34541" lon="2.7379">
        <ele>133</ele>
        <time>2014-05-08T08:00:21.533Z</time>
      </trkpt>
      <trkpt lat="48.34544" lon="2.73789">
        <ele>133</ele>
        <time>2014-05-08T08:00:22.526Z</time>
      </trkpt>
      <trkpt lat="48.3455" lon="2.73787">
        <ele>133</ele>
        <time>2014-05-08T08:00:24.536Z</time>
      </trkpt>
      <trkpt lat="48.34553" lon="2.73787">
        <ele>133</ele>
        <time>2014-05-08T08:00:25.519Z</time>
      </trkpt>
      <trkpt lat="48.34561" lon="2.73783">
        <ele>133</ele>
        <time>2014-05-08T08:00:28.537Z</time>
      </trkpt>
      <trkpt lat="48.34563" lon="2.73781">
        <ele>133</ele>
        <time>2014-05-08T08:00:29.524Z</time>
      </trkpt>
      <trkpt lat="48.3457" lon="2.73775">
        <ele>134</ele>
        <time>2014-05-08T08:00:32.530Z</time>
      </trkpt>
      <trkpt lat="48.34571" lon="2.73773">
        <ele>134</ele>
        <time>2014-05-08T08:00:33.543Z</time>
      </trkpt>
      <trkpt lat="48.34578" lon="2.73766">
        <ele>134</ele>
        <time>2014-05-08T08:00:37.529Z</time>
      </trkpt>
      <trkpt lat="48.34581" lon="2.73767">
        <ele>134</ele>
        <time>2014-05-08T08:00:38.541Z</time>
      </trkpt>
      <trkpt lat="48.34587" lon="2.73773">
        <ele>134</ele>
        <time>2014-05-08T08:00:42.538Z</time>
      </trkpt>
      <trkpt lat="48.34589" lon="2.73775">
        <ele>134</ele>
        <time>2014-05-08T08:00:43.524Z</time>
      </trkpt>
      <trkpt lat="48.34593" lon="2.73787">
        <ele>134</ele>
        <time>2014-05-08T08:00:47.527Z</time>
      </trkpt>
      <trkpt lat="48.34593" lon="2.7379">
        <ele>134</ele>
        <time>2014-05-08T08:00:48.514Z</time>
      </trkpt>
      <trkpt lat="48.34593" lon="2.73802">
        <ele>134</ele>
        <time>2014-05-08T08:00:50.556Z</time>
      </trkpt>
      <trkpt lat="48.34592" lon="2.73806">
        <ele>134</ele>
        <time>2014-05-08T08:00:51.549Z</time>
      </trkpt>
      <trkpt lat="48.34591" lon="2.73817">
        <ele>134</ele>
        <time>2014-05-08T08:00:54.537Z</time>
      </trkpt>
      <trkpt lat="48.3459" lon="2.73821">
        <ele>134</ele>
        <time>2014-05-08T08:00:55.528Z</time>
      </trkpt>
      <trkpt lat="48.34591" lon="2.73831">
        <ele>134</ele>
        <time>2014-05-08T08:00:57.533Z</time>
      </trkpt>
      <trkpt lat="48.34592" lon="2.73835">
        <ele>134</ele>
        <time>2014-05-08T08:00:58.524Z</time>
      </trkpt>
      <trkpt lat="48.34594" lon="2.73847">
        <ele>134</ele>
        <time>2014-05-08T08:01:01.568Z</time>
      </trkpt>
      <trkpt lat="48.34595" lon="2.73851">
        <ele>134</ele>
        <time>2014-05-08T08:01:02.557Z</time>
      </trkpt>
      <trkpt lat="48.34595" lon="2.73861">
        <ele>134</ele>
        <time>2014-05-08T08:01:04.558Z</time>
      </trkpt>
      <trkpt lat="48.34595" lon="2.73866">
        <ele>134</ele>
        <time>2014-05-08T08:01:05.515Z</time>
      </trkpt>
      <trkpt lat="48.34597" lon="2.73875">
        <ele>134</ele>
        <time>2014-05-08T08:01:07.526Z</time>
      </trkpt>
      <trkpt lat="48.34599" lon="2.73879">
        <ele>134</ele>
        <time>2014-05-08T08:01:08.584Z</time>
      </trkpt>
      <trkpt lat="48.34601" lon="2.7389">
        <ele>134</ele>
        <time>2014-05-08T08:01:11.550Z</time>
      </trkpt>
      <trkpt lat="48.34602" lon="2.73894">
        <ele>134</ele>
        <time>2014-05-08T08:01:12.525Z</time>
      </trkpt>
      <trkpt lat="48.34604" lon="2.73902">
        <ele>134</ele>
        <time>2014-05-08T08:01:14.547Z</time>
      </trkpt>
      <trkpt lat="48.34606" lon="2.73907">
        <ele>134</ele>
        <time>2014-05-08T08:01:15.523Z</time>
      </trkpt>
      <trkpt lat="48.3461" lon="2.73916">
        <ele>134</ele>
        <time>2014-05-08T08:01:18.529Z</time>
      </trkpt>
      <trkpt lat="48.34611" lon="2.73919">
        <ele>135</ele>
        <time>2014-05-08T08:01:19.533Z</time>
      </trkpt>
      <trkpt lat="48.34613" lon="2.73928">
        <ele>135</ele>
        <time>2014-05-08T08:01:22.534Z</time>
      </trkpt>
      <trkpt lat="48.34613" lon="2.73932">
        <ele>135</ele>
        <time>2014-05-08T08:01:23.534Z</time>
      </trkpt>
      <trkpt lat="48.34616" lon="2.73943">
        <ele>135</ele>
        <time>2014-05-08T08:01:27.561Z</time>
      </trkpt>
      <trkpt lat="48.34618" lon="2.73945">
        <ele>135</ele>
        <time>2014-05-08T08:01:28.536Z</time>
      </trkpt>
      <trkpt lat="48.34621" lon="2.73955">
        <ele>135</ele>
        <time>2014-05-08T08:01:31.537Z</time>
      </trkpt>
      <trkpt lat="48.34622" lon="2.7396">
        <ele>135</ele>
        <time>2014-05-08T08:01:32.543Z</time>
      </trkpt>
      <trkpt lat="48.34625" lon="2.7397">
        <ele>135</ele>
        <time>2014-05-08T08:01:35.526Z</time>
      </trkpt>
      <trkpt lat="48.34626" lon="2.73975">
        <ele>135</ele>
        <time>2014-05-08T08:01:36.528Z</time>
      </trkpt>
      <trkpt lat="48.34628" lon="2.73984">
        <ele>135</ele>
        <time>2014-05-08T08:01:39.530Z</time>
      </trkpt>
      <trkpt lat="48.34629" lon="2.73989">
        <ele>135</ele>
        <time>2014-05-08T08:01:40.520Z</time>
      </trkpt>
      <trkpt lat="48.34629" lon="2.73997">
        <ele>135</ele>
        <time>2014-05-08T08:01:43.548Z</time>
      </trkpt>
      <trkpt lat="48.34628" lon="2.74003">
        <ele>135</ele>
        <time>2014-05-08T08:01:44.566Z</time>
      </trkpt>
      <trkpt lat="48.34628" lon="2.74014">
        <ele>134</ele>
        <time>2014-05-08T08:01:47.533Z</time>
      </trkpt>
      <trkpt lat="48.34628" lon="2.74018">
        <ele>134</ele>
        <time>2014-05-08T08:01:48.532Z</time>
      </trkpt>
      <trkpt lat="48.3463" lon="2.7403">
        <ele>134</ele>
        <time>2014-05-08T08:01:51.539Z</time>
      </trkpt>
      <trkpt lat="48.3463" lon="2.74035">
        <ele>134</ele>
        <time>2014-05-08T08:01:52.533Z</time>
      </trkpt>
      <trkpt lat="48.34631" lon="2.74047">
        <ele>134</ele>
        <time>2014-05-08T08:01:57.535Z</time>
      </trkpt>
      <trkpt lat="48.34631" lon="2.74049">
        <ele>134</ele>
        <time>2014-05-08T08:01:58.520Z</time>
      </trkpt>
      <trkpt lat="48.34639" lon="2.74051">
        <ele>134</ele>
        <time>2014-05-08T08:02:02.562Z</time>
      </trkpt>
      <trkpt lat="48.3464" lon="2.74051">
        <ele>134</ele>
        <time>2014-05-08T08:02:03.527Z</time>
      </trkpt>
      <trkpt lat="48.34648" lon="2.74052">
        <ele>134</ele>
        <time>2014-05-08T08:02:06.532Z</time>
      </trkpt>
      <trkpt lat="48.34653" lon="2.74052">
        <ele>134</ele>
        <time>2014-05-08T08:02:07.535Z</time>
      </trkpt>
      <trkpt lat="48.34661" lon="2.74048">
        <ele>134</ele>
        <time>2014-05-08T08:02:11.536Z</time>
      </trkpt>
      <trkpt lat="48.34662" lon="2.74047">
        <ele>134</ele>
        <time>2014-05-08T08:02:12.525Z</time>
      </trkpt>
      <trkpt lat="48.34668" lon="2.74041">
        <ele>136</ele>
        <time>2014-05-08T08:02:15.527Z</time>
      </trkpt>
      <trkpt lat="48.3467" lon="2.74037">
        <ele>136</ele>
        <time>2014-05-08T08:02:16.533Z</time>
      </trkpt>
      <trkpt lat="48.34675" lon="2.74029">
        <ele>136</ele>
        <time>2014-05-08T08:02:19.533Z</time>
      </trkpt>
      <trkpt lat="48.34676" lon="2.74025">
        <ele>136</ele>
        <time>2014-05-08T08:02:20.546Z</time>
      </trkpt>
      <trkpt lat="48.34685" lon="2.74023">
        <ele>136</ele>
        <time>2014-05-08T08:02:23.551Z</time>
      </trkpt>
      <trkpt lat="48.34686" lon="2.74023">
        <ele>136</ele>
        <time>2014-05-08T08:02:24.523Z</time>
      </trkpt>
      <trkpt lat="48.34694" lon="2.74019">
        <ele>137</ele>
        <time>2014-05-08T08:02:28.576Z</time>
      </trkpt>
      <trkpt lat="48.34696" lon="2.74016">
        <ele>137</ele>
        <time>2014-05-08T08:02:29.531Z</time>
      </trkpt>
      <trkpt lat="48.34702" lon="2.74012">
        <ele>137</ele>
        <time>2014-05-08T08:02:32.557Z</time>
      </trkpt>
      <trkpt lat="48.34705" lon="2.74012">
        <ele>137</ele>
        <time>2014-05-08T08:02:33.523Z</time>
      </trkpt>
      <trkpt lat="48.34711" lon="2.74009">
        <ele>137</ele>
        <time>2014-05-08T08:02:35.528Z</time>
      </trkpt>
      <trkpt lat="48.34714" lon="2.74009">
        <ele>137</ele>
        <time>2014-05-08T08:02:36.525Z</time>
      </trkpt>
      <trkpt lat="48.34721" lon="2.74007">
        <ele>138</ele>
        <time>2014-05-08T08:02:40.532Z</time>
      </trkpt>
      <trkpt lat="48.34723" lon="2.74006">
        <ele>138</ele>
        <time>2014-05-08T08:02:41.527Z</time>
      </trkpt>
      <trkpt lat="48.34729" lon="2.73996">
        <ele>139</ele>
        <time>2014-05-08T08:02:47.526Z</time>
      </trkpt>
      <trkpt lat="48.3473" lon="2.73995">
        <ele>139</ele>
        <time>2014-05-08T08:02:48.531Z</time>
      </trkpt>
      <trkpt lat="48.34738" lon="2.73989">
        <ele>139</ele>
        <time>2014-05-08T08:02:52.542Z</time>
      </trkpt>
      <trkpt lat="48.34742" lon="2.73987">
        <ele>139</ele>
        <time>2014-05-08T08:02:53.522Z</time>
      </trkpt>
      <trkpt lat="48.34746" lon="2.73981">
        <ele>139</ele>
        <time>2014-05-08T08:02:55.533Z</time>
      </trkpt>
      <trkpt lat="48.3475" lon="2.73979">
        <ele>139</ele>
        <time>2014-05-08T08:02:56.545Z</time>
      </trkpt>
      <trkpt lat="48.34754" lon="2.73971">
        <ele>142</ele>
        <time>2014-05-08T08:02:58.557Z</time>
      </trkpt>
      <trkpt lat="48.34757" lon="2.73969">
        <ele>142</ele>
        <time>2014-05-08T08:02:59.529Z</time>
      </trkpt>
      <trkpt lat="48.34764" lon="2.73963">
        <ele>142</ele>
        <time>2014-05-08T08:03:02.545Z</time>
      </trkpt>
      <trkpt lat="48.34764" lon="2.73959">
        <ele>142</ele>
        <time>2014-05-08T08:03:03.520Z</time>
      </trkpt>
      <trkpt lat="48.3477" lon="2.73954">
        <ele>142</ele>
        <time>2014-05-08T08:03:06.539Z</time>
      </trkpt>
      <trkpt lat="48.34773" lon="2.73952">
        <ele>142</ele>
        <time>2014-05-08T08:03:07.521Z</time>
      </trkpt>
      <trkpt lat="48.34779" lon="2.73952">
        <ele>142</ele>
        <time>2014-05-08T08:03:10.526Z</time>
      </trkpt>
      <trkpt lat="48.34783" lon="2.7395">
        <ele>142</ele>
        <time>2014-05-08T08:03:11.524Z</time>
      </trkpt>
      <trkpt lat="48.34789" lon="2.73943">
        <ele>143</ele>
        <time>2014-05-08T08:03:15.516Z</time>
      </trkpt>
      <trkpt lat="48.3479" lon="2.73939">
        <ele>143</ele>
        <time>2014-05-08T08:03:16.522Z</time>
      </trkpt>
      <trkpt lat="48.34797" lon="2.73936">
        <ele>143</ele>
        <time>2014-05-08T08:03:20.555Z</time>
      </trkpt>
      <trkpt lat="48.34799" lon="2.73936">
        <ele>143</ele>
        <time>2014-05-08T08:03:21.532Z</time>
      </trkpt>
      <trkpt lat="48.34804" lon="2.73932">
        <ele>143</ele>
        <time>2014-05-08T08:03:23.528Z</time>
      </trkpt>
      <trkpt lat="48.34808" lon="2.73931">
        <ele>144</ele>
        <time>2014-05-08T08:03:24.521Z</time>
      </trkpt>
      <trkpt lat="48.34814" lon="2.73925">
        <ele>144</ele>
        <time>2014-05-08T08:03:28.515Z</time>
      </trkpt>
      <trkpt lat="48.34816" lon="2.73922">
        <ele>144</ele>
        <time>2014-05-08T08:03:29.500Z</time>
      </trkpt>
      <trkpt lat="48.34823" lon="2.73915">
        <ele>145</ele>
        <time>2014-05-08T08:03:34.524Z</time>
      </trkpt>
      <trkpt lat="48.34825" lon="2.73916">
        <ele>145</ele>
        <time>2014-05-08T08:03:35.531Z</time>
      </trkpt>
      <trkpt lat="48.34832" lon="2.73907">
        <ele>145</ele>
        <time>2014-05-08T08:03:39.541Z</time>
      </trkpt>
      <trkpt lat="48.34833" lon="2.73905">
        <ele>145</ele>
        <time>2014-05-08T08:03:40.528Z</time>
      </trkpt>
      <trkpt lat="48.34841" lon="2.73901">
        <ele>145</ele>
        <time>2014-05-08T08:03:43.530Z</time>
      </trkpt>
      <trkpt lat="48.34843" lon="2.73899">
        <ele>145</ele>
        <time>2014-05-08T08:03:44.550Z</time>
      </trkpt>
      <trkpt lat="48.34851" lon="2.73897">
        <ele>144</ele>
        <time>2014-05-08T08:03:47.587Z</time>
      </trkpt>
      <trkpt lat="48.34853" lon="2.73897">
        <ele>144</ele>
        <time>2014-05-08T08:03:47.858Z</time>
      </trkpt>
      <trkpt lat="48.3486" lon="2.7389">
        <ele>144</ele>
        <time>2014-05-08T08:03:51.886Z</time>
      </trkpt>
      <trkpt lat="48.34863" lon="2.73888">
        <ele>144</ele>
        <time>2014-05-08T08:03:52.884Z</time>
      </trkpt>
      <trkpt lat="48.34869" lon="2.7388">
        <ele>144</ele>
        <time>2014-05-08T08:03:55.909Z</time>
      </trkpt>
      <trkpt lat="48.34871" lon="2.73879">
        <ele>144</ele>
        <time>2014-05-08T08:03:56.888Z</time>
      </trkpt>
      <trkpt lat="48.34876" lon="2.7387">
        <ele>144</ele>
        <time>2014-05-08T08:04:00.881Z</time>
      </trkpt>
      <trkpt lat="48.34878" lon="2.7387">
        <ele>144</ele>
        <time>2014-05-08T08:04:01.839Z</time>
      </trkpt>
      <trkpt lat="48.34883" lon="2.73862">
        <ele>144</ele>
        <time>2014-05-08T08:04:05.859Z</time>
      </trkpt>
      <trkpt lat="48.34885" lon="2.73859">
        <ele>143</ele>
        <time>2014-05-08T08:04:06.814Z</time>
      </trkpt>
      <trkpt lat="48.34892" lon="2.73854">
        <ele>143</ele>
        <time>2014-05-08T08:04:09.845Z</time>
      </trkpt>
      <trkpt lat="48.34894" lon="2.73853">
        <ele>143</ele>
        <time>2014-05-08T08:04:10.823Z</time>
      </trkpt>
      <trkpt lat="48.34901" lon="2.73847">
        <ele>143</ele>
        <time>2014-05-08T08:04:14.836Z</time>
      </trkpt>
      <trkpt lat="48.34902" lon="2.73844">
        <ele>143</ele>
        <time>2014-05-08T08:04:15.821Z</time>
      </trkpt>
      <trkpt lat="48.34909" lon="2.73838">
        <ele>143</ele>
        <time>2014-05-08T08:04:18.838Z</time>
      </trkpt>
      <trkpt lat="48.3491" lon="2.73836">
        <ele>142</ele>
        <time>2014-05-08T08:04:19.830Z</time>
      </trkpt>
      <trkpt lat="48.34918" lon="2.73833">
        <ele>142</ele>
        <time>2014-05-08T08:04:23.824Z</time>
      </trkpt>
      <trkpt lat="48.3492" lon="2.73833">
        <ele>142</ele>
        <time>2014-05-08T08:04:24.817Z</time>
      </trkpt>
      <trkpt lat="48.34927" lon="2.73829">
        <ele>141</ele>
        <time>2014-05-08T08:04:28.824Z</time>
      </trkpt>
      <trkpt lat="48.34928" lon="2.73827">
        <ele>141</ele>
        <time>2014-05-08T08:04:29.839Z</time>
      </trkpt>
      <trkpt lat="48.34935" lon="2.73822">
        <ele>141</ele>
        <time>2014-05-08T08:04:34.833Z</time>
      </trkpt>
      <trkpt lat="48.34937" lon="2.73819">
        <ele>140</ele>
        <time>2014-05-08T08:04:35.819Z</time>
      </trkpt>
      <trkpt lat="48.34944" lon="2.73814">
        <ele>140</ele>
        <time>2014-05-08T08:04:40.843Z</time>
      </trkpt>
      <trkpt lat="48.34946" lon="2.73813">
        <ele>140</ele>
        <time>2014-05-08T08:04:41.832Z</time>
      </trkpt>
      <trkpt lat="48.34952" lon="2.7381">
        <ele>140</ele>
        <time>2014-05-08T08:04:43.857Z</time>
      </trkpt>
      <trkpt lat="48.34955" lon="2.73809">
        <ele>140</ele>
        <time>2014-05-08T08:04:44.819Z</time>
      </trkpt>
      <trkpt lat="48.34962" lon="2.73804">
        <ele>140</ele>
        <time>2014-05-08T08:04:48.839Z</time>
      </trkpt>
      <trkpt lat="48.34963" lon="2.73803">
        <ele>140</ele>
        <time>2014-05-08T08:04:49.833Z</time>
      </trkpt>
      <trkpt lat="48.3497" lon="2.73796">
        <ele>139</ele>
        <time>2014-05-08T08:04:53.840Z</time>
      </trkpt>
      <trkpt lat="48.34973" lon="2.73794">
        <ele>139</ele>
        <time>2014-05-08T08:04:54.818Z</time>
      </trkpt>
      <trkpt lat="48.34979" lon="2.7379">
        <ele>139</ele>
        <time>2014-05-08T08:04:56.827Z</time>
      </trkpt>
      <trkpt lat="48.34982" lon="2.73788">
        <ele>139</ele>
        <time>2014-05-08T08:04:57.820Z</time>
      </trkpt>
      <trkpt lat="48.34989" lon="2.73782">
        <ele>139</ele>
        <time>2014-05-08T08:05:00.840Z</time>
      </trkpt>
      <trkpt lat="48.34992" lon="2.7378">
        <ele>138</ele>
        <time>2014-05-08T08:05:01.834Z</time>
      </trkpt>
      <trkpt lat="48.34999" lon="2.73776">
        <ele>138</ele>
        <time>2014-05-08T08:05:04.825Z</time>
      </trkpt>
      <trkpt lat="48.35001" lon="2.73775">
        <ele>137</ele>
        <time>2014-05-08T08:05:05.836Z</time>
      </trkpt>
      <trkpt lat="48.35009" lon="2.73773">
        <ele>137</ele>
        <time>2014-05-08T08:05:08.860Z</time>
      </trkpt>
      <trkpt lat="48.35011" lon="2.73771">
        <ele>137</ele>
        <time>2014-05-08T08:05:09.836Z</time>
      </trkpt>
      <trkpt lat="48.35015" lon="2.73763">
        <ele>137</ele>
        <time>2014-05-08T08:05:12.837Z</time>
      </trkpt>
      <trkpt lat="48.35018" lon="2.73761">
        <ele>137</ele>
        <time>2014-05-08T08:05:13.841Z</time>
      </trkpt>
      <trkpt lat="48.35025" lon="2.73752">
        <ele>137</ele>
        <time>2014-05-08T08:05:16.868Z</time>
      </trkpt>
      <trkpt lat="48.35027" lon="2.7375">
        <ele>136</ele>
        <time>2014-05-08T08:05:17.831Z</time>
      </trkpt>
      <trkpt lat="48.35033" lon="2.73745">
        <ele>136</ele>
        <time>2014-05-08T08:05:20.844Z</time>
      </trkpt>
      <trkpt lat="48.35035" lon="2.73744">
        <ele>136</ele>
        <time>2014-05-08T08:05:21.825Z</time>
      </trkpt>
      <trkpt lat="48.35041" lon="2.73735">
        <ele>136</ele>
        <time>2014-05-08T08:05:25.847Z</time>
      </trkpt>
      <trkpt lat="48.35041" lon="2.73733">
        <ele>136</ele>
        <time>2014-05-08T08:05:26.826Z</time>
      </trkpt>
      <trkpt lat="48.35049" lon="2.73726">
        <ele>136</ele>
        <time>2014-05-08T08:05:30.859Z</time>
      </trkpt>
      <trkpt lat="48.35051" lon="2.73725">
        <ele>136</ele>
        <time>2014-05-08T08:05:31.837Z</time>
      </trkpt>
      <trkpt lat="48.35057" lon="2.7372">
        <ele>136</ele>
        <time>2014-05-08T08:05:33.850Z</time>
      </trkpt>
      <trkpt lat="48.35059" lon="2.73719">
        <ele>136</ele>
        <time>2014-05-08T08:05:34.840Z</time>
      </trkpt>
      <trkpt lat="48.35064" lon="2.73712">
        <ele>136</ele>
        <time>2014-05-08T08:05:37.850Z</time>
      </trkpt>
      <trkpt lat="48.35067" lon="2.73708">
        <ele>136</ele>
        <time>2014-05-08T08:05:38.823Z</time>
      </trkpt>
      <trkpt lat="48.35073" lon="2.73699">
        <ele>136</ele>
        <time>2014-05-08T08:05:41.831Z</time>
      </trkpt>
      <trkpt lat="48.35074" lon="2.73696">
        <ele>136</ele>
        <time>2014-05-08T08:05:42.830Z</time>
      </trkpt>
      <trkpt lat="48.35079" lon="2.73687">
        <ele>136</ele>
        <time>2014-05-08T08:05:45.853Z</time>
      </trkpt>
      <trkpt lat="48.3508" lon="2.73683">
        <ele>136</ele>
        <time>2014-05-08T08:05:46.840Z</time>
      </trkpt>
      <trkpt lat="48.35083" lon="2.73673">
        <ele>136</ele>
        <time>2014-05-08T08:05:49.865Z</time>
      </trkpt>
      <trkpt lat="48.35084" lon="2.7367">
        <ele>135</ele>
        <time>2014-05-08T08:05:50.836Z</time>
      </trkpt>
      <trkpt lat="48.35087" lon="2.7366">
        <ele>134</ele>
        <time>2014-05-08T08:05:53.843Z</time>
      </trkpt>
      <trkpt lat="48.35088" lon="2.73658">
        <ele>133</ele>
        <time>2014-05-08T08:05:54.847Z</time>
      </trkpt>
      <trkpt lat="48.35089" lon="2.73648">
        <ele>132</ele>
        <time>2014-05-08T08:05:56.830Z</time>
      </trkpt>
      <trkpt lat="48.3509" lon="2.73644">
        <ele>131</ele>
        <time>2014-05-08T08:05:57.824Z</time>
      </trkpt>
      <trkpt lat="48.35094" lon="2.73633">
        <ele>130</ele>
        <time>2014-05-08T08:06:01.816Z</time>
      </trkpt>
      <trkpt lat="48.35094" lon="2.73629">
        <ele>130</ele>
        <time>2014-05-08T08:06:02.803Z</time>
      </trkpt>
      <trkpt lat="48.35102" lon="2.73627">
        <ele>130</ele>
        <time>2014-05-08T08:06:07.804Z</time>
      </trkpt>
      <trkpt lat="48.35103" lon="2.73626">
        <ele>129</ele>
        <time>2014-05-08T08:06:08.821Z</time>
      </trkpt>
      <trkpt lat="48.35106" lon="2.73636">
        <ele>130</ele>
        <time>2014-05-08T08:06:13.849Z</time>
      </trkpt>
      <trkpt lat="48.35107" lon="2.73641">
        <ele>130</ele>
        <time>2014-05-08T08:06:14.824Z</time>
      </trkpt>
      <trkpt lat="48.35109" lon="2.73651">
        <ele>130</ele>
        <time>2014-05-08T08:06:17.829Z</time>
      </trkpt>
      <trkpt lat="48.35109" lon="2.73655">
        <ele>130</ele>
        <time>2014-05-08T08:06:18.822Z</time>
      </trkpt>
      <trkpt lat="48.3511" lon="2.73665">
        <ele>130</ele>
        <time>2014-05-08T08:06:22.825Z</time>
      </trkpt>
      <trkpt lat="48.3511" lon="2.73668">
        <ele>132</ele>
        <time>2014-05-08T08:06:23.824Z</time>
      </trkpt>
      <trkpt lat="48.35112" lon="2.7368">
        <ele>132</ele>
        <time>2014-05-08T08:06:26.850Z</time>
      </trkpt>
      <trkpt lat="48.35112" lon="2.73684">
        <ele>132</ele>
        <time>2014-05-08T08:06:27.830Z</time>
      </trkpt>
      <trkpt lat="48.35116" lon="2.73694">
        <ele>131</ele>
        <time>2014-05-08T08:06:30.833Z</time>
      </trkpt>
      <trkpt lat="48.35116" lon="2.73696">
        <ele>131</ele>
        <time>2014-05-08T08:06:31.850Z</time>
      </trkpt>
      <trkpt lat="48.35118" lon="2.73707">
        <ele>131</ele>
        <time>2014-05-08T08:06:34.834Z</time>
      </trkpt>
      <trkpt lat="48.35118" lon="2.7371">
        <ele>131</ele>
        <time>2014-05-08T08:06:35.818Z</time>
      </trkpt>
      <trkpt lat="48.35119" lon="2.73721">
        <ele>132</ele>
        <time>2014-05-08T08:06:38.849Z</time>
      </trkpt>
      <trkpt lat="48.3512" lon="2.73724">
        <ele>132</ele>
        <time>2014-05-08T08:06:39.822Z</time>
      </trkpt>
      <trkpt lat="48.35119" lon="2.73736">
        <ele>132</ele>
        <time>2014-05-08T08:06:43.849Z</time>
      </trkpt>
      <trkpt lat="48.35121" lon="2.73741">
        <ele>132</ele>
        <time>2014-05-08T08:06:44.828Z</time>
      </trkpt>
      <trkpt lat="48.35123" lon="2.73752">
        <ele>133</ele>
        <time>2014-05-08T08:06:47.824Z</time>
      </trkpt>
      <trkpt lat="48.35123" lon="2.7376">
        <ele>133</ele>
        <time>2014-05-08T08:06:49.841Z</time>
      </trkpt>
      <trkpt lat="48.35126" lon="2.73767">
        <ele>133</ele>
        <time>2014-05-08T08:06:51.841Z</time>
      </trkpt>
      <trkpt lat="48.35127" lon="2.73772">
        <ele>133</ele>
        <time>2014-05-08T08:06:52.837Z</time>
      </trkpt>
      <trkpt lat="48.35131" lon="2.73783">
        <ele>133</ele>
        <time>2014-05-08T08:06:56.821Z</time>
      </trkpt>
      <trkpt lat="48.35132" lon="2.73785">
        <ele>133</ele>
        <time>2014-05-08T08:06:57.823Z</time>
      </trkpt>
      <trkpt lat="48.35131" lon="2.73798">
        <ele>133</ele>
        <time>2014-05-08T08:07:02.861Z</time>
      </trkpt>
      <trkpt lat="48.35131" lon="2.738">
        <ele>133</ele>
        <time>2014-05-08T08:07:03.825Z</time>
      </trkpt>
      <trkpt lat="48.35132" lon="2.73812">
        <ele>133</ele>
        <time>2014-05-08T08:07:09.830Z</time>
      </trkpt>
      <trkpt lat="48.35131" lon="2.73815">
        <ele>133</ele>
        <time>2014-05-08T08:07:10.823Z</time>
      </trkpt>
      <trkpt lat="48.35133" lon="2.73824">
        <ele>133</ele>
        <time>2014-05-08T08:07:14.829Z</time>
      </trkpt>
      <trkpt lat="48.35133" lon="2.73829">
        <ele>133</ele>
        <time>2014-05-08T08:07:15.824Z</time>
      </trkpt>
      <trkpt lat="48.35135" lon="2.73842">
        <ele>134</ele>
        <time>2014-05-08T08:07:18.866Z</time>
      </trkpt>
      <trkpt lat="48.35136" lon="2.73846">
        <ele>134</ele>
        <time>2014-05-08T08:07:19.846Z</time>
      </trkpt>
      <trkpt lat="48.35137" lon="2.73857">
        <ele>134</ele>
        <time>2014-05-08T08:07:22.829Z</time>
      </trkpt>
      <trkpt lat="48.35137" lon="2.7386">
        <ele>134</ele>
        <time>2014-05-08T08:07:23.826Z</time>
      </trkpt>
      <trkpt lat="48.3514" lon="2.7387">
        <ele>135</ele>
        <time>2014-05-08T08:07:27.860Z</time>
      </trkpt>
      <trkpt lat="48.35141" lon="2.73873">
        <ele>135</ele>
        <time>2014-05-08T08:07:28.828Z</time>
      </trkpt>
      <trkpt lat="48.35142" lon="2.73886">
        <ele>135</ele>
        <time>2014-05-08T08:07:31.851Z</time>
      </trkpt>
      <trkpt lat="48.35143" lon="2.73891">
        <ele>135</ele>
        <time>2014-05-08T08:07:32.827Z</time>
      </trkpt>
      <trkpt lat="48.35147" lon="2.73903">
        <ele>135</ele>
        <time>2014-05-08T08:07:37.857Z</time>
      </trkpt>
      <trkpt lat="48.35148" lon="2.73906">
        <ele>135</ele>
        <time>2014-05-08T08:07:38.824Z</time>
      </trkpt>
      <trkpt lat="48.35149" lon="2.73917">
        <ele>135</ele>
        <time>2014-05-08T08:07:41.827Z</time>
      </trkpt>
      <trkpt lat="48.3515" lon="2.73921">
        <ele>135</ele>
        <time>2014-05-08T08:07:42.838Z</time>
      </trkpt>
      <trkpt lat="48.35153" lon="2.73933">
        <ele>136</ele>
        <time>2014-05-08T08:07:46.836Z</time>
      </trkpt>
      <trkpt lat="48.35153" lon="2.73936">
        <ele>136</ele>
        <time>2014-05-08T08:07:47.825Z</time>
      </trkpt>
      <trkpt lat="48.35153" lon="2.73948">
        <ele>136</ele>
        <time>2014-05-08T08:07:51.835Z</time>
      </trkpt>
      <trkpt lat="48.35153" lon="2.73951">
        <ele>136</ele>
        <time>2014-05-08T08:07:52.825Z</time>
      </trkpt>
      <trkpt lat="48.35154" lon="2.73962">
        <ele>136</ele>
        <time>2014-05-08T08:07:55.860Z</time>
      </trkpt>
      <trkpt lat="48.35153" lon="2.73966">
        <ele>136</ele>
        <time>2014-05-08T08:07:56.833Z</time>
      </trkpt>
      <trkpt lat="48.3515" lon="2.73975">
        <ele>136</ele>
        <time>2014-05-08T08:07:59.842Z</time>
      </trkpt>
      <trkpt lat="48.35149" lon="2.73979">
        <ele>136</ele>
        <time>2014-05-08T08:08:00.826Z</time>
      </trkpt>
      <trkpt lat="48.35148" lon="2.7399">
        <ele>136</ele>
        <time>2014-05-08T08:08:04.839Z</time>
      </trkpt>
      <trkpt lat="48.35148" lon="2.73993">
        <ele>136</ele>
        <time>2014-05-08T08:08:05.820Z</time>
      </trkpt>
      <trkpt lat="48.35146" lon="2.74005">
        <ele>137</ele>
        <time>2014-05-08T08:08:10.847Z</time>
      </trkpt>
      <trkpt lat="48.35147" lon="2.74008">
        <ele>137</ele>
        <time>2014-05-08T08:08:11.818Z</time>
      </trkpt>
      <trkpt lat="48.35149" lon="2.7402">
        <ele>137</ele>
        <time>2014-05-08T08:08:15.825Z</time>
      </trkpt>
      <trkpt lat="48.35149" lon="2.74021">
        <ele>137</ele>
        <time>2014-05-08T08:08:16.820Z</time>
      </trkpt>
      <trkpt lat="48.35153" lon="2.74032">
        <ele>137</ele>
        <time>2014-05-08T08:08:21.852Z</time>
      </trkpt>
      <trkpt lat="48.35156" lon="2.74033">
        <ele>137</ele>
        <time>2014-05-08T08:08:22.827Z</time>
      </trkpt>
      <trkpt lat="48.35161" lon="2.74038">
        <ele>137</ele>
        <time>2014-05-08T08:08:25.831Z</time>
      </trkpt>
      <trkpt lat="48.35163" lon="2.7404">
        <ele>137</ele>
        <time>2014-05-08T08:08:26.814Z</time>
      </trkpt>
      <trkpt lat="48.35169" lon="2.74046">
        <ele>136</ele>
        <time>2014-05-08T08:08:29.846Z</time>
      </trkpt>
      <trkpt lat="48.35171" lon="2.74048">
        <ele>136</ele>
        <time>2014-05-08T08:08:30.827Z</time>
      </trkpt>
      <trkpt lat="48.35178" lon="2.74056">
        <ele>136</ele>
        <time>2014-05-08T08:08:34.837Z</time>
      </trkpt>
      <trkpt lat="48.3518" lon="2.74057">
        <ele>136</ele>
        <time>2014-05-08T08:08:35.819Z</time>
      </trkpt>
      <trkpt lat="48.35186" lon="2.74065">
        <ele>137</ele>
        <time>2014-05-08T08:08:39.827Z</time>
      </trkpt>
      <trkpt lat="48.35188" lon="2.74067">
        <ele>137</ele>
        <time>2014-05-08T08:08:40.831Z</time>
      </trkpt>
      <trkpt lat="48.35194" lon="2.74074">
        <ele>137</ele>
        <time>2014-05-08T08:08:44.837Z</time>
      </trkpt>
      <trkpt lat="48.35196" lon="2.74076">
        <ele>137</ele>
        <time>2014-05-08T08:08:45.793Z</time>
      </trkpt>
      <trkpt lat="48.352" lon="2.74085">
        <ele>137</ele>
        <time>2014-05-08T08:08:48.812Z</time>
      </trkpt>
      <trkpt lat="48.35202" lon="2.74088">
        <ele>137</ele>
        <time>2014-05-08T08:08:49.868Z</time>
      </trkpt>
      <trkpt lat="48.35209" lon="2.74095">
        <ele>137</ele>
        <time>2014-05-08T08:08:52.846Z</time>
      </trkpt>
      <trkpt lat="48.3521" lon="2.74096">
        <ele>137</ele>
        <time>2014-05-08T08:08:53.828Z</time>
      </trkpt>
      <trkpt lat="48.35217" lon="2.741">
        <ele>137</ele>
        <time>2014-05-08T08:08:57.839Z</time>
      </trkpt>
      <trkpt lat="48.35219" lon="2.74102">
        <ele>137</ele>
        <time>2014-05-08T08:08:58.825Z</time>
      </trkpt>
      <trkpt lat="48.35226" lon="2.74106">
        <ele>137</ele>
        <time>2014-05-08T08:09:01.843Z</time>
      </trkpt>
      <trkpt lat="48.35228" lon="2.74106">
        <ele>137</ele>
        <time>2014-05-08T08:09:02.841Z</time>
      </trkpt>
      <trkpt lat="48.35235" lon="2.74112">
        <ele>138</ele>
        <time>2014-05-08T08:09:06.853Z</time>
      </trkpt>
      <trkpt lat="48.35237" lon="2.74113">
        <ele>138</ele>
        <time>2014-05-08T08:09:07.849Z</time>
      </trkpt>
      <trkpt lat="48.35244" lon="2.74118">
        <ele>138</ele>
        <time>2014-05-08T08:09:11.831Z</time>
      </trkpt>
      <trkpt lat="48.35247" lon="2.74119">
        <ele>138</ele>
        <time>2014-05-08T08:09:12.823Z</time>
      </trkpt>
      <trkpt lat="48.35253" lon="2.7412">
        <ele>137</ele>
        <time>2014-05-08T08:09:15.868Z</time>
      </trkpt>
      <trkpt lat="48.35256" lon="2.74118">
        <ele>137</ele>
        <time>2014-05-08T08:09:16.830Z</time>
      </trkpt>
      <trkpt lat="48.35264" lon="2.7412">
        <ele>137</ele>
        <time>2014-05-08T08:09:19.847Z</time>
      </trkpt>
      <trkpt lat="48.35266" lon="2.7412">
        <ele>137</ele>
        <time>2014-05-08T08:09:20.831Z</time>
      </trkpt>
      <trkpt lat="48.35273" lon="2.74126">
        <ele>137</ele>
        <time>2014-05-08T08:09:24.840Z</time>
      </trkpt>
      <trkpt lat="48.35274" lon="2.74129">
        <ele>137</ele>
        <time>2014-05-08T08:09:25.844Z</time>
      </trkpt>
      <trkpt lat="48.35278" lon="2.74136">
        <ele>137</ele>
        <time>2014-05-08T08:09:29.797Z</time>
      </trkpt>
      <trkpt lat="48.3528" lon="2.7414">
        <ele>137</ele>
        <time>2014-05-08T08:09:30.796Z</time>
      </trkpt>
      <trkpt lat="48.35284" lon="2.7415">
        <ele>137</ele>
        <time>2014-05-08T08:09:33.832Z</time>
      </trkpt>
      <trkpt lat="48.35286" lon="2.74153">
        <ele>137</ele>
        <time>2014-05-08T08:09:34.831Z</time>
      </trkpt>
      <trkpt lat="48.35292" lon="2.74162">
        <ele>137</ele>
        <time>2014-05-08T08:09:37.859Z</time>
      </trkpt>
      <trkpt lat="48.35293" lon="2.74164">
        <ele>137</ele>
        <time>2014-05-08T08:09:38.825Z</time>
      </trkpt>
      <trkpt lat="48.353" lon="2.7417">
        <ele>136</ele>
        <time>2014-05-08T08:09:45.835Z</time>
      </trkpt>
      <trkpt lat="48.35302" lon="2.74171">
        <ele>136</ele>
        <time>2014-05-08T08:09:46.837Z</time>
      </trkpt>
      <trkpt lat="48.35308" lon="2.74166">
        <ele>136</ele>
        <time>2014-05-08T08:09:49.865Z</time>
      </trkpt>
      <trkpt lat="48.3531" lon="2.74161">
        <ele>136</ele>
        <time>2014-05-08T08:09:50.831Z</time>
      </trkpt>
      <trkpt lat="48.35316" lon="2.74152">
        <ele>136</ele>
        <time>2014-05-08T08:09:54.829Z</time>
      </trkpt>
      <trkpt lat="48.35319" lon="2.74151">
        <ele>136</ele>
        <time>2014-05-08T08:09:55.846Z</time>
      </trkpt>
      <trkpt lat="48.35327" lon="2.7415">
        <ele>136</ele>
        <time>2014-05-08T08:09:58.830Z</time>
      </trkpt>
      <trkpt lat="48.3533" lon="2.7415">
        <ele>136</ele>
        <time>2014-05-08T08:09:59.824Z</time>
      </trkpt>
      <trkpt lat="48.35337" lon="2.74154">
        <ele>135</ele>
        <time>2014-05-08T08:10:02.836Z</time>
      </trkpt>
      <trkpt lat="48.35339" lon="2.74155">
        <ele>135</ele>
        <time>2014-05-08T08:10:03.827Z</time>
      </trkpt>
      <trkpt lat="48.35346" lon="2.74159">
        <ele>134</ele>
        <time>2014-05-08T08:10:07.877Z</time>
      </trkpt>
      <trkpt lat="48.35348" lon="2.74162">
        <ele>134</ele>
        <time>2014-05-08T08:10:08.809Z</time>
      </trkpt>
      <trkpt lat="48.35354" lon="2.74169">
        <ele>133</ele>
        <time>2014-05-08T08:10:12.843Z</time>
      </trkpt>
      <trkpt lat="48.35356" lon="2.74172">
        <ele>133</ele>
        <time>2014-05-08T08:10:13.847Z</time>
      </trkpt>
      <trkpt lat="48.35361" lon="2.74179">
        <ele>133</ele>
        <time>2014-05-08T08:10:17.850Z</time>
      </trkpt>
      <trkpt lat="48.35363" lon="2.74183">
        <ele>133</ele>
        <time>2014-05-08T08:10:18.828Z</time>
      </trkpt>
      <trkpt lat="48.35367" lon="2.74192">
        <ele>133</ele>
        <time>2014-05-08T08:10:22.853Z</time>
      </trkpt>
      <trkpt lat="48.35369" lon="2.74195">
        <ele>132</ele>
        <time>2014-05-08T08:10:23.825Z</time>
      </trkpt>
      <trkpt lat="48.35372" lon="2.74205">
        <ele>132</ele>
        <time>2014-05-08T08:10:26.836Z</time>
      </trkpt>
      <trkpt lat="48.35373" lon="2.74208">
        <ele>132</ele>
        <time>2014-05-08T08:10:27.822Z</time>
      </trkpt>
      <trkpt lat="48.35375" lon="2.74218">
        <ele>132</ele>
        <time>2014-05-08T08:10:30.845Z</time>
      </trkpt>
      <trkpt lat="48.35376" lon="2.7422">
        <ele>132</ele>
        <time>2014-05-08T08:10:31.845Z</time>
      </trkpt>
      <trkpt lat="48.35382" lon="2.74228">
        <ele>132</ele>
        <time>2014-05-08T08:10:34.846Z</time>
      </trkpt>
      <trkpt lat="48.35383" lon="2.7423">
        <ele>132</ele>
        <time>2014-05-08T08:10:35.825Z</time>
      </trkpt>
      <trkpt lat="48.35387" lon="2.74241">
        <ele>132</ele>
        <time>2014-05-08T08:10:39.837Z</time>
      </trkpt>
      <trkpt lat="48.3539" lon="2.74245">
        <ele>132</ele>
        <time>2014-05-08T08:10:40.829Z</time>
      </trkpt>
      <trkpt lat="48.35395" lon="2.74255">
        <ele>131</ele>
        <time>2014-05-08T08:10:45.848Z</time>
      </trkpt>
      <trkpt lat="48.35396" lon="2.74257">
        <ele>131</ele>
        <time>2014-05-08T08:10:46.797Z</time>
      </trkpt>
      <trkpt lat="48.35398" lon="2.74266">
        <ele>131</ele>
        <time>2014-05-08T08:10:48.830Z</time>
      </trkpt>
      <trkpt lat="48.35398" lon="2.74271">
        <ele>131</ele>
        <time>2014-05-08T08:10:49.842Z</time>
      </trkpt>
      <trkpt lat="48.35401" lon="2.74283">
        <ele>131</ele>
        <time>2014-05-08T08:10:51.829Z</time>
      </trkpt>
      <trkpt lat="48.35403" lon="2.7429">
        <ele>131</ele>
        <time>2014-05-08T08:10:52.827Z</time>
      </trkpt>
      <trkpt lat="48.35406" lon="2.743">
        <ele>131</ele>
        <time>2014-05-08T08:10:54.853Z</time>
      </trkpt>
      <trkpt lat="48.35407" lon="2.74308">
        <ele>131</ele>
        <time>2014-05-08T08:10:55.844Z</time>
      </trkpt>
      <trkpt lat="48.35409" lon="2.74315">
        <ele>131</ele>
        <time>2014-05-08T08:10:56.830Z</time>
      </trkpt>
      <trkpt lat="48.3541" lon="2.74322">
        <ele>131</ele>
        <time>2014-05-08T08:10:57.820Z</time>
      </trkpt>
      <trkpt lat="48.35411" lon="2.74333">
        <ele>132</ele>
        <time>2014-05-08T08:10:59.866Z</time>
      </trkpt>
      <trkpt lat="48.35411" lon="2.74337">
        <ele>131</ele>
        <time>2014-05-08T08:11:00.827Z</time>
      </trkpt>
      <trkpt lat="48.35412" lon="2.74347">
        <ele>131</ele>
        <time>2014-05-08T08:11:02.827Z</time>
      </trkpt>
      <trkpt lat="48.35411" lon="2.74352">
        <ele>131</ele>
        <time>2014-05-08T08:11:03.840Z</time>
      </trkpt>
      <trkpt lat="48.35409" lon="2.74363">
        <ele>131</ele>
        <time>2014-05-08T08:11:06.825Z</time>
      </trkpt>
      <trkpt lat="48.35407" lon="2.74366">
        <ele>131</ele>
        <time>2014-05-08T08:11:07.835Z</time>
      </trkpt>
      <trkpt lat="48.354" lon="2.74375">
        <ele>130</ele>
        <time>2014-05-08T08:11:10.832Z</time>
      </trkpt>
      <trkpt lat="48.35399" lon="2.74378">
        <ele>130</ele>
        <time>2014-05-08T08:11:11.829Z</time>
      </trkpt>
      <trkpt lat="48.35392" lon="2.74381">
        <ele>130</ele>
        <time>2014-05-08T08:11:14.832Z</time>
      </trkpt>
      <trkpt lat="48.35389" lon="2.7438">
        <ele>130</ele>
        <time>2014-05-08T08:11:15.835Z</time>
      </trkpt>
      <trkpt lat="48.35382" lon="2.74372">
        <ele>130</ele>
        <time>2014-05-08T08:11:19.850Z</time>
      </trkpt>
      <trkpt lat="48.35381" lon="2.74372">
        <ele>130</ele>
        <time>2014-05-08T08:11:20.826Z</time>
      </trkpt>
      <trkpt lat="48.35376" lon="2.74382">
        <ele>130</ele>
        <time>2014-05-08T08:11:27.818Z</time>
      </trkpt>
      <trkpt lat="48.35375" lon="2.74384">
        <ele>130</ele>
        <time>2014-05-08T08:11:28.823Z</time>
      </trkpt>
      <trkpt lat="48.35374" lon="2.74397">
        <ele>130</ele>
        <time>2014-05-08T08:11:36.830Z</time>
      </trkpt>
      <trkpt lat="48.35374" lon="2.74401">
        <ele>130</ele>
        <time>2014-05-08T08:11:37.834Z</time>
      </trkpt>
      <trkpt lat="48.35375" lon="2.74414">
        <ele>130</ele>
        <time>2014-05-08T08:11:40.839Z</time>
      </trkpt>
      <trkpt lat="48.35376" lon="2.74419">
        <ele>129</ele>
        <time>2014-05-08T08:11:41.821Z</time>
      </trkpt>
      <trkpt lat="48.35374" lon="2.74429">
        <ele>129</ele>
        <time>2014-05-08T08:11:44.854Z</time>
      </trkpt>
      <trkpt lat="48.35372" lon="2.74432">
        <ele>129</ele>
        <time>2014-05-08T08:11:45.806Z</time>
      </trkpt>
      <trkpt lat="48.35373" lon="2.74442">
        <ele>129</ele>
        <time>2014-05-08T08:11:47.821Z</time>
      </trkpt>
      <trkpt lat="48.35373" lon="2.74446">
        <ele>129</ele>
        <time>2014-05-08T08:11:48.817Z</time>
      </trkpt>
      <trkpt lat="48.3537" lon="2.74457">
        <ele>129</ele>
        <time>2014-05-08T08:11:52.822Z</time>
      </trkpt>
      <trkpt lat="48.35371" lon="2.74462">
        <ele>129</ele>
        <time>2014-05-08T08:11:53.818Z</time>
      </trkpt>
      <trkpt lat="48.35372" lon="2.74471">
        <ele>129</ele>
        <time>2014-05-08T08:11:56.844Z</time>
      </trkpt>
      <trkpt lat="48.35373" lon="2.74475">
        <ele>129</ele>
        <time>2014-05-08T08:11:57.818Z</time>
      </trkpt>
      <trkpt lat="48.35374" lon="2.74486">
        <ele>129</ele>
        <time>2014-05-08T08:12:01.846Z</time>
      </trkpt>
      <trkpt lat="48.35375" lon="2.7449">
        <ele>129</ele>
        <time>2014-05-08T08:12:02.809Z</time>
      </trkpt>
      <trkpt lat="48.35376" lon="2.745">
        <ele>130</ele>
        <time>2014-05-08T08:12:05.839Z</time>
      </trkpt>
      <trkpt lat="48.35376" lon="2.74504">
        <ele>130</ele>
        <time>2014-05-08T08:12:06.831Z</time>
      </trkpt>
      <trkpt lat="48.35379" lon="2.74514">
        <ele>130</ele>
        <time>2014-05-08T08:12:08.839Z</time>
      </trkpt>
      <trkpt lat="48.3538" lon="2.74519">
        <ele>130</ele>
        <time>2014-05-08T08:12:09.815Z</time>
      </trkpt>
      <trkpt lat="48.35383" lon="2.7453">
        <ele>130</ele>
        <time>2014-05-08T08:12:11.812Z</time>
      </trkpt>
      <trkpt lat="48.35385" lon="2.74535">
        <ele>130</ele>
        <time>2014-05-08T08:12:12.812Z</time>
      </trkpt>
      <trkpt lat="48.35386" lon="2.74546">
        <ele>130</ele>
        <time>2014-05-08T08:12:15.823Z</time>
      </trkpt>
      <trkpt lat="48.35386" lon="2.74549">
        <ele>130</ele>
        <time>2014-05-08T08:12:16.828Z</time>
      </trkpt>
      <trkpt lat="48.35384" lon="2.74559">
        <ele>130</ele>
        <time>2014-05-08T08:12:19.839Z</time>
      </trkpt>
      <trkpt lat="48.35384" lon="2.74563">
        <ele>130</ele>
        <time>2014-05-08T08:12:20.836Z</time>
      </trkpt>
      <trkpt lat="48.3538" lon="2.74574">
        <ele>130</ele>
        <time>2014-05-08T08:12:24.816Z</time>
      </trkpt>
      <trkpt lat="48.35379" lon="2.74577">
        <ele>130</ele>
        <time>2014-05-08T08:12:25.846Z</time>
      </trkpt>
      <trkpt lat="48.35377" lon="2.74586">
        <ele>130</ele>
        <time>2014-05-08T08:12:28.833Z</time>
      </trkpt>
      <trkpt lat="48.35375" lon="2.74589">
        <ele>130</ele>
        <time>2014-05-08T08:12:29.825Z</time>
      </trkpt>
      <trkpt lat="48.35375" lon="2.74601">
        <ele>130</ele>
        <time>2014-05-08T08:12:34.821Z</time>
      </trkpt>
      <trkpt lat="48.35375" lon="2.74603">
        <ele>130</ele>
        <time>2014-05-08T08:12:35.828Z</time>
      </trkpt>
      <trkpt lat="48.35374" lon="2.74614">
        <ele>130</ele>
        <time>2014-05-08T08:12:39.840Z</time>
      </trkpt>
      <trkpt lat="48.35374" lon="2.74618">
        <ele>130</ele>
        <time>2014-05-08T08:12:40.841Z</time>
      </trkpt>
      <trkpt lat="48.35372" lon="2.74629">
        <ele>130</ele>
        <time>2014-05-08T08:12:44.805Z</time>
      </trkpt>
      <trkpt lat="48.35372" lon="2.74633">
        <ele>130</ele>
        <time>2014-05-08T08:12:45.796Z</time>
      </trkpt>
      <trkpt lat="48.35371" lon="2.74644">
        <ele>130</ele>
        <time>2014-05-08T08:12:50.824Z</time>
      </trkpt>
      <trkpt lat="48.35371" lon="2.74647">
        <ele>130</ele>
        <time>2014-05-08T08:12:51.810Z</time>
      </trkpt>
      <trkpt lat="48.35371" lon="2.74653">
        <ele>130</ele>
        <time>2014-05-08T08:12:53.836Z</time>
      </trkpt>
      <trkpt lat="48.35373" lon="2.7466">
        <ele>130</ele>
        <time>2014-05-08T08:12:55.843Z</time>
      </trkpt>
      <trkpt lat="48.35376" lon="2.74671">
        <ele>131</ele>
        <time>2014-05-08T08:12:58.836Z</time>
      </trkpt>
      <trkpt lat="48.35376" lon="2.74676">
        <ele>131</ele>
        <time>2014-05-08T08:12:59.824Z</time>
      </trkpt>
      <trkpt lat="48.35375" lon="2.74685">
        <ele>131</ele>
        <time>2014-05-08T08:13:02.830Z</time>
      </trkpt>
      <trkpt lat="48.35375" lon="2.7469">
        <ele>131</ele>
        <time>2014-05-08T08:13:03.823Z</time>
      </trkpt>
      <trkpt lat="48.35373" lon="2.747">
        <ele>131</ele>
        <time>2014-05-08T08:13:06.832Z</time>
      </trkpt>
      <trkpt lat="48.35373" lon="2.74703">
        <ele>131</ele>
        <time>2014-05-08T08:13:07.844Z</time>
      </trkpt>
      <trkpt lat="48.35373" lon="2.74716">
        <ele>131</ele>
        <time>2014-05-08T08:13:12.858Z</time>
      </trkpt>
      <trkpt lat="48.35373" lon="2.74719">
        <ele>131</ele>
        <time>2014-05-08T08:13:13.841Z</time>
      </trkpt>
      <trkpt lat="48.35373" lon="2.74731">
        <ele>131</ele>
        <time>2014-05-08T08:13:17.852Z</time>
      </trkpt>
      <trkpt lat="48.35374" lon="2.74736">
        <ele>131</ele>
        <time>2014-05-08T08:13:18.839Z</time>
      </trkpt>
      <trkpt lat="48.35375" lon="2.74747">
        <ele>131</ele>
        <time>2014-05-08T08:13:22.904Z</time>
      </trkpt>
      <trkpt lat="48.35377" lon="2.74751">
        <ele>132</ele>
        <time>2014-05-08T08:13:23.818Z</time>
      </trkpt>
      <trkpt lat="48.35381" lon="2.7476">
        <ele>131</ele>
        <time>2014-05-08T08:13:26.847Z</time>
      </trkpt>
      <trkpt lat="48.35381" lon="2.74764">
        <ele>131</ele>
        <time>2014-05-08T08:13:27.813Z</time>
      </trkpt>
      <trkpt lat="48.35383" lon="2.74775">
        <ele>131</ele>
        <time>2014-05-08T08:13:30.857Z</time>
      </trkpt>
      <trkpt lat="48.35383" lon="2.74777">
        <ele>131</ele>
        <time>2014-05-08T08:13:31.837Z</time>
      </trkpt>
      <trkpt lat="48.35386" lon="2.74788">
        <ele>131</ele>
        <time>2014-05-08T08:13:35.873Z</time>
      </trkpt>
      <trkpt lat="48.35387" lon="2.74791">
        <ele>131</ele>
        <time>2014-05-08T08:13:36.806Z</time>
      </trkpt>
      <trkpt lat="48.35391" lon="2.74802">
        <ele>131</ele>
        <time>2014-05-08T08:13:40.852Z</time>
      </trkpt>
      <trkpt lat="48.35392" lon="2.74804">
        <ele>131</ele>
        <time>2014-05-08T08:13:41.815Z</time>
      </trkpt>
      <trkpt lat="48.35397" lon="2.74813">
        <ele>131</ele>
        <time>2014-05-08T08:13:46.153Z</time>
      </trkpt>
      <trkpt lat="48.35398" lon="2.74816">
        <ele>131</ele>
        <time>2014-05-08T08:13:47.123Z</time>
      </trkpt>
      <trkpt lat="48.35401" lon="2.74827">
        <ele>131</ele>
        <time>2014-05-08T08:13:51.127Z</time>
      </trkpt>
      <trkpt lat="48.35402" lon="2.74829">
        <ele>131</ele>
        <time>2014-05-08T08:13:52.123Z</time>
      </trkpt>
      <trkpt lat="48.35406" lon="2.74838">
        <ele>129</ele>
        <time>2014-05-08T08:13:56.163Z</time>
      </trkpt>
      <trkpt lat="48.35408" lon="2.7484">
        <ele>129</ele>
        <time>2014-05-08T08:13:57.120Z</time>
      </trkpt>
      <trkpt lat="48.35411" lon="2.74851">
        <ele>129</ele>
        <time>2014-05-08T08:14:01.129Z</time>
      </trkpt>
      <trkpt lat="48.35412" lon="2.74855">
        <ele>128</ele>
        <time>2014-05-08T08:14:02.127Z</time>
      </trkpt>
      <trkpt lat="48.35411" lon="2.74865">
        <ele>128</ele>
        <time>2014-05-08T08:14:05.118Z</time>
      </trkpt>
      <trkpt lat="48.35412" lon="2.74869">
        <ele>128</ele>
        <time>2014-05-08T08:14:06.117Z</time>
      </trkpt>
      <trkpt lat="48.35414" lon="2.7488">
        <ele>127</ele>
        <time>2014-05-08T08:14:10.144Z</time>
      </trkpt>
      <trkpt lat="48.35416" lon="2.74884">
        <ele>127</ele>
        <time>2014-05-08T08:14:11.117Z</time>
      </trkpt>
      <trkpt lat="48.3542" lon="2.74895">
        <ele>125</ele>
        <time>2014-05-08T08:14:14.139Z</time>
      </trkpt>
      <trkpt lat="48.3542" lon="2.74899">
        <ele>125</ele>
        <time>2014-05-08T08:14:15.132Z</time>
      </trkpt>
      <trkpt lat="48.35424" lon="2.7491">
        <ele>124</ele>
        <time>2014-05-08T08:14:19.122Z</time>
      </trkpt>
      <trkpt lat="48.35425" lon="2.74913">
        <ele>124</ele>
        <time>2014-05-08T08:14:20.145Z</time>
      </trkpt>
      <trkpt lat="48.3543" lon="2.74921">
        <ele>122</ele>
        <time>2014-05-08T08:14:23.163Z</time>
      </trkpt>
      <trkpt lat="48.35432" lon="2.74923">
        <ele>122</ele>
        <time>2014-05-08T08:14:24.121Z</time>
      </trkpt>
      <trkpt lat="48.35439" lon="2.74932">
        <ele>122</ele>
        <time>2014-05-08T08:14:27.136Z</time>
      </trkpt>
      <trkpt lat="48.3544" lon="2.74934">
        <ele>122</ele>
        <time>2014-05-08T08:14:28.124Z</time>
      </trkpt>
      <trkpt lat="48.35446" lon="2.74941">
        <ele>121</ele>
        <time>2014-05-08T08:14:33.158Z</time>
      </trkpt>
      <trkpt lat="48.35448" lon="2.74944">
        <ele>121</ele>
        <time>2014-05-08T08:14:34.137Z</time>
      </trkpt>
      <trkpt lat="48.35454" lon="2.74951">
        <ele>121</ele>
        <time>2014-05-08T08:14:37.136Z</time>
      </trkpt>
      <trkpt lat="48.35456" lon="2.74954">
        <ele>121</ele>
        <time>2014-05-08T08:14:38.167Z</time>
      </trkpt>
      <trkpt lat="48.3546" lon="2.74963">
        <ele>121</ele>
        <time>2014-05-08T08:14:41.146Z</time>
      </trkpt>
      <trkpt lat="48.35462" lon="2.74966">
        <ele>121</ele>
        <time>2014-05-08T08:14:42.136Z</time>
      </trkpt>
      <trkpt lat="48.35467" lon="2.74973">
        <ele>120</ele>
        <time>2014-05-08T08:14:46.131Z</time>
      </trkpt>
      <trkpt lat="48.35469" lon="2.74975">
        <ele>120</ele>
        <time>2014-05-08T08:14:47.126Z</time>
      </trkpt>
      <trkpt lat="48.35477" lon="2.74981">
        <ele>120</ele>
        <time>2014-05-08T08:14:52.143Z</time>
      </trkpt>
      <trkpt lat="48.35478" lon="2.74982">
        <ele>120</ele>
        <time>2014-05-08T08:14:53.132Z</time>
      </trkpt>
      <trkpt lat="48.35486" lon="2.74987">
        <ele>119</ele>
        <time>2014-05-08T08:14:56.158Z</time>
      </trkpt>
      <trkpt lat="48.35488" lon="2.74989">
        <ele>119</ele>
        <time>2014-05-08T08:14:57.138Z</time>
      </trkpt>
      <trkpt lat="48.35494" lon="2.74995">
        <ele>119</ele>
        <time>2014-05-08T08:15:00.147Z</time>
      </trkpt>
      <trkpt lat="48.35496" lon="2.74998">
        <ele>119</ele>
        <time>2014-05-08T08:15:01.134Z</time>
      </trkpt>
      <trkpt lat="48.35501" lon="2.75006">
        <ele>117</ele>
        <time>2014-05-08T08:15:04.132Z</time>
      </trkpt>
      <trkpt lat="48.35502" lon="2.75008">
        <ele>116</ele>
        <time>2014-05-08T08:15:05.137Z</time>
      </trkpt>
      <trkpt lat="48.35507" lon="2.75017">
        <ele>115</ele>
        <time>2014-05-08T08:15:09.131Z</time>
      </trkpt>
      <trkpt lat="48.3551" lon="2.7502">
        <ele>115</ele>
        <time>2014-05-08T08:15:10.135Z</time>
      </trkpt>
      <trkpt lat="48.35516" lon="2.75026">
        <ele>114</ele>
        <time>2014-05-08T08:15:13.133Z</time>
      </trkpt>
      <trkpt lat="48.35517" lon="2.75029">
        <ele>114</ele>
        <time>2014-05-08T08:15:14.149Z</time>
      </trkpt>
      <trkpt lat="48.35521" lon="2.75037">
        <ele>114</ele>
        <time>2014-05-08T08:15:17.129Z</time>
      </trkpt>
      <trkpt lat="48.35522" lon="2.75041">
        <ele>114</ele>
        <time>2014-05-08T08:15:18.108Z</time>
      </trkpt>
      <trkpt lat="48.35525" lon="2.7505">
        <ele>114</ele>
        <time>2014-05-08T08:15:21.124Z</time>
      </trkpt>
      <trkpt lat="48.35528" lon="2.75053">
        <ele>113</ele>
        <time>2014-05-08T08:15:22.119Z</time>
      </trkpt>
      <trkpt lat="48.35532" lon="2.75064">
        <ele>113</ele>
        <time>2014-05-08T08:15:26.159Z</time>
      </trkpt>
      <trkpt lat="48.35533" lon="2.75066">
        <ele>113</ele>
        <time>2014-05-08T08:15:27.126Z</time>
      </trkpt>
      <trkpt lat="48.35535" lon="2.75077">
        <ele>113</ele>
        <time>2014-05-08T08:15:30.143Z</time>
      </trkpt>
      <trkpt lat="48.35536" lon="2.75079">
        <ele>113</ele>
        <time>2014-05-08T08:15:31.129Z</time>
      </trkpt>
      <trkpt lat="48.35542" lon="2.75089">
        <ele>112</ele>
        <time>2014-05-08T08:15:35.136Z</time>
      </trkpt>
      <trkpt lat="48.35544" lon="2.75091">
        <ele>112</ele>
        <time>2014-05-08T08:15:36.143Z</time>
      </trkpt>
      <trkpt lat="48.35551" lon="2.75098">
        <ele>111</ele>
        <time>2014-05-08T08:15:39.120Z</time>
      </trkpt>
      <trkpt lat="48.35553" lon="2.751">
        <ele>111</ele>
        <time>2014-05-08T08:15:40.130Z</time>
      </trkpt>
      <trkpt lat="48.35561" lon="2.75104">
        <ele>110</ele>
        <time>2014-05-08T08:15:43.141Z</time>
      </trkpt>
      <trkpt lat="48.35564" lon="2.75106">
        <ele>110</ele>
        <time>2014-05-08T08:15:44.152Z</time>
      </trkpt>
      <trkpt lat="48.35571" lon="2.75109">
        <ele>110</ele>
        <time>2014-05-08T08:15:47.143Z</time>
      </trkpt>
      <trkpt lat="48.35573" lon="2.75111">
        <ele>110</ele>
        <time>2014-05-08T08:15:48.122Z</time>
      </trkpt>
      <trkpt lat="48.35581" lon="2.75113">
        <ele>109</ele>
        <time>2014-05-08T08:15:53.139Z</time>
      </trkpt>
      <trkpt lat="48.35582" lon="2.75115">
        <ele>109</ele>
        <time>2014-05-08T08:15:54.123Z</time>
      </trkpt>
      <trkpt lat="48.3559" lon="2.75119">
        <ele>103</ele>
        <time>2014-05-08T08:15:58.126Z</time>
      </trkpt>
      <trkpt lat="48.35592" lon="2.7512">
        <ele>103</ele>
        <time>2014-05-08T08:15:59.118Z</time>
      </trkpt>
      <trkpt lat="48.35599" lon="2.75126">
        <ele>102</ele>
        <time>2014-05-08T08:16:03.130Z</time>
      </trkpt>
      <trkpt lat="48.35601" lon="2.75126">
        <ele>102</ele>
        <time>2014-05-08T08:16:04.124Z</time>
      </trkpt>
      <trkpt lat="48.35609" lon="2.75128">
        <ele>102</ele>
        <time>2014-05-08T08:16:08.143Z</time>
      </trkpt>
      <trkpt lat="48.35612" lon="2.7513">
        <ele>102</ele>
        <time>2014-05-08T08:16:09.119Z</time>
      </trkpt>
      <trkpt lat="48.35621" lon="2.75132">
        <ele>101</ele>
        <time>2014-05-08T08:16:12.133Z</time>
      </trkpt>
      <trkpt lat="48.35623" lon="2.75133">
        <ele>101</ele>
        <time>2014-05-08T08:16:13.121Z</time>
      </trkpt>
      <trkpt lat="48.35629" lon="2.75138">
        <ele>101</ele>
        <time>2014-05-08T08:16:16.139Z</time>
      </trkpt>
      <trkpt lat="48.35632" lon="2.75141">
        <ele>101</ele>
        <time>2014-05-08T08:16:17.122Z</time>
      </trkpt>
      <trkpt lat="48.35639" lon="2.75146">
        <ele>100</ele>
        <time>2014-05-08T08:16:20.146Z</time>
      </trkpt>
      <trkpt lat="48.35643" lon="2.75148">
        <ele>100</ele>
        <time>2014-05-08T08:16:21.136Z</time>
      </trkpt>
      <trkpt lat="48.35651" lon="2.75152">
        <ele>99</ele>
        <time>2014-05-08T08:16:25.125Z</time>
      </trkpt>
      <trkpt lat="48.35652" lon="2.75153">
        <ele>99</ele>
        <time>2014-05-08T08:16:26.129Z</time>
      </trkpt>
      <trkpt lat="48.35659" lon="2.75159">
        <ele>99</ele>
        <time>2014-05-08T08:16:30.115Z</time>
      </trkpt>
      <trkpt lat="48.35661" lon="2.7516">
        <ele>98</ele>
        <time>2014-05-08T08:16:31.113Z</time>
      </trkpt>
      <trkpt lat="48.3567" lon="2.75165">
        <ele>97</ele>
        <time>2014-05-08T08:16:35.124Z</time>
      </trkpt>
      <trkpt lat="48.35672" lon="2.75167">
        <ele>97</ele>
        <time>2014-05-08T08:16:36.129Z</time>
      </trkpt>
      <trkpt lat="48.35679" lon="2.75175">
        <ele>97</ele>
        <time>2014-05-08T08:16:41.143Z</time>
      </trkpt>
      <trkpt lat="48.35681" lon="2.75176">
        <ele>97</ele>
        <time>2014-05-08T08:16:42.130Z</time>
      </trkpt>
      <trkpt lat="48.35688" lon="2.75183">
        <ele>97</ele>
        <time>2014-05-08T08:16:47.129Z</time>
      </trkpt>
      <trkpt lat="48.3569" lon="2.75182">
        <ele>97</ele>
        <time>2014-05-08T08:16:48.152Z</time>
      </trkpt>
      <trkpt lat="48.35699" lon="2.75184">
        <ele>97</ele>
        <time>2014-05-08T08:16:54.140Z</time>
      </trkpt>
      <trkpt lat="48.357" lon="2.75183">
        <ele>97</ele>
        <time>2014-05-08T08:16:55.118Z</time>
      </trkpt>
      <trkpt lat="48.35706" lon="2.75176">
        <ele>97</ele>
        <time>2014-05-08T08:17:00.174Z</time>
      </trkpt>
      <trkpt lat="48.35708" lon="2.75176">
        <ele>97</ele>
        <time>2014-05-08T08:17:01.173Z</time>
      </trkpt>
      <trkpt lat="48.35715" lon="2.7517">
        <ele>97</ele>
        <time>2014-05-08T08:17:04.179Z</time>
      </trkpt>
      <trkpt lat="48.35717" lon="2.75168">
        <ele>97</ele>
        <time>2014-05-08T08:17:05.170Z</time>
      </trkpt>
      <trkpt lat="48.35725" lon="2.75164">
        <ele>97</ele>
        <time>2014-05-08T08:17:09.185Z</time>
      </trkpt>
      <trkpt lat="48.35727" lon="2.75164">
        <ele>97</ele>
        <time>2014-05-08T08:17:10.176Z</time>
      </trkpt>
      <trkpt lat="48.35733" lon="2.75155">
        <ele>97</ele>
        <time>2014-05-08T08:17:16.179Z</time>
      </trkpt>
      <trkpt lat="48.35735" lon="2.75154">
        <ele>97</ele>
        <time>2014-05-08T08:17:17.166Z</time>
      </trkpt>
      <trkpt lat="48.35741" lon="2.75144">
        <ele>97</ele>
        <time>2014-05-08T08:17:22.189Z</time>
      </trkpt>
      <trkpt lat="48.35743" lon="2.75143">
        <ele>97</ele>
        <time>2014-05-08T08:17:23.184Z</time>
      </trkpt>
      <trkpt lat="48.35749" lon="2.75137">
        <ele>97</ele>
        <time>2014-05-08T08:17:26.215Z</time>
      </trkpt>
      <trkpt lat="48.35751" lon="2.75135">
        <ele>97</ele>
        <time>2014-05-08T08:17:27.162Z</time>
      </trkpt>
      <trkpt lat="48.35757" lon="2.75127">
        <ele>97</ele>
        <time>2014-05-08T08:17:31.163Z</time>
      </trkpt>
      <trkpt lat="48.35758" lon="2.75125">
        <ele>97</ele>
        <time>2014-05-08T08:17:32.178Z</time>
      </trkpt>
      <trkpt lat="48.35765" lon="2.75119">
        <ele>97</ele>
        <time>2014-05-08T08:17:35.198Z</time>
      </trkpt>
      <trkpt lat="48.35768" lon="2.75118">
        <ele>97</ele>
        <time>2014-05-08T08:17:36.177Z</time>
      </trkpt>
      <trkpt lat="48.35774" lon="2.75111">
        <ele>97</ele>
        <time>2014-05-08T08:17:40.183Z</time>
      </trkpt>
      <trkpt lat="48.35775" lon="2.75108">
        <ele>97</ele>
        <time>2014-05-08T08:17:41.174Z</time>
      </trkpt>
      <trkpt lat="48.35782" lon="2.75104">
        <ele>97</ele>
        <time>2014-05-08T08:17:45.186Z</time>
      </trkpt>
      <trkpt lat="48.35785" lon="2.75104">
        <ele>97</ele>
        <time>2014-05-08T08:17:46.187Z</time>
      </trkpt>
      <trkpt lat="48.35793" lon="2.751">
        <ele>97</ele>
        <time>2014-05-08T08:17:50.196Z</time>
      </trkpt>
      <trkpt lat="48.35795" lon="2.75099">
        <ele>97</ele>
        <time>2014-05-08T08:17:51.186Z</time>
      </trkpt>
      <trkpt lat="48.35801" lon="2.7509">
        <ele>97</ele>
        <time>2014-05-08T08:17:56.209Z</time>
      </trkpt>
      <trkpt lat="48.35802" lon="2.75088">
        <ele>97</ele>
        <time>2014-05-08T08:17:57.183Z</time>
      </trkpt>
      <trkpt lat="48.35809" lon="2.75084">
        <ele>97</ele>
        <time>2014-05-08T08:18:02.203Z</time>
      </trkpt>
      <trkpt lat="48.35811" lon="2.75082">
        <ele>97</ele>
        <time>2014-05-08T08:18:03.192Z</time>
      </trkpt>
      <trkpt lat="48.35819" lon="2.75077">
        <ele>97</ele>
        <time>2014-05-08T08:18:06.185Z</time>
      </trkpt>
      <trkpt lat="48.35822" lon="2.75077">
        <ele>97</ele>
        <time>2014-05-08T08:18:07.185Z</time>
      </trkpt>
      <trkpt lat="48.35828" lon="2.75073">
        <ele>98</ele>
        <time>2014-05-08T08:18:10.209Z</time>
      </trkpt>
      <trkpt lat="48.3583" lon="2.75071">
        <ele>98</ele>
        <time>2014-05-08T08:18:11.191Z</time>
      </trkpt>
      <trkpt lat="48.35838" lon="2.75067">
        <ele>98</ele>
        <time>2014-05-08T08:18:14.223Z</time>
      </trkpt>
      <trkpt lat="48.3584" lon="2.75066">
        <ele>98</ele>
        <time>2014-05-08T08:18:15.179Z</time>
      </trkpt>
      <trkpt lat="48.35848" lon="2.7506">
        <ele>98</ele>
        <time>2014-05-08T08:18:18.194Z</time>
      </trkpt>
      <trkpt lat="48.35849" lon="2.75059">
        <ele>98</ele>
        <time>2014-05-08T08:18:19.166Z</time>
      </trkpt>
      <trkpt lat="48.35856" lon="2.75052">
        <ele>98</ele>
        <time>2014-05-08T08:18:23.192Z</time>
      </trkpt>
      <trkpt lat="48.35858" lon="2.7505">
        <ele>98</ele>
        <time>2014-05-08T08:18:24.181Z</time>
      </trkpt>
      <trkpt lat="48.35865" lon="2.75048">
        <ele>98</ele>
        <time>2014-05-08T08:18:27.185Z</time>
      </trkpt>
      <trkpt lat="48.35867" lon="2.75046">
        <ele>98</ele>
        <time>2014-05-08T08:18:28.191Z</time>
      </trkpt>
      <trkpt lat="48.35874" lon="2.75043">
        <ele>98</ele>
        <time>2014-05-08T08:18:31.210Z</time>
      </trkpt>
      <trkpt lat="48.35876" lon="2.75041">
        <ele>98</ele>
        <time>2014-05-08T08:18:32.191Z</time>
      </trkpt>
      <trkpt lat="48.35882" lon="2.75034">
        <ele>98</ele>
        <time>2014-05-08T08:18:35.187Z</time>
      </trkpt>
      <trkpt lat="48.35884" lon="2.75031">
        <ele>98</ele>
        <time>2014-05-08T08:18:36.172Z</time>
      </trkpt>
      <trkpt lat="48.35891" lon="2.75023">
        <ele>98</ele>
        <time>2014-05-08T08:18:42.185Z</time>
      </trkpt>
      <trkpt lat="48.35891" lon="2.75022">
        <ele>98</ele>
        <time>2014-05-08T08:18:43.178Z</time>
      </trkpt>
      <trkpt lat="48.35889" lon="2.75013">
        <ele>98</ele>
        <time>2014-05-08T08:18:47.196Z</time>
      </trkpt>
      <trkpt lat="48.35888" lon="2.75009">
        <ele>98</ele>
        <time>2014-05-08T08:18:48.192Z</time>
      </trkpt>
      <trkpt lat="48.35885" lon="2.74997">
        <ele>98</ele>
        <time>2014-05-08T08:18:52.204Z</time>
      </trkpt>
      <trkpt lat="48.35885" lon="2.74994">
        <ele>98</ele>
        <time>2014-05-08T08:18:53.176Z</time>
      </trkpt>
      <trkpt lat="48.35889" lon="2.74982">
        <ele>98</ele>
        <time>2014-05-08T08:18:59.189Z</time>
      </trkpt>
      <trkpt lat="48.35888" lon="2.7498">
        <ele>98</ele>
        <time>2014-05-08T08:19:00.154Z</time>
      </trkpt>
      <trkpt lat="48.35889" lon="2.7497">
        <ele>98</ele>
        <time>2014-05-08T08:19:04.182Z</time>
      </trkpt>
      <trkpt lat="48.35889" lon="2.74966">
        <ele>98</ele>
        <time>2014-05-08T08:19:05.173Z</time>
      </trkpt>
      <trkpt lat="48.3589" lon="2.74956">
        <ele>98</ele>
        <time>2014-05-08T08:19:08.206Z</time>
      </trkpt>
      <trkpt lat="48.35889" lon="2.74952">
        <ele>98</ele>
        <time>2014-05-08T08:19:09.195Z</time>
      </trkpt>
      <trkpt lat="48.35891" lon="2.74941">
        <ele>98</ele>
        <time>2014-05-08T08:19:12.181Z</time>
      </trkpt>
      <trkpt lat="48.35892" lon="2.74939">
        <ele>98</ele>
        <time>2014-05-08T08:19:13.172Z</time>
      </trkpt>
      <trkpt lat="48.35893" lon="2.74928">
        <ele>98</ele>
        <time>2014-05-08T08:19:16.202Z</time>
      </trkpt>
      <trkpt lat="48.35892" lon="2.74924">
        <ele>98</ele>
        <time>2014-05-08T08:19:17.172Z</time>
      </trkpt>
      <trkpt lat="48.35889" lon="2.74912">
        <ele>99</ele>
        <time>2014-05-08T08:19:20.221Z</time>
      </trkpt>
      <trkpt lat="48.35888" lon="2.74908">
        <ele>99</ele>
        <time>2014-05-08T08:19:21.174Z</time>
      </trkpt>
      <trkpt lat="48.35889" lon="2.74897">
        <ele>99</ele>
        <time>2014-05-08T08:19:24.182Z</time>
      </trkpt>
      <trkpt lat="48.3589" lon="2.74893">
        <ele>99</ele>
        <time>2014-05-08T08:19:25.173Z</time>
      </trkpt>
      <trkpt lat="48.35891" lon="2.7488">
        <ele>99</ele>
        <time>2014-05-08T08:19:30.185Z</time>
      </trkpt>
      <trkpt lat="48.35892" lon="2.74879">
        <ele>99</ele>
        <time>2014-05-08T08:19:31.186Z</time>
      </trkpt>
      <trkpt lat="48.35888" lon="2.74868">
        <ele>99</ele>
        <time>2014-05-08T08:19:34.178Z</time>
      </trkpt>
      <trkpt lat="48.35887" lon="2.74864">
        <ele>100</ele>
        <time>2014-05-08T08:19:35.176Z</time>
      </trkpt>
      <trkpt lat="48.35884" lon="2.74857">
        <ele>100</ele>
        <time>2014-05-08T08:19:37.191Z</time>
      </trkpt>
      <trkpt lat="48.35881" lon="2.74853">
        <ele>100</ele>
        <time>2014-05-08T08:19:38.210Z</time>
      </trkpt>
      <trkpt lat="48.35881" lon="2.7484">
        <ele>100</ele>
        <time>2014-05-08T08:19:44.193Z</time>
      </trkpt>
      <trkpt lat="48.35882" lon="2.74836">
        <ele>100</ele>
        <time>2014-05-08T08:19:45.156Z</time>
      </trkpt>
      <trkpt lat="48.35882" lon="2.74827">
        <ele>102</ele>
        <time>2014-05-08T08:19:51.188Z</time>
      </trkpt>
      <trkpt lat="48.35883" lon="2.74823">
        <ele>102</ele>
        <time>2014-05-08T08:19:52.186Z</time>
      </trkpt>
      <trkpt lat="48.35885" lon="2.74811">
        <ele>102</ele>
        <time>2014-05-08T08:19:56.211Z</time>
      </trkpt>
      <trkpt lat="48.35886" lon="2.74807">
        <ele>103</ele>
        <time>2014-05-08T08:19:57.178Z</time>
      </trkpt>
      <trkpt lat="48.3588" lon="2.74796">
        <ele>103</ele>
        <time>2014-05-08T08:20:00.173Z</time>
      </trkpt>
      <trkpt lat="48.3588" lon="2.74792">
        <ele>103</ele>
        <time>2014-05-08T08:20:01.171Z</time>
      </trkpt>
      <trkpt lat="48.3588" lon="2.74779">
        <ele>103</ele>
        <time>2014-05-08T08:20:05.185Z</time>
      </trkpt>
      <trkpt lat="48.35879" lon="2.74776">
        <ele>103</ele>
        <time>2014-05-08T08:20:06.177Z</time>
      </trkpt>
      <trkpt lat="48.35875" lon="2.74764">
        <ele>103</ele>
        <time>2014-05-08T08:20:10.178Z</time>
      </trkpt>
      <trkpt lat="48.35875" lon="2.74761">
        <ele>103</ele>
        <time>2014-05-08T08:20:11.188Z</time>
      </trkpt>
      <trkpt lat="48.35877" lon="2.74749">
        <ele>106</ele>
        <time>2014-05-08T08:20:15.180Z</time>
      </trkpt>
      <trkpt lat="48.35878" lon="2.74747">
        <ele>106</ele>
        <time>2014-05-08T08:20:16.176Z</time>
      </trkpt>
      <trkpt lat="48.35885" lon="2.74738">
        <ele>107</ele>
        <time>2014-05-08T08:20:21.196Z</time>
      </trkpt>
      <trkpt lat="48.35885" lon="2.74735">
        <ele>107</ele>
        <time>2014-05-08T08:20:22.189Z</time>
      </trkpt>
      <trkpt lat="48.35883" lon="2.74726">
        <ele>107</ele>
        <time>2014-05-08T08:20:25.192Z</time>
      </trkpt>
      <trkpt lat="48.35882" lon="2.74722">
        <ele>107</ele>
        <time>2014-05-08T08:20:26.201Z</time>
      </trkpt>
      <trkpt lat="48.35882" lon="2.74708">
        <ele>107</ele>
        <time>2014-05-08T08:20:30.180Z</time>
      </trkpt>
      <trkpt lat="48.35882" lon="2.74705">
        <ele>107</ele>
        <time>2014-05-08T08:20:31.195Z</time>
      </trkpt>
      <trkpt lat="48.35882" lon="2.74692">
        <ele>107</ele>
        <time>2014-05-08T08:20:35.197Z</time>
      </trkpt>
      <trkpt lat="48.35884" lon="2.7469">
        <ele>108</ele>
        <time>2014-05-08T08:20:36.177Z</time>
      </trkpt>
      <trkpt lat="48.35886" lon="2.74678">
        <ele>108</ele>
        <time>2014-05-08T08:20:41.186Z</time>
      </trkpt>
      <trkpt lat="48.35885" lon="2.74675">
        <ele>108</ele>
        <time>2014-05-08T08:20:42.177Z</time>
      </trkpt>
      <trkpt lat="48.35887" lon="2.74662">
        <ele>110</ele>
        <time>2014-05-08T08:20:46.183Z</time>
      </trkpt>
      <trkpt lat="48.35889" lon="2.7466">
        <ele>110</ele>
        <time>2014-05-08T08:20:47.178Z</time>
      </trkpt>
      <trkpt lat="48.35892" lon="2.7465">
        <ele>110</ele>
        <time>2014-05-08T08:20:51.181Z</time>
      </trkpt>
      <trkpt lat="48.35893" lon="2.74648">
        <ele>111</ele>
        <time>2014-05-08T08:20:52.186Z</time>
      </trkpt>
      <trkpt lat="48.3589" lon="2.74636">
        <ele>110</ele>
        <time>2014-05-08T08:20:57.183Z</time>
      </trkpt>
      <trkpt lat="48.3589" lon="2.74635">
        <ele>110</ele>
        <time>2014-05-08T08:20:58.178Z</time>
      </trkpt>
      <trkpt lat="48.35886" lon="2.74625">
        <ele>110</ele>
        <time>2014-05-08T08:21:01.190Z</time>
      </trkpt>
      <trkpt lat="48.35885" lon="2.7462">
        <ele>110</ele>
        <time>2014-05-08T08:21:02.186Z</time>
      </trkpt>
      <trkpt lat="48.35884" lon="2.7461">
        <ele>110</ele>
        <time>2014-05-08T08:21:04.188Z</time>
      </trkpt>
      <trkpt lat="48.35884" lon="2.74606">
        <ele>110</ele>
        <time>2014-05-08T08:21:05.182Z</time>
      </trkpt>
      <trkpt lat="48.35883" lon="2.74595">
        <ele>110</ele>
        <time>2014-05-08T08:21:08.198Z</time>
      </trkpt>
      <trkpt lat="48.35882" lon="2.74591">
        <ele>110</ele>
        <time>2014-05-08T08:21:09.171Z</time>
      </trkpt>
      <trkpt lat="48.35878" lon="2.7458">
        <ele>110</ele>
        <time>2014-05-08T08:21:11.207Z</time>
      </trkpt>
      <trkpt lat="48.35878" lon="2.74575">
        <ele>110</ele>
        <time>2014-05-08T08:21:12.187Z</time>
      </trkpt>
      <trkpt lat="48.3588" lon="2.74565">
        <ele>110</ele>
        <time>2014-05-08T08:21:15.179Z</time>
      </trkpt>
      <trkpt lat="48.35879" lon="2.74561">
        <ele>110</ele>
        <time>2014-05-08T08:21:16.180Z</time>
      </trkpt>
      <trkpt lat="48.35882" lon="2.74549">
        <ele>110</ele>
        <time>2014-05-08T08:21:21.183Z</time>
      </trkpt>
      <trkpt lat="48.35883" lon="2.74546">
        <ele>110</ele>
        <time>2014-05-08T08:21:22.205Z</time>
      </trkpt>
      <trkpt lat="48.35881" lon="2.74535">
        <ele>109</ele>
        <time>2014-05-08T08:21:26.200Z</time>
      </trkpt>
      <trkpt lat="48.35881" lon="2.74532">
        <ele>109</ele>
        <time>2014-05-08T08:21:27.176Z</time>
      </trkpt>
      <trkpt lat="48.3588" lon="2.7452">
        <ele>109</ele>
        <time>2014-05-08T08:21:30.186Z</time>
      </trkpt>
      <trkpt lat="48.35881" lon="2.74517">
        <ele>109</ele>
        <time>2014-05-08T08:21:31.181Z</time>
      </trkpt>
      <trkpt lat="48.3588" lon="2.74504">
        <ele>109</ele>
        <time>2014-05-08T08:21:35.201Z</time>
      </trkpt>
      <trkpt lat="48.3588" lon="2.74501">
        <ele>109</ele>
        <time>2014-05-08T08:21:36.173Z</time>
      </trkpt>
      <trkpt lat="48.35877" lon="2.74489">
        <ele>107</ele>
        <time>2014-05-08T08:21:42.206Z</time>
      </trkpt>
      <trkpt lat="48.35876" lon="2.74487">
        <ele>107</ele>
        <time>2014-05-08T08:21:43.180Z</time>
      </trkpt>
      <trkpt lat="48.35868" lon="2.74482">
        <ele>106</ele>
        <time>2014-05-08T08:21:48.181Z</time>
      </trkpt>
      <trkpt lat="48.35866" lon="2.74481">
        <ele>106</ele>
        <time>2014-05-08T08:21:49.170Z</time>
      </trkpt>
      <trkpt lat="48.35859" lon="2.74475">
        <ele>105</ele>
        <time>2014-05-08T08:21:51.205Z</time>
      </trkpt>
      <trkpt lat="48.35857" lon="2.74474">
        <ele>105</ele>
        <time>2014-05-08T08:21:52.186Z</time>
      </trkpt>
      <trkpt lat="48.35848" lon="2.7447">
        <ele>105</ele>
        <time>2014-05-08T08:21:56.210Z</time>
      </trkpt>
      <trkpt lat="48.35846" lon="2.74471">
        <ele>105</ele>
        <time>2014-05-08T08:21:57.175Z</time>
      </trkpt>
      <trkpt lat="48.3584" lon="2.74469">
        <ele>104</ele>
        <time>2014-05-08T08:22:00.176Z</time>
      </trkpt>
      <trkpt lat="48.35836" lon="2.74469">
        <ele>104</ele>
        <time>2014-05-08T08:22:01.187Z</time>
      </trkpt>
      <trkpt lat="48.3583" lon="2.74462">
        <ele>99</ele>
        <time>2014-05-08T08:22:04.199Z</time>
      </trkpt>
      <trkpt lat="48.35829" lon="2.74459">
        <ele>99</ele>
        <time>2014-05-08T08:22:05.180Z</time>
      </trkpt>
      <trkpt lat="48.35822" lon="2.74454">
        <ele>98</ele>
        <time>2014-05-08T08:22:11.182Z</time>
      </trkpt>
      <trkpt lat="48.35818" lon="2.74452">
        <ele>98</ele>
        <time>2014-05-08T08:22:12.182Z</time>
      </trkpt>
      <trkpt lat="48.35812" lon="2.74451">
        <ele>98</ele>
        <time>2014-05-08T08:22:14.195Z</time>
      </trkpt>
      <trkpt lat="48.35808" lon="2.74449">
        <ele>98</ele>
        <time>2014-05-08T08:22:15.166Z</time>
      </trkpt>
      <trkpt lat="48.358" lon="2.74445">
        <ele>98</ele>
        <time>2014-05-08T08:22:17.187Z</time>
      </trkpt>
      <trkpt lat="48.35798" lon="2.74444">
        <ele>98</ele>
        <time>2014-05-08T08:22:18.180Z</time>
      </trkpt>
      <trkpt lat="48.35792" lon="2.74436">
        <ele>97</ele>
        <time>2014-05-08T08:22:21.182Z</time>
      </trkpt>
      <trkpt lat="48.35792" lon="2.74433">
        <ele>97</ele>
        <time>2014-05-08T08:22:22.185Z</time>
      </trkpt>
      <trkpt lat="48.35794" lon="2.74422">
        <ele>97</ele>
        <time>2014-05-08T08:22:26.229Z</time>
      </trkpt>
      <trkpt lat="48.35794" lon="2.74419">
        <ele>97</ele>
        <time>2014-05-08T08:22:27.171Z</time>
      </trkpt>
      <trkpt lat="48.35794" lon="2.74407">
        <ele>97</ele>
        <time>2014-05-08T08:22:30.174Z</time>
      </trkpt>
      <trkpt lat="48.35795" lon="2.74404">
        <ele>97</ele>
        <time>2014-05-08T08:22:31.172Z</time>
      </trkpt>
      <trkpt lat="48.35799" lon="2.74395">
        <ele>97</ele>
        <time>2014-05-08T08:22:34.192Z</time>
      </trkpt>
      <trkpt lat="48.358" lon="2.74392">
        <ele>97</ele>
        <time>2014-05-08T08:22:35.188Z</time>
      </trkpt>
      <trkpt lat="48.35799" lon="2.74379">
        <ele>97</ele>
        <time>2014-05-08T08:22:38.199Z</time>
      </trkpt>
      <trkpt lat="48.358" lon="2.74377">
        <ele>97</ele>
        <time>2014-05-08T08:22:39.196Z</time>
      </trkpt>
      <trkpt lat="48.358" lon="2.74366">
        <ele>97</ele>
        <time>2014-05-08T08:22:42.182Z</time>
      </trkpt>
      <trkpt lat="48.35799" lon="2.74362">
        <ele>97</ele>
        <time>2014-05-08T08:22:43.176Z</time>
      </trkpt>
      <trkpt lat="48.358" lon="2.74352">
        <ele>97</ele>
        <time>2014-05-08T08:22:46.192Z</time>
      </trkpt>
      <trkpt lat="48.358" lon="2.74348">
        <ele>97</ele>
        <time>2014-05-08T08:22:47.162Z</time>
      </trkpt>
      <trkpt lat="48.35801" lon="2.74336">
        <ele>97</ele>
        <time>2014-05-08T08:22:51.176Z</time>
      </trkpt>
      <trkpt lat="48.35801" lon="2.74332">
        <ele>98</ele>
        <time>2014-05-08T08:22:52.188Z</time>
      </trkpt>
      <trkpt lat="48.35801" lon="2.74321">
        <ele>98</ele>
        <time>2014-05-08T08:22:56.195Z</time>
      </trkpt>
      <trkpt lat="48.35802" lon="2.74318">
        <ele>98</ele>
        <time>2014-05-08T08:22:57.191Z</time>
      </trkpt>
      <trkpt lat="48.35804" lon="2.74306">
        <ele>98</ele>
        <time>2014-05-08T08:23:01.179Z</time>
      </trkpt>
      <trkpt lat="48.35804" lon="2.74303">
        <ele>98</ele>
        <time>2014-05-08T08:23:02.182Z</time>
      </trkpt>
      <trkpt lat="48.35806" lon="2.7429">
        <ele>99</ele>
        <time>2014-05-08T08:23:06.208Z</time>
      </trkpt>
      <trkpt lat="48.35806" lon="2.74288">
        <ele>99</ele>
        <time>2014-05-08T08:23:07.167Z</time>
      </trkpt>
      <trkpt lat="48.35806" lon="2.74276">
        <ele>99</ele>
        <time>2014-05-08T08:23:11.184Z</time>
      </trkpt>
      <trkpt lat="48.35806" lon="2.74273">
        <ele>99</ele>
        <time>2014-05-08T08:23:12.174Z</time>
      </trkpt>
      <trkpt lat="48.35807" lon="2.74264">
        <ele>99</ele>
        <time>2014-05-08T08:23:15.176Z</time>
      </trkpt>
      <trkpt lat="48.35807" lon="2.7426">
        <ele>99</ele>
        <time>2014-05-08T08:23:16.173Z</time>
      </trkpt>
      <trkpt lat="48.35808" lon="2.74248">
        <ele>99</ele>
        <time>2014-05-08T08:23:20.193Z</time>
      </trkpt>
      <trkpt lat="48.35809" lon="2.74244">
        <ele>99</ele>
        <time>2014-05-08T08:23:21.182Z</time>
      </trkpt>
      <trkpt lat="48.35813" lon="2.74236">
        <ele>99</ele>
        <time>2014-05-08T08:23:24.196Z</time>
      </trkpt>
      <trkpt lat="48.35814" lon="2.74232">
        <ele>99</ele>
        <time>2014-05-08T08:23:25.187Z</time>
      </trkpt>
      <trkpt lat="48.35814" lon="2.74222">
        <ele>99</ele>
        <time>2014-05-08T08:23:28.190Z</time>
      </trkpt>
      <trkpt lat="48.35815" lon="2.74218">
        <ele>99</ele>
        <time>2014-05-08T08:23:29.180Z</time>
      </trkpt>
      <trkpt lat="48.35819" lon="2.74207">
        <ele>99</ele>
        <time>2014-05-08T08:23:34.205Z</time>
      </trkpt>
      <trkpt lat="48.35819" lon="2.74204">
        <ele>99</ele>
        <time>2014-05-08T08:23:35.182Z</time>
      </trkpt>
      <trkpt lat="48.3582" lon="2.74192">
        <ele>99</ele>
        <time>2014-05-08T08:23:39.186Z</time>
      </trkpt>
      <trkpt lat="48.3582" lon="2.74188">
        <ele>99</ele>
        <time>2014-05-08T08:23:40.199Z</time>
      </trkpt>
      <trkpt lat="48.35821" lon="2.74176">
        <ele>98</ele>
        <time>2014-05-08T08:23:45.171Z</time>
      </trkpt>
      <trkpt lat="48.35821" lon="2.74173">
        <ele>98</ele>
        <time>2014-05-08T08:23:46.182Z</time>
      </trkpt>
      <trkpt lat="48.35823" lon="2.74162">
        <ele>98</ele>
        <time>2014-05-08T08:23:50.208Z</time>
      </trkpt>
      <trkpt lat="48.35822" lon="2.74159">
        <ele>98</ele>
        <time>2014-05-08T08:23:51.169Z</time>
      </trkpt>
      <trkpt lat="48.35819" lon="2.74147">
        <ele>99</ele>
        <time>2014-05-08T08:23:55.179Z</time>
      </trkpt>
      <trkpt lat="48.35819" lon="2.74144">
        <ele>99</ele>
        <time>2014-05-08T08:23:56.191Z</time>
      </trkpt>
      <trkpt lat="48.35822" lon="2.74135">
        <ele>99</ele>
        <time>2014-05-08T08:24:00.211Z</time>
      </trkpt>
      <trkpt lat="48.35822" lon="2.74131">
        <ele>99</ele>
        <time>2014-05-08T08:24:01.183Z</time>
      </trkpt>
      <trkpt lat="48.35824" lon="2.7412">
        <ele>99</ele>
        <time>2014-05-08T08:24:04.199Z</time>
      </trkpt>
      <trkpt lat="48.35825" lon="2.74117">
        <ele>99</ele>
        <time>2014-05-08T08:24:05.192Z</time>
      </trkpt>
      <trkpt lat="48.35826" lon="2.74105">
        <ele>99</ele>
        <time>2014-05-08T08:24:09.208Z</time>
      </trkpt>
      <trkpt lat="48.35827" lon="2.74102">
        <ele>99</ele>
        <time>2014-05-08T08:24:10.188Z</time>
      </trkpt>
      <trkpt lat="48.35828" lon="2.7409">
        <ele>98</ele>
        <time>2014-05-08T08:24:13.199Z</time>
      </trkpt>
      <trkpt lat="48.35829" lon="2.74087">
        <ele>98</ele>
        <time>2014-05-08T08:24:14.162Z</time>
      </trkpt>
      <trkpt lat="48.35834" lon="2.74078">
        <ele>98</ele>
        <time>2014-05-08T08:24:17.187Z</time>
      </trkpt>
      <trkpt lat="48.35835" lon="2.74075">
        <ele>99</ele>
        <time>2014-05-08T08:24:18.192Z</time>
      </trkpt>
      <trkpt lat="48.35835" lon="2.74062">
        <ele>99</ele>
        <time>2014-05-08T08:24:22.207Z</time>
      </trkpt>
      <trkpt lat="48.35834" lon="2.7406">
        <ele>99</ele>
        <time>2014-05-08T08:24:23.184Z</time>
      </trkpt>
      <trkpt lat="48.35836" lon="2.74046">
        <ele>99</ele>
        <time>2014-05-08T08:24:27.210Z</time>
      </trkpt>
      <trkpt lat="48.35836" lon="2.74041">
        <ele>99</ele>
        <time>2014-05-08T08:24:28.192Z</time>
      </trkpt>
      <trkpt lat="48.35834" lon="2.7403">
        <ele>98</ele>
        <time>2014-05-08T08:24:31.191Z</time>
      </trkpt>
      <trkpt lat="48.35833" lon="2.74026">
        <ele>97</ele>
        <time>2014-05-08T08:24:32.186Z</time>
      </trkpt>
      <trkpt lat="48.35835" lon="2.74014">
        <ele>97</ele>
        <time>2014-05-08T08:24:36.174Z</time>
      </trkpt>
      <trkpt lat="48.35836" lon="2.74011">
        <ele>97</ele>
        <time>2014-05-08T08:24:37.179Z</time>
      </trkpt>
      <trkpt lat="48.35838" lon="2.74">
        <ele>95</ele>
        <time>2014-05-08T08:24:40.179Z</time>
      </trkpt>
      <trkpt lat="48.35839" lon="2.73996">
        <ele>95</ele>
        <time>2014-05-08T08:24:41.186Z</time>
      </trkpt>
      <trkpt lat="48.35842" lon="2.73987">
        <ele>95</ele>
        <time>2014-05-08T08:24:44.193Z</time>
      </trkpt>
      <trkpt lat="48.35845" lon="2.73985">
        <ele>95</ele>
        <time>2014-05-08T08:24:45.178Z</time>
      </trkpt>
      <trkpt lat="48.3585" lon="2.73974">
        <ele>95</ele>
        <time>2014-05-08T08:24:49.199Z</time>
      </trkpt>
      <trkpt lat="48.3585" lon="2.73972">
        <ele>95</ele>
        <time>2014-05-08T08:24:50.200Z</time>
      </trkpt>
      <trkpt lat="48.35853" lon="2.73961">
        <ele>95</ele>
        <time>2014-05-08T08:24:54.185Z</time>
      </trkpt>
      <trkpt lat="48.35854" lon="2.73956">
        <ele>95</ele>
        <time>2014-05-08T08:24:55.162Z</time>
      </trkpt>
      <trkpt lat="48.35856" lon="2.73947">
        <ele>95</ele>
        <time>2014-05-08T08:24:58.188Z</time>
      </trkpt>
      <trkpt lat="48.35857" lon="2.73944">
        <ele>95</ele>
        <time>2014-05-08T08:24:59.188Z</time>
      </trkpt>
      <trkpt lat="48.35864" lon="2.7394">
        <ele>95</ele>
        <time>2014-05-08T08:25:02.205Z</time>
      </trkpt>
      <trkpt lat="48.35868" lon="2.7394">
        <ele>95</ele>
        <time>2014-05-08T08:25:03.161Z</time>
      </trkpt>
      <trkpt lat="48.35876" lon="2.73938">
        <ele>95</ele>
        <time>2014-05-08T08:25:06.186Z</time>
      </trkpt>
      <trkpt lat="48.35878" lon="2.73938">
        <ele>95</ele>
        <time>2014-05-08T08:25:07.195Z</time>
      </trkpt>
      <trkpt lat="48.35885" lon="2.7394">
        <ele>95</ele>
        <time>2014-05-08T08:25:10.175Z</time>
      </trkpt>
      <trkpt lat="48.35888" lon="2.73941">
        <ele>95</ele>
        <time>2014-05-08T08:25:11.185Z</time>
      </trkpt>
      <trkpt lat="48.35896" lon="2.73943">
        <ele>95</ele>
        <time>2014-05-08T08:25:15.217Z</time>
      </trkpt>
      <trkpt lat="48.35898" lon="2.73944">
        <ele>96</ele>
        <time>2014-05-08T08:25:16.186Z</time>
      </trkpt>
      <trkpt lat="48.35905" lon="2.73947">
        <ele>96</ele>
        <time>2014-05-08T08:25:19.194Z</time>
      </trkpt>
      <trkpt lat="48.35908" lon="2.73948">
        <ele>96</ele>
        <time>2014-05-08T08:25:20.195Z</time>
      </trkpt>
      <trkpt lat="48.35915" lon="2.73949">
        <ele>96</ele>
        <time>2014-05-08T08:25:24.193Z</time>
      </trkpt>
      <trkpt lat="48.35917" lon="2.73949">
        <ele>97</ele>
        <time>2014-05-08T08:25:25.170Z</time>
      </trkpt>
      <trkpt lat="48.35924" lon="2.73952">
        <ele>97</ele>
        <time>2014-05-08T08:25:28.206Z</time>
      </trkpt>
      <trkpt lat="48.35927" lon="2.73952">
        <ele>97</ele>
        <time>2014-05-08T08:25:29.173Z</time>
      </trkpt>
      <trkpt lat="48.35934" lon="2.73953">
        <ele>98</ele>
        <time>2014-05-08T08:25:32.201Z</time>
      </trkpt>
      <trkpt lat="48.35937" lon="2.73952">
        <ele>98</ele>
        <time>2014-05-08T08:25:33.171Z</time>
      </trkpt>
      <trkpt lat="48.35946" lon="2.73954">
        <ele>98</ele>
        <time>2014-05-08T08:25:37.205Z</time>
      </trkpt>
      <trkpt lat="48.35948" lon="2.73955">
        <ele>98</ele>
        <time>2014-05-08T08:25:38.189Z</time>
      </trkpt>
      <trkpt lat="48.35955" lon="2.73959">
        <ele>98</ele>
        <time>2014-05-08T08:25:42.181Z</time>
      </trkpt>
      <trkpt lat="48.35958" lon="2.7396">
        <ele>98</ele>
        <time>2014-05-08T08:25:43.180Z</time>
      </trkpt>
      <trkpt lat="48.35965" lon="2.73961">
        <ele>98</ele>
        <time>2014-05-08T08:25:47.182Z</time>
      </trkpt>
      <trkpt lat="48.35966" lon="2.73962">
        <ele>98</ele>
        <time>2014-05-08T08:25:48.184Z</time>
      </trkpt>
      <trkpt lat="48.35974" lon="2.73965">
        <ele>98</ele>
        <time>2014-05-08T08:25:52.192Z</time>
      </trkpt>
      <trkpt lat="48.35976" lon="2.73965">
        <ele>99</ele>
        <time>2014-05-08T08:25:53.182Z</time>
      </trkpt>
      <trkpt lat="48.35984" lon="2.7397">
        <ele>99</ele>
        <time>2014-05-08T08:25:57.175Z</time>
      </trkpt>
      <trkpt lat="48.35985" lon="2.73972">
        <ele>99</ele>
        <time>2014-05-08T08:25:58.172Z</time>
      </trkpt>
      <trkpt lat="48.35992" lon="2.73979">
        <ele>100</ele>
        <time>2014-05-08T08:26:02.220Z</time>
      </trkpt>
      <trkpt lat="48.35994" lon="2.7398">
        <ele>100</ele>
        <time>2014-05-08T08:26:03.168Z</time>
      </trkpt>
      <trkpt lat="48.36" lon="2.73986">
        <ele>101</ele>
        <time>2014-05-08T08:26:07.185Z</time>
      </trkpt>
      <trkpt lat="48.36002" lon="2.73988">
        <ele>101</ele>
        <time>2014-05-08T08:26:08.203Z</time>
      </trkpt>
      <trkpt lat="48.36008" lon="2.73996">
        <ele>101</ele>
        <time>2014-05-08T08:26:12.183Z</time>
      </trkpt>
      <trkpt lat="48.3601" lon="2.73998">
        <ele>101</ele>
        <time>2014-05-08T08:26:13.190Z</time>
      </trkpt>
      <trkpt lat="48.36017" lon="2.74004">
        <ele>105</ele>
        <time>2014-05-08T08:26:17.178Z</time>
      </trkpt>
      <trkpt lat="48.36019" lon="2.74006">
        <ele>105</ele>
        <time>2014-05-08T08:26:18.166Z</time>
      </trkpt>
      <trkpt lat="48.36026" lon="2.74011">
        <ele>105</ele>
        <time>2014-05-08T08:26:22.185Z</time>
      </trkpt>
      <trkpt lat="48.36027" lon="2.74012">
        <ele>105</ele>
        <time>2014-05-08T08:26:23.192Z</time>
      </trkpt>
      <trkpt lat="48.36036" lon="2.74016">
        <ele>105</ele>
        <time>2014-05-08T08:26:27.176Z</time>
      </trkpt>
      <trkpt lat="48.36038" lon="2.74018">
        <ele>105</ele>
        <time>2014-05-08T08:26:28.191Z</time>
      </trkpt>
      <trkpt lat="48.36043" lon="2.74025">
        <ele>105</ele>
        <time>2014-05-08T08:26:32.194Z</time>
      </trkpt>
      <trkpt lat="48.36045" lon="2.74026">
        <ele>105</ele>
        <time>2014-05-08T08:26:33.191Z</time>
      </trkpt>
      <trkpt lat="48.36051" lon="2.74034">
        <ele>106</ele>
        <time>2014-05-08T08:26:37.149Z</time>
      </trkpt>
      <trkpt lat="48.36053" lon="2.74036">
        <ele>106</ele>
        <time>2014-05-08T08:26:38.162Z</time>
      </trkpt>
      <trkpt lat="48.36058" lon="2.74043">
        <ele>106</ele>
        <time>2014-05-08T08:26:41.195Z</time>
      </trkpt>
      <trkpt lat="48.3606" lon="2.74045">
        <ele>106</ele>
        <time>2014-05-08T08:26:42.163Z</time>
      </trkpt>
      <trkpt lat="48.36064" lon="2.74053">
        <ele>107</ele>
        <time>2014-05-08T08:26:46.134Z</time>
      </trkpt>
      <trkpt lat="48.36065" lon="2.74056">
        <ele>107</ele>
        <time>2014-05-08T08:26:47.054Z</time>
      </trkpt>
      <trkpt lat="48.3607" lon="2.74066">
        <ele>107</ele>
        <time>2014-05-08T08:26:52.119Z</time>
      </trkpt>
      <trkpt lat="48.3607" lon="2.74069">
        <ele>107</ele>
        <time>2014-05-08T08:26:53.093Z</time>
      </trkpt>
      <trkpt lat="48.36075" lon="2.74078">
        <ele>108</ele>
        <time>2014-05-08T08:26:57.101Z</time>
      </trkpt>
      <trkpt lat="48.36077" lon="2.7408">
        <ele>108</ele>
        <time>2014-05-08T08:26:58.090Z</time>
      </trkpt>
      <trkpt lat="48.36081" lon="2.74092">
        <ele>110</ele>
        <time>2014-05-08T08:27:04.056Z</time>
      </trkpt>
      <trkpt lat="48.36081" lon="2.74094">
        <ele>111</ele>
        <time>2014-05-08T08:27:05.042Z</time>
      </trkpt>
      <trkpt lat="48.36082" lon="2.74106">
        <ele>112</ele>
        <time>2014-05-08T08:27:10.043Z</time>
      </trkpt>
      <trkpt lat="48.36082" lon="2.74109">
        <ele>113</ele>
        <time>2014-05-08T08:27:11.036Z</time>
      </trkpt>
      <trkpt lat="48.36085" lon="2.74121">
        <ele>108</ele>
        <time>2014-05-08T08:27:14.081Z</time>
      </trkpt>
      <trkpt lat="48.36086" lon="2.74124">
        <ele>108</ele>
        <time>2014-05-08T08:27:15.053Z</time>
      </trkpt>
      <trkpt lat="48.36087" lon="2.74136">
        <ele>109</ele>
        <time>2014-05-08T08:27:19.044Z</time>
      </trkpt>
      <trkpt lat="48.36087" lon="2.7414">
        <ele>109</ele>
        <time>2014-05-08T08:27:20.052Z</time>
      </trkpt>
      <trkpt lat="48.36083" lon="2.7415">
        <ele>115</ele>
        <time>2014-05-08T08:27:23.040Z</time>
      </trkpt>
      <trkpt lat="48.36081" lon="2.74152">
        <ele>115</ele>
        <time>2014-05-08T08:27:24.032Z</time>
      </trkpt>
      <trkpt lat="48.36077" lon="2.7416">
        <ele>115</ele>
        <time>2014-05-08T08:27:27.032Z</time>
      </trkpt>
      <trkpt lat="48.36074" lon="2.74161">
        <ele>115</ele>
        <time>2014-05-08T08:27:28.036Z</time>
      </trkpt>
      <trkpt lat="48.36067" lon="2.74165">
        <ele>116</ele>
        <time>2014-05-08T08:27:31.043Z</time>
      </trkpt>
      <trkpt lat="48.36063" lon="2.74165">
        <ele>116</ele>
        <time>2014-05-08T08:27:32.049Z</time>
      </trkpt>
      <trkpt lat="48.36054" lon="2.74163">
        <ele>116</ele>
        <time>2014-05-08T08:27:40.063Z</time>
      </trkpt>
      <trkpt lat="48.36054" lon="2.74162">
        <ele>116</ele>
        <time>2014-05-08T08:27:41.036Z</time>
      </trkpt>
      <trkpt lat="48.36048" lon="2.74156">
        <ele>117</ele>
        <time>2014-05-08T08:27:45.047Z</time>
      </trkpt>
      <trkpt lat="48.36045" lon="2.74153">
        <ele>117</ele>
        <time>2014-05-08T08:27:46.034Z</time>
      </trkpt>
      <trkpt lat="48.36038" lon="2.74146">
        <ele>117</ele>
        <time>2014-05-08T08:27:49.041Z</time>
      </trkpt>
      <trkpt lat="48.36036" lon="2.74145">
        <ele>117</ele>
        <time>2014-05-08T08:27:50.044Z</time>
      </trkpt>
      <trkpt lat="48.36027" lon="2.74141">
        <ele>118</ele>
        <time>2014-05-08T08:27:56.067Z</time>
      </trkpt>
      <trkpt lat="48.36025" lon="2.74141">
        <ele>118</ele>
        <time>2014-05-08T08:27:57.034Z</time>
      </trkpt>
      <trkpt lat="48.36017" lon="2.74139">
        <ele>118</ele>
        <time>2014-05-08T08:28:02.060Z</time>
      </trkpt>
      <trkpt lat="48.36016" lon="2.74139">
        <ele>118</ele>
        <time>2014-05-08T08:28:03.031Z</time>
      </trkpt>
      <trkpt lat="48.36008" lon="2.74145">
        <ele>119</ele>
        <time>2014-05-08T08:28:10.040Z</time>
      </trkpt>
      <trkpt lat="48.36006" lon="2.74145">
        <ele>119</ele>
        <time>2014-05-08T08:28:11.032Z</time>
      </trkpt>
      <trkpt lat="48.36001" lon="2.74153">
        <ele>121</ele>
        <time>2014-05-08T08:28:18.046Z</time>
      </trkpt>
      <trkpt lat="48.36" lon="2.74155">
        <ele>121</ele>
        <time>2014-05-08T08:28:19.041Z</time>
      </trkpt>
      <trkpt lat="48.35995" lon="2.74165">
        <ele>123</ele>
        <time>2014-05-08T08:28:24.055Z</time>
      </trkpt>
      <trkpt lat="48.35993" lon="2.74165">
        <ele>122</ele>
        <time>2014-05-08T08:28:25.048Z</time>
      </trkpt>
      <trkpt lat="48.35985" lon="2.74169">
        <ele>123</ele>
        <time>2014-05-08T08:28:29.052Z</time>
      </trkpt>
      <trkpt lat="48.35983" lon="2.7417">
        <ele>123</ele>
        <time>2014-05-08T08:28:30.039Z</time>
      </trkpt>
      <trkpt lat="48.35976" lon="2.74176">
        <ele>122</ele>
        <time>2014-05-08T08:28:34.085Z</time>
      </trkpt>
      <trkpt lat="48.35975" lon="2.74178">
        <ele>122</ele>
        <time>2014-05-08T08:28:35.003Z</time>
      </trkpt>
      <trkpt lat="48.35971" lon="2.74188">
        <ele>122</ele>
        <time>2014-05-08T08:28:41.056Z</time>
      </trkpt>
      <trkpt lat="48.35969" lon="2.7419">
        <ele>122</ele>
        <time>2014-05-08T08:28:42.044Z</time>
      </trkpt>
      <trkpt lat="48.35966" lon="2.74202">
        <ele>122</ele>
        <time>2014-05-08T08:28:47.029Z</time>
      </trkpt>
      <trkpt lat="48.35965" lon="2.74204">
        <ele>122</ele>
        <time>2014-05-08T08:28:48.015Z</time>
      </trkpt>
      <trkpt lat="48.35967" lon="2.74218">
        <ele>122</ele>
        <time>2014-05-08T08:28:56.032Z</time>
      </trkpt>
      <trkpt lat="48.35968" lon="2.74219">
        <ele>122</ele>
        <time>2014-05-08T08:28:57.033Z</time>
      </trkpt>
      <trkpt lat="48.35975" lon="2.74215">
        <ele>123</ele>
        <time>2014-05-08T08:29:04.021Z</time>
      </trkpt>
      <trkpt lat="48.35976" lon="2.74213">
        <ele>123</ele>
        <time>2014-05-08T08:29:05.012Z</time>
      </trkpt>
      <trkpt lat="48.35981" lon="2.74202">
        <ele>123</ele>
        <time>2014-05-08T08:29:11.018Z</time>
      </trkpt>
      <trkpt lat="48.35983" lon="2.74201">
        <ele>123</ele>
        <time>2014-05-08T08:29:12.024Z</time>
      </trkpt>
      <trkpt lat="48.3599" lon="2.742">
        <ele>123</ele>
        <time>2014-05-08T08:29:15.025Z</time>
      </trkpt>
      <trkpt lat="48.35992" lon="2.74202">
        <ele>123</ele>
        <time>2014-05-08T08:29:16.017Z</time>
      </trkpt>
      <trkpt lat="48.36" lon="2.74206">
        <ele>124</ele>
        <time>2014-05-08T08:29:20.057Z</time>
      </trkpt>
      <trkpt lat="48.36003" lon="2.74206">
        <ele>126</ele>
        <time>2014-05-08T08:29:21.017Z</time>
      </trkpt>
      <trkpt lat="48.36011" lon="2.7421">
        <ele>126</ele>
        <time>2014-05-08T08:29:25.014Z</time>
      </trkpt>
      <trkpt lat="48.36012" lon="2.74211">
        <ele>126</ele>
        <time>2014-05-08T08:29:26.042Z</time>
      </trkpt>
      <trkpt lat="48.36019" lon="2.74217">
        <ele>126</ele>
        <time>2014-05-08T08:29:32.033Z</time>
      </trkpt>
      <trkpt lat="48.36021" lon="2.74219">
        <ele>126</ele>
        <time>2014-05-08T08:29:33.022Z</time>
      </trkpt>
      <trkpt lat="48.36027" lon="2.74228">
        <ele>126</ele>
        <time>2014-05-08T08:29:37.023Z</time>
      </trkpt>
      <trkpt lat="48.36028" lon="2.7423">
        <ele>126</ele>
        <time>2014-05-08T08:29:38.036Z</time>
      </trkpt>
      <trkpt lat="48.36028" lon="2.74242">
        <ele>127</ele>
        <time>2014-05-08T08:29:42.037Z</time>
      </trkpt>
      <trkpt lat="48.36029" lon="2.74245">
        <ele>127</ele>
        <time>2014-05-08T08:29:43.013Z</time>
      </trkpt>
      <trkpt lat="48.36031" lon="2.74257">
        <ele>130</ele>
        <time>2014-05-08T08:29:48.041Z</time>
      </trkpt>
      <trkpt lat="48.36031" lon="2.7426">
        <ele>130</ele>
        <time>2014-05-08T08:29:49.020Z</time>
      </trkpt>
      <trkpt lat="48.36029" lon="2.7427">
        <ele>130</ele>
        <time>2014-05-08T08:29:53.019Z</time>
      </trkpt>
      <trkpt lat="48.36029" lon="2.74273">
        <ele>130</ele>
        <time>2014-05-08T08:29:54.014Z</time>
      </trkpt>
      <trkpt lat="48.36031" lon="2.74286">
        <ele>130</ele>
        <time>2014-05-08T08:29:59.030Z</time>
      </trkpt>
      <trkpt lat="48.36032" lon="2.74289">
        <ele>130</ele>
        <time>2014-05-08T08:30:00.052Z</time>
      </trkpt>
      <trkpt lat="48.36036" lon="2.74301">
        <ele>130</ele>
        <time>2014-05-08T08:30:04.041Z</time>
      </trkpt>
      <trkpt lat="48.36037" lon="2.74304">
        <ele>131</ele>
        <time>2014-05-08T08:30:05.031Z</time>
      </trkpt>
      <trkpt lat="48.36038" lon="2.74314">
        <ele>131</ele>
        <time>2014-05-08T08:30:08.063Z</time>
      </trkpt>
      <trkpt lat="48.36038" lon="2.74318">
        <ele>131</ele>
        <time>2014-05-08T08:30:09.010Z</time>
      </trkpt>
      <trkpt lat="48.36041" lon="2.74328">
        <ele>131</ele>
        <time>2014-05-08T08:30:12.035Z</time>
      </trkpt>
      <trkpt lat="48.36042" lon="2.74331">
        <ele>131</ele>
        <time>2014-05-08T08:30:13.008Z</time>
      </trkpt>
      <trkpt lat="48.36045" lon="2.74343">
        <ele>132</ele>
        <time>2014-05-08T08:30:17.027Z</time>
      </trkpt>
      <trkpt lat="48.36047" lon="2.74346">
        <ele>132</ele>
        <time>2014-05-08T08:30:18.018Z</time>
      </trkpt>
      <trkpt lat="48.36053" lon="2.74354">
        <ele>132</ele>
        <time>2014-05-08T08:30:22.045Z</time>
      </trkpt>
      <trkpt lat="48.36054" lon="2.74356">
        <ele>132</ele>
        <time>2014-05-08T08:30:23.018Z</time>
      </trkpt>
      <trkpt lat="48.36059" lon="2.74367">
        <ele>133</ele>
        <time>2014-05-08T08:30:27.023Z</time>
      </trkpt>
      <trkpt lat="48.36061" lon="2.7437">
        <ele>133</ele>
        <time>2014-05-08T08:30:28.024Z</time>
      </trkpt>
      <trkpt lat="48.36065" lon="2.74378">
        <ele>133</ele>
        <time>2014-05-08T08:30:31.018Z</time>
      </trkpt>
      <trkpt lat="48.36067" lon="2.7438">
        <ele>133</ele>
        <time>2014-05-08T08:30:32.030Z</time>
      </trkpt>
      <trkpt lat="48.36071" lon="2.7439">
        <ele>134</ele>
        <time>2014-05-08T08:30:36.038Z</time>
      </trkpt>
      <trkpt lat="48.36072" lon="2.74392">
        <ele>134</ele>
        <time>2014-05-08T08:30:37.024Z</time>
      </trkpt>
      <trkpt lat="48.36076" lon="2.74402">
        <ele>134</ele>
        <time>2014-05-08T08:30:40.023Z</time>
      </trkpt>
      <trkpt lat="48.36078" lon="2.74405">
        <ele>135</ele>
        <time>2014-05-08T08:30:41.014Z</time>
      </trkpt>
      <trkpt lat="48.36083" lon="2.74415">
        <ele>136</ele>
        <time>2014-05-08T08:30:45.028Z</time>
      </trkpt>
      <trkpt lat="48.36083" lon="2.74417">
        <ele>136</ele>
        <time>2014-05-08T08:30:46.039Z</time>
      </trkpt>
      <trkpt lat="48.36088" lon="2.74426">
        <ele>134</ele>
        <time>2014-05-08T08:30:51.055Z</time>
      </trkpt>
      <trkpt lat="48.36089" lon="2.74428">
        <ele>133</ele>
        <time>2014-05-08T08:30:52.015Z</time>
      </trkpt>
      <trkpt lat="48.36093" lon="2.74436">
        <ele>132</ele>
        <time>2014-05-08T08:30:56.066Z</time>
      </trkpt>
      <trkpt lat="48.36094" lon="2.74439">
        <ele>132</ele>
        <time>2014-05-08T08:30:57.014Z</time>
      </trkpt>
      <trkpt lat="48.36098" lon="2.74449">
        <ele>131</ele>
        <time>2014-05-08T08:31:01.019Z</time>
      </trkpt>
      <trkpt lat="48.36098" lon="2.74452">
        <ele>131</ele>
        <time>2014-05-08T08:31:02.033Z</time>
      </trkpt>
      <trkpt lat="48.361" lon="2.74462">
        <ele>131</ele>
        <time>2014-05-08T08:31:05.022Z</time>
      </trkpt>
      <trkpt lat="48.36101" lon="2.74465">
        <ele>131</ele>
        <time>2014-05-08T08:31:06.012Z</time>
      </trkpt>
      <trkpt lat="48.36105" lon="2.74475">
        <ele>131</ele>
        <time>2014-05-08T08:31:12.024Z</time>
      </trkpt>
      <trkpt lat="48.36107" lon="2.74476">
        <ele>131</ele>
        <time>2014-05-08T08:31:13.036Z</time>
      </trkpt>
      <trkpt lat="48.36112" lon="2.74483">
        <ele>131</ele>
        <time>2014-05-08T08:31:16.044Z</time>
      </trkpt>
      <trkpt lat="48.36114" lon="2.74486">
        <ele>131</ele>
        <time>2014-05-08T08:31:17.025Z</time>
      </trkpt>
      <trkpt lat="48.36116" lon="2.74496">
        <ele>131</ele>
        <time>2014-05-08T08:31:20.035Z</time>
      </trkpt>
      <trkpt lat="48.36117" lon="2.74499">
        <ele>131</ele>
        <time>2014-05-08T08:31:21.020Z</time>
      </trkpt>
      <trkpt lat="48.36121" lon="2.74509">
        <ele>131</ele>
        <time>2014-05-08T08:31:25.019Z</time>
      </trkpt>
      <trkpt lat="48.36123" lon="2.74513">
        <ele>131</ele>
        <time>2014-05-08T08:31:26.053Z</time>
      </trkpt>
      <trkpt lat="48.36127" lon="2.74523">
        <ele>131</ele>
        <time>2014-05-08T08:31:30.023Z</time>
      </trkpt>
      <trkpt lat="48.36127" lon="2.74527">
        <ele>131</ele>
        <time>2014-05-08T08:31:31.018Z</time>
      </trkpt>
      <trkpt lat="48.36129" lon="2.74539">
        <ele>130</ele>
        <time>2014-05-08T08:31:33.018Z</time>
      </trkpt>
      <trkpt lat="48.36128" lon="2.74542">
        <ele>131</ele>
        <time>2014-05-08T08:31:34.020Z</time>
      </trkpt>
      <trkpt lat="48.36128" lon="2.74552">
        <ele>131</ele>
        <time>2014-05-08T08:31:37.037Z</time>
      </trkpt>
      <trkpt lat="48.36128" lon="2.74556">
        <ele>131</ele>
        <time>2014-05-08T08:31:38.020Z</time>
      </trkpt>
      <trkpt lat="48.3613" lon="2.74569">
        <ele>130</ele>
        <time>2014-05-08T08:31:42.049Z</time>
      </trkpt>
      <trkpt lat="48.36132" lon="2.74573">
        <ele>130</ele>
        <time>2014-05-08T08:31:43.021Z</time>
      </trkpt>
      <trkpt lat="48.36133" lon="2.74584">
        <ele>131</ele>
        <time>2014-05-08T08:31:47.024Z</time>
      </trkpt>
      <trkpt lat="48.36134" lon="2.74588">
        <ele>131</ele>
        <time>2014-05-08T08:31:48.039Z</time>
      </trkpt>
      <trkpt lat="48.36135" lon="2.74599">
        <ele>131</ele>
        <time>2014-05-08T08:31:51.044Z</time>
      </trkpt>
      <trkpt lat="48.36135" lon="2.74602">
        <ele>131</ele>
        <time>2014-05-08T08:31:52.029Z</time>
      </trkpt>
      <trkpt lat="48.36136" lon="2.74614">
        <ele>132</ele>
        <time>2014-05-08T08:31:56.055Z</time>
      </trkpt>
      <trkpt lat="48.36136" lon="2.74617">
        <ele>132</ele>
        <time>2014-05-08T08:31:57.016Z</time>
      </trkpt>
      <trkpt lat="48.36137" lon="2.74629">
        <ele>132</ele>
        <time>2014-05-08T08:32:00.052Z</time>
      </trkpt>
      <trkpt lat="48.36138" lon="2.74632">
        <ele>132</ele>
        <time>2014-05-08T08:32:01.023Z</time>
      </trkpt>
      <trkpt lat="48.36138" lon="2.74645">
        <ele>132</ele>
        <time>2014-05-08T08:32:06.015Z</time>
      </trkpt>
      <trkpt lat="48.36137" lon="2.74647">
        <ele>132</ele>
        <time>2014-05-08T08:32:07.012Z</time>
      </trkpt>
      <trkpt lat="48.36136" lon="2.74658">
        <ele>132</ele>
        <time>2014-05-08T08:32:11.043Z</time>
      </trkpt>
      <trkpt lat="48.36136" lon="2.74661">
        <ele>132</ele>
        <time>2014-05-08T08:32:12.030Z</time>
      </trkpt>
      <trkpt lat="48.36137" lon="2.74673">
        <ele>133</ele>
        <time>2014-05-08T08:32:17.029Z</time>
      </trkpt>
      <trkpt lat="48.36139" lon="2.74677">
        <ele>133</ele>
        <time>2014-05-08T08:32:18.021Z</time>
      </trkpt>
      <trkpt lat="48.36144" lon="2.74686">
        <ele>133</ele>
        <time>2014-05-08T08:32:21.042Z</time>
      </trkpt>
      <trkpt lat="48.36145" lon="2.74689">
        <ele>133</ele>
        <time>2014-05-08T08:32:22.030Z</time>
      </trkpt>
      <trkpt lat="48.36149" lon="2.74696">
        <ele>133</ele>
        <time>2014-05-08T08:32:25.024Z</time>
      </trkpt>
      <trkpt lat="48.36151" lon="2.74699">
        <ele>133</ele>
        <time>2014-05-08T08:32:26.051Z</time>
      </trkpt>
      <trkpt lat="48.36157" lon="2.74709">
        <ele>133</ele>
        <time>2014-05-08T08:32:29.927Z</time>
      </trkpt>
      <trkpt lat="48.36158" lon="2.74711">
        <ele>133</ele>
        <time>2014-05-08T08:32:30.951Z</time>
      </trkpt>
      <trkpt lat="48.36164" lon="2.7472">
        <ele>133</ele>
        <time>2014-05-08T08:32:33.957Z</time>
      </trkpt>
      <trkpt lat="48.36166" lon="2.74723">
        <ele>133</ele>
        <time>2014-05-08T08:32:34.961Z</time>
      </trkpt>
      <trkpt lat="48.36172" lon="2.74731">
        <ele>129</ele>
        <time>2014-05-08T08:32:37.986Z</time>
      </trkpt>
      <trkpt lat="48.36173" lon="2.74733">
        <ele>129</ele>
        <time>2014-05-08T08:32:38.960Z</time>
      </trkpt>
      <trkpt lat="48.36177" lon="2.7474">
        <ele>130</ele>
        <time>2014-05-08T08:32:41.975Z</time>
      </trkpt>
      <trkpt lat="48.36179" lon="2.74743">
        <ele>130</ele>
        <time>2014-05-08T08:32:42.971Z</time>
      </trkpt>
      <trkpt lat="48.36186" lon="2.74749">
        <ele>129</ele>
        <time>2014-05-08T08:32:46.973Z</time>
      </trkpt>
      <trkpt lat="48.36188" lon="2.74749">
        <ele>129</ele>
        <time>2014-05-08T08:32:47.961Z</time>
      </trkpt>
      <trkpt lat="48.36197" lon="2.74753">
        <ele>129</ele>
        <time>2014-05-08T08:32:51.961Z</time>
      </trkpt>
      <trkpt lat="48.36198" lon="2.74754">
        <ele>129</ele>
        <time>2014-05-08T08:32:52.964Z</time>
      </trkpt>
      <trkpt lat="48.36206" lon="2.74747">
        <ele>127</ele>
        <time>2014-05-08T08:32:59.987Z</time>
      </trkpt>
      <trkpt lat="48.36206" lon="2.74746">
        <ele>126</ele>
        <time>2014-05-08T08:33:00.944Z</time>
      </trkpt>
      <trkpt lat="48.36204" lon="2.74736">
        <ele>127</ele>
        <time>2014-05-08T08:33:03.929Z</time>
      </trkpt>
      <trkpt lat="48.36203" lon="2.74732">
        <ele>127</ele>
        <time>2014-05-08T08:33:04.926Z</time>
      </trkpt>
      <trkpt lat="48.36201" lon="2.7472">
        <ele>126</ele>
        <time>2014-05-08T08:33:07.936Z</time>
      </trkpt>
      <trkpt lat="48.362" lon="2.74717">
        <ele>126</ele>
        <time>2014-05-08T08:33:08.954Z</time>
      </trkpt>
      <trkpt lat="48.36204" lon="2.74707">
        <ele>126</ele>
        <time>2014-05-08T08:33:11.951Z</time>
      </trkpt>
      <trkpt lat="48.36203" lon="2.74703">
        <ele>126</ele>
        <time>2014-05-08T08:33:12.931Z</time>
      </trkpt>
      <trkpt lat="48.36201" lon="2.74692">
        <ele>126</ele>
        <time>2014-05-08T08:33:15.942Z</time>
      </trkpt>
      <trkpt lat="48.36201" lon="2.74689">
        <ele>126</ele>
        <time>2014-05-08T08:33:16.977Z</time>
      </trkpt>
      <trkpt lat="48.36199" lon="2.74676">
        <ele>126</ele>
        <time>2014-05-08T08:33:20.955Z</time>
      </trkpt>
      <trkpt lat="48.36198" lon="2.74673">
        <ele>126</ele>
        <time>2014-05-08T08:33:21.936Z</time>
      </trkpt>
      <trkpt lat="48.36195" lon="2.74665">
        <ele>124</ele>
        <time>2014-05-08T08:33:23.940Z</time>
      </trkpt>
      <trkpt lat="48.36192" lon="2.74661">
        <ele>124</ele>
        <time>2014-05-08T08:33:24.937Z</time>
      </trkpt>
      <trkpt lat="48.36193" lon="2.74648">
        <ele>123</ele>
        <time>2014-05-08T08:33:28.969Z</time>
      </trkpt>
      <trkpt lat="48.36194" lon="2.74645">
        <ele>123</ele>
        <time>2014-05-08T08:33:29.932Z</time>
      </trkpt>
      <trkpt lat="48.362" lon="2.74635">
        <ele>122</ele>
        <time>2014-05-08T08:33:33.950Z</time>
      </trkpt>
      <trkpt lat="48.36202" lon="2.74633">
        <ele>122</ele>
        <time>2014-05-08T08:33:34.939Z</time>
      </trkpt>
      <trkpt lat="48.36207" lon="2.74626">
        <ele>121</ele>
        <time>2014-05-08T08:33:37.949Z</time>
      </trkpt>
      <trkpt lat="48.36209" lon="2.74623">
        <ele>121</ele>
        <time>2014-05-08T08:33:38.940Z</time>
      </trkpt>
      <trkpt lat="48.36213" lon="2.74616">
        <ele>121</ele>
        <time>2014-05-08T08:33:41.952Z</time>
      </trkpt>
      <trkpt lat="48.36215" lon="2.74613">
        <ele>120</ele>
        <time>2014-05-08T08:33:42.922Z</time>
      </trkpt>
      <trkpt lat="48.3622" lon="2.74604">
        <ele>120</ele>
        <time>2014-05-08T08:33:46.955Z</time>
      </trkpt>
      <trkpt lat="48.36221" lon="2.74601">
        <ele>119</ele>
        <time>2014-05-08T08:33:47.922Z</time>
      </trkpt>
      <trkpt lat="48.36227" lon="2.74596">
        <ele>118</ele>
        <time>2014-05-08T08:33:50.956Z</time>
      </trkpt>
      <trkpt lat="48.36229" lon="2.74594">
        <ele>118</ele>
        <time>2014-05-08T08:33:51.934Z</time>
      </trkpt>
      <trkpt lat="48.36234" lon="2.7459">
        <ele>117</ele>
        <time>2014-05-08T08:33:54.921Z</time>
      </trkpt>
      <trkpt lat="48.36237" lon="2.74589">
        <ele>117</ele>
        <time>2014-05-08T08:33:55.933Z</time>
      </trkpt>
      <trkpt lat="48.36243" lon="2.74584">
        <ele>115</ele>
        <time>2014-05-08T08:33:58.185Z</time>
      </trkpt>
      <trkpt lat="48.36245" lon="2.74582">
        <ele>114</ele>
        <time>2014-05-08T08:33:59.194Z</time>
      </trkpt>
      <trkpt lat="48.36251" lon="2.74575">
        <ele>112</ele>
        <time>2014-05-08T08:34:02.241Z</time>
      </trkpt>
      <trkpt lat="48.36254" lon="2.74573">
        <ele>112</ele>
        <time>2014-05-08T08:34:03.185Z</time>
      </trkpt>
      <trkpt lat="48.3626" lon="2.74566">
        <ele>111</ele>
        <time>2014-05-08T08:34:06.191Z</time>
      </trkpt>
      <trkpt lat="48.36261" lon="2.74564">
        <ele>111</ele>
        <time>2014-05-08T08:34:07.177Z</time>
      </trkpt>
      <trkpt lat="48.36268" lon="2.74557">
        <ele>110</ele>
        <time>2014-05-08T08:34:11.212Z</time>
      </trkpt>
      <trkpt lat="48.36269" lon="2.74556">
        <ele>110</ele>
        <time>2014-05-08T08:34:12.198Z</time>
      </trkpt>
      <trkpt lat="48.36278" lon="2.74551">
        <ele>110</ele>
        <time>2014-05-08T08:34:16.246Z</time>
      </trkpt>
      <trkpt lat="48.36279" lon="2.7455">
        <ele>110</ele>
        <time>2014-05-08T08:34:17.222Z</time>
      </trkpt>
      <trkpt lat="48.36283" lon="2.74542">
        <ele>109</ele>
        <time>2014-05-08T08:34:20.247Z</time>
      </trkpt>
      <trkpt lat="48.36285" lon="2.7454">
        <ele>109</ele>
        <time>2014-05-08T08:34:21.222Z</time>
      </trkpt>
      <trkpt lat="48.36292" lon="2.74534">
        <ele>109</ele>
        <time>2014-05-08T08:34:25.240Z</time>
      </trkpt>
      <trkpt lat="48.36294" lon="2.74532">
        <ele>109</ele>
        <time>2014-05-08T08:34:26.238Z</time>
      </trkpt>
      <trkpt lat="48.363" lon="2.74525">
        <ele>108</ele>
        <time>2014-05-08T08:34:29.238Z</time>
      </trkpt>
      <trkpt lat="48.36302" lon="2.74523">
        <ele>108</ele>
        <time>2014-05-08T08:34:30.221Z</time>
      </trkpt>
      <trkpt lat="48.36311" lon="2.74522">
        <ele>108</ele>
        <time>2014-05-08T08:34:33.218Z</time>
      </trkpt>
      <trkpt lat="48.36314" lon="2.74521">
        <ele>108</ele>
        <time>2014-05-08T08:34:34.222Z</time>
      </trkpt>
      <trkpt lat="48.36322" lon="2.7452">
        <ele>107</ele>
        <time>2014-05-08T08:34:38.248Z</time>
      </trkpt>
      <trkpt lat="48.36325" lon="2.74519">
        <ele>107</ele>
        <time>2014-05-08T08:34:39.221Z</time>
      </trkpt>
      <trkpt lat="48.36332" lon="2.74518">
        <ele>106</ele>
        <time>2014-05-08T08:34:42.232Z</time>
      </trkpt>
      <trkpt lat="48.36334" lon="2.74518">
        <ele>106</ele>
        <time>2014-05-08T08:34:43.211Z</time>
      </trkpt>
      <trkpt lat="48.36342" lon="2.74518">
        <ele>106</ele>
        <time>2014-05-08T08:34:46.248Z</time>
      </trkpt>
      <trkpt lat="48.36344" lon="2.74517">
        <ele>106</ele>
        <time>2014-05-08T08:34:47.209Z</time>
      </trkpt>
      <trkpt lat="48.36351" lon="2.74516">
        <ele>106</ele>
        <time>2014-05-08T08:34:50.262Z</time>
      </trkpt>
      <trkpt lat="48.36353" lon="2.74516">
        <ele>106</ele>
        <time>2014-05-08T08:34:51.236Z</time>
      </trkpt>
      <trkpt lat="48.3636" lon="2.74516">
        <ele>107</ele>
        <time>2014-05-08T08:34:54.223Z</time>
      </trkpt>
      <trkpt lat="48.36362" lon="2.74516">
        <ele>107</ele>
        <time>2014-05-08T08:34:55.212Z</time>
      </trkpt>
      <trkpt lat="48.36371" lon="2.74516">
        <ele>107</ele>
        <time>2014-05-08T08:34:59.248Z</time>
      </trkpt>
      <trkpt lat="48.36373" lon="2.74515">
        <ele>107</ele>
        <time>2014-05-08T08:35:00.207Z</time>
      </trkpt>
      <trkpt lat="48.36381" lon="2.74514">
        <ele>107</ele>
        <time>2014-05-08T08:35:04.224Z</time>
      </trkpt>
      <trkpt lat="48.36383" lon="2.74514">
        <ele>108</ele>
        <time>2014-05-08T08:35:05.210Z</time>
      </trkpt>
      <trkpt lat="48.3639" lon="2.74513">
        <ele>108</ele>
        <time>2014-05-08T08:35:08.225Z</time>
      </trkpt>
      <trkpt lat="48.36393" lon="2.74513">
        <ele>108</ele>
        <time>2014-05-08T08:35:09.211Z</time>
      </trkpt>
      <trkpt lat="48.364" lon="2.74512">
        <ele>108</ele>
        <time>2014-05-08T08:35:12.226Z</time>
      </trkpt>
      <trkpt lat="48.36402" lon="2.74512">
        <ele>108</ele>
        <time>2014-05-08T08:35:13.242Z</time>
      </trkpt>
      <trkpt lat="48.36409" lon="2.74512">
        <ele>108</ele>
        <time>2014-05-08T08:35:16.264Z</time>
      </trkpt>
      <trkpt lat="48.36411" lon="2.74511">
        <ele>108</ele>
        <time>2014-05-08T08:35:17.221Z</time>
      </trkpt>
      <trkpt lat="48.36418" lon="2.7451">
        <ele>108</ele>
        <time>2014-05-08T08:35:20.236Z</time>
      </trkpt>
      <trkpt lat="48.3642" lon="2.7451">
        <ele>108</ele>
        <time>2014-05-08T08:35:21.221Z</time>
      </trkpt>
      <trkpt lat="48.36429" lon="2.74508">
        <ele>108</ele>
        <time>2014-05-08T08:35:25.225Z</time>
      </trkpt>
      <trkpt lat="48.36432" lon="2.74507">
        <ele>108</ele>
        <time>2014-05-08T08:35:26.238Z</time>
      </trkpt>
      <trkpt lat="48.36439" lon="2.74507">
        <ele>108</ele>
        <time>2014-05-08T08:35:29.226Z</time>
      </trkpt>
      <trkpt lat="48.36442" lon="2.74507">
        <ele>108</ele>
        <time>2014-05-08T08:35:30.208Z</time>
      </trkpt>
      <trkpt lat="48.36449" lon="2.74506">
        <ele>107</ele>
        <time>2014-05-08T08:35:33.232Z</time>
      </trkpt>
      <trkpt lat="48.36451" lon="2.74506">
        <ele>107</ele>
        <time>2014-05-08T08:35:34.210Z</time>
      </trkpt>
      <trkpt lat="48.36458" lon="2.74505">
        <ele>107</ele>
        <time>2014-05-08T08:35:37.229Z</time>
      </trkpt>
      <trkpt lat="48.3646" lon="2.74505">
        <ele>107</ele>
        <time>2014-05-08T08:35:38.228Z</time>
      </trkpt>
      <trkpt lat="48.36468" lon="2.74504">
        <ele>107</ele>
        <time>2014-05-08T08:35:42.225Z</time>
      </trkpt>
      <trkpt lat="48.3647" lon="2.74503">
        <ele>107</ele>
        <time>2014-05-08T08:35:43.221Z</time>
      </trkpt>
      <trkpt lat="48.36477" lon="2.74503">
        <ele>106</ele>
        <time>2014-05-08T08:35:46.245Z</time>
      </trkpt>
      <trkpt lat="48.36479" lon="2.74502">
        <ele>106</ele>
        <time>2014-05-08T08:35:47.228Z</time>
      </trkpt>
      <trkpt lat="48.36488" lon="2.745">
        <ele>106</ele>
        <time>2014-05-08T08:35:51.263Z</time>
      </trkpt>
      <trkpt lat="48.3649" lon="2.745">
        <ele>106</ele>
        <time>2014-05-08T08:35:52.225Z</time>
      </trkpt>
      <trkpt lat="48.36498" lon="2.74499">
        <ele>105</ele>
        <time>2014-05-08T08:35:55.226Z</time>
      </trkpt>
      <trkpt lat="48.365" lon="2.74499">
        <ele>105</ele>
        <time>2014-05-08T08:35:56.248Z</time>
      </trkpt>
      <trkpt lat="48.36509" lon="2.74496">
        <ele>105</ele>
        <time>2014-05-08T08:36:00.210Z</time>
      </trkpt>
      <trkpt lat="48.36511" lon="2.74496">
        <ele>105</ele>
        <time>2014-05-08T08:36:01.217Z</time>
      </trkpt>
      <trkpt lat="48.36519" lon="2.74494">
        <ele>104</ele>
        <time>2014-05-08T08:36:05.224Z</time>
      </trkpt>
      <trkpt lat="48.36521" lon="2.74493">
        <ele>104</ele>
        <time>2014-05-08T08:36:06.208Z</time>
      </trkpt>
      <trkpt lat="48.36529" lon="2.7449">
        <ele>104</ele>
        <time>2014-05-08T08:36:10.221Z</time>
      </trkpt>
      <trkpt lat="48.36531" lon="2.74489">
        <ele>104</ele>
        <time>2014-05-08T08:36:11.218Z</time>
      </trkpt>
      <trkpt lat="48.36539" lon="2.74487">
        <ele>104</ele>
        <time>2014-05-08T08:36:15.230Z</time>
      </trkpt>
      <trkpt lat="48.36541" lon="2.74486">
        <ele>104</ele>
        <time>2014-05-08T08:36:16.220Z</time>
      </trkpt>
      <trkpt lat="48.36549" lon="2.74485">
        <ele>104</ele>
        <time>2014-05-08T08:36:20.245Z</time>
      </trkpt>
      <trkpt lat="48.36551" lon="2.74484">
        <ele>104</ele>
        <time>2014-05-08T08:36:21.231Z</time>
      </trkpt>
      <trkpt lat="48.36559" lon="2.74481">
        <ele>103</ele>
        <time>2014-05-08T08:36:25.236Z</time>
      </trkpt>
      <trkpt lat="48.36562" lon="2.74481">
        <ele>103</ele>
        <time>2014-05-08T08:36:26.239Z</time>
      </trkpt>
      <trkpt lat="48.36568" lon="2.74479">
        <ele>103</ele>
        <time>2014-05-08T08:36:29.237Z</time>
      </trkpt>
      <trkpt lat="48.36571" lon="2.74479">
        <ele>103</ele>
        <time>2014-05-08T08:36:30.207Z</time>
      </trkpt>
      <trkpt lat="48.36579" lon="2.74477">
        <ele>103</ele>
        <time>2014-05-08T08:36:34.230Z</time>
      </trkpt>
      <trkpt lat="48.36582" lon="2.74477">
        <ele>103</ele>
        <time>2014-05-08T08:36:35.203Z</time>
      </trkpt>
      <trkpt lat="48.3659" lon="2.74476">
        <ele>103</ele>
        <time>2014-05-08T08:36:39.217Z</time>
      </trkpt>
      <trkpt lat="48.36593" lon="2.74475">
        <ele>103</ele>
        <time>2014-05-08T08:36:40.213Z</time>
      </trkpt>
      <trkpt lat="48.366" lon="2.74474">
        <ele>103</ele>
        <time>2014-05-08T08:36:43.220Z</time>
      </trkpt>
      <trkpt lat="48.36603" lon="2.74474">
        <ele>103</ele>
        <time>2014-05-08T08:36:44.222Z</time>
      </trkpt>
      <trkpt lat="48.36611" lon="2.74473">
        <ele>104</ele>
        <time>2014-05-08T08:36:48.265Z</time>
      </trkpt>
      <trkpt lat="48.36613" lon="2.74472">
        <ele>104</ele>
        <time>2014-05-08T08:36:49.210Z</time>
      </trkpt>
      <trkpt lat="48.3662" lon="2.7447">
        <ele>104</ele>
        <time>2014-05-08T08:36:53.245Z</time>
      </trkpt>
      <trkpt lat="48.36622" lon="2.7447">
        <ele>104</ele>
        <time>2014-05-08T08:36:54.249Z</time>
      </trkpt>
      <trkpt lat="48.36631" lon="2.74469">
        <ele>104</ele>
        <time>2014-05-08T08:36:58.223Z</time>
      </trkpt>
      <trkpt lat="48.36633" lon="2.74469">
        <ele>104</ele>
        <time>2014-05-08T08:36:59.206Z</time>
      </trkpt>
      <trkpt lat="48.36642" lon="2.74469">
        <ele>104</ele>
        <time>2014-05-08T08:37:03.217Z</time>
      </trkpt>
      <trkpt lat="48.36644" lon="2.74469">
        <ele>104</ele>
        <time>2014-05-08T08:37:04.213Z</time>
      </trkpt>
      <trkpt lat="48.36653" lon="2.74468">
        <ele>105</ele>
        <time>2014-05-08T08:37:08.244Z</time>
      </trkpt>
      <trkpt lat="48.36655" lon="2.74467">
        <ele>105</ele>
        <time>2014-05-08T08:37:09.217Z</time>
      </trkpt>
      <trkpt lat="48.36663" lon="2.74467">
        <ele>105</ele>
        <time>2014-05-08T08:37:13.228Z</time>
      </trkpt>
      <trkpt lat="48.36665" lon="2.74467">
        <ele>105</ele>
        <time>2014-05-08T08:37:14.240Z</time>
      </trkpt>
      <trkpt lat="48.36674" lon="2.74464">
        <ele>108</ele>
        <time>2014-05-08T08:37:18.249Z</time>
      </trkpt>
      <trkpt lat="48.36676" lon="2.74463">
        <ele>108</ele>
        <time>2014-05-08T08:37:19.222Z</time>
      </trkpt>
      <trkpt lat="48.36684" lon="2.74461">
        <ele>109</ele>
        <time>2014-05-08T08:37:23.227Z</time>
      </trkpt>
      <trkpt lat="48.36685" lon="2.7446">
        <ele>109</ele>
        <time>2014-05-08T08:37:24.222Z</time>
      </trkpt>
      <trkpt lat="48.36693" lon="2.74461">
        <ele>109</ele>
        <time>2014-05-08T08:37:28.226Z</time>
      </trkpt>
      <trkpt lat="48.36695" lon="2.74461">
        <ele>109</ele>
        <time>2014-05-08T08:37:29.223Z</time>
      </trkpt>
      <trkpt lat="48.36702" lon="2.74462">
        <ele>109</ele>
        <time>2014-05-08T08:37:33.243Z</time>
      </trkpt>
      <trkpt lat="48.36704" lon="2.74462">
        <ele>110</ele>
        <time>2014-05-08T08:37:34.227Z</time>
      </trkpt>
      <trkpt lat="48.36713" lon="2.74463">
        <ele>110</ele>
        <time>2014-05-08T08:37:38.235Z</time>
      </trkpt>
      <trkpt lat="48.36715" lon="2.74463">
        <ele>110</ele>
        <time>2014-05-08T08:37:39.215Z</time>
      </trkpt>
      <trkpt lat="48.36723" lon="2.74466">
        <ele>110</ele>
        <time>2014-05-08T08:37:43.202Z</time>
      </trkpt>
      <trkpt lat="48.36725" lon="2.74466">
        <ele>110</ele>
        <time>2014-05-08T08:37:44.221Z</time>
      </trkpt>
      <trkpt lat="48.36731" lon="2.74469">
        <ele>110</ele>
        <time>2014-05-08T08:37:48.236Z</time>
      </trkpt>
      <trkpt lat="48.36733" lon="2.7447">
        <ele>110</ele>
        <time>2014-05-08T08:37:49.217Z</time>
      </trkpt>
      <trkpt lat="48.3674" lon="2.74472">
        <ele>111</ele>
        <time>2014-05-08T08:37:53.238Z</time>
      </trkpt>
      <trkpt lat="48.36742" lon="2.74473">
        <ele>111</ele>
        <time>2014-05-08T08:37:54.210Z</time>
      </trkpt>
      <trkpt lat="48.3675" lon="2.74476">
        <ele>116</ele>
        <time>2014-05-08T08:37:58.220Z</time>
      </trkpt>
      <trkpt lat="48.36752" lon="2.74477">
        <ele>116</ele>
        <time>2014-05-08T08:37:59.220Z</time>
      </trkpt>
      <trkpt lat="48.3676" lon="2.74479">
        <ele>116</ele>
        <time>2014-05-08T08:38:03.218Z</time>
      </trkpt>
      <trkpt lat="48.36762" lon="2.7448">
        <ele>117</ele>
        <time>2014-05-08T08:38:04.210Z</time>
      </trkpt>
      <trkpt lat="48.36769" lon="2.74483">
        <ele>117</ele>
        <time>2014-05-08T08:38:08.230Z</time>
      </trkpt>
      <trkpt lat="48.36771" lon="2.74484">
        <ele>117</ele>
        <time>2014-05-08T08:38:09.211Z</time>
      </trkpt>
      <trkpt lat="48.3678" lon="2.74486">
        <ele>118</ele>
        <time>2014-05-08T08:38:14.227Z</time>
      </trkpt>
      <trkpt lat="48.36782" lon="2.74486">
        <ele>118</ele>
        <time>2014-05-08T08:38:15.222Z</time>
      </trkpt>
      <trkpt lat="48.36789" lon="2.74487">
        <ele>119</ele>
        <time>2014-05-08T08:38:20.235Z</time>
      </trkpt>
      <trkpt lat="48.36791" lon="2.74487">
        <ele>119</ele>
        <time>2014-05-08T08:38:21.224Z</time>
      </trkpt>
      <trkpt lat="48.36799" lon="2.74489">
        <ele>120</ele>
        <time>2014-05-08T08:38:26.226Z</time>
      </trkpt>
      <trkpt lat="48.36801" lon="2.74489">
        <ele>121</ele>
        <time>2014-05-08T08:38:27.222Z</time>
      </trkpt>
      <trkpt lat="48.36809" lon="2.74489">
        <ele>121</ele>
        <time>2014-05-08T08:38:33.223Z</time>
      </trkpt>
      <trkpt lat="48.3681" lon="2.74489">
        <ele>122</ele>
        <time>2014-05-08T08:38:34.213Z</time>
      </trkpt>
      <trkpt lat="48.36818" lon="2.74486">
        <ele>122</ele>
        <time>2014-05-08T08:38:41.237Z</time>
      </trkpt>
      <trkpt lat="48.3682" lon="2.74486">
        <ele>122</ele>
        <time>2014-05-08T08:38:42.227Z</time>
      </trkpt>
      <trkpt lat="48.36828" lon="2.74484">
        <ele>123</ele>
        <time>2014-05-08T08:38:48.266Z</time>
      </trkpt>
      <trkpt lat="48.3683" lon="2.74484">
        <ele>123</ele>
        <time>2014-05-08T08:38:49.223Z</time>
      </trkpt>
      <trkpt lat="48.36838" lon="2.7448">
        <ele>128</ele>
        <time>2014-05-08T08:38:55.215Z</time>
      </trkpt>
      <trkpt lat="48.3684" lon="2.74478">
        <ele>128</ele>
        <time>2014-05-08T08:38:56.248Z</time>
      </trkpt>
      <trkpt lat="48.36847" lon="2.74471">
        <ele>129</ele>
        <time>2014-05-08T08:39:01.217Z</time>
      </trkpt>
      <trkpt lat="48.36849" lon="2.7447">
        <ele>129</ele>
        <time>2014-05-08T08:39:02.229Z</time>
      </trkpt>
      <trkpt lat="48.36855" lon="2.74464">
        <ele>130</ele>
        <time>2014-05-08T08:39:06.215Z</time>
      </trkpt>
      <trkpt lat="48.36857" lon="2.74463">
        <ele>130</ele>
        <time>2014-05-08T08:39:07.221Z</time>
      </trkpt>
      <trkpt lat="48.36863" lon="2.74452">
        <ele>130</ele>
        <time>2014-05-08T08:39:13.229Z</time>
      </trkpt>
      <trkpt lat="48.36864" lon="2.74451">
        <ele>130</ele>
        <time>2014-05-08T08:39:14.215Z</time>
      </trkpt>
      <trkpt lat="48.36869" lon="2.74442">
        <ele>131</ele>
        <time>2014-05-08T08:39:19.228Z</time>
      </trkpt>
      <trkpt lat="48.3687" lon="2.7444">
        <ele>131</ele>
        <time>2014-05-08T08:39:20.242Z</time>
      </trkpt>
      <trkpt lat="48.36874" lon="2.74431">
        <ele>131</ele>
        <time>2014-05-08T08:39:24.221Z</time>
      </trkpt>
      <trkpt lat="48.36875" lon="2.74429">
        <ele>131</ele>
        <time>2014-05-08T08:39:25.223Z</time>
      </trkpt>
      <trkpt lat="48.36881" lon="2.7442">
        <ele>131</ele>
        <time>2014-05-08T08:39:28.254Z</time>
      </trkpt>
      <trkpt lat="48.36882" lon="2.74417">
        <ele>131</ele>
        <time>2014-05-08T08:39:29.239Z</time>
      </trkpt>
      <trkpt lat="48.36886" lon="2.74409">
        <ele>133</ele>
        <time>2014-05-08T08:39:32.233Z</time>
      </trkpt>
      <trkpt lat="48.36888" lon="2.74406">
        <ele>133</ele>
        <time>2014-05-08T08:39:33.216Z</time>
      </trkpt>
      <trkpt lat="48.36895" lon="2.74398">
        <ele>133</ele>
        <time>2014-05-08T08:39:37.221Z</time>
      </trkpt>
      <trkpt lat="48.36896" lon="2.74397">
        <ele>133</ele>
        <time>2014-05-08T08:39:38.226Z</time>
      </trkpt>
      <trkpt lat="48.36901" lon="2.74388">
        <ele>133</ele>
        <time>2014-05-08T08:39:42.257Z</time>
      </trkpt>
      <trkpt lat="48.36902" lon="2.74385">
        <ele>133</ele>
        <time>2014-05-08T08:39:43.210Z</time>
      </trkpt>
      <trkpt lat="48.36907" lon="2.74377">
        <ele>133</ele>
        <time>2014-05-08T08:39:46.241Z</time>
      </trkpt>
      <trkpt lat="48.36908" lon="2.74374">
        <ele>134</ele>
        <time>2014-05-08T08:39:47.228Z</time>
      </trkpt>
      <trkpt lat="48.36914" lon="2.74364">
        <ele>134</ele>
        <time>2014-05-08T08:39:51.265Z</time>
      </trkpt>
      <trkpt lat="48.36916" lon="2.74362">
        <ele>134</ele>
        <time>2014-05-08T08:39:52.228Z</time>
      </trkpt>
      <trkpt lat="48.36921" lon="2.74353">
        <ele>134</ele>
        <time>2014-05-08T08:39:56.243Z</time>
      </trkpt>
      <trkpt lat="48.36923" lon="2.74351">
        <ele>134</ele>
        <time>2014-05-08T08:39:57.248Z</time>
      </trkpt>
      <trkpt lat="48.36928" lon="2.74341">
        <ele>134</ele>
        <time>2014-05-08T08:40:01.387Z</time>
      </trkpt>
      <trkpt lat="48.36929" lon="2.74338">
        <ele>134</ele>
        <time>2014-05-08T08:40:02.404Z</time>
      </trkpt>
      <trkpt lat="48.36934" lon="2.7433">
        <ele>134</ele>
        <time>2014-05-08T08:40:06.409Z</time>
      </trkpt>
      <trkpt lat="48.36935" lon="2.74328">
        <ele>134</ele>
        <time>2014-05-08T08:40:07.395Z</time>
      </trkpt>
      <trkpt lat="48.36938" lon="2.74318">
        <ele>133</ele>
        <time>2014-05-08T08:40:11.396Z</time>
      </trkpt>
      <trkpt lat="48.36939" lon="2.74315">
        <ele>133</ele>
        <time>2014-05-08T08:40:12.386Z</time>
      </trkpt>
      <trkpt lat="48.36943" lon="2.74305">
        <ele>133</ele>
        <time>2014-05-08T08:40:17.403Z</time>
      </trkpt>
      <trkpt lat="48.36945" lon="2.74303">
        <ele>133</ele>
        <time>2014-05-08T08:40:18.388Z</time>
      </trkpt>
      <trkpt lat="48.3695" lon="2.74294">
        <ele>133</ele>
        <time>2014-05-08T08:40:22.401Z</time>
      </trkpt>
      <trkpt lat="48.36951" lon="2.74293">
        <ele>132</ele>
        <time>2014-05-08T08:40:23.394Z</time>
      </trkpt>
      <trkpt lat="48.36957" lon="2.74283">
        <ele>132</ele>
        <time>2014-05-08T08:40:28.402Z</time>
      </trkpt>
      <trkpt lat="48.36958" lon="2.7428">
        <ele>132</ele>
        <time>2014-05-08T08:40:29.411Z</time>
      </trkpt>
      <trkpt lat="48.36963" lon="2.74272">
        <ele>132</ele>
        <time>2014-05-08T08:40:32.410Z</time>
      </trkpt>
      <trkpt lat="48.36964" lon="2.74269">
        <ele>132</ele>
        <time>2014-05-08T08:40:33.378Z</time>
      </trkpt>
      <trkpt lat="48.36969" lon="2.74261">
        <ele>132</ele>
        <time>2014-05-08T08:40:36.391Z</time>
      </trkpt>
      <trkpt lat="48.36971" lon="2.74258">
        <ele>132</ele>
        <time>2014-05-08T08:40:37.400Z</time>
      </trkpt>
      <trkpt lat="48.36975" lon="2.7425">
        <ele>132</ele>
        <time>2014-05-08T08:40:40.387Z</time>
      </trkpt>
      <trkpt lat="48.36977" lon="2.74248">
        <ele>132</ele>
        <time>2014-05-08T08:40:41.389Z</time>
      </trkpt>
      <trkpt lat="48.36984" lon="2.7424">
        <ele>132</ele>
        <time>2014-05-08T08:40:45.393Z</time>
      </trkpt>
      <trkpt lat="48.36986" lon="2.74238">
        <ele>132</ele>
        <time>2014-05-08T08:40:46.402Z</time>
      </trkpt>
      <trkpt lat="48.36991" lon="2.74231">
        <ele>132</ele>
        <time>2014-05-08T08:40:49.397Z</time>
      </trkpt>
      <trkpt lat="48.36992" lon="2.74228">
        <ele>132</ele>
        <time>2014-05-08T08:40:50.416Z</time>
      </trkpt>
      <trkpt lat="48.36997" lon="2.7422">
        <ele>132</ele>
        <time>2014-05-08T08:40:53.394Z</time>
      </trkpt>
      <trkpt lat="48.36999" lon="2.74218">
        <ele>132</ele>
        <time>2014-05-08T08:40:54.388Z</time>
      </trkpt>
      <trkpt lat="48.37006" lon="2.74214">
        <ele>125</ele>
        <time>2014-05-08T08:40:57.410Z</time>
      </trkpt>
      <trkpt lat="48.37008" lon="2.74212">
        <ele>125</ele>
        <time>2014-05-08T08:40:58.390Z</time>
      </trkpt>
      <trkpt lat="48.37015" lon="2.74207">
        <ele>124</ele>
        <time>2014-05-08T08:41:01.330Z</time>
      </trkpt>
      <trkpt lat="48.37017" lon="2.74205">
        <ele>124</ele>
        <time>2014-05-08T08:41:02.345Z</time>
      </trkpt>
      <trkpt lat="48.37023" lon="2.74199">
        <ele>124</ele>
        <time>2014-05-08T08:41:05.349Z</time>
      </trkpt>
      <trkpt lat="48.37025" lon="2.74197">
        <ele>124</ele>
        <time>2014-05-08T08:41:06.330Z</time>
      </trkpt>
      <trkpt lat="48.3703" lon="2.74191">
        <ele>123</ele>
        <time>2014-05-08T08:41:09.330Z</time>
      </trkpt>
      <trkpt lat="48.37032" lon="2.74188">
        <ele>123</ele>
        <time>2014-05-08T08:41:10.326Z</time>
      </trkpt>
      <trkpt lat="48.37037" lon="2.7418">
        <ele>123</ele>
        <time>2014-05-08T08:41:13.331Z</time>
      </trkpt>
      <trkpt lat="48.37038" lon="2.74177">
        <ele>122</ele>
        <time>2014-05-08T08:41:14.345Z</time>
      </trkpt>
      <trkpt lat="48.37042" lon="2.74168">
        <ele>122</ele>
        <time>2014-05-08T08:41:17.356Z</time>
      </trkpt>
      <trkpt lat="48.37044" lon="2.74166">
        <ele>122</ele>
        <time>2014-05-08T08:41:18.325Z</time>
      </trkpt>
      <trkpt lat="48.37051" lon="2.74159">
        <ele>121</ele>
        <time>2014-05-08T08:41:21.293Z</time>
      </trkpt>
      <trkpt lat="48.37053" lon="2.74157">
        <ele>121</ele>
        <time>2014-05-08T08:41:22.290Z</time>
      </trkpt>
      <trkpt lat="48.3706" lon="2.7415">
        <ele>120</ele>
        <time>2014-05-08T08:41:26.348Z</time>
      </trkpt>
      <trkpt lat="48.37062" lon="2.74148">
        <ele>120</ele>
        <time>2014-05-08T08:41:27.299Z</time>
      </trkpt>
      <trkpt lat="48.37068" lon="2.74139">
        <ele>120</ele>
        <time>2014-05-08T08:41:31.350Z</time>
      </trkpt>
      <trkpt lat="48.37069" lon="2.74136">
        <ele>120</ele>
        <time>2014-05-08T08:41:32.338Z</time>
      </trkpt>
      <trkpt lat="48.37075" lon="2.74128">
        <ele>120</ele>
        <time>2014-05-08T08:41:36.326Z</time>
      </trkpt>
      <trkpt lat="48.37077" lon="2.74126">
        <ele>120</ele>
        <time>2014-05-08T08:41:37.322Z</time>
      </trkpt>
      <trkpt lat="48.37083" lon="2.74118">
        <ele>111</ele>
        <time>2014-05-08T08:41:40.330Z</time>
      </trkpt>
      <trkpt lat="48.37086" lon="2.74115">
        <ele>111</ele>
        <time>2014-05-08T08:41:41.332Z</time>
      </trkpt>
      <trkpt lat="48.37092" lon="2.74107">
        <ele>111</ele>
        <time>2014-05-08T08:41:44.353Z</time>
      </trkpt>
      <trkpt lat="48.37094" lon="2.74105">
        <ele>111</ele>
        <time>2014-05-08T08:41:45.339Z</time>
      </trkpt>
      <trkpt lat="48.37099" lon="2.74098">
        <ele>111</ele>
        <time>2014-05-08T08:41:48.356Z</time>
      </trkpt>
      <trkpt lat="48.371" lon="2.74096">
        <ele>111</ele>
        <time>2014-05-08T08:41:49.351Z</time>
      </trkpt>
      <trkpt lat="48.37108" lon="2.74089">
        <ele>111</ele>
        <time>2014-05-08T08:41:53.347Z</time>
      </trkpt>
      <trkpt lat="48.3711" lon="2.74087">
        <ele>111</ele>
        <time>2014-05-08T08:41:54.335Z</time>
      </trkpt>
      <trkpt lat="48.37116" lon="2.74082">
        <ele>110</ele>
        <time>2014-05-08T08:41:57.349Z</time>
      </trkpt>
      <trkpt lat="48.37118" lon="2.7408">
        <ele>110</ele>
        <time>2014-05-08T08:41:58.333Z</time>
      </trkpt>
      <trkpt lat="48.37123" lon="2.74075">
        <ele>109</ele>
        <time>2014-05-08T08:42:01.332Z</time>
      </trkpt>
      <trkpt lat="48.37126" lon="2.74073">
        <ele>109</ele>
        <time>2014-05-08T08:42:02.341Z</time>
      </trkpt>
      <trkpt lat="48.37132" lon="2.74068">
        <ele>109</ele>
        <time>2014-05-08T08:42:05.337Z</time>
      </trkpt>
      <trkpt lat="48.37134" lon="2.74067">
        <ele>108</ele>
        <time>2014-05-08T08:42:06.324Z</time>
      </trkpt>
      <trkpt lat="48.37141" lon="2.74063">
        <ele>108</ele>
        <time>2014-05-08T08:42:09.340Z</time>
      </trkpt>
      <trkpt lat="48.37143" lon="2.74062">
        <ele>108</ele>
        <time>2014-05-08T08:42:10.326Z</time>
      </trkpt>
      <trkpt lat="48.3715" lon="2.74057">
        <ele>108</ele>
        <time>2014-05-08T08:42:13.351Z</time>
      </trkpt>
      <trkpt lat="48.37152" lon="2.74056">
        <ele>107</ele>
        <time>2014-05-08T08:42:14.346Z</time>
      </trkpt>
      <trkpt lat="48.37159" lon="2.74052">
        <ele>107</ele>
        <time>2014-05-08T08:42:17.361Z</time>
      </trkpt>
      <trkpt lat="48.37161" lon="2.7405">
        <ele>107</ele>
        <time>2014-05-08T08:42:18.327Z</time>
      </trkpt>
      <trkpt lat="48.37168" lon="2.74045">
        <ele>103</ele>
        <time>2014-05-08T08:42:21.343Z</time>
      </trkpt>
      <trkpt lat="48.3717" lon="2.74044">
        <ele>103</ele>
        <time>2014-05-08T08:42:22.344Z</time>
      </trkpt>
      <trkpt lat="48.37176" lon="2.74041">
        <ele>103</ele>
        <time>2014-05-08T08:42:25.335Z</time>
      </trkpt>
      <trkpt lat="48.37179" lon="2.74041">
        <ele>103</ele>
        <time>2014-05-08T08:42:26.345Z</time>
      </trkpt>
      <trkpt lat="48.37186" lon="2.74039">
        <ele>102</ele>
        <time>2014-05-08T08:42:29.335Z</time>
      </trkpt>
      <trkpt lat="48.37188" lon="2.74039">
        <ele>102</ele>
        <time>2014-05-08T08:42:30.327Z</time>
      </trkpt>
      <trkpt lat="48.37195" lon="2.74036">
        <ele>102</ele>
        <time>2014-05-08T08:42:34.333Z</time>
      </trkpt>
      <trkpt lat="48.37197" lon="2.74035">
        <ele>102</ele>
        <time>2014-05-08T08:42:35.329Z</time>
      </trkpt>
      <trkpt lat="48.37205" lon="2.7403">
        <ele>102</ele>
        <time>2014-05-08T08:42:39.332Z</time>
      </trkpt>
      <trkpt lat="48.37207" lon="2.74028">
        <ele>102</ele>
        <time>2014-05-08T08:42:40.325Z</time>
      </trkpt>
      <trkpt lat="48.37213" lon="2.74022">
        <ele>102</ele>
        <time>2014-05-08T08:42:43.324Z</time>
      </trkpt>
      <trkpt lat="48.37216" lon="2.74021">
        <ele>102</ele>
        <time>2014-05-08T08:42:44.345Z</time>
      </trkpt>
      <trkpt lat="48.37223" lon="2.74016">
        <ele>102</ele>
        <time>2014-05-08T08:42:47.333Z</time>
      </trkpt>
      <trkpt lat="48.37225" lon="2.74014">
        <ele>102</ele>
        <time>2014-05-08T08:42:48.347Z</time>
      </trkpt>
      <trkpt lat="48.37233" lon="2.74011">
        <ele>102</ele>
        <time>2014-05-08T08:42:51.385Z</time>
      </trkpt>
      <trkpt lat="48.37235" lon="2.7401">
        <ele>102</ele>
        <time>2014-05-08T08:42:52.340Z</time>
      </trkpt>
      <trkpt lat="48.37242" lon="2.74013">
        <ele>102</ele>
        <time>2014-05-08T08:42:55.341Z</time>
      </trkpt>
      <trkpt lat="48.37244" lon="2.74015">
        <ele>102</ele>
        <time>2014-05-08T08:42:56.347Z</time>
      </trkpt>
      <trkpt lat="48.37249" lon="2.74024">
        <ele>101</ele>
        <time>2014-05-08T08:43:00.362Z</time>
      </trkpt>
      <trkpt lat="48.37249" lon="2.74027">
        <ele>101</ele>
        <time>2014-05-08T08:43:01.341Z</time>
      </trkpt>
      <trkpt lat="48.37252" lon="2.74037">
        <ele>98</ele>
        <time>2014-05-08T08:43:05.343Z</time>
      </trkpt>
      <trkpt lat="48.37253" lon="2.7404">
        <ele>97</ele>
        <time>2014-05-08T08:43:06.328Z</time>
      </trkpt>
      <trkpt lat="48.37256" lon="2.74052">
        <ele>97</ele>
        <time>2014-05-08T08:43:10.332Z</time>
      </trkpt>
      <trkpt lat="48.37257" lon="2.74055">
        <ele>97</ele>
        <time>2014-05-08T08:43:11.330Z</time>
      </trkpt>
      <trkpt lat="48.37258" lon="2.74066">
        <ele>96</ele>
        <time>2014-05-08T08:43:15.350Z</time>
      </trkpt>
      <trkpt lat="48.37258" lon="2.74068">
        <ele>96</ele>
        <time>2014-05-08T08:43:16.359Z</time>
      </trkpt>
      <trkpt lat="48.37263" lon="2.74078">
        <ele>96</ele>
        <time>2014-05-08T08:43:21.349Z</time>
      </trkpt>
      <trkpt lat="48.37265" lon="2.74081">
        <ele>96</ele>
        <time>2014-05-08T08:43:22.330Z</time>
      </trkpt>
      <trkpt lat="48.37268" lon="2.74093">
        <ele>94</ele>
        <time>2014-05-08T08:43:26.358Z</time>
      </trkpt>
      <trkpt lat="48.37269" lon="2.74096">
        <ele>94</ele>
        <time>2014-05-08T08:43:27.241Z</time>
      </trkpt>
      <trkpt lat="48.37271" lon="2.74109">
        <ele>94</ele>
        <time>2014-05-08T08:43:32.262Z</time>
      </trkpt>
      <trkpt lat="48.37271" lon="2.74111">
        <ele>93</ele>
        <time>2014-05-08T08:43:33.259Z</time>
      </trkpt>
      <trkpt lat="48.37275" lon="2.74119">
        <ele>93</ele>
        <time>2014-05-08T08:43:36.283Z</time>
      </trkpt>
      <trkpt lat="48.37277" lon="2.74122">
        <ele>93</ele>
        <time>2014-05-08T08:43:37.259Z</time>
      </trkpt>
      <trkpt lat="48.3728" lon="2.74133">
        <ele>93</ele>
        <time>2014-05-08T08:43:40.260Z</time>
      </trkpt>
      <trkpt lat="48.37281" lon="2.74137">
        <ele>93</ele>
        <time>2014-05-08T08:43:41.272Z</time>
      </trkpt>
      <trkpt lat="48.37285" lon="2.74147">
        <ele>93</ele>
        <time>2014-05-08T08:43:44.279Z</time>
      </trkpt>
      <trkpt lat="48.37285" lon="2.74151">
        <ele>93</ele>
        <time>2014-05-08T08:43:45.268Z</time>
      </trkpt>
      <trkpt lat="48.37287" lon="2.74163">
        <ele>92</ele>
        <time>2014-05-08T08:43:48.263Z</time>
      </trkpt>
      <trkpt lat="48.37287" lon="2.74166">
        <ele>92</ele>
        <time>2014-05-08T08:43:49.261Z</time>
      </trkpt>
      <trkpt lat="48.37288" lon="2.74178">
        <ele>92</ele>
        <time>2014-05-08T08:43:53.296Z</time>
      </trkpt>
      <trkpt lat="48.37288" lon="2.74181">
        <ele>92</ele>
        <time>2014-05-08T08:43:54.281Z</time>
      </trkpt>
      <trkpt lat="48.37287" lon="2.74192">
        <ele>92</ele>
        <time>2014-05-08T08:43:57.267Z</time>
      </trkpt>
      <trkpt lat="48.37288" lon="2.74196">
        <ele>92</ele>
        <time>2014-05-08T08:43:58.259Z</time>
      </trkpt>
      <trkpt lat="48.3729" lon="2.74207">
        <ele>92</ele>
        <time>2014-05-08T08:44:01.300Z</time>
      </trkpt>
      <trkpt lat="48.3729" lon="2.74211">
        <ele>92</ele>
        <time>2014-05-08T08:44:02.291Z</time>
      </trkpt>
      <trkpt lat="48.37292" lon="2.74222">
        <ele>92</ele>
        <time>2014-05-08T08:44:05.280Z</time>
      </trkpt>
      <trkpt lat="48.37292" lon="2.74226">
        <ele>92</ele>
        <time>2014-05-08T08:44:06.291Z</time>
      </trkpt>
      <trkpt lat="48.37293" lon="2.74237">
        <ele>92</ele>
        <time>2014-05-08T08:44:09.294Z</time>
      </trkpt>
      <trkpt lat="48.37294" lon="2.74241">
        <ele>92</ele>
        <time>2014-05-08T08:44:10.293Z</time>
      </trkpt>
      <trkpt lat="48.37294" lon="2.74251">
        <ele>93</ele>
        <time>2014-05-08T08:44:13.301Z</time>
      </trkpt>
      <trkpt lat="48.37294" lon="2.74255">
        <ele>93</ele>
        <time>2014-05-08T08:44:14.294Z</time>
      </trkpt>
      <trkpt lat="48.37295" lon="2.74267">
        <ele>94</ele>
        <time>2014-05-08T08:44:17.285Z</time>
      </trkpt>
      <trkpt lat="48.37295" lon="2.74271">
        <ele>94</ele>
        <time>2014-05-08T08:44:18.285Z</time>
      </trkpt>
      <trkpt lat="48.37295" lon="2.74281">
        <ele>94</ele>
        <time>2014-05-08T08:44:21.300Z</time>
      </trkpt>
      <trkpt lat="48.37295" lon="2.74284">
        <ele>94</ele>
        <time>2014-05-08T08:44:22.307Z</time>
      </trkpt>
      <trkpt lat="48.37295" lon="2.74295">
        <ele>94</ele>
        <time>2014-05-08T08:44:25.297Z</time>
      </trkpt>
      <trkpt lat="48.37296" lon="2.74299">
        <ele>94</ele>
        <time>2014-05-08T08:44:26.330Z</time>
      </trkpt>
      <trkpt lat="48.37296" lon="2.7431">
        <ele>94</ele>
        <time>2014-05-08T08:44:29.288Z</time>
      </trkpt>
      <trkpt lat="48.37297" lon="2.74314">
        <ele>94</ele>
        <time>2014-05-08T08:44:30.280Z</time>
      </trkpt>
      <trkpt lat="48.37298" lon="2.74325">
        <ele>94</ele>
        <time>2014-05-08T08:44:33.323Z</time>
      </trkpt>
      <trkpt lat="48.37298" lon="2.74328">
        <ele>94</ele>
        <time>2014-05-08T08:44:34.278Z</time>
      </trkpt>
      <trkpt lat="48.37298" lon="2.74342">
        <ele>96</ele>
        <time>2014-05-08T08:44:38.302Z</time>
      </trkpt>
      <trkpt lat="48.37297" lon="2.74345">
        <ele>96</ele>
        <time>2014-05-08T08:44:39.298Z</time>
      </trkpt>
      <trkpt lat="48.37297" lon="2.74356">
        <ele>96</ele>
        <time>2014-05-08T08:44:42.308Z</time>
      </trkpt>
      <trkpt lat="48.37297" lon="2.7436">
        <ele>96</ele>
        <time>2014-05-08T08:44:43.289Z</time>
      </trkpt>
      <trkpt lat="48.37295" lon="2.74371">
        <ele>96</ele>
        <time>2014-05-08T08:44:48.294Z</time>
      </trkpt>
      <trkpt lat="48.37293" lon="2.74372">
        <ele>96</ele>
        <time>2014-05-08T08:44:49.294Z</time>
      </trkpt>
      <trkpt lat="48.37286" lon="2.74379">
        <ele>96</ele>
        <time>2014-05-08T08:44:54.289Z</time>
      </trkpt>
      <trkpt lat="48.37285" lon="2.7438">
        <ele>96</ele>
        <time>2014-05-08T08:44:55.294Z</time>
      </trkpt>
      <trkpt lat="48.37277" lon="2.7438">
        <ele>96</ele>
        <time>2014-05-08T08:45:00.328Z</time>
      </trkpt>
      <trkpt lat="48.37276" lon="2.74381">
        <ele>96</ele>
        <time>2014-05-08T08:45:01.278Z</time>
      </trkpt>
      <trkpt lat="48.37269" lon="2.74387">
        <ele>96</ele>
        <time>2014-05-08T08:45:06.290Z</time>
      </trkpt>
      <trkpt lat="48.37267" lon="2.74388">
        <ele>96</ele>
        <time>2014-05-08T08:45:07.291Z</time>
      </trkpt>
      <trkpt lat="48.37261" lon="2.74397">
        <ele>96</ele>
        <time>2014-05-08T08:45:13.284Z</time>
      </trkpt>
      <trkpt lat="48.3726" lon="2.74399">
        <ele>96</ele>
        <time>2014-05-08T08:45:14.321Z</time>
      </trkpt>
      <trkpt lat="48.37252" lon="2.74405">
        <ele>97</ele>
        <time>2014-05-08T08:45:18.311Z</time>
      </trkpt>
      <trkpt lat="48.37249" lon="2.74407">
        <ele>98</ele>
        <time>2014-05-08T08:45:19.310Z</time>
      </trkpt>
      <trkpt lat="48.37243" lon="2.74413">
        <ele>98</ele>
        <time>2014-05-08T08:45:22.307Z</time>
      </trkpt>
      <trkpt lat="48.37241" lon="2.74415">
        <ele>98</ele>
        <time>2014-05-08T08:45:23.284Z</time>
      </trkpt>
      <trkpt lat="48.37237" lon="2.74424">
        <ele>98</ele>
        <time>2014-05-08T08:45:26.311Z</time>
      </trkpt>
      <trkpt lat="48.37236" lon="2.74427">
        <ele>99</ele>
        <time>2014-05-08T08:45:27.312Z</time>
      </trkpt>
      <trkpt lat="48.37231" lon="2.74436">
        <ele>99</ele>
        <time>2014-05-08T08:45:30.290Z</time>
      </trkpt>
      <trkpt lat="48.37229" lon="2.74437">
        <ele>99</ele>
        <time>2014-05-08T08:45:31.287Z</time>
      </trkpt>
      <trkpt lat="48.37223" lon="2.74447">
        <ele>100</ele>
        <time>2014-05-08T08:45:35.288Z</time>
      </trkpt>
      <trkpt lat="48.37221" lon="2.7445">
        <ele>100</ele>
        <time>2014-05-08T08:45:36.272Z</time>
      </trkpt>
      <trkpt lat="48.37214" lon="2.74456">
        <ele>100</ele>
        <time>2014-05-08T08:45:40.281Z</time>
      </trkpt>
      <trkpt lat="48.37212" lon="2.74456">
        <ele>100</ele>
        <time>2014-05-08T08:45:41.285Z</time>
      </trkpt>
      <trkpt lat="48.37205" lon="2.74453">
        <ele>100</ele>
        <time>2014-05-08T08:45:45.304Z</time>
      </trkpt>
      <trkpt lat="48.37203" lon="2.74451">
        <ele>100</ele>
        <time>2014-05-08T08:45:46.282Z</time>
      </trkpt>
      <trkpt lat="48.37195" lon="2.74445">
        <ele>101</ele>
        <time>2014-05-08T08:45:52.320Z</time>
      </trkpt>
      <trkpt lat="48.37193" lon="2.74444">
        <ele>101</ele>
        <time>2014-05-08T08:45:53.288Z</time>
      </trkpt>
      <trkpt lat="48.37189" lon="2.74442">
        <ele>101</ele>
        <time>2014-05-08T08:45:59.298Z</time>
      </trkpt>
      <trkpt lat="48.37189" lon="2.74442">
        <ele>101</ele>
        <time>2014-05-08T08:46:00.281Z</time>
      </trkpt>
      <trkpt lat="48.37189" lon="2.74442">
        <ele>101</ele>
        <time>2014-05-08T08:46:00.298Z</time>
      </trkpt>
      <trkpt lat="48.37189" lon="2.74442">
        <ele>101</ele>
        <time>2014-05-08T08:46:01.281Z</time>
      </trkpt>
      <trkpt lat="48.3718" lon="2.74444">
        <ele>101</ele>
        <time>2014-05-08T08:46:09.289Z</time>
      </trkpt>
      <trkpt lat="48.3718" lon="2.74446">
        <ele>101</ele>
        <time>2014-05-08T08:46:10.280Z</time>
      </trkpt>
      <trkpt lat="48.37177" lon="2.74456">
        <ele>102</ele>
        <time>2014-05-08T08:46:18.320Z</time>
      </trkpt>
      <trkpt lat="48.37175" lon="2.74457">
        <ele>102</ele>
        <time>2014-05-08T08:46:19.285Z</time>
      </trkpt>
      <trkpt lat="48.37167" lon="2.74456">
        <ele>102</ele>
        <time>2014-05-08T08:46:22.293Z</time>
      </trkpt>
      <trkpt lat="48.37165" lon="2.74457">
        <ele>108</ele>
        <time>2014-05-08T08:46:23.245Z</time>
      </trkpt>
      <trkpt lat="48.37157" lon="2.74461">
        <ele>108</ele>
        <time>2014-05-08T08:46:26.222Z</time>
      </trkpt>
      <trkpt lat="48.37155" lon="2.74462">
        <ele>109</ele>
        <time>2014-05-08T08:46:27.210Z</time>
      </trkpt>
      <trkpt lat="48.37147" lon="2.74463">
        <ele>109</ele>
        <time>2014-05-08T08:46:30.221Z</time>
      </trkpt>
      <trkpt lat="48.37145" lon="2.74462">
        <ele>109</ele>
        <time>2014-05-08T08:46:31.218Z</time>
      </trkpt>
      <trkpt lat="48.37136" lon="2.7446">
        <ele>110</ele>
        <time>2014-05-08T08:46:35.219Z</time>
      </trkpt>
      <trkpt lat="48.37134" lon="2.74459">
        <ele>110</ele>
        <time>2014-05-08T08:46:36.221Z</time>
      </trkpt>
      <trkpt lat="48.37127" lon="2.74454">
        <ele>110</ele>
        <time>2014-05-08T08:46:41.243Z</time>
      </trkpt>
      <trkpt lat="48.37125" lon="2.74454">
        <ele>110</ele>
        <time>2014-05-08T08:46:42.245Z</time>
      </trkpt>
      <trkpt lat="48.37117" lon="2.7445">
        <ele>111</ele>
        <time>2014-05-08T08:46:47.233Z</time>
      </trkpt>
      <trkpt lat="48.37116" lon="2.7445">
        <ele>111</ele>
        <time>2014-05-08T08:46:48.224Z</time>
      </trkpt>
      <trkpt lat="48.37108" lon="2.74452">
        <ele>111</ele>
        <time>2014-05-08T08:46:58.225Z</time>
      </trkpt>
      <trkpt lat="48.37103" lon="2.74452">
        <ele>112</ele>
        <time>2014-05-08T08:46:59.229Z</time>
      </trkpt>
      <trkpt lat="48.37095" lon="2.74452">
        <ele>112</ele>
        <time>2014-05-08T08:47:03.171Z</time>
      </trkpt>
      <trkpt lat="48.37094" lon="2.74453">
        <ele>112</ele>
        <time>2014-05-08T08:47:04.163Z</time>
      </trkpt>
      <trkpt lat="48.37086" lon="2.74455">
        <ele>112</ele>
        <time>2014-05-08T08:47:10.169Z</time>
      </trkpt>
      <trkpt lat="48.37084" lon="2.74454">
        <ele>112</ele>
        <time>2014-05-08T08:47:11.169Z</time>
      </trkpt>
      <trkpt lat="48.37076" lon="2.74452">
        <ele>120</ele>
        <time>2014-05-08T08:47:16.224Z</time>
      </trkpt>
      <trkpt lat="48.37073" lon="2.74452">
        <ele>121</ele>
        <time>2014-05-08T08:47:17.176Z</time>
      </trkpt>
      <trkpt lat="48.37065" lon="2.74454">
        <ele>121</ele>
        <time>2014-05-08T08:47:24.176Z</time>
      </trkpt>
      <trkpt lat="48.37064" lon="2.74455">
        <ele>121</ele>
        <time>2014-05-08T08:47:25.196Z</time>
      </trkpt>
      <trkpt lat="48.37055" lon="2.74453">
        <ele>122</ele>
        <time>2014-05-08T08:47:37.181Z</time>
      </trkpt>
      <trkpt lat="48.3705" lon="2.74455">
        <ele>122</ele>
        <time>2014-05-08T08:47:38.182Z</time>
      </trkpt>
      <trkpt lat="48.37044" lon="2.74454">
        <ele>123</ele>
        <time>2014-05-08T08:47:42.196Z</time>
      </trkpt>
      <trkpt lat="48.37043" lon="2.74454">
        <ele>123</ele>
        <time>2014-05-08T08:47:43.165Z</time>
      </trkpt>
      <trkpt lat="48.37043" lon="2.74454">
        <ele>123</ele>
        <time>2014-05-08T08:47:43.168Z</time>
      </trkpt>
      <trkpt lat="48.37043" lon="2.74454">
        <ele>123</ele>
        <time>2014-05-08T08:47:44.181Z</time>
      </trkpt>
      <trkpt lat="48.37036" lon="2.74461">
        <ele>124</ele>
        <time>2014-05-08T08:47:58.175Z</time>
      </trkpt>
      <trkpt lat="48.37035" lon="2.74462">
        <ele>124</ele>
        <time>2014-05-08T08:47:59.163Z</time>
      </trkpt>
      <trkpt lat="48.37029" lon="2.74468">
        <ele>125</ele>
        <time>2014-05-08T08:48:04.165Z</time>
      </trkpt>
      <trkpt lat="48.37027" lon="2.74468">
        <ele>125</ele>
        <time>2014-05-08T08:48:05.153Z</time>
      </trkpt>
      <trkpt lat="48.37019" lon="2.7447">
        <ele>126</ele>
        <time>2014-05-08T08:48:13.185Z</time>
      </trkpt>
      <trkpt lat="48.37017" lon="2.7447">
        <ele>126</ele>
        <time>2014-05-08T08:48:14.178Z</time>
      </trkpt>
      <trkpt lat="48.37008" lon="2.74469">
        <ele>126</ele>
        <time>2014-05-08T08:48:18.178Z</time>
      </trkpt>
      <trkpt lat="48.37006" lon="2.74469">
        <ele>126</ele>
        <time>2014-05-08T08:48:19.179Z</time>
      </trkpt>
      <trkpt lat="48.36999" lon="2.74473">
        <ele>132</ele>
        <time>2014-05-08T08:48:23.197Z</time>
      </trkpt>
      <trkpt lat="48.36998" lon="2.74476">
        <ele>132</ele>
        <time>2014-05-08T08:48:24.174Z</time>
      </trkpt>
      <trkpt lat="48.36996" lon="2.74487">
        <ele>132</ele>
        <time>2014-05-08T08:48:28.173Z</time>
      </trkpt>
      <trkpt lat="48.36996" lon="2.74489">
        <ele>132</ele>
        <time>2014-05-08T08:48:29.169Z</time>
      </trkpt>
      <trkpt lat="48.36993" lon="2.74501">
        <ele>132</ele>
        <time>2014-05-08T08:48:35.177Z</time>
      </trkpt>
      <trkpt lat="48.36993" lon="2.74503">
        <ele>132</ele>
        <time>2014-05-08T08:48:36.172Z</time>
      </trkpt>
      <trkpt lat="48.36992" lon="2.74515">
        <ele>132</ele>
        <time>2014-05-08T08:48:42.178Z</time>
      </trkpt>
      <trkpt lat="48.36992" lon="2.74516">
        <ele>132</ele>
        <time>2014-05-08T08:48:43.164Z</time>
      </trkpt>
      <trkpt lat="48.36987" lon="2.74526">
        <ele>132</ele>
        <time>2014-05-08T08:48:50.188Z</time>
      </trkpt>
      <trkpt lat="48.36987" lon="2.74528">
        <ele>132</ele>
        <time>2014-05-08T08:48:51.175Z</time>
      </trkpt>
      <trkpt lat="48.36989" lon="2.7454">
        <ele>132</ele>
        <time>2014-05-08T08:48:57.180Z</time>
      </trkpt>
      <trkpt lat="48.36989" lon="2.74542">
        <ele>132</ele>
        <time>2014-05-08T08:48:58.162Z</time>
      </trkpt>
      <trkpt lat="48.36989" lon="2.74554">
        <ele>132</ele>
        <time>2014-05-08T08:49:04.169Z</time>
      </trkpt>
      <trkpt lat="48.36989" lon="2.74557">
        <ele>132</ele>
        <time>2014-05-08T08:49:05.164Z</time>
      </trkpt>
      <trkpt lat="48.36986" lon="2.7457">
        <ele>132</ele>
        <time>2014-05-08T08:49:10.176Z</time>
      </trkpt>
      <trkpt lat="48.36985" lon="2.74573">
        <ele>132</ele>
        <time>2014-05-08T08:49:11.168Z</time>
      </trkpt>
      <trkpt lat="48.36985" lon="2.74584">
        <ele>132</ele>
        <time>2014-05-08T08:49:15.175Z</time>
      </trkpt>
      <trkpt lat="48.36984" lon="2.74587">
        <ele>132</ele>
        <time>2014-05-08T08:49:16.176Z</time>
      </trkpt>
      <trkpt lat="48.36983" lon="2.74598">
        <ele>132</ele>
        <time>2014-05-08T08:49:20.227Z</time>
      </trkpt>
      <trkpt lat="48.36983" lon="2.74602">
        <ele>132</ele>
        <time>2014-05-08T08:49:21.163Z</time>
      </trkpt>
      <trkpt lat="48.36982" lon="2.74613">
        <ele>132</ele>
        <time>2014-05-08T08:49:24.150Z</time>
      </trkpt>
      <trkpt lat="48.36981" lon="2.74616">
        <ele>132</ele>
        <time>2014-05-08T08:49:25.128Z</time>
      </trkpt>
      <trkpt lat="48.36979" lon="2.74629">
        <ele>132</ele>
        <time>2014-05-08T08:49:29.154Z</time>
      </trkpt>
      <trkpt lat="48.36978" lon="2.74632">
        <ele>132</ele>
        <time>2014-05-08T08:49:30.124Z</time>
      </trkpt>
      <trkpt lat="48.36974" lon="2.74642">
        <ele>132</ele>
        <time>2014-05-08T08:49:34.157Z</time>
      </trkpt>
      <trkpt lat="48.36973" lon="2.74644">
        <ele>132</ele>
        <time>2014-05-08T08:49:35.159Z</time>
      </trkpt>
      <trkpt lat="48.3697" lon="2.74655">
        <ele>132</ele>
        <time>2014-05-08T08:49:39.196Z</time>
      </trkpt>
      <trkpt lat="48.36969" lon="2.74659">
        <ele>132</ele>
        <time>2014-05-08T08:49:40.174Z</time>
      </trkpt>
      <trkpt lat="48.36966" lon="2.7467">
        <ele>132</ele>
        <time>2014-05-08T08:49:44.204Z</time>
      </trkpt>
      <trkpt lat="48.36966" lon="2.74673">
        <ele>132</ele>
        <time>2014-05-08T08:49:45.192Z</time>
      </trkpt>
      <trkpt lat="48.36963" lon="2.74684">
        <ele>132</ele>
        <time>2014-05-08T08:49:49.178Z</time>
      </trkpt>
      <trkpt lat="48.36963" lon="2.74687">
        <ele>132</ele>
        <time>2014-05-08T08:49:50.186Z</time>
      </trkpt>
      <trkpt lat="48.36962" lon="2.74699">
        <ele>132</ele>
        <time>2014-05-08T08:49:53.187Z</time>
      </trkpt>
      <trkpt lat="48.36962" lon="2.74703">
        <ele>132</ele>
        <time>2014-05-08T08:49:54.174Z</time>
      </trkpt>
      <trkpt lat="48.36962" lon="2.74714">
        <ele>132</ele>
        <time>2014-05-08T08:49:57.176Z</time>
      </trkpt>
      <trkpt lat="48.36962" lon="2.74717">
        <ele>132</ele>
        <time>2014-05-08T08:49:58.173Z</time>
      </trkpt>
      <trkpt lat="48.36961" lon="2.74727">
        <ele>132</ele>
        <time>2014-05-08T08:50:01.181Z</time>
      </trkpt>
      <trkpt lat="48.3696" lon="2.7473">
        <ele>132</ele>
        <time>2014-05-08T08:50:02.197Z</time>
      </trkpt>
      <trkpt lat="48.36959" lon="2.74743">
        <ele>132</ele>
        <time>2014-05-08T08:50:06.166Z</time>
      </trkpt>
      <trkpt lat="48.36958" lon="2.74746">
        <ele>132</ele>
        <time>2014-05-08T08:50:07.159Z</time>
      </trkpt>
      <trkpt lat="48.36957" lon="2.74759">
        <ele>132</ele>
        <time>2014-05-08T08:50:11.168Z</time>
      </trkpt>
      <trkpt lat="48.36956" lon="2.74763">
        <ele>132</ele>
        <time>2014-05-08T08:50:12.163Z</time>
      </trkpt>
      <trkpt lat="48.36955" lon="2.74772">
        <ele>132</ele>
        <time>2014-05-08T08:50:15.172Z</time>
      </trkpt>
      <trkpt lat="48.36955" lon="2.74776">
        <ele>132</ele>
        <time>2014-05-08T08:50:16.167Z</time>
      </trkpt>
      <trkpt lat="48.36954" lon="2.74787">
        <ele>132</ele>
        <time>2014-05-08T08:50:19.173Z</time>
      </trkpt>
      <trkpt lat="48.36954" lon="2.7479">
        <ele>132</ele>
        <time>2014-05-08T08:50:20.180Z</time>
      </trkpt>
      <trkpt lat="48.36954" lon="2.74803">
        <ele>131</ele>
        <time>2014-05-08T08:50:24.173Z</time>
      </trkpt>
      <trkpt lat="48.36953" lon="2.74806">
        <ele>131</ele>
        <time>2014-05-08T08:50:25.169Z</time>
      </trkpt>
      <trkpt lat="48.36953" lon="2.74816">
        <ele>131</ele>
        <time>2014-05-08T08:50:28.172Z</time>
      </trkpt>
      <trkpt lat="48.36953" lon="2.7482">
        <ele>131</ele>
        <time>2014-05-08T08:50:29.169Z</time>
      </trkpt>
      <trkpt lat="48.36952" lon="2.74833">
        <ele>131</ele>
        <time>2014-05-08T08:50:33.162Z</time>
      </trkpt>
      <trkpt lat="48.36951" lon="2.74836">
        <ele>131</ele>
        <time>2014-05-08T08:50:34.155Z</time>
      </trkpt>
      <trkpt lat="48.36949" lon="2.74848">
        <ele>131</ele>
        <time>2014-05-08T08:50:38.200Z</time>
      </trkpt>
      <trkpt lat="48.36949" lon="2.7485">
        <ele>132</ele>
        <time>2014-05-08T08:50:39.165Z</time>
      </trkpt>
      <trkpt lat="48.36947" lon="2.74862">
        <ele>132</ele>
        <time>2014-05-08T08:50:43.176Z</time>
      </trkpt>
      <trkpt lat="48.36946" lon="2.74864">
        <ele>132</ele>
        <time>2014-05-08T08:50:44.189Z</time>
      </trkpt>
      <trkpt lat="48.36946" lon="2.74876">
        <ele>132</ele>
        <time>2014-05-08T08:50:48.171Z</time>
      </trkpt>
      <trkpt lat="48.36946" lon="2.7488">
        <ele>132</ele>
        <time>2014-05-08T08:50:49.168Z</time>
      </trkpt>
      <trkpt lat="48.36946" lon="2.7489">
        <ele>132</ele>
        <time>2014-05-08T08:50:52.186Z</time>
      </trkpt>
      <trkpt lat="48.36946" lon="2.74894">
        <ele>132</ele>
        <time>2014-05-08T08:50:53.173Z</time>
      </trkpt>
      <trkpt lat="48.36945" lon="2.74904">
        <ele>132</ele>
        <time>2014-05-08T08:50:56.202Z</time>
      </trkpt>
      <trkpt lat="48.36944" lon="2.74908">
        <ele>132</ele>
        <time>2014-05-08T08:50:57.172Z</time>
      </trkpt>
      <trkpt lat="48.36942" lon="2.74921">
        <ele>133</ele>
        <time>2014-05-08T08:51:01.166Z</time>
      </trkpt>
      <trkpt lat="48.36941" lon="2.74924">
        <ele>133</ele>
        <time>2014-05-08T08:51:02.182Z</time>
      </trkpt>
      <trkpt lat="48.36937" lon="2.74933">
        <ele>133</ele>
        <time>2014-05-08T08:51:05.164Z</time>
      </trkpt>
      <trkpt lat="48.36936" lon="2.74936">
        <ele>133</ele>
        <time>2014-05-08T08:51:06.163Z</time>
      </trkpt>
      <trkpt lat="48.36932" lon="2.74948">
        <ele>133</ele>
        <time>2014-05-08T08:51:10.185Z</time>
      </trkpt>
      <trkpt lat="48.36932" lon="2.74951">
        <ele>133</ele>
        <time>2014-05-08T08:51:11.156Z</time>
      </trkpt>
      <trkpt lat="48.3693" lon="2.74963">
        <ele>133</ele>
        <time>2014-05-08T08:51:16.175Z</time>
      </trkpt>
      <trkpt lat="48.36929" lon="2.74966">
        <ele>133</ele>
        <time>2014-05-08T08:51:17.165Z</time>
      </trkpt>
      <trkpt lat="48.36928" lon="2.74979">
        <ele>133</ele>
        <time>2014-05-08T08:51:22.185Z</time>
      </trkpt>
      <trkpt lat="48.36928" lon="2.74982">
        <ele>133</ele>
        <time>2014-05-08T08:51:23.166Z</time>
      </trkpt>
      <trkpt lat="48.36926" lon="2.74993">
        <ele>133</ele>
        <time>2014-05-08T08:51:27.180Z</time>
      </trkpt>
      <trkpt lat="48.36926" lon="2.74996">
        <ele>134</ele>
        <time>2014-05-08T08:51:28.173Z</time>
      </trkpt>
      <trkpt lat="48.36922" lon="2.75007">
        <ele>134</ele>
        <time>2014-05-08T08:51:32.187Z</time>
      </trkpt>
      <trkpt lat="48.36921" lon="2.75011">
        <ele>134</ele>
        <time>2014-05-08T08:51:33.163Z</time>
      </trkpt>
      <trkpt lat="48.36917" lon="2.7502">
        <ele>133</ele>
        <time>2014-05-08T08:51:36.169Z</time>
      </trkpt>
      <trkpt lat="48.36916" lon="2.75023">
        <ele>134</ele>
        <time>2014-05-08T08:51:37.164Z</time>
      </trkpt>
      <trkpt lat="48.36913" lon="2.75034">
        <ele>134</ele>
        <time>2014-05-08T08:51:41.179Z</time>
      </trkpt>
      <trkpt lat="48.36912" lon="2.75038">
        <ele>134</ele>
        <time>2014-05-08T08:51:42.192Z</time>
      </trkpt>
      <trkpt lat="48.36909" lon="2.75048">
        <ele>134</ele>
        <time>2014-05-08T08:51:45.178Z</time>
      </trkpt>
      <trkpt lat="48.36908" lon="2.75052">
        <ele>134</ele>
        <time>2014-05-08T08:51:46.171Z</time>
      </trkpt>
      <trkpt lat="48.36904" lon="2.75062">
        <ele>134</ele>
        <time>2014-05-08T08:51:50.213Z</time>
      </trkpt>
      <trkpt lat="48.36903" lon="2.75064">
        <ele>134</ele>
        <time>2014-05-08T08:51:51.178Z</time>
      </trkpt>
      <trkpt lat="48.36901" lon="2.75076">
        <ele>134</ele>
        <time>2014-05-08T08:51:55.170Z</time>
      </trkpt>
      <trkpt lat="48.369" lon="2.75079">
        <ele>134</ele>
        <time>2014-05-08T08:51:56.183Z</time>
      </trkpt>
      <trkpt lat="48.36898" lon="2.75091">
        <ele>134</ele>
        <time>2014-05-08T08:52:00.161Z</time>
      </trkpt>
      <trkpt lat="48.36898" lon="2.75094">
        <ele>134</ele>
        <time>2014-05-08T08:52:01.179Z</time>
      </trkpt>
      <trkpt lat="48.36895" lon="2.75106">
        <ele>134</ele>
        <time>2014-05-08T08:52:05.186Z</time>
      </trkpt>
      <trkpt lat="48.36894" lon="2.75109">
        <ele>134</ele>
        <time>2014-05-08T08:52:06.157Z</time>
      </trkpt>
      <trkpt lat="48.36893" lon="2.7512">
        <ele>133</ele>
        <time>2014-05-08T08:52:10.166Z</time>
      </trkpt>
      <trkpt lat="48.36892" lon="2.75123">
        <ele>133</ele>
        <time>2014-05-08T08:52:11.156Z</time>
      </trkpt>
      <trkpt lat="48.36888" lon="2.75133">
        <ele>133</ele>
        <time>2014-05-08T08:52:15.177Z</time>
      </trkpt>
      <trkpt lat="48.36887" lon="2.75136">
        <ele>133</ele>
        <time>2014-05-08T08:52:16.184Z</time>
      </trkpt>
      <trkpt lat="48.36882" lon="2.75146">
        <ele>133</ele>
        <time>2014-05-08T08:52:20.212Z</time>
      </trkpt>
      <trkpt lat="48.3688" lon="2.75148">
        <ele>133</ele>
        <time>2014-05-08T08:52:21.173Z</time>
      </trkpt>
      <trkpt lat="48.36877" lon="2.7516">
        <ele>133</ele>
        <time>2014-05-08T08:52:25.172Z</time>
      </trkpt>
      <trkpt lat="48.36876" lon="2.75163">
        <ele>133</ele>
        <time>2014-05-08T08:52:26.190Z</time>
      </trkpt>
      <trkpt lat="48.36873" lon="2.75173">
        <ele>132</ele>
        <time>2014-05-08T08:52:29.179Z</time>
      </trkpt>
      <trkpt lat="48.36872" lon="2.75177">
        <ele>132</ele>
        <time>2014-05-08T08:52:30.163Z</time>
      </trkpt>
      <trkpt lat="48.36872" lon="2.75189">
        <ele>132</ele>
        <time>2014-05-08T08:52:34.172Z</time>
      </trkpt>
      <trkpt lat="48.36872" lon="2.75192">
        <ele>132</ele>
        <time>2014-05-08T08:52:35.170Z</time>
      </trkpt>
      <trkpt lat="48.36871" lon="2.75203">
        <ele>132</ele>
        <time>2014-05-08T08:52:38.193Z</time>
      </trkpt>
      <trkpt lat="48.3687" lon="2.75205">
        <ele>132</ele>
        <time>2014-05-08T08:52:39.168Z</time>
      </trkpt>
      <trkpt lat="48.36868" lon="2.75218">
        <ele>132</ele>
        <time>2014-05-08T08:52:43.175Z</time>
      </trkpt>
      <trkpt lat="48.36867" lon="2.75222">
        <ele>132</ele>
        <time>2014-05-08T08:52:44.194Z</time>
      </trkpt>
      <trkpt lat="48.36864" lon="2.75234">
        <ele>133</ele>
        <time>2014-05-08T08:52:48.181Z</time>
      </trkpt>
      <trkpt lat="48.36863" lon="2.75236">
        <ele>133</ele>
        <time>2014-05-08T08:52:49.175Z</time>
      </trkpt>
      <trkpt lat="48.3686" lon="2.75248">
        <ele>133</ele>
        <time>2014-05-08T08:52:53.187Z</time>
      </trkpt>
      <trkpt lat="48.36859" lon="2.75251">
        <ele>133</ele>
        <time>2014-05-08T08:52:54.166Z</time>
      </trkpt>
      <trkpt lat="48.36856" lon="2.75261">
        <ele>133</ele>
        <time>2014-05-08T08:52:58.190Z</time>
      </trkpt>
      <trkpt lat="48.36856" lon="2.75264">
        <ele>133</ele>
        <time>2014-05-08T08:52:59.180Z</time>
      </trkpt>
      <trkpt lat="48.36855" lon="2.75275">
        <ele>133</ele>
        <time>2014-05-08T08:53:03.194Z</time>
      </trkpt>
      <trkpt lat="48.36855" lon="2.75278">
        <ele>133</ele>
        <time>2014-05-08T08:53:04.176Z</time>
      </trkpt>
      <trkpt lat="48.36852" lon="2.7529">
        <ele>133</ele>
        <time>2014-05-08T08:53:08.191Z</time>
      </trkpt>
      <trkpt lat="48.36851" lon="2.75294">
        <ele>133</ele>
        <time>2014-05-08T08:53:09.165Z</time>
      </trkpt>
      <trkpt lat="48.36848" lon="2.75305">
        <ele>133</ele>
        <time>2014-05-08T08:53:13.169Z</time>
      </trkpt>
      <trkpt lat="48.36847" lon="2.75307">
        <ele>133</ele>
        <time>2014-05-08T08:53:14.180Z</time>
      </trkpt>
      <trkpt lat="48.36845" lon="2.75319">
        <ele>134</ele>
        <time>2014-05-08T08:53:18.189Z</time>
      </trkpt>
      <trkpt lat="48.36845" lon="2.75323">
        <ele>134</ele>
        <time>2014-05-08T08:53:19.174Z</time>
      </trkpt>
      <trkpt lat="48.36843" lon="2.75334">
        <ele>134</ele>
        <time>2014-05-08T08:53:23.183Z</time>
      </trkpt>
      <trkpt lat="48.36843" lon="2.75337">
        <ele>134</ele>
        <time>2014-05-08T08:53:24.180Z</time>
      </trkpt>
      <trkpt lat="48.3684" lon="2.75347">
        <ele>134</ele>
        <time>2014-05-08T08:53:28.187Z</time>
      </trkpt>
      <trkpt lat="48.36839" lon="2.7535">
        <ele>134</ele>
        <time>2014-05-08T08:53:29.170Z</time>
      </trkpt>
      <trkpt lat="48.36837" lon="2.75362">
        <ele>133</ele>
        <time>2014-05-08T08:53:33.199Z</time>
      </trkpt>
      <trkpt lat="48.36837" lon="2.75365">
        <ele>133</ele>
        <time>2014-05-08T08:53:34.167Z</time>
      </trkpt>
      <trkpt lat="48.36832" lon="2.75377">
        <ele>136</ele>
        <time>2014-05-08T08:53:38.188Z</time>
      </trkpt>
      <trkpt lat="48.36832" lon="2.7538">
        <ele>136</ele>
        <time>2014-05-08T08:53:39.161Z</time>
      </trkpt>
      <trkpt lat="48.36828" lon="2.75391">
        <ele>136</ele>
        <time>2014-05-08T08:53:43.179Z</time>
      </trkpt>
      <trkpt lat="48.36827" lon="2.75394">
        <ele>136</ele>
        <time>2014-05-08T08:53:44.188Z</time>
      </trkpt>
      <trkpt lat="48.36824" lon="2.75403">
        <ele>136</ele>
        <time>2014-05-08T08:53:47.167Z</time>
      </trkpt>
      <trkpt lat="48.36823" lon="2.75407">
        <ele>136</ele>
        <time>2014-05-08T08:53:48.177Z</time>
      </trkpt>
      <trkpt lat="48.3682" lon="2.75417">
        <ele>136</ele>
        <time>2014-05-08T08:53:51.180Z</time>
      </trkpt>
      <trkpt lat="48.36819" lon="2.75419">
        <ele>136</ele>
        <time>2014-05-08T08:53:52.178Z</time>
      </trkpt>
      <trkpt lat="48.36815" lon="2.7543">
        <ele>136</ele>
        <time>2014-05-08T08:53:56.192Z</time>
      </trkpt>
      <trkpt lat="48.36814" lon="2.75433">
        <ele>136</ele>
        <time>2014-05-08T08:53:57.170Z</time>
      </trkpt>
      <trkpt lat="48.36811" lon="2.75443">
        <ele>136</ele>
        <time>2014-05-08T08:54:01.214Z</time>
      </trkpt>
      <trkpt lat="48.3681" lon="2.75446">
        <ele>136</ele>
        <time>2014-05-08T08:54:02.197Z</time>
      </trkpt>
      <trkpt lat="48.36806" lon="2.75456">
        <ele>136</ele>
        <time>2014-05-08T08:54:06.190Z</time>
      </trkpt>
      <trkpt lat="48.36806" lon="2.75459">
        <ele>135</ele>
        <time>2014-05-08T08:54:07.170Z</time>
      </trkpt>
      <trkpt lat="48.36803" lon="2.75471">
        <ele>135</ele>
        <time>2014-05-08T08:54:11.182Z</time>
      </trkpt>
      <trkpt lat="48.36802" lon="2.75474">
        <ele>135</ele>
        <time>2014-05-08T08:54:12.183Z</time>
      </trkpt>
      <trkpt lat="48.36798" lon="2.75485">
        <ele>135</ele>
        <time>2014-05-08T08:54:16.197Z</time>
      </trkpt>
      <trkpt lat="48.36798" lon="2.75488">
        <ele>135</ele>
        <time>2014-05-08T08:54:17.173Z</time>
      </trkpt>
      <trkpt lat="48.36795" lon="2.75497">
        <ele>135</ele>
        <time>2014-05-08T08:54:21.203Z</time>
      </trkpt>
      <trkpt lat="48.36795" lon="2.75501">
        <ele>134</ele>
        <time>2014-05-08T08:54:22.186Z</time>
      </trkpt>
      <trkpt lat="48.36794" lon="2.75513">
        <ele>134</ele>
        <time>2014-05-08T08:54:26.216Z</time>
      </trkpt>
      <trkpt lat="48.36793" lon="2.75516">
        <ele>134</ele>
        <time>2014-05-08T08:54:27.182Z</time>
      </trkpt>
      <trkpt lat="48.36792" lon="2.75528">
        <ele>134</ele>
        <time>2014-05-08T08:54:31.184Z</time>
      </trkpt>
      <trkpt lat="48.36792" lon="2.75531">
        <ele>134</ele>
        <time>2014-05-08T08:54:32.208Z</time>
      </trkpt>
      <trkpt lat="48.3679" lon="2.75541">
        <ele>134</ele>
        <time>2014-05-08T08:54:35.185Z</time>
      </trkpt>
      <trkpt lat="48.3679" lon="2.75545">
        <ele>134</ele>
        <time>2014-05-08T08:54:36.180Z</time>
      </trkpt>
      <trkpt lat="48.36789" lon="2.75558">
        <ele>133</ele>
        <time>2014-05-08T08:54:40.180Z</time>
      </trkpt>
      <trkpt lat="48.36788" lon="2.75561">
        <ele>133</ele>
        <time>2014-05-08T08:54:41.183Z</time>
      </trkpt>
      <trkpt lat="48.36786" lon="2.75572">
        <ele>133</ele>
        <time>2014-05-08T08:54:44.211Z</time>
      </trkpt>
      <trkpt lat="48.36786" lon="2.75575">
        <ele>133</ele>
        <time>2014-05-08T08:54:45.168Z</time>
      </trkpt>
      <trkpt lat="48.36785" lon="2.75588">
        <ele>132</ele>
        <time>2014-05-08T08:54:49.186Z</time>
      </trkpt>
      <trkpt lat="48.36784" lon="2.75591">
        <ele>132</ele>
        <time>2014-05-08T08:54:50.197Z</time>
      </trkpt>
      <trkpt lat="48.36782" lon="2.75602">
        <ele>132</ele>
        <time>2014-05-08T08:54:54.176Z</time>
      </trkpt>
      <trkpt lat="48.36781" lon="2.75605">
        <ele>132</ele>
        <time>2014-05-08T08:54:55.173Z</time>
      </trkpt>
      <trkpt lat="48.36779" lon="2.75618">
        <ele>132</ele>
        <time>2014-05-08T08:54:59.204Z</time>
      </trkpt>
      <trkpt lat="48.36778" lon="2.7562">
        <ele>132</ele>
        <time>2014-05-08T08:55:00.129Z</time>
      </trkpt>
      <trkpt lat="48.36773" lon="2.75629">
        <ele>132</ele>
        <time>2014-05-08T08:55:03.177Z</time>
      </trkpt>
      <trkpt lat="48.36772" lon="2.75632">
        <ele>132</ele>
        <time>2014-05-08T08:55:04.171Z</time>
      </trkpt>
      <trkpt lat="48.36769" lon="2.75642">
        <ele>132</ele>
        <time>2014-05-08T08:55:08.193Z</time>
      </trkpt>
      <trkpt lat="48.36769" lon="2.75645">
        <ele>132</ele>
        <time>2014-05-08T08:55:09.170Z</time>
      </trkpt>
      <trkpt lat="48.36766" lon="2.75657">
        <ele>132</ele>
        <time>2014-05-08T08:55:13.172Z</time>
      </trkpt>
      <trkpt lat="48.36766" lon="2.7566">
        <ele>132</ele>
        <time>2014-05-08T08:55:14.199Z</time>
      </trkpt>
      <trkpt lat="48.36763" lon="2.7567">
        <ele>131</ele>
        <time>2014-05-08T08:55:18.165Z</time>
      </trkpt>
      <trkpt lat="48.36762" lon="2.75672">
        <ele>132</ele>
        <time>2014-05-08T08:55:19.171Z</time>
      </trkpt>
      <trkpt lat="48.36758" lon="2.75682">
        <ele>131</ele>
        <time>2014-05-08T08:55:23.189Z</time>
      </trkpt>
      <trkpt lat="48.36757" lon="2.75685">
        <ele>131</ele>
        <time>2014-05-08T08:55:24.170Z</time>
      </trkpt>
      <trkpt lat="48.36754" lon="2.75693">
        <ele>131</ele>
        <time>2014-05-08T08:55:27.152Z</time>
      </trkpt>
      <trkpt lat="48.36753" lon="2.75697">
        <ele>131</ele>
        <time>2014-05-08T08:55:28.169Z</time>
      </trkpt>
      <trkpt lat="48.3675" lon="2.75707">
        <ele>127</ele>
        <time>2014-05-08T08:55:31.162Z</time>
      </trkpt>
      <trkpt lat="48.36749" lon="2.7571">
        <ele>127</ele>
        <time>2014-05-08T08:55:32.174Z</time>
      </trkpt>
      <trkpt lat="48.36742" lon="2.75718">
        <ele>127</ele>
        <time>2014-05-08T08:55:37.183Z</time>
      </trkpt>
      <trkpt lat="48.36741" lon="2.75717">
        <ele>127</ele>
        <time>2014-05-08T08:55:38.176Z</time>
      </trkpt>
      <trkpt lat="48.36736" lon="2.75707">
        <ele>126</ele>
        <time>2014-05-08T08:55:43.167Z</time>
      </trkpt>
      <trkpt lat="48.36735" lon="2.75706">
        <ele>126</ele>
        <time>2014-05-08T08:55:44.184Z</time>
      </trkpt>
      <trkpt lat="48.36733" lon="2.75693">
        <ele>127</ele>
        <time>2014-05-08T08:55:49.183Z</time>
      </trkpt>
      <trkpt lat="48.36733" lon="2.75691">
        <ele>127</ele>
        <time>2014-05-08T08:55:50.173Z</time>
      </trkpt>
      <trkpt lat="48.36731" lon="2.7568">
        <ele>128</ele>
        <time>2014-05-08T08:55:54.167Z</time>
      </trkpt>
      <trkpt lat="48.36731" lon="2.75677">
        <ele>128</ele>
        <time>2014-05-08T08:55:55.201Z</time>
      </trkpt>
      <trkpt lat="48.36729" lon="2.75666">
        <ele>129</ele>
        <time>2014-05-08T08:56:00.165Z</time>
      </trkpt>
      <trkpt lat="48.36729" lon="2.75664">
        <ele>129</ele>
        <time>2014-05-08T08:56:01.168Z</time>
      </trkpt>
      <trkpt lat="48.36728" lon="2.75651">
        <ele>129</ele>
        <time>2014-05-08T08:56:06.173Z</time>
      </trkpt>
      <trkpt lat="48.36728" lon="2.75649">
        <ele>129</ele>
        <time>2014-05-08T08:56:07.155Z</time>
      </trkpt>
      <trkpt lat="48.36726" lon="2.75638">
        <ele>129</ele>
        <time>2014-05-08T08:56:11.162Z</time>
      </trkpt>
      <trkpt lat="48.36725" lon="2.75635">
        <ele>128</ele>
        <time>2014-05-08T08:56:12.165Z</time>
      </trkpt>
      <trkpt lat="48.36724" lon="2.75622">
        <ele>129</ele>
        <time>2014-05-08T08:56:17.166Z</time>
      </trkpt>
      <trkpt lat="48.36724" lon="2.75619">
        <ele>129</ele>
        <time>2014-05-08T08:56:18.160Z</time>
      </trkpt>
      <trkpt lat="48.36724" lon="2.75608">
        <ele>129</ele>
        <time>2014-05-08T08:56:22.185Z</time>
      </trkpt>
      <trkpt lat="48.36723" lon="2.75605">
        <ele>129</ele>
        <time>2014-05-08T08:56:23.175Z</time>
      </trkpt>
      <trkpt lat="48.36721" lon="2.75593">
        <ele>129</ele>
        <time>2014-05-08T08:56:27.156Z</time>
      </trkpt>
      <trkpt lat="48.3672" lon="2.75591">
        <ele>129</ele>
        <time>2014-05-08T08:56:28.169Z</time>
      </trkpt>
      <trkpt lat="48.36719" lon="2.75578">
        <ele>130</ele>
        <time>2014-05-08T08:56:32.172Z</time>
      </trkpt>
      <trkpt lat="48.36718" lon="2.75575">
        <ele>130</ele>
        <time>2014-05-08T08:56:33.178Z</time>
      </trkpt>
      <trkpt lat="48.36717" lon="2.75563">
        <ele>130</ele>
        <time>2014-05-08T08:56:38.184Z</time>
      </trkpt>
      <trkpt lat="48.36716" lon="2.7556">
        <ele>130</ele>
        <time>2014-05-08T08:56:39.174Z</time>
      </trkpt>
      <trkpt lat="48.36716" lon="2.75548">
        <ele>130</ele>
        <time>2014-05-08T08:56:43.132Z</time>
      </trkpt>
      <trkpt lat="48.36716" lon="2.75546">
        <ele>130</ele>
        <time>2014-05-08T08:56:44.144Z</time>
      </trkpt>
      <trkpt lat="48.36716" lon="2.75533">
        <ele>130</ele>
        <time>2014-05-08T08:56:48.133Z</time>
      </trkpt>
      <trkpt lat="48.36717" lon="2.7553">
        <ele>130</ele>
        <time>2014-05-08T08:56:49.149Z</time>
      </trkpt>
      <trkpt lat="48.3672" lon="2.75518">
        <ele>131</ele>
        <time>2014-05-08T08:56:53.202Z</time>
      </trkpt>
      <trkpt lat="48.3672" lon="2.75515">
        <ele>131</ele>
        <time>2014-05-08T08:56:54.146Z</time>
      </trkpt>
      <trkpt lat="48.36723" lon="2.75502">
        <ele>132</ele>
        <time>2014-05-08T08:56:58.165Z</time>
      </trkpt>
      <trkpt lat="48.36724" lon="2.75499">
        <ele>132</ele>
        <time>2014-05-08T08:56:59.163Z</time>
      </trkpt>
      <trkpt lat="48.36727" lon="2.75488">
        <ele>133</ele>
        <time>2014-05-08T08:57:03.190Z</time>
      </trkpt>
      <trkpt lat="48.36728" lon="2.75485">
        <ele>133</ele>
        <time>2014-05-08T08:57:04.164Z</time>
      </trkpt>
      <trkpt lat="48.36732" lon="2.75473">
        <ele>133</ele>
        <time>2014-05-08T08:57:09.168Z</time>
      </trkpt>
      <trkpt lat="48.36733" lon="2.75471">
        <ele>133</ele>
        <time>2014-05-08T08:57:10.159Z</time>
      </trkpt>
      <trkpt lat="48.36735" lon="2.75458">
        <ele>133</ele>
        <time>2014-05-08T08:57:14.188Z</time>
      </trkpt>
      <trkpt lat="48.36736" lon="2.75454">
        <ele>133</ele>
        <time>2014-05-08T08:57:15.156Z</time>
      </trkpt>
      <trkpt lat="48.36737" lon="2.75444">
        <ele>133</ele>
        <time>2014-05-08T08:57:18.172Z</time>
      </trkpt>
      <trkpt lat="48.36737" lon="2.7544">
        <ele>133</ele>
        <time>2014-05-08T08:57:19.164Z</time>
      </trkpt>
      <trkpt lat="48.3674" lon="2.75429">
        <ele>134</ele>
        <time>2014-05-08T08:57:22.182Z</time>
      </trkpt>
      <trkpt lat="48.3674" lon="2.75426">
        <ele>135</ele>
        <time>2014-05-08T08:57:23.161Z</time>
      </trkpt>
      <trkpt lat="48.36743" lon="2.75416">
        <ele>136</ele>
        <time>2014-05-08T08:57:26.183Z</time>
      </trkpt>
      <trkpt lat="48.36743" lon="2.75413">
        <ele>136</ele>
        <time>2014-05-08T08:57:27.158Z</time>
      </trkpt>
      <trkpt lat="48.36744" lon="2.754">
        <ele>134</ele>
        <time>2014-05-08T08:57:32.189Z</time>
      </trkpt>
      <trkpt lat="48.36745" lon="2.75398">
        <ele>134</ele>
        <time>2014-05-08T08:57:33.160Z</time>
      </trkpt>
      <trkpt lat="48.36746" lon="2.75385">
        <ele>133</ele>
        <time>2014-05-08T08:57:37.182Z</time>
      </trkpt>
      <trkpt lat="48.36746" lon="2.75382">
        <ele>133</ele>
        <time>2014-05-08T08:57:38.175Z</time>
      </trkpt>
      <trkpt lat="48.36748" lon="2.7537">
        <ele>133</ele>
        <time>2014-05-08T08:57:42.167Z</time>
      </trkpt>
      <trkpt lat="48.36748" lon="2.75367">
        <ele>133</ele>
        <time>2014-05-08T08:57:43.162Z</time>
      </trkpt>
      <trkpt lat="48.3675" lon="2.75354">
        <ele>137</ele>
        <time>2014-05-08T08:57:47.172Z</time>
      </trkpt>
      <trkpt lat="48.36751" lon="2.75351">
        <ele>137</ele>
        <time>2014-05-08T08:57:48.180Z</time>
      </trkpt>
      <trkpt lat="48.36754" lon="2.7534">
        <ele>137</ele>
        <time>2014-05-08T08:57:52.173Z</time>
      </trkpt>
      <trkpt lat="48.36755" lon="2.75337">
        <ele>137</ele>
        <time>2014-05-08T08:57:53.158Z</time>
      </trkpt>
      <trkpt lat="48.36757" lon="2.75324">
        <ele>137</ele>
        <time>2014-05-08T08:57:57.203Z</time>
      </trkpt>
      <trkpt lat="48.36757" lon="2.75321">
        <ele>137</ele>
        <time>2014-05-08T08:57:58.181Z</time>
      </trkpt>
      <trkpt lat="48.36757" lon="2.75309">
        <ele>136</ele>
        <time>2014-05-08T08:58:02.184Z</time>
      </trkpt>
      <trkpt lat="48.36757" lon="2.75306">
        <ele>136</ele>
        <time>2014-05-08T08:58:03.154Z</time>
      </trkpt>
      <trkpt lat="48.36756" lon="2.75293">
        <ele>136</ele>
        <time>2014-05-08T08:58:07.165Z</time>
      </trkpt>
      <trkpt lat="48.36756" lon="2.7529">
        <ele>136</ele>
        <time>2014-05-08T08:58:08.202Z</time>
      </trkpt>
      <trkpt lat="48.36756" lon="2.75277">
        <ele>136</ele>
        <time>2014-05-08T08:58:12.165Z</time>
      </trkpt>
      <trkpt lat="48.36756" lon="2.75274">
        <ele>136</ele>
        <time>2014-05-08T08:58:13.180Z</time>
      </trkpt>
      <trkpt lat="48.36752" lon="2.75262">
        <ele>136</ele>
        <time>2014-05-08T08:58:18.166Z</time>
      </trkpt>
      <trkpt lat="48.3675" lon="2.75261">
        <ele>135</ele>
        <time>2014-05-08T08:58:19.161Z</time>
      </trkpt>
      <trkpt lat="48.36742" lon="2.75255">
        <ele>135</ele>
        <time>2014-05-08T08:58:23.177Z</time>
      </trkpt>
      <trkpt lat="48.3674" lon="2.75254">
        <ele>134</ele>
        <time>2014-05-08T08:58:24.162Z</time>
      </trkpt>
      <trkpt lat="48.36731" lon="2.75255">
        <ele>134</ele>
        <time>2014-05-08T08:58:28.184Z</time>
      </trkpt>
      <trkpt lat="48.36728" lon="2.75255">
        <ele>133</ele>
        <time>2014-05-08T08:58:29.156Z</time>
      </trkpt>
      <trkpt lat="48.3672" lon="2.75257">
        <ele>133</ele>
        <time>2014-05-08T08:58:32.189Z</time>
      </trkpt>
      <trkpt lat="48.36719" lon="2.75258">
        <ele>133</ele>
        <time>2014-05-08T08:58:33.158Z</time>
      </trkpt>
      <trkpt lat="48.36712" lon="2.75262">
        <ele>132</ele>
        <time>2014-05-08T08:58:37.178Z</time>
      </trkpt>
      <trkpt lat="48.3671" lon="2.75264">
        <ele>132</ele>
        <time>2014-05-08T08:58:38.191Z</time>
      </trkpt>
      <trkpt lat="48.36703" lon="2.75268">
        <ele>131</ele>
        <time>2014-05-08T08:58:41.177Z</time>
      </trkpt>
      <trkpt lat="48.367" lon="2.75268">
        <ele>131</ele>
        <time>2014-05-08T08:58:42.162Z</time>
      </trkpt>
      <trkpt lat="48.36694" lon="2.75271">
        <ele>131</ele>
        <time>2014-05-08T08:58:46.165Z</time>
      </trkpt>
      <trkpt lat="48.36692" lon="2.75273">
        <ele>131</ele>
        <time>2014-05-08T08:58:47.160Z</time>
      </trkpt>
      <trkpt lat="48.36684" lon="2.75277">
        <ele>130</ele>
        <time>2014-05-08T08:58:50.177Z</time>
      </trkpt>
      <trkpt lat="48.36682" lon="2.75277">
        <ele>130</ele>
        <time>2014-05-08T08:58:51.157Z</time>
      </trkpt>
      <trkpt lat="48.36676" lon="2.7528">
        <ele>130</ele>
        <time>2014-05-08T08:58:54.194Z</time>
      </trkpt>
      <trkpt lat="48.36674" lon="2.75281">
        <ele>130</ele>
        <time>2014-05-08T08:58:55.153Z</time>
      </trkpt>
      <trkpt lat="48.36666" lon="2.75283">
        <ele>123</ele>
        <time>2014-05-08T08:58:58.171Z</time>
      </trkpt>
      <trkpt lat="48.36664" lon="2.75285">
        <ele>123</ele>
        <time>2014-05-08T08:58:59.155Z</time>
      </trkpt>
      <trkpt lat="48.36656" lon="2.7529">
        <ele>122</ele>
        <time>2014-05-08T08:59:03.163Z</time>
      </trkpt>
      <trkpt lat="48.36653" lon="2.75291">
        <ele>122</ele>
        <time>2014-05-08T08:59:04.154Z</time>
      </trkpt>
      <trkpt lat="48.36645" lon="2.75294">
        <ele>122</ele>
        <time>2014-05-08T08:59:07.177Z</time>
      </trkpt>
      <trkpt lat="48.36643" lon="2.75295">
        <ele>121</ele>
        <time>2014-05-08T08:59:08.186Z</time>
      </trkpt>
      <trkpt lat="48.36636" lon="2.75296">
        <ele>121</ele>
        <time>2014-05-08T08:59:11.189Z</time>
      </trkpt>
      <trkpt lat="48.36634" lon="2.75297">
        <ele>121</ele>
        <time>2014-05-08T08:59:12.159Z</time>
      </trkpt>
      <trkpt lat="48.36626" lon="2.75299">
        <ele>120</ele>
        <time>2014-05-08T08:59:15.167Z</time>
      </trkpt>
      <trkpt lat="48.36624" lon="2.753">
        <ele>120</ele>
        <time>2014-05-08T08:59:16.159Z</time>
      </trkpt>
      <trkpt lat="48.36617" lon="2.75302">
        <ele>119</ele>
        <time>2014-05-08T08:59:18.165Z</time>
      </trkpt>
      <trkpt lat="48.36614" lon="2.75302">
        <ele>119</ele>
        <time>2014-05-08T08:59:19.156Z</time>
      </trkpt>
      <trkpt lat="48.36606" lon="2.75305">
        <ele>118</ele>
        <time>2014-05-08T08:59:22.182Z</time>
      </trkpt>
      <trkpt lat="48.36603" lon="2.75305">
        <ele>118</ele>
        <time>2014-05-08T08:59:23.171Z</time>
      </trkpt>
      <trkpt lat="48.36596" lon="2.75306">
        <ele>118</ele>
        <time>2014-05-08T08:59:26.195Z</time>
      </trkpt>
      <trkpt lat="48.36593" lon="2.75306">
        <ele>117</ele>
        <time>2014-05-08T08:59:27.153Z</time>
      </trkpt>
      <trkpt lat="48.36586" lon="2.75308">
        <ele>117</ele>
        <time>2014-05-08T08:59:30.181Z</time>
      </trkpt>
      <trkpt lat="48.36584" lon="2.75308">
        <ele>117</ele>
        <time>2014-05-08T08:59:31.161Z</time>
      </trkpt>
      <trkpt lat="48.36577" lon="2.75308">
        <ele>110</ele>
        <time>2014-05-08T08:59:34.159Z</time>
      </trkpt>
      <trkpt lat="48.36574" lon="2.75308">
        <ele>110</ele>
        <time>2014-05-08T08:59:35.150Z</time>
      </trkpt>
      <trkpt lat="48.36567" lon="2.75313">
        <ele>110</ele>
        <time>2014-05-08T08:59:39.166Z</time>
      </trkpt>
      <trkpt lat="48.36564" lon="2.75314">
        <ele>110</ele>
        <time>2014-05-08T08:59:40.151Z</time>
      </trkpt>
      <trkpt lat="48.36559" lon="2.75318">
        <ele>110</ele>
        <time>2014-05-08T08:59:42.156Z</time>
      </trkpt>
      <trkpt lat="48.36556" lon="2.75319">
        <ele>109</ele>
        <time>2014-05-08T08:59:43.162Z</time>
      </trkpt>
      <trkpt lat="48.36549" lon="2.75324">
        <ele>109</ele>
        <time>2014-05-08T08:59:46.162Z</time>
      </trkpt>
      <trkpt lat="48.36547" lon="2.75324">
        <ele>109</ele>
        <time>2014-05-08T08:59:47.157Z</time>
      </trkpt>
      <trkpt lat="48.36539" lon="2.75329">
        <ele>108</ele>
        <time>2014-05-08T08:59:50.175Z</time>
      </trkpt>
      <trkpt lat="48.36536" lon="2.7533">
        <ele>108</ele>
        <time>2014-05-08T08:59:51.159Z</time>
      </trkpt>
      <trkpt lat="48.36528" lon="2.75335">
        <ele>105</ele>
        <time>2014-05-08T08:59:54.161Z</time>
      </trkpt>
      <trkpt lat="48.36526" lon="2.75336">
        <ele>105</ele>
        <time>2014-05-08T08:59:55.161Z</time>
      </trkpt>
      <trkpt lat="48.36518" lon="2.75338">
        <ele>104</ele>
        <time>2014-05-08T08:59:59.176Z</time>
      </trkpt>
      <trkpt lat="48.36516" lon="2.75339">
        <ele>104</ele>
        <time>2014-05-08T09:00:00.142Z</time>
      </trkpt>
      <trkpt lat="48.36507" lon="2.75344">
        <ele>104</ele>
        <time>2014-05-08T09:00:04.166Z</time>
      </trkpt>
      <trkpt lat="48.36506" lon="2.75345">
        <ele>104</ele>
        <time>2014-05-08T09:00:05.158Z</time>
      </trkpt>
      <trkpt lat="48.36498" lon="2.75349">
        <ele>102</ele>
        <time>2014-05-08T09:00:09.164Z</time>
      </trkpt>
      <trkpt lat="48.36495" lon="2.75349">
        <ele>102</ele>
        <time>2014-05-08T09:00:10.186Z</time>
      </trkpt>
      <trkpt lat="48.36488" lon="2.75352">
        <ele>102</ele>
        <time>2014-05-08T09:00:13.165Z</time>
      </trkpt>
      <trkpt lat="48.36485" lon="2.75351">
        <ele>102</ele>
        <time>2014-05-08T09:00:14.176Z</time>
      </trkpt>
      <trkpt lat="48.36478" lon="2.75352">
        <ele>102</ele>
        <time>2014-05-08T09:00:17.160Z</time>
      </trkpt>
      <trkpt lat="48.36476" lon="2.75353">
        <ele>102</ele>
        <time>2014-05-08T09:00:18.163Z</time>
      </trkpt>
      <trkpt lat="48.36469" lon="2.75358">
        <ele>102</ele>
        <time>2014-05-08T09:00:22.175Z</time>
      </trkpt>
      <trkpt lat="48.36467" lon="2.75358">
        <ele>102</ele>
        <time>2014-05-08T09:00:23.158Z</time>
      </trkpt>
      <trkpt lat="48.36461" lon="2.7536">
        <ele>102</ele>
        <time>2014-05-08T09:00:26.185Z</time>
      </trkpt>
      <trkpt lat="48.36458" lon="2.7536">
        <ele>102</ele>
        <time>2014-05-08T09:00:27.154Z</time>
      </trkpt>
      <trkpt lat="48.3645" lon="2.75364">
        <ele>102</ele>
        <time>2014-05-08T09:00:32.183Z</time>
      </trkpt>
      <trkpt lat="48.36448" lon="2.75364">
        <ele>102</ele>
        <time>2014-05-08T09:00:33.145Z</time>
      </trkpt>
      <trkpt lat="48.3644" lon="2.75367">
        <ele>102</ele>
        <time>2014-05-08T09:00:38.186Z</time>
      </trkpt>
      <trkpt lat="48.36439" lon="2.75368">
        <ele>102</ele>
        <time>2014-05-08T09:00:39.162Z</time>
      </trkpt>
      <trkpt lat="48.36431" lon="2.75372">
        <ele>102</ele>
        <time>2014-05-08T09:00:45.166Z</time>
      </trkpt>
      <trkpt lat="48.36429" lon="2.75373">
        <ele>102</ele>
        <time>2014-05-08T09:00:46.157Z</time>
      </trkpt>
      <trkpt lat="48.36422" lon="2.75378">
        <ele>101</ele>
        <time>2014-05-08T09:00:51.172Z</time>
      </trkpt>
      <trkpt lat="48.3642" lon="2.75379">
        <ele>101</ele>
        <time>2014-05-08T09:00:52.167Z</time>
      </trkpt>
      <trkpt lat="48.36413" lon="2.75384">
        <ele>102</ele>
        <time>2014-05-08T09:00:56.197Z</time>
      </trkpt>
      <trkpt lat="48.3641" lon="2.75386">
        <ele>102</ele>
        <time>2014-05-08T09:00:57.154Z</time>
      </trkpt>
      <trkpt lat="48.36404" lon="2.75394">
        <ele>102</ele>
        <time>2014-05-08T09:01:01.164Z</time>
      </trkpt>
      <trkpt lat="48.36402" lon="2.75396">
        <ele>102</ele>
        <time>2014-05-08T09:01:02.182Z</time>
      </trkpt>
      <trkpt lat="48.36395" lon="2.75404">
        <ele>102</ele>
        <time>2014-05-08T09:01:08.195Z</time>
      </trkpt>
      <trkpt lat="48.36394" lon="2.75405">
        <ele>102</ele>
        <time>2014-05-08T09:01:09.157Z</time>
      </trkpt>
      <trkpt lat="48.36387" lon="2.75413">
        <ele>102</ele>
        <time>2014-05-08T09:01:14.187Z</time>
      </trkpt>
      <trkpt lat="48.36385" lon="2.75415">
        <ele>102</ele>
        <time>2014-05-08T09:01:15.158Z</time>
      </trkpt>
      <trkpt lat="48.36378" lon="2.75422">
        <ele>100</ele>
        <time>2014-05-08T09:01:21.192Z</time>
      </trkpt>
      <trkpt lat="48.36377" lon="2.75423">
        <ele>100</ele>
        <time>2014-05-08T09:01:22.162Z</time>
      </trkpt>
      <trkpt lat="48.3637" lon="2.75431">
        <ele>100</ele>
        <time>2014-05-08T09:01:27.163Z</time>
      </trkpt>
      <trkpt lat="48.36369" lon="2.75432">
        <ele>100</ele>
        <time>2014-05-08T09:01:28.157Z</time>
      </trkpt>
      <trkpt lat="48.36361" lon="2.75437">
        <ele>100</ele>
        <time>2014-05-08T09:01:34.188Z</time>
      </trkpt>
      <trkpt lat="48.36359" lon="2.75438">
        <ele>100</ele>
        <time>2014-05-08T09:01:35.172Z</time>
      </trkpt>
      <trkpt lat="48.36351" lon="2.75443">
        <ele>100</ele>
        <time>2014-05-08T09:01:39.164Z</time>
      </trkpt>
      <trkpt lat="48.36349" lon="2.75444">
        <ele>101</ele>
        <time>2014-05-08T09:01:40.164Z</time>
      </trkpt>
      <trkpt lat="48.3634" lon="2.75449">
        <ele>101</ele>
        <time>2014-05-08T09:01:44.209Z</time>
      </trkpt>
      <trkpt lat="48.36339" lon="2.7545">
        <ele>100</ele>
        <time>2014-05-08T09:01:45.155Z</time>
      </trkpt>
      <trkpt lat="48.3633" lon="2.75455">
        <ele>103</ele>
        <time>2014-05-08T09:01:49.189Z</time>
      </trkpt>
      <trkpt lat="48.36328" lon="2.75456">
        <ele>103</ele>
        <time>2014-05-08T09:01:50.197Z</time>
      </trkpt>
      <trkpt lat="48.36322" lon="2.75462">
        <ele>103</ele>
        <time>2014-05-08T09:01:53.166Z</time>
      </trkpt>
      <trkpt lat="48.3632" lon="2.75463">
        <ele>103</ele>
        <time>2014-05-08T09:01:54.159Z</time>
      </trkpt>
      <trkpt lat="48.36313" lon="2.75467">
        <ele>103</ele>
        <time>2014-05-08T09:01:57.167Z</time>
      </trkpt>
      <trkpt lat="48.36311" lon="2.7547">
        <ele>103</ele>
        <time>2014-05-08T09:01:58.178Z</time>
      </trkpt>
      <trkpt lat="48.36305" lon="2.75473">
        <ele>103</ele>
        <time>2014-05-08T09:02:01.183Z</time>
      </trkpt>
      <trkpt lat="48.36302" lon="2.75475">
        <ele>103</ele>
        <time>2014-05-08T09:02:02.177Z</time>
      </trkpt>
      <trkpt lat="48.36295" lon="2.7548">
        <ele>103</ele>
        <time>2014-05-08T09:02:06.185Z</time>
      </trkpt>
      <trkpt lat="48.36293" lon="2.75482">
        <ele>103</ele>
        <time>2014-05-08T09:02:07.177Z</time>
      </trkpt>
      <trkpt lat="48.36288" lon="2.75488">
        <ele>103</ele>
        <time>2014-05-08T09:02:11.171Z</time>
      </trkpt>
      <trkpt lat="48.36286" lon="2.75491">
        <ele>103</ele>
        <time>2014-05-08T09:02:12.159Z</time>
      </trkpt>
      <trkpt lat="48.36279" lon="2.75496">
        <ele>103</ele>
        <time>2014-05-08T09:02:15.186Z</time>
      </trkpt>
      <trkpt lat="48.36277" lon="2.75497">
        <ele>103</ele>
        <time>2014-05-08T09:02:16.160Z</time>
      </trkpt>
      <trkpt lat="48.36271" lon="2.75502">
        <ele>103</ele>
        <time>2014-05-08T09:02:19.165Z</time>
      </trkpt>
      <trkpt lat="48.36269" lon="2.75504">
        <ele>103</ele>
        <time>2014-05-08T09:02:20.185Z</time>
      </trkpt>
      <trkpt lat="48.36262" lon="2.7551">
        <ele>103</ele>
        <time>2014-05-08T09:02:24.176Z</time>
      </trkpt>
      <trkpt lat="48.3626" lon="2.75512">
        <ele>103</ele>
        <time>2014-05-08T09:02:25.180Z</time>
      </trkpt>
      <trkpt lat="48.36253" lon="2.75518">
        <ele>103</ele>
        <time>2014-05-08T09:02:28.181Z</time>
      </trkpt>
      <trkpt lat="48.36251" lon="2.75519">
        <ele>103</ele>
        <time>2014-05-08T09:02:29.181Z</time>
      </trkpt>
      <trkpt lat="48.36244" lon="2.75522">
        <ele>104</ele>
        <time>2014-05-08T09:02:32.214Z</time>
      </trkpt>
      <trkpt lat="48.36241" lon="2.75523">
        <ele>104</ele>
        <time>2014-05-08T09:02:33.174Z</time>
      </trkpt>
      <trkpt lat="48.36236" lon="2.75525">
        <ele>104</ele>
        <time>2014-05-08T09:02:35.167Z</time>
      </trkpt>
      <trkpt lat="48.36233" lon="2.75528">
        <ele>104</ele>
        <time>2014-05-08T09:02:36.160Z</time>
      </trkpt>
      <trkpt lat="48.36226" lon="2.75534">
        <ele>104</ele>
        <time>2014-05-08T09:02:39.163Z</time>
      </trkpt>
      <trkpt lat="48.36224" lon="2.75536">
        <ele>104</ele>
        <time>2014-05-08T09:02:40.157Z</time>
      </trkpt>
      <trkpt lat="48.36219" lon="2.75545">
        <ele>104</ele>
        <time>2014-05-08T09:02:44.206Z</time>
      </trkpt>
      <trkpt lat="48.36218" lon="2.75547">
        <ele>104</ele>
        <time>2014-05-08T09:02:45.173Z</time>
      </trkpt>
      <trkpt lat="48.36213" lon="2.75557">
        <ele>104</ele>
        <time>2014-05-08T09:02:49.182Z</time>
      </trkpt>
      <trkpt lat="48.36211" lon="2.75559">
        <ele>104</ele>
        <time>2014-05-08T09:02:50.172Z</time>
      </trkpt>
      <trkpt lat="48.36205" lon="2.75566">
        <ele>104</ele>
        <time>2014-05-08T09:02:54.163Z</time>
      </trkpt>
      <trkpt lat="48.36204" lon="2.75568">
        <ele>104</ele>
        <time>2014-05-08T09:02:55.172Z</time>
      </trkpt>
      <trkpt lat="48.36197" lon="2.7557">
        <ele>104</ele>
        <time>2014-05-08T09:02:59.177Z</time>
      </trkpt>
      <trkpt lat="48.36194" lon="2.75568">
        <ele>104</ele>
        <time>2014-05-08T09:03:00.145Z</time>
      </trkpt>
      <trkpt lat="48.36193" lon="2.75556">
        <ele>104</ele>
        <time>2014-05-08T09:03:06.163Z</time>
      </trkpt>
      <trkpt lat="48.36194" lon="2.75553">
        <ele>104</ele>
        <time>2014-05-08T09:03:07.160Z</time>
      </trkpt>
      <trkpt lat="48.36195" lon="2.75541">
        <ele>104</ele>
        <time>2014-05-08T09:03:12.165Z</time>
      </trkpt>
      <trkpt lat="48.36196" lon="2.75538">
        <ele>105</ele>
        <time>2014-05-08T09:03:13.160Z</time>
      </trkpt>
      <trkpt lat="48.362" lon="2.75527">
        <ele>105</ele>
        <time>2014-05-08T09:03:17.173Z</time>
      </trkpt>
      <trkpt lat="48.362" lon="2.75525">
        <ele>105</ele>
        <time>2014-05-08T09:03:18.163Z</time>
      </trkpt>
      <trkpt lat="48.36202" lon="2.75513">
        <ele>105</ele>
        <time>2014-05-08T09:03:23.178Z</time>
      </trkpt>
      <trkpt lat="48.36202" lon="2.7551">
        <ele>105</ele>
        <time>2014-05-08T09:03:24.158Z</time>
      </trkpt>
      <trkpt lat="48.36203" lon="2.75499">
        <ele>107</ele>
        <time>2014-05-08T09:03:30.162Z</time>
      </trkpt>
      <trkpt lat="48.36203" lon="2.75496">
        <ele>107</ele>
        <time>2014-05-08T09:03:31.160Z</time>
      </trkpt>
      <trkpt lat="48.36206" lon="2.75485">
        <ele>107</ele>
        <time>2014-05-08T09:03:36.183Z</time>
      </trkpt>
      <trkpt lat="48.36207" lon="2.75483">
        <ele>107</ele>
        <time>2014-05-08T09:03:37.159Z</time>
      </trkpt>
      <trkpt lat="48.36208" lon="2.75469">
        <ele>107</ele>
        <time>2014-05-08T09:03:42.180Z</time>
      </trkpt>
      <trkpt lat="48.36209" lon="2.75467">
        <ele>107</ele>
        <time>2014-05-08T09:03:43.153Z</time>
      </trkpt>
      <trkpt lat="48.36213" lon="2.75456">
        <ele>107</ele>
        <time>2014-05-08T09:03:49.159Z</time>
      </trkpt>
      <trkpt lat="48.36213" lon="2.75455">
        <ele>107</ele>
        <time>2014-05-08T09:03:50.182Z</time>
      </trkpt>
      <trkpt lat="48.36217" lon="2.75442">
        <ele>107</ele>
        <time>2014-05-08T09:03:55.136Z</time>
      </trkpt>
      <trkpt lat="48.36217" lon="2.75439">
        <ele>107</ele>
        <time>2014-05-08T09:03:56.166Z</time>
      </trkpt>
      <trkpt lat="48.36219" lon="2.75427">
        <ele>107</ele>
        <time>2014-05-08T09:03:59.169Z</time>
      </trkpt>
      <trkpt lat="48.3622" lon="2.75423">
        <ele>107</ele>
        <time>2014-05-08T09:04:00.126Z</time>
      </trkpt>
      <trkpt lat="48.36221" lon="2.75411">
        <ele>108</ele>
        <time>2014-05-08T09:04:04.153Z</time>
      </trkpt>
      <trkpt lat="48.36221" lon="2.75409">
        <ele>108</ele>
        <time>2014-05-08T09:04:05.162Z</time>
      </trkpt>
      <trkpt lat="48.36223" lon="2.75397">
        <ele>109</ele>
        <time>2014-05-08T09:04:09.162Z</time>
      </trkpt>
      <trkpt lat="48.36224" lon="2.75394">
        <ele>109</ele>
        <time>2014-05-08T09:04:10.170Z</time>
      </trkpt>
      <trkpt lat="48.36224" lon="2.75383">
        <ele>109</ele>
        <time>2014-05-08T09:04:13.179Z</time>
      </trkpt>
      <trkpt lat="48.36224" lon="2.75379">
        <ele>109</ele>
        <time>2014-05-08T09:04:14.183Z</time>
      </trkpt>
      <trkpt lat="48.36224" lon="2.75368">
        <ele>109</ele>
        <time>2014-05-08T09:04:18.165Z</time>
      </trkpt>
      <trkpt lat="48.36224" lon="2.75365">
        <ele>109</ele>
        <time>2014-05-08T09:04:19.157Z</time>
      </trkpt>
      <trkpt lat="48.36225" lon="2.75351">
        <ele>109</ele>
        <time>2014-05-08T09:04:23.161Z</time>
      </trkpt>
      <trkpt lat="48.36226" lon="2.75348">
        <ele>109</ele>
        <time>2014-05-08T09:04:24.157Z</time>
      </trkpt>
      <trkpt lat="48.3623" lon="2.75337">
        <ele>109</ele>
        <time>2014-05-08T09:04:29.173Z</time>
      </trkpt>
      <trkpt lat="48.36231" lon="2.75334">
        <ele>109</ele>
        <time>2014-05-08T09:04:30.163Z</time>
      </trkpt>
      <trkpt lat="48.36234" lon="2.75322">
        <ele>111</ele>
        <time>2014-05-08T09:04:35.187Z</time>
      </trkpt>
      <trkpt lat="48.36235" lon="2.75319">
        <ele>111</ele>
        <time>2014-05-08T09:04:36.164Z</time>
      </trkpt>
      <trkpt lat="48.36237" lon="2.75306">
        <ele>112</ele>
        <time>2014-05-08T09:04:40.165Z</time>
      </trkpt>
      <trkpt lat="48.36238" lon="2.75304">
        <ele>112</ele>
        <time>2014-05-08T09:04:41.161Z</time>
      </trkpt>
      <trkpt lat="48.3624" lon="2.75292">
        <ele>112</ele>
        <time>2014-05-08T09:04:45.183Z</time>
      </trkpt>
      <trkpt lat="48.36241" lon="2.75288">
        <ele>112</ele>
        <time>2014-05-08T09:04:46.165Z</time>
      </trkpt>
      <trkpt lat="48.36243" lon="2.75278">
        <ele>112</ele>
        <time>2014-05-08T09:04:51.178Z</time>
      </trkpt>
      <trkpt lat="48.36244" lon="2.75274">
        <ele>112</ele>
        <time>2014-05-08T09:04:52.166Z</time>
      </trkpt>
      <trkpt lat="48.36243" lon="2.75261">
        <ele>111</ele>
        <time>2014-05-08T09:04:56.186Z</time>
      </trkpt>
      <trkpt lat="48.36244" lon="2.75258">
        <ele>111</ele>
        <time>2014-05-08T09:04:57.161Z</time>
      </trkpt>
      <trkpt lat="48.36244" lon="2.75246">
        <ele>112</ele>
        <time>2014-05-08T09:05:02.170Z</time>
      </trkpt>
      <trkpt lat="48.36244" lon="2.75242">
        <ele>112</ele>
        <time>2014-05-08T09:05:03.156Z</time>
      </trkpt>
      <trkpt lat="48.36246" lon="2.7523">
        <ele>114</ele>
        <time>2014-05-08T09:05:07.181Z</time>
      </trkpt>
      <trkpt lat="48.36246" lon="2.75227">
        <ele>114</ele>
        <time>2014-05-08T09:05:08.168Z</time>
      </trkpt>
      <trkpt lat="48.36248" lon="2.75215">
        <ele>115</ele>
        <time>2014-05-08T09:05:12.160Z</time>
      </trkpt>
      <trkpt lat="48.36248" lon="2.75213">
        <ele>115</ele>
        <time>2014-05-08T09:05:13.159Z</time>
      </trkpt>
      <trkpt lat="48.36252" lon="2.75201">
        <ele>111</ele>
        <time>2014-05-08T09:05:19.156Z</time>
      </trkpt>
      <trkpt lat="48.36252" lon="2.75198">
        <ele>111</ele>
        <time>2014-05-08T09:05:20.175Z</time>
      </trkpt>
      <trkpt lat="48.36254" lon="2.75187">
        <ele>111</ele>
        <time>2014-05-08T09:05:24.162Z</time>
      </trkpt>
      <trkpt lat="48.36254" lon="2.75183">
        <ele>111</ele>
        <time>2014-05-08T09:05:25.166Z</time>
      </trkpt>
      <trkpt lat="48.36253" lon="2.7517">
        <ele>112</ele>
        <time>2014-05-08T09:05:31.147Z</time>
      </trkpt>
      <trkpt lat="48.36252" lon="2.7517">
        <ele>113</ele>
        <time>2014-05-08T09:05:32.174Z</time>
      </trkpt>
      <trkpt lat="48.36244" lon="2.75173">
        <ele>114</ele>
        <time>2014-05-08T09:05:43.173Z</time>
      </trkpt>
      <trkpt lat="48.36242" lon="2.75174">
        <ele>114</ele>
        <time>2014-05-08T09:05:44.168Z</time>
      </trkpt>
      <trkpt lat="48.36234" lon="2.75177">
        <ele>115</ele>
        <time>2014-05-08T09:05:49.166Z</time>
      </trkpt>
      <trkpt lat="48.36233" lon="2.75178">
        <ele>115</ele>
        <time>2014-05-08T09:05:50.180Z</time>
      </trkpt>
      <trkpt lat="48.36224" lon="2.75179">
        <ele>116</ele>
        <time>2014-05-08T09:05:55.166Z</time>
      </trkpt>
      <trkpt lat="48.36222" lon="2.75178">
        <ele>116</ele>
        <time>2014-05-08T09:05:56.177Z</time>
      </trkpt>
      <trkpt lat="48.36213" lon="2.75178">
        <ele>117</ele>
        <time>2014-05-08T09:06:02.190Z</time>
      </trkpt>
      <trkpt lat="48.36211" lon="2.75177">
        <ele>117</ele>
        <time>2014-05-08T09:06:03.165Z</time>
      </trkpt>
      <trkpt lat="48.36204" lon="2.75174">
        <ele>118</ele>
        <time>2014-05-08T09:06:06.179Z</time>
      </trkpt>
      <trkpt lat="48.36202" lon="2.75174">
        <ele>118</ele>
        <time>2014-05-08T09:06:07.162Z</time>
      </trkpt>
      <trkpt lat="48.36195" lon="2.7517">
        <ele>119</ele>
        <time>2014-05-08T09:06:11.166Z</time>
      </trkpt>
      <trkpt lat="48.36193" lon="2.75169">
        <ele>120</ele>
        <time>2014-05-08T09:06:12.162Z</time>
      </trkpt>
      <trkpt lat="48.36187" lon="2.75163">
        <ele>122</ele>
        <time>2014-05-08T09:06:15.162Z</time>
      </trkpt>
      <trkpt lat="48.36185" lon="2.75161">
        <ele>123</ele>
        <time>2014-05-08T09:06:16.160Z</time>
      </trkpt>
      <trkpt lat="48.36179" lon="2.75156">
        <ele>123</ele>
        <time>2014-05-08T09:06:19.161Z</time>
      </trkpt>
      <trkpt lat="48.36173" lon="2.7515">
        <ele>123</ele>
        <time>2014-05-08T09:06:20.186Z</time>
      </trkpt>
      <trkpt lat="48.36167" lon="2.75143">
        <ele>123</ele>
        <time>2014-05-08T09:06:23.165Z</time>
      </trkpt>
      <trkpt lat="48.36165" lon="2.75142">
        <ele>126</ele>
        <time>2014-05-08T09:06:24.164Z</time>
      </trkpt>
      <trkpt lat="48.3616" lon="2.75135">
        <ele>126</ele>
        <time>2014-05-08T09:06:28.169Z</time>
      </trkpt>
      <trkpt lat="48.36158" lon="2.75133">
        <ele>126</ele>
        <time>2014-05-08T09:06:29.164Z</time>
      </trkpt>
      <trkpt lat="48.36155" lon="2.7512">
        <ele>126</ele>
        <time>2014-05-08T09:06:34.174Z</time>
      </trkpt>
      <trkpt lat="48.36155" lon="2.75117">
        <ele>126</ele>
        <time>2014-05-08T09:06:35.166Z</time>
      </trkpt>
      <trkpt lat="48.36154" lon="2.75105">
        <ele>127</ele>
        <time>2014-05-08T09:06:39.174Z</time>
      </trkpt>
      <trkpt lat="48.36154" lon="2.75103">
        <ele>127</ele>
        <time>2014-05-08T09:06:40.172Z</time>
      </trkpt>
      <trkpt lat="48.36155" lon="2.75091">
        <ele>127</ele>
        <time>2014-05-08T09:06:45.187Z</time>
      </trkpt>
      <trkpt lat="48.36155" lon="2.75089">
        <ele>127</ele>
        <time>2014-05-08T09:06:46.174Z</time>
      </trkpt>
      <trkpt lat="48.36156" lon="2.75075">
        <ele>128</ele>
        <time>2014-05-08T09:06:53.184Z</time>
      </trkpt>
      <trkpt lat="48.36156" lon="2.75073">
        <ele>128</ele>
        <time>2014-05-08T09:06:54.192Z</time>
      </trkpt>
      <trkpt lat="48.36158" lon="2.75061">
        <ele>128</ele>
        <time>2014-05-08T09:06:59.169Z</time>
      </trkpt>
      <trkpt lat="48.36159" lon="2.75058">
        <ele>128</ele>
        <time>2014-05-08T09:07:00.143Z</time>
      </trkpt>
      <trkpt lat="48.3616" lon="2.75045">
        <ele>128</ele>
        <time>2014-05-08T09:07:06.163Z</time>
      </trkpt>
      <trkpt lat="48.3616" lon="2.75043">
        <ele>128</ele>
        <time>2014-05-08T09:07:07.171Z</time>
      </trkpt>
      <trkpt lat="48.3616" lon="2.7503">
        <ele>129</ele>
        <time>2014-05-08T09:07:12.174Z</time>
      </trkpt>
      <trkpt lat="48.36159" lon="2.75027">
        <ele>129</ele>
        <time>2014-05-08T09:07:13.170Z</time>
      </trkpt>
      <trkpt lat="48.36153" lon="2.75018">
        <ele>129</ele>
        <time>2014-05-08T09:07:18.197Z</time>
      </trkpt>
      <trkpt lat="48.36151" lon="2.75017">
        <ele>129</ele>
        <time>2014-05-08T09:07:19.198Z</time>
      </trkpt>
      <trkpt lat="48.36143" lon="2.75017">
        <ele>129</ele>
        <time>2014-05-08T09:07:26.209Z</time>
      </trkpt>
      <trkpt lat="48.36141" lon="2.75018">
        <ele>129</ele>
        <time>2014-05-08T09:07:27.171Z</time>
      </trkpt>
      <trkpt lat="48.36133" lon="2.75023">
        <ele>128</ele>
        <time>2014-05-08T09:07:32.212Z</time>
      </trkpt>
      <trkpt lat="48.36131" lon="2.75024">
        <ele>128</ele>
        <time>2014-05-08T09:07:33.187Z</time>
      </trkpt>
      <trkpt lat="48.36124" lon="2.75017">
        <ele>127</ele>
        <time>2014-05-08T09:07:38.204Z</time>
      </trkpt>
      <trkpt lat="48.36123" lon="2.75016">
        <ele>127</ele>
        <time>2014-05-08T09:07:39.178Z</time>
      </trkpt>
      <trkpt lat="48.36119" lon="2.75005">
        <ele>127</ele>
        <time>2014-05-08T09:07:44.195Z</time>
      </trkpt>
      <trkpt lat="48.36119" lon="2.75002">
        <ele>127</ele>
        <time>2014-05-08T09:07:45.168Z</time>
      </trkpt>
      <trkpt lat="48.36116" lon="2.74989">
        <ele>129</ele>
        <time>2014-05-08T09:07:49.203Z</time>
      </trkpt>
      <trkpt lat="48.36116" lon="2.74986">
        <ele>129</ele>
        <time>2014-05-08T09:07:50.198Z</time>
      </trkpt>
      <trkpt lat="48.36113" lon="2.74974">
        <ele>129</ele>
        <time>2014-05-08T09:07:55.169Z</time>
      </trkpt>
      <trkpt lat="48.36113" lon="2.74971">
        <ele>129</ele>
        <time>2014-05-08T09:07:56.186Z</time>
      </trkpt>
      <trkpt lat="48.36112" lon="2.74958">
        <ele>129</ele>
        <time>2014-05-08T09:08:01.175Z</time>
      </trkpt>
      <trkpt lat="48.36111" lon="2.74956">
        <ele>129</ele>
        <time>2014-05-08T09:08:02.181Z</time>
      </trkpt>
      <trkpt lat="48.3611" lon="2.74945">
        <ele>129</ele>
        <time>2014-05-08T09:08:06.184Z</time>
      </trkpt>
      <trkpt lat="48.3611" lon="2.74942">
        <ele>129</ele>
        <time>2014-05-08T09:08:07.176Z</time>
      </trkpt>
      <trkpt lat="48.36108" lon="2.74931">
        <ele>129</ele>
        <time>2014-05-08T09:08:12.181Z</time>
      </trkpt>
      <trkpt lat="48.36108" lon="2.74928">
        <ele>129</ele>
        <time>2014-05-08T09:08:13.165Z</time>
      </trkpt>
      <trkpt lat="48.36105" lon="2.74915">
        <ele>130</ele>
        <time>2014-05-08T09:08:17.168Z</time>
      </trkpt>
      <trkpt lat="48.36105" lon="2.74912">
        <ele>130</ele>
        <time>2014-05-08T09:08:18.166Z</time>
      </trkpt>
      <trkpt lat="48.36103" lon="2.74901">
        <ele>130</ele>
        <time>2014-05-08T09:08:22.174Z</time>
      </trkpt>
      <trkpt lat="48.36103" lon="2.74898">
        <ele>130</ele>
        <time>2014-05-08T09:08:23.160Z</time>
      </trkpt>
      <trkpt lat="48.361" lon="2.74886">
        <ele>131</ele>
        <time>2014-05-08T09:08:29.193Z</time>
      </trkpt>
      <trkpt lat="48.361" lon="2.74883">
        <ele>131</ele>
        <time>2014-05-08T09:08:30.163Z</time>
      </trkpt>
      <trkpt lat="48.36099" lon="2.74872">
        <ele>131</ele>
        <time>2014-05-08T09:08:34.161Z</time>
      </trkpt>
      <trkpt lat="48.36098" lon="2.74869">
        <ele>131</ele>
        <time>2014-05-08T09:08:35.156Z</time>
      </trkpt>
      <trkpt lat="48.36095" lon="2.74859">
        <ele>131</ele>
        <time>2014-05-08T09:08:39.166Z</time>
      </trkpt>
      <trkpt lat="48.36094" lon="2.74856">
        <ele>131</ele>
        <time>2014-05-08T09:08:40.163Z</time>
      </trkpt>
      <trkpt lat="48.36089" lon="2.74845">
        <ele>131</ele>
        <time>2014-05-08T09:08:44.185Z</time>
      </trkpt>
      <trkpt lat="48.36088" lon="2.74842">
        <ele>131</ele>
        <time>2014-05-08T09:08:45.157Z</time>
      </trkpt>
      <trkpt lat="48.36083" lon="2.74834">
        <ele>131</ele>
        <time>2014-05-08T09:08:48.178Z</time>
      </trkpt>
      <trkpt lat="48.36082" lon="2.74831">
        <ele>130</ele>
        <time>2014-05-08T09:08:49.162Z</time>
      </trkpt>
      <trkpt lat="48.36079" lon="2.74822">
        <ele>129</ele>
        <time>2014-05-08T09:08:52.178Z</time>
      </trkpt>
      <trkpt lat="48.36077" lon="2.74819">
        <ele>129</ele>
        <time>2014-05-08T09:08:53.173Z</time>
      </trkpt>
      <trkpt lat="48.36073" lon="2.74809">
        <ele>128</ele>
        <time>2014-05-08T09:08:56.194Z</time>
      </trkpt>
      <trkpt lat="48.36071" lon="2.74806">
        <ele>128</ele>
        <time>2014-05-08T09:08:57.159Z</time>
      </trkpt>
      <trkpt lat="48.36068" lon="2.74797">
        <ele>128</ele>
        <time>2014-05-08T09:09:00.163Z</time>
      </trkpt>
      <trkpt lat="48.36067" lon="2.74793">
        <ele>128</ele>
        <time>2014-05-08T09:09:01.160Z</time>
      </trkpt>
      <trkpt lat="48.36063" lon="2.74783">
        <ele>128</ele>
        <time>2014-05-08T09:09:05.175Z</time>
      </trkpt>
      <trkpt lat="48.36061" lon="2.7478">
        <ele>128</ele>
        <time>2014-05-08T09:09:06.163Z</time>
      </trkpt>
      <trkpt lat="48.36057" lon="2.74769">
        <ele>128</ele>
        <time>2014-05-08T09:09:10.170Z</time>
      </trkpt>
      <trkpt lat="48.36056" lon="2.74766">
        <ele>128</ele>
        <time>2014-05-08T09:09:11.163Z</time>
      </trkpt>
      <trkpt lat="48.3605" lon="2.74757">
        <ele>128</ele>
        <time>2014-05-08T09:09:15.165Z</time>
      </trkpt>
      <trkpt lat="48.36049" lon="2.74754">
        <ele>128</ele>
        <time>2014-05-08T09:09:16.157Z</time>
      </trkpt>
      <trkpt lat="48.36044" lon="2.74745">
        <ele>131</ele>
        <time>2014-05-08T09:09:20.184Z</time>
      </trkpt>
      <trkpt lat="48.36043" lon="2.74743">
        <ele>131</ele>
        <time>2014-05-08T09:09:21.168Z</time>
      </trkpt>
      <trkpt lat="48.36038" lon="2.74733">
        <ele>131</ele>
        <time>2014-05-08T09:09:25.177Z</time>
      </trkpt>
      <trkpt lat="48.36038" lon="2.74731">
        <ele>131</ele>
        <time>2014-05-08T09:09:26.176Z</time>
      </trkpt>
      <trkpt lat="48.36033" lon="2.7472">
        <ele>131</ele>
        <time>2014-05-08T09:09:30.168Z</time>
      </trkpt>
      <trkpt lat="48.36032" lon="2.74718">
        <ele>131</ele>
        <time>2014-05-08T09:09:31.165Z</time>
      </trkpt>
      <trkpt lat="48.36027" lon="2.74708">
        <ele>131</ele>
        <time>2014-05-08T09:09:35.199Z</time>
      </trkpt>
      <trkpt lat="48.36027" lon="2.74705">
        <ele>131</ele>
        <time>2014-05-08T09:09:36.165Z</time>
      </trkpt>
      <trkpt lat="48.36024" lon="2.74694">
        <ele>132</ele>
        <time>2014-05-08T09:09:40.189Z</time>
      </trkpt>
      <trkpt lat="48.36022" lon="2.74692">
        <ele>132</ele>
        <time>2014-05-08T09:09:41.160Z</time>
      </trkpt>
      <trkpt lat="48.36016" lon="2.74683">
        <ele>131</ele>
        <time>2014-05-08T09:09:45.163Z</time>
      </trkpt>
      <trkpt lat="48.36014" lon="2.74679">
        <ele>131</ele>
        <time>2014-05-08T09:09:46.156Z</time>
      </trkpt>
      <trkpt lat="48.3601" lon="2.74668">
        <ele>131</ele>
        <time>2014-05-08T09:09:49.164Z</time>
      </trkpt>
      <trkpt lat="48.36008" lon="2.74665">
        <ele>132</ele>
        <time>2014-05-08T09:09:50.187Z</time>
      </trkpt>
      <trkpt lat="48.36003" lon="2.74654">
        <ele>133</ele>
        <time>2014-05-08T09:09:54.167Z</time>
      </trkpt>
      <trkpt lat="48.36002" lon="2.74651">
        <ele>133</ele>
        <time>2014-05-08T09:09:55.159Z</time>
      </trkpt>
      <trkpt lat="48.35997" lon="2.7464">
        <ele>127</ele>
        <time>2014-05-08T09:09:59.176Z</time>
      </trkpt>
      <trkpt lat="48.35996" lon="2.74637">
        <ele>127</ele>
        <time>2014-05-08T09:10:00.163Z</time>
      </trkpt>
      <trkpt lat="48.35994" lon="2.74625">
        <ele>126</ele>
        <time>2014-05-08T09:10:04.166Z</time>
      </trkpt>
      <trkpt lat="48.35994" lon="2.74622">
        <ele>127</ele>
        <time>2014-05-08T09:10:05.164Z</time>
      </trkpt>
      <trkpt lat="48.35996" lon="2.74609">
        <ele>127</ele>
        <time>2014-05-08T09:10:09.180Z</time>
      </trkpt>
      <trkpt lat="48.35996" lon="2.74606">
        <ele>128</ele>
        <time>2014-05-08T09:10:10.157Z</time>
      </trkpt>
      <trkpt lat="48.35998" lon="2.74597">
        <ele>129</ele>
        <time>2014-05-08T09:10:13.171Z</time>
      </trkpt>
      <trkpt lat="48.35999" lon="2.74593">
        <ele>130</ele>
        <time>2014-05-08T09:10:14.170Z</time>
      </trkpt>
      <trkpt lat="48.36002" lon="2.74583">
        <ele>133</ele>
        <time>2014-05-08T09:10:17.193Z</time>
      </trkpt>
      <trkpt lat="48.36002" lon="2.74579">
        <ele>133</ele>
        <time>2014-05-08T09:10:18.171Z</time>
      </trkpt>
      <trkpt lat="48.36004" lon="2.74566">
        <ele>134</ele>
        <time>2014-05-08T09:10:22.171Z</time>
      </trkpt>
      <trkpt lat="48.36005" lon="2.74563">
        <ele>134</ele>
        <time>2014-05-08T09:10:23.180Z</time>
      </trkpt>
      <trkpt lat="48.36006" lon="2.7455">
        <ele>134</ele>
        <time>2014-05-08T09:10:27.164Z</time>
      </trkpt>
      <trkpt lat="48.36005" lon="2.74547">
        <ele>134</ele>
        <time>2014-05-08T09:10:28.165Z</time>
      </trkpt>
      <trkpt lat="48.36" lon="2.74539">
        <ele>127</ele>
        <time>2014-05-08T09:10:32.180Z</time>
      </trkpt>
      <trkpt lat="48.35998" lon="2.74538">
        <ele>127</ele>
        <time>2014-05-08T09:10:33.185Z</time>
      </trkpt>
      <trkpt lat="48.3599" lon="2.74534">
        <ele>127</ele>
        <time>2014-05-08T09:10:38.181Z</time>
      </trkpt>
      <trkpt lat="48.35989" lon="2.74533">
        <ele>127</ele>
        <time>2014-05-08T09:10:39.162Z</time>
      </trkpt>
      <trkpt lat="48.3598" lon="2.74529">
        <ele>126</ele>
        <time>2014-05-08T09:10:44.195Z</time>
      </trkpt>
      <trkpt lat="48.35979" lon="2.74528">
        <ele>126</ele>
        <time>2014-05-08T09:10:45.169Z</time>
      </trkpt>
      <trkpt lat="48.35971" lon="2.74523">
        <ele>126</ele>
        <time>2014-05-08T09:10:50.182Z</time>
      </trkpt>
      <trkpt lat="48.3597" lon="2.74523">
        <ele>125</ele>
        <time>2014-05-08T09:10:51.161Z</time>
      </trkpt>
      <trkpt lat="48.35962" lon="2.74518">
        <ele>124</ele>
        <time>2014-05-08T09:10:56.197Z</time>
      </trkpt>
      <trkpt lat="48.3596" lon="2.74517">
        <ele>124</ele>
        <time>2014-05-08T09:10:57.157Z</time>
      </trkpt>
      <trkpt lat="48.35953" lon="2.74515">
        <ele>123</ele>
        <time>2014-05-08T09:11:01.184Z</time>
      </trkpt>
      <trkpt lat="48.35951" lon="2.74513">
        <ele>123</ele>
        <time>2014-05-08T09:11:02.179Z</time>
      </trkpt>
      <trkpt lat="48.35943" lon="2.74509">
        <ele>121</ele>
        <time>2014-05-08T09:11:06.167Z</time>
      </trkpt>
      <trkpt lat="48.35942" lon="2.74508">
        <ele>121</ele>
        <time>2014-05-08T09:11:07.167Z</time>
      </trkpt>
      <trkpt lat="48.35936" lon="2.74504">
        <ele>120</ele>
        <time>2014-05-08T09:11:11.177Z</time>
      </trkpt>
      <trkpt lat="48.35933" lon="2.74503">
        <ele>119</ele>
        <time>2014-05-08T09:11:12.138Z</time>
      </trkpt>
      <trkpt lat="48.35926" lon="2.74501">
        <ele>117</ele>
        <time>2014-05-08T09:11:15.172Z</time>
      </trkpt>
      <trkpt lat="48.35924" lon="2.74501">
        <ele>117</ele>
        <time>2014-05-08T09:11:16.156Z</time>
      </trkpt>
      <trkpt lat="48.35917" lon="2.74498">
        <ele>113</ele>
        <time>2014-05-08T09:11:20.179Z</time>
      </trkpt>
      <trkpt lat="48.35915" lon="2.74498">
        <ele>113</ele>
        <time>2014-05-08T09:11:21.864Z</time>
      </trkpt>
      <trkpt lat="48.35906" lon="2.74495">
        <ele>111</ele>
        <time>2014-05-08T09:11:25.900Z</time>
      </trkpt>
      <trkpt lat="48.35904" lon="2.74494">
        <ele>111</ele>
        <time>2014-05-08T09:11:26.934Z</time>
      </trkpt>
      <trkpt lat="48.35897" lon="2.74493">
        <ele>109</ele>
        <time>2014-05-08T09:11:30.915Z</time>
      </trkpt>
      <trkpt lat="48.35895" lon="2.74493">
        <ele>109</ele>
        <time>2014-05-08T09:11:31.902Z</time>
      </trkpt>
      <trkpt lat="48.35887" lon="2.7449">
        <ele>108</ele>
        <time>2014-05-08T09:11:35.910Z</time>
      </trkpt>
      <trkpt lat="48.35885" lon="2.74489">
        <ele>108</ele>
        <time>2014-05-08T09:11:36.892Z</time>
      </trkpt>
      <trkpt lat="48.35878" lon="2.74485">
        <ele>107</ele>
        <time>2014-05-08T09:11:39.916Z</time>
      </trkpt>
      <trkpt lat="48.35876" lon="2.74484">
        <ele>107</ele>
        <time>2014-05-08T09:11:40.898Z</time>
      </trkpt>
      <trkpt lat="48.35868" lon="2.74481">
        <ele>106</ele>
        <time>2014-05-08T09:11:45.884Z</time>
      </trkpt>
      <trkpt lat="48.35866" lon="2.74481">
        <ele>106</ele>
        <time>2014-05-08T09:11:46.867Z</time>
      </trkpt>
      <trkpt lat="48.35858" lon="2.74479">
        <ele>105</ele>
        <time>2014-05-08T09:11:49.863Z</time>
      </trkpt>
      <trkpt lat="48.35856" lon="2.74478">
        <ele>105</ele>
        <time>2014-05-08T09:11:50.872Z</time>
      </trkpt>
      <trkpt lat="48.35847" lon="2.74476">
        <ele>105</ele>
        <time>2014-05-08T09:11:54.905Z</time>
      </trkpt>
      <trkpt lat="48.35845" lon="2.74477">
        <ele>104</ele>
        <time>2014-05-08T09:11:55.895Z</time>
      </trkpt>
      <trkpt lat="48.35837" lon="2.74473">
        <ele>104</ele>
        <time>2014-05-08T09:11:59.899Z</time>
      </trkpt>
      <trkpt lat="48.35835" lon="2.74473">
        <ele>104</ele>
        <time>2014-05-08T09:12:00.935Z</time>
      </trkpt>
      <trkpt lat="48.35827" lon="2.74471">
        <ele>99</ele>
        <time>2014-05-08T09:12:04.928Z</time>
      </trkpt>
      <trkpt lat="48.35825" lon="2.74471">
        <ele>99</ele>
        <time>2014-05-08T09:12:05.935Z</time>
      </trkpt>
      <trkpt lat="48.35817" lon="2.74469">
        <ele>99</ele>
        <time>2014-05-08T09:12:09.937Z</time>
      </trkpt>
      <trkpt lat="48.35816" lon="2.74469">
        <ele>99</ele>
        <time>2014-05-08T09:12:10.931Z</time>
      </trkpt>
      <trkpt lat="48.35807" lon="2.74468">
        <ele>98</ele>
        <time>2014-05-08T09:12:14.973Z</time>
      </trkpt>
      <trkpt lat="48.35805" lon="2.74467">
        <ele>98</ele>
        <time>2014-05-08T09:12:15.923Z</time>
      </trkpt>
      <trkpt lat="48.35803" lon="2.74454">
        <ele>98</ele>
        <time>2014-05-08T09:12:21.942Z</time>
      </trkpt>
      <trkpt lat="48.35803" lon="2.74451">
        <ele>98</ele>
        <time>2014-05-08T09:12:22.942Z</time>
      </trkpt>
      <trkpt lat="48.35804" lon="2.74439">
        <ele>98</ele>
        <time>2014-05-08T09:12:26.943Z</time>
      </trkpt>
      <trkpt lat="48.35804" lon="2.74436">
        <ele>98</ele>
        <time>2014-05-08T09:12:27.902Z</time>
      </trkpt>
      <trkpt lat="48.35805" lon="2.74424">
        <ele>98</ele>
        <time>2014-05-08T09:12:31.932Z</time>
      </trkpt>
      <trkpt lat="48.35805" lon="2.74421">
        <ele>98</ele>
        <time>2014-05-08T09:12:32.948Z</time>
      </trkpt>
      <trkpt lat="48.35805" lon="2.7441">
        <ele>97</ele>
        <time>2014-05-08T09:12:35.932Z</time>
      </trkpt>
      <trkpt lat="48.35805" lon="2.74407">
        <ele>97</ele>
        <time>2014-05-08T09:12:36.921Z</time>
      </trkpt>
      <trkpt lat="48.35806" lon="2.74395">
        <ele>97</ele>
        <time>2014-05-08T09:12:40.944Z</time>
      </trkpt>
      <trkpt lat="48.35806" lon="2.74392">
        <ele>97</ele>
        <time>2014-05-08T09:12:41.929Z</time>
      </trkpt>
      <trkpt lat="48.35806" lon="2.74381">
        <ele>97</ele>
        <time>2014-05-08T09:12:45.923Z</time>
      </trkpt>
      <trkpt lat="48.35806" lon="2.74377">
        <ele>97</ele>
        <time>2014-05-08T09:12:46.922Z</time>
      </trkpt>
      <trkpt lat="48.35807" lon="2.74366">
        <ele>97</ele>
        <time>2014-05-08T09:12:50.945Z</time>
      </trkpt>
      <trkpt lat="48.35807" lon="2.74363">
        <ele>97</ele>
        <time>2014-05-08T09:12:51.922Z</time>
      </trkpt>
      <trkpt lat="48.35808" lon="2.74352">
        <ele>97</ele>
        <time>2014-05-08T09:12:54.918Z</time>
      </trkpt>
      <trkpt lat="48.35809" lon="2.74349">
        <ele>97</ele>
        <time>2014-05-08T09:12:55.920Z</time>
      </trkpt>
      <trkpt lat="48.3581" lon="2.74338">
        <ele>97</ele>
        <time>2014-05-08T09:12:58.926Z</time>
      </trkpt>
      <trkpt lat="48.35811" lon="2.74335">
        <ele>97</ele>
        <time>2014-05-08T09:12:59.923Z</time>
      </trkpt>
      <trkpt lat="48.35812" lon="2.74324">
        <ele>98</ele>
        <time>2014-05-08T09:13:02.933Z</time>
      </trkpt>
      <trkpt lat="48.35812" lon="2.74321">
        <ele>98</ele>
        <time>2014-05-08T09:13:03.909Z</time>
      </trkpt>
      <trkpt lat="48.35813" lon="2.74311">
        <ele>98</ele>
        <time>2014-05-08T09:13:06.948Z</time>
      </trkpt>
      <trkpt lat="48.35813" lon="2.74307">
        <ele>98</ele>
        <time>2014-05-08T09:13:07.920Z</time>
      </trkpt>
      <trkpt lat="48.35813" lon="2.74296">
        <ele>99</ele>
        <time>2014-05-08T09:13:10.939Z</time>
      </trkpt>
      <trkpt lat="48.35814" lon="2.74293">
        <ele>99</ele>
        <time>2014-05-08T09:13:11.919Z</time>
      </trkpt>
      <trkpt lat="48.35815" lon="2.7428">
        <ele>99</ele>
        <time>2014-05-08T09:13:15.930Z</time>
      </trkpt>
      <trkpt lat="48.35815" lon="2.74277">
        <ele>99</ele>
        <time>2014-05-08T09:13:16.929Z</time>
      </trkpt>
      <trkpt lat="48.35817" lon="2.74265">
        <ele>99</ele>
        <time>2014-05-08T09:13:20.933Z</time>
      </trkpt>
      <trkpt lat="48.35818" lon="2.74263">
        <ele>99</ele>
        <time>2014-05-08T09:13:21.924Z</time>
      </trkpt>
      <trkpt lat="48.35818" lon="2.74252">
        <ele>99</ele>
        <time>2014-05-08T09:13:25.925Z</time>
      </trkpt>
      <trkpt lat="48.35818" lon="2.74249">
        <ele>100</ele>
        <time>2014-05-08T09:13:26.926Z</time>
      </trkpt>
      <trkpt lat="48.35819" lon="2.74238">
        <ele>99</ele>
        <time>2014-05-08T09:13:29.932Z</time>
      </trkpt>
      <trkpt lat="48.3582" lon="2.74235">
        <ele>99</ele>
        <time>2014-05-08T09:13:30.915Z</time>
      </trkpt>
      <trkpt lat="48.35821" lon="2.74224">
        <ele>99</ele>
        <time>2014-05-08T09:13:33.929Z</time>
      </trkpt>
      <trkpt lat="48.35821" lon="2.74221">
        <ele>99</ele>
        <time>2014-05-08T09:13:34.920Z</time>
      </trkpt>
      <trkpt lat="48.35823" lon="2.74211">
        <ele>99</ele>
        <time>2014-05-08T09:13:37.920Z</time>
      </trkpt>
      <trkpt lat="48.35824" lon="2.74207">
        <ele>99</ele>
        <time>2014-05-08T09:13:38.927Z</time>
      </trkpt>
      <trkpt lat="48.35826" lon="2.74196">
        <ele>99</ele>
        <time>2014-05-08T09:13:42.917Z</time>
      </trkpt>
      <trkpt lat="48.35826" lon="2.74193">
        <ele>99</ele>
        <time>2014-05-08T09:13:43.923Z</time>
      </trkpt>
      <trkpt lat="48.35827" lon="2.74182">
        <ele>99</ele>
        <time>2014-05-08T09:13:47.925Z</time>
      </trkpt>
      <trkpt lat="48.35827" lon="2.74179">
        <ele>98</ele>
        <time>2014-05-08T09:13:48.925Z</time>
      </trkpt>
      <trkpt lat="48.3583" lon="2.74166">
        <ele>98</ele>
        <time>2014-05-08T09:13:52.953Z</time>
      </trkpt>
      <trkpt lat="48.3583" lon="2.74162">
        <ele>98</ele>
        <time>2014-05-08T09:13:53.922Z</time>
      </trkpt>
      <trkpt lat="48.35832" lon="2.7415">
        <ele>98</ele>
        <time>2014-05-08T09:13:57.945Z</time>
      </trkpt>
      <trkpt lat="48.35832" lon="2.74147">
        <ele>98</ele>
        <time>2014-05-08T09:13:58.935Z</time>
      </trkpt>
      <trkpt lat="48.35835" lon="2.74134">
        <ele>102</ele>
        <time>2014-05-08T09:14:03.978Z</time>
      </trkpt>
      <trkpt lat="48.35835" lon="2.74132">
        <ele>102</ele>
        <time>2014-05-08T09:14:04.944Z</time>
      </trkpt>
      <trkpt lat="48.35838" lon="2.7412">
        <ele>102</ele>
        <time>2014-05-08T09:14:08.934Z</time>
      </trkpt>
      <trkpt lat="48.35838" lon="2.74117">
        <ele>102</ele>
        <time>2014-05-08T09:14:09.911Z</time>
      </trkpt>
      <trkpt lat="48.35841" lon="2.74107">
        <ele>101</ele>
        <time>2014-05-08T09:14:12.936Z</time>
      </trkpt>
      <trkpt lat="48.35841" lon="2.74103">
        <ele>101</ele>
        <time>2014-05-08T09:14:13.922Z</time>
      </trkpt>
      <trkpt lat="48.35841" lon="2.7409">
        <ele>100</ele>
        <time>2014-05-08T09:14:17.929Z</time>
      </trkpt>
      <trkpt lat="48.35841" lon="2.74089">
        <ele>100</ele>
        <time>2014-05-08T09:14:18.923Z</time>
      </trkpt>
      <trkpt lat="48.35843" lon="2.74078">
        <ele>99</ele>
        <time>2014-05-08T09:14:22.951Z</time>
      </trkpt>
      <trkpt lat="48.35843" lon="2.74074">
        <ele>99</ele>
        <time>2014-05-08T09:14:23.917Z</time>
      </trkpt>
      <trkpt lat="48.35846" lon="2.74064">
        <ele>99</ele>
        <time>2014-05-08T09:14:26.948Z</time>
      </trkpt>
      <trkpt lat="48.35847" lon="2.7406">
        <ele>99</ele>
        <time>2014-05-08T09:14:27.921Z</time>
      </trkpt>
      <trkpt lat="48.35848" lon="2.74048">
        <ele>99</ele>
        <time>2014-05-08T09:14:30.922Z</time>
      </trkpt>
      <trkpt lat="48.35849" lon="2.74044">
        <ele>99</ele>
        <time>2014-05-08T09:14:31.922Z</time>
      </trkpt>
      <trkpt lat="48.3585" lon="2.74033">
        <ele>99</ele>
        <time>2014-05-08T09:14:34.922Z</time>
      </trkpt>
      <trkpt lat="48.3585" lon="2.74029">
        <ele>98</ele>
        <time>2014-05-08T09:14:35.915Z</time>
      </trkpt>
      <trkpt lat="48.35851" lon="2.7402">
        <ele>98</ele>
        <time>2014-05-08T09:14:38.957Z</time>
      </trkpt>
      <trkpt lat="48.35851" lon="2.74016">
        <ele>98</ele>
        <time>2014-05-08T09:14:39.922Z</time>
      </trkpt>
      <trkpt lat="48.35852" lon="2.74005">
        <ele>97</ele>
        <time>2014-05-08T09:14:42.933Z</time>
      </trkpt>
      <trkpt lat="48.35853" lon="2.74002">
        <ele>97</ele>
        <time>2014-05-08T09:14:43.942Z</time>
      </trkpt>
      <trkpt lat="48.35854" lon="2.7399">
        <ele>95</ele>
        <time>2014-05-08T09:14:46.951Z</time>
      </trkpt>
      <trkpt lat="48.35854" lon="2.73987">
        <ele>95</ele>
        <time>2014-05-08T09:14:47.915Z</time>
      </trkpt>
      <trkpt lat="48.35854" lon="2.73977">
        <ele>95</ele>
        <time>2014-05-08T09:14:50.939Z</time>
      </trkpt>
      <trkpt lat="48.35855" lon="2.73973">
        <ele>95</ele>
        <time>2014-05-08T09:14:51.952Z</time>
      </trkpt>
      <trkpt lat="48.35857" lon="2.73962">
        <ele>95</ele>
        <time>2014-05-08T09:14:53.932Z</time>
      </trkpt>
      <trkpt lat="48.35859" lon="2.73958">
        <ele>95</ele>
        <time>2014-05-08T09:14:54.923Z</time>
      </trkpt>
      <trkpt lat="48.35864" lon="2.7395">
        <ele>95</ele>
        <time>2014-05-08T09:14:57.921Z</time>
      </trkpt>
      <trkpt lat="48.35866" lon="2.73949">
        <ele>95</ele>
        <time>2014-05-08T09:14:58.916Z</time>
      </trkpt>
      <trkpt lat="48.35874" lon="2.73948">
        <ele>95</ele>
        <time>2014-05-08T09:15:03.933Z</time>
      </trkpt>
      <trkpt lat="48.35875" lon="2.73948">
        <ele>95</ele>
        <time>2014-05-08T09:15:04.919Z</time>
      </trkpt>
      <trkpt lat="48.35883" lon="2.73948">
        <ele>95</ele>
        <time>2014-05-08T09:15:10.940Z</time>
      </trkpt>
      <trkpt lat="48.35885" lon="2.73949">
        <ele>95</ele>
        <time>2014-05-08T09:15:11.931Z</time>
      </trkpt>
      <trkpt lat="48.35893" lon="2.7395">
        <ele>96</ele>
        <time>2014-05-08T09:15:16.946Z</time>
      </trkpt>
      <trkpt lat="48.35895" lon="2.7395">
        <ele>96</ele>
        <time>2014-05-08T09:15:17.925Z</time>
      </trkpt>
      <trkpt lat="48.35904" lon="2.73954">
        <ele>96</ele>
        <time>2014-05-08T09:15:21.944Z</time>
      </trkpt>
      <trkpt lat="48.35906" lon="2.73955">
        <ele>96</ele>
        <time>2014-05-08T09:15:22.936Z</time>
      </trkpt>
      <trkpt lat="48.35913" lon="2.73956">
        <ele>96</ele>
        <time>2014-05-08T09:15:26.964Z</time>
      </trkpt>
      <trkpt lat="48.35915" lon="2.73957">
        <ele>96</ele>
        <time>2014-05-08T09:15:27.914Z</time>
      </trkpt>
      <trkpt lat="48.35923" lon="2.73956">
        <ele>98</ele>
        <time>2014-05-08T09:15:31.949Z</time>
      </trkpt>
      <trkpt lat="48.35924" lon="2.73956">
        <ele>98</ele>
        <time>2014-05-08T09:15:32.933Z</time>
      </trkpt>
      <trkpt lat="48.35932" lon="2.73958">
        <ele>98</ele>
        <time>2014-05-08T09:15:37.969Z</time>
      </trkpt>
      <trkpt lat="48.35933" lon="2.73959">
        <ele>98</ele>
        <time>2014-05-08T09:15:38.951Z</time>
      </trkpt>
      <trkpt lat="48.35941" lon="2.7396">
        <ele>98</ele>
        <time>2014-05-08T09:15:42.923Z</time>
      </trkpt>
      <trkpt lat="48.35943" lon="2.73959">
        <ele>98</ele>
        <time>2014-05-08T09:15:43.922Z</time>
      </trkpt>
      <trkpt lat="48.35951" lon="2.73958">
        <ele>98</ele>
        <time>2014-05-08T09:15:49.935Z</time>
      </trkpt>
      <trkpt lat="48.35954" lon="2.73959">
        <ele>98</ele>
        <time>2014-05-08T09:15:50.930Z</time>
      </trkpt>
      <trkpt lat="48.35962" lon="2.73961">
        <ele>98</ele>
        <time>2014-05-08T09:15:54.924Z</time>
      </trkpt>
      <trkpt lat="48.35964" lon="2.73962">
        <ele>98</ele>
        <time>2014-05-08T09:15:55.925Z</time>
      </trkpt>
      <trkpt lat="48.35971" lon="2.73966">
        <ele>98</ele>
        <time>2014-05-08T09:15:59.931Z</time>
      </trkpt>
      <trkpt lat="48.35972" lon="2.73967">
        <ele>99</ele>
        <time>2014-05-08T09:16:00.939Z</time>
      </trkpt>
      <trkpt lat="48.35978" lon="2.73973">
        <ele>99</ele>
        <time>2014-05-08T09:16:04.944Z</time>
      </trkpt>
      <trkpt lat="48.3598" lon="2.73975">
        <ele>99</ele>
        <time>2014-05-08T09:16:05.936Z</time>
      </trkpt>
      <trkpt lat="48.35987" lon="2.73981">
        <ele>100</ele>
        <time>2014-05-08T09:16:09.930Z</time>
      </trkpt>
      <trkpt lat="48.35989" lon="2.73983">
        <ele>100</ele>
        <time>2014-05-08T09:16:10.922Z</time>
      </trkpt>
      <trkpt lat="48.35995" lon="2.73989">
        <ele>101</ele>
        <time>2014-05-08T09:16:14.946Z</time>
      </trkpt>
      <trkpt lat="48.35998" lon="2.73991">
        <ele>101</ele>
        <time>2014-05-08T09:16:15.925Z</time>
      </trkpt>
      <trkpt lat="48.36005" lon="2.73997">
        <ele>102</ele>
        <time>2014-05-08T09:16:18.943Z</time>
      </trkpt>
      <trkpt lat="48.36007" lon="2.73999">
        <ele>102</ele>
        <time>2014-05-08T09:16:19.930Z</time>
      </trkpt>
      <trkpt lat="48.36014" lon="2.74005">
        <ele>105</ele>
        <time>2014-05-08T09:16:23.939Z</time>
      </trkpt>
      <trkpt lat="48.36016" lon="2.74006">
        <ele>105</ele>
        <time>2014-05-08T09:16:24.927Z</time>
      </trkpt>
      <trkpt lat="48.36022" lon="2.74012">
        <ele>105</ele>
        <time>2014-05-08T09:16:28.933Z</time>
      </trkpt>
      <trkpt lat="48.36024" lon="2.74013">
        <ele>105</ele>
        <time>2014-05-08T09:16:29.920Z</time>
      </trkpt>
      <trkpt lat="48.36031" lon="2.7402">
        <ele>105</ele>
        <time>2014-05-08T09:16:33.922Z</time>
      </trkpt>
      <trkpt lat="48.36033" lon="2.74022">
        <ele>106</ele>
        <time>2014-05-08T09:16:34.916Z</time>
      </trkpt>
      <trkpt lat="48.36041" lon="2.74028">
        <ele>106</ele>
        <time>2014-05-08T09:16:40.913Z</time>
      </trkpt>
      <trkpt lat="48.36042" lon="2.74029">
        <ele>106</ele>
        <time>2014-05-08T09:16:41.913Z</time>
      </trkpt>
      <trkpt lat="48.36049" lon="2.74036">
        <ele>106</ele>
        <time>2014-05-08T09:16:46.917Z</time>
      </trkpt>
      <trkpt lat="48.3605" lon="2.74038">
        <ele>106</ele>
        <time>2014-05-08T09:16:47.911Z</time>
      </trkpt>
      <trkpt lat="48.36056" lon="2.74046">
        <ele>106</ele>
        <time>2014-05-08T09:16:51.934Z</time>
      </trkpt>
      <trkpt lat="48.36057" lon="2.74048">
        <ele>106</ele>
        <time>2014-05-08T09:16:52.925Z</time>
      </trkpt>
      <trkpt lat="48.36062" lon="2.74056">
        <ele>107</ele>
        <time>2014-05-08T09:16:56.932Z</time>
      </trkpt>
      <trkpt lat="48.36063" lon="2.74058">
        <ele>107</ele>
        <time>2014-05-08T09:16:57.924Z</time>
      </trkpt>
      <trkpt lat="48.36067" lon="2.74068">
        <ele>107</ele>
        <time>2014-05-08T09:17:02.963Z</time>
      </trkpt>
      <trkpt lat="48.36068" lon="2.7407">
        <ele>107</ele>
        <time>2014-05-08T09:17:03.925Z</time>
      </trkpt>
      <trkpt lat="48.3607" lon="2.7408">
        <ele>108</ele>
        <time>2014-05-08T09:17:08.958Z</time>
      </trkpt>
      <trkpt lat="48.3607" lon="2.74083">
        <ele>108</ele>
        <time>2014-05-08T09:17:09.932Z</time>
      </trkpt>
      <trkpt lat="48.36069" lon="2.74096">
        <ele>112</ele>
        <time>2014-05-08T09:17:15.939Z</time>
      </trkpt>
      <trkpt lat="48.36069" lon="2.74098">
        <ele>112</ele>
        <time>2014-05-08T09:17:16.928Z</time>
      </trkpt>
      <trkpt lat="48.3607" lon="2.74111">
        <ele>113</ele>
        <time>2014-05-08T09:17:21.938Z</time>
      </trkpt>
      <trkpt lat="48.3607" lon="2.74114">
        <ele>114</ele>
        <time>2014-05-08T09:17:22.952Z</time>
      </trkpt>
      <trkpt lat="48.36071" lon="2.74126">
        <ele>114</ele>
        <time>2014-05-08T09:17:26.945Z</time>
      </trkpt>
      <trkpt lat="48.36071" lon="2.74128">
        <ele>115</ele>
        <time>2014-05-08T09:17:27.920Z</time>
      </trkpt>
      <trkpt lat="48.36071" lon="2.74139">
        <ele>115</ele>
        <time>2014-05-08T09:17:31.934Z</time>
      </trkpt>
      <trkpt lat="48.36071" lon="2.74142">
        <ele>115</ele>
        <time>2014-05-08T09:17:32.933Z</time>
      </trkpt>
      <trkpt lat="48.36066" lon="2.74153">
        <ele>116</ele>
        <time>2014-05-08T09:17:37.813Z</time>
      </trkpt>
      <trkpt lat="48.36065" lon="2.74154">
        <ele>116</ele>
        <time>2014-05-08T09:17:38.789Z</time>
      </trkpt>
      <trkpt lat="48.36057" lon="2.74158">
        <ele>116</ele>
        <time>2014-05-08T09:17:46.800Z</time>
      </trkpt>
      <trkpt lat="48.36056" lon="2.74157">
        <ele>116</ele>
        <time>2014-05-08T09:17:47.793Z</time>
      </trkpt>
      <trkpt lat="48.36049" lon="2.74152">
        <ele>116</ele>
        <time>2014-05-08T09:17:52.807Z</time>
      </trkpt>
      <trkpt lat="48.36047" lon="2.74151">
        <ele>117</ele>
        <time>2014-05-08T09:17:53.789Z</time>
      </trkpt>
      <trkpt lat="48.3604" lon="2.74145">
        <ele>117</ele>
        <time>2014-05-08T09:17:58.808Z</time>
      </trkpt>
      <trkpt lat="48.36039" lon="2.74144">
        <ele>117</ele>
        <time>2014-05-08T09:17:59.806Z</time>
      </trkpt>
      <trkpt lat="48.36032" lon="2.74137">
        <ele>117</ele>
        <time>2014-05-08T09:18:06.836Z</time>
      </trkpt>
      <trkpt lat="48.36031" lon="2.74136">
        <ele>117</ele>
        <time>2014-05-08T09:18:07.857Z</time>
      </trkpt>
      <trkpt lat="48.36022" lon="2.74136">
        <ele>118</ele>
        <time>2014-05-08T09:18:13.877Z</time>
      </trkpt>
      <trkpt lat="48.3602" lon="2.74136">
        <ele>118</ele>
        <time>2014-05-08T09:18:14.824Z</time>
      </trkpt>
      <trkpt lat="48.36012" lon="2.74139">
        <ele>118</ele>
        <time>2014-05-08T09:18:18.852Z</time>
      </trkpt>
      <trkpt lat="48.3601" lon="2.7414">
        <ele>119</ele>
        <time>2014-05-08T09:18:19.842Z</time>
      </trkpt>
      <trkpt lat="48.36002" lon="2.74145">
        <ele>120</ele>
        <time>2014-05-08T09:18:24.847Z</time>
      </trkpt>
      <trkpt lat="48.36" lon="2.74146">
        <ele>120</ele>
        <time>2014-05-08T09:18:25.846Z</time>
      </trkpt>
      <trkpt lat="48.35993" lon="2.74149">
        <ele>120</ele>
        <time>2014-05-08T09:18:30.843Z</time>
      </trkpt>
      <trkpt lat="48.35991" lon="2.7415">
        <ele>120</ele>
        <time>2014-05-08T09:18:31.832Z</time>
      </trkpt>
      <trkpt lat="48.35984" lon="2.74156">
        <ele>119</ele>
        <time>2014-05-08T09:18:36.869Z</time>
      </trkpt>
      <trkpt lat="48.35982" lon="2.74157">
        <ele>119</ele>
        <time>2014-05-08T09:18:37.833Z</time>
      </trkpt>
      <trkpt lat="48.35976" lon="2.74164">
        <ele>119</ele>
        <time>2014-05-08T09:18:43.832Z</time>
      </trkpt>
      <trkpt lat="48.35975" lon="2.74166">
        <ele>119</ele>
        <time>2014-05-08T09:18:44.822Z</time>
      </trkpt>
      <trkpt lat="48.35971" lon="2.74176">
        <ele>122</ele>
        <time>2014-05-08T09:18:49.838Z</time>
      </trkpt>
      <trkpt lat="48.3597" lon="2.74178">
        <ele>122</ele>
        <time>2014-05-08T09:18:50.820Z</time>
      </trkpt>
      <trkpt lat="48.35967" lon="2.74188">
        <ele>122</ele>
        <time>2014-05-08T09:18:55.841Z</time>
      </trkpt>
      <trkpt lat="48.35966" lon="2.74191">
        <ele>122</ele>
        <time>2014-05-08T09:18:56.816Z</time>
      </trkpt>
      <trkpt lat="48.35963" lon="2.74203">
        <ele>122</ele>
        <time>2014-05-08T09:19:01.854Z</time>
      </trkpt>
      <trkpt lat="48.35963" lon="2.74206">
        <ele>122</ele>
        <time>2014-05-08T09:19:02.830Z</time>
      </trkpt>
      <trkpt lat="48.35965" lon="2.74217">
        <ele>122</ele>
        <time>2014-05-08T09:19:07.838Z</time>
      </trkpt>
      <trkpt lat="48.35966" lon="2.74219">
        <ele>122</ele>
        <time>2014-05-08T09:19:08.825Z</time>
      </trkpt>
      <trkpt lat="48.35974" lon="2.74221">
        <ele>123</ele>
        <time>2014-05-08T09:19:14.823Z</time>
      </trkpt>
      <trkpt lat="48.35975" lon="2.7422">
        <ele>123</ele>
        <time>2014-05-08T09:19:15.830Z</time>
      </trkpt>
      <trkpt lat="48.35979" lon="2.7421">
        <ele>123</ele>
        <time>2014-05-08T09:19:20.843Z</time>
      </trkpt>
      <trkpt lat="48.3598" lon="2.74208">
        <ele>123</ele>
        <time>2014-05-08T09:19:21.837Z</time>
      </trkpt>
      <trkpt lat="48.35987" lon="2.742">
        <ele>123</ele>
        <time>2014-05-08T09:19:26.815Z</time>
      </trkpt>
      <trkpt lat="48.35989" lon="2.74199">
        <ele>123</ele>
        <time>2014-05-08T09:19:27.830Z</time>
      </trkpt>
      <trkpt lat="48.35997" lon="2.74203">
        <ele>124</ele>
        <time>2014-05-08T09:19:32.819Z</time>
      </trkpt>
      <trkpt lat="48.35998" lon="2.74203">
        <ele>124</ele>
        <time>2014-05-08T09:19:33.831Z</time>
      </trkpt>
      <trkpt lat="48.36005" lon="2.74207">
        <ele>126</ele>
        <time>2014-05-08T09:19:38.831Z</time>
      </trkpt>
      <trkpt lat="48.36007" lon="2.74208">
        <ele>126</ele>
        <time>2014-05-08T09:19:39.831Z</time>
      </trkpt>
      <trkpt lat="48.36014" lon="2.74216">
        <ele>126</ele>
        <time>2014-05-08T09:19:44.795Z</time>
      </trkpt>
      <trkpt lat="48.36014" lon="2.74218">
        <ele>126</ele>
        <time>2014-05-08T09:19:45.813Z</time>
      </trkpt>
      <trkpt lat="48.36017" lon="2.74229">
        <ele>127</ele>
        <time>2014-05-08T09:19:50.872Z</time>
      </trkpt>
      <trkpt lat="48.36018" lon="2.74231">
        <ele>127</ele>
        <time>2014-05-08T09:19:51.812Z</time>
      </trkpt>
      <trkpt lat="48.3602" lon="2.74242">
        <ele>128</ele>
        <time>2014-05-08T09:19:57.853Z</time>
      </trkpt>
      <trkpt lat="48.36021" lon="2.74244">
        <ele>128</ele>
        <time>2014-05-08T09:19:58.853Z</time>
      </trkpt>
      <trkpt lat="48.36024" lon="2.74256">
        <ele>131</ele>
        <time>2014-05-08T09:20:02.843Z</time>
      </trkpt>
      <trkpt lat="48.36025" lon="2.74259">
        <ele>131</ele>
        <time>2014-05-08T09:20:03.825Z</time>
      </trkpt>
      <trkpt lat="48.36027" lon="2.74271">
        <ele>130</ele>
        <time>2014-05-08T09:20:08.865Z</time>
      </trkpt>
      <trkpt lat="48.36028" lon="2.74274">
        <ele>130</ele>
        <time>2014-05-08T09:20:09.826Z</time>
      </trkpt>
      <trkpt lat="48.3603" lon="2.74285">
        <ele>130</ele>
        <time>2014-05-08T09:20:13.849Z</time>
      </trkpt>
      <trkpt lat="48.36031" lon="2.74288">
        <ele>130</ele>
        <time>2014-05-08T09:20:14.843Z</time>
      </trkpt>
      <trkpt lat="48.36032" lon="2.743">
        <ele>131</ele>
        <time>2014-05-08T09:20:18.828Z</time>
      </trkpt>
      <trkpt lat="48.36032" lon="2.74303">
        <ele>131</ele>
        <time>2014-05-08T09:20:19.839Z</time>
      </trkpt>
      <trkpt lat="48.36034" lon="2.74316">
        <ele>131</ele>
        <time>2014-05-08T09:20:23.831Z</time>
      </trkpt>
      <trkpt lat="48.36035" lon="2.7432">
        <ele>131</ele>
        <time>2014-05-08T09:20:24.841Z</time>
      </trkpt>
      <trkpt lat="48.36037" lon="2.7433">
        <ele>131</ele>
        <time>2014-05-08T09:20:27.834Z</time>
      </trkpt>
      <trkpt lat="48.36037" lon="2.74333">
        <ele>131</ele>
        <time>2014-05-08T09:20:28.840Z</time>
      </trkpt>
      <trkpt lat="48.36039" lon="2.74343">
        <ele>132</ele>
        <time>2014-05-08T09:20:31.860Z</time>
      </trkpt>
      <trkpt lat="48.3604" lon="2.74346">
        <ele>132</ele>
        <time>2014-05-08T09:20:32.848Z</time>
      </trkpt>
      <trkpt lat="48.36044" lon="2.74355">
        <ele>132</ele>
        <time>2014-05-08T09:20:35.846Z</time>
      </trkpt>
      <trkpt lat="48.36046" lon="2.74358">
        <ele>133</ele>
        <time>2014-05-08T09:20:36.851Z</time>
      </trkpt>
      <trkpt lat="48.3605" lon="2.74368">
        <ele>133</ele>
        <time>2014-05-08T09:20:40.849Z</time>
      </trkpt>
      <trkpt lat="48.3605" lon="2.74371">
        <ele>133</ele>
        <time>2014-05-08T09:20:41.855Z</time>
      </trkpt>
      <trkpt lat="48.36053" lon="2.74383">
        <ele>133</ele>
        <time>2014-05-08T09:20:46.873Z</time>
      </trkpt>
      <trkpt lat="48.36053" lon="2.74385">
        <ele>133</ele>
        <time>2014-05-08T09:20:47.863Z</time>
      </trkpt>
      <trkpt lat="48.36057" lon="2.74395">
        <ele>133</ele>
        <time>2014-05-08T09:20:51.853Z</time>
      </trkpt>
      <trkpt lat="48.36057" lon="2.74398">
        <ele>133</ele>
        <time>2014-05-08T09:20:52.853Z</time>
      </trkpt>
      <trkpt lat="48.3606" lon="2.74408">
        <ele>134</ele>
        <time>2014-05-08T09:20:56.876Z</time>
      </trkpt>
      <trkpt lat="48.36061" lon="2.7441">
        <ele>134</ele>
        <time>2014-05-08T09:20:57.849Z</time>
      </trkpt>
      <trkpt lat="48.36066" lon="2.74419">
        <ele>135</ele>
        <time>2014-05-08T09:21:01.922Z</time>
      </trkpt>
      <trkpt lat="48.36067" lon="2.74422">
        <ele>135</ele>
        <time>2014-05-08T09:21:02.873Z</time>
      </trkpt>
      <trkpt lat="48.3607" lon="2.74432">
        <ele>135</ele>
        <time>2014-05-08T09:21:05.863Z</time>
      </trkpt>
      <trkpt lat="48.3607" lon="2.74436">
        <ele>135</ele>
        <time>2014-05-08T09:21:06.882Z</time>
      </trkpt>
      <trkpt lat="48.36074" lon="2.74447">
        <ele>135</ele>
        <time>2014-05-08T09:21:09.885Z</time>
      </trkpt>
      <trkpt lat="48.36075" lon="2.7445">
        <ele>135</ele>
        <time>2014-05-08T09:21:10.900Z</time>
      </trkpt>
      <trkpt lat="48.36079" lon="2.74462">
        <ele>135</ele>
        <time>2014-05-08T09:21:14.888Z</time>
      </trkpt>
      <trkpt lat="48.3608" lon="2.74464">
        <ele>135</ele>
        <time>2014-05-08T09:21:15.858Z</time>
      </trkpt>
      <trkpt lat="48.36083" lon="2.74474">
        <ele>132</ele>
        <time>2014-05-08T09:21:18.864Z</time>
      </trkpt>
      <trkpt lat="48.36084" lon="2.74478">
        <ele>133</ele>
        <time>2014-05-08T09:21:19.870Z</time>
      </trkpt>
      <trkpt lat="48.36087" lon="2.74488">
        <ele>134</ele>
        <time>2014-05-08T09:21:22.884Z</time>
      </trkpt>
      <trkpt lat="48.36087" lon="2.74491">
        <ele>134</ele>
        <time>2014-05-08T09:21:23.860Z</time>
      </trkpt>
      <trkpt lat="48.36092" lon="2.74502">
        <ele>134</ele>
        <time>2014-05-08T09:21:28.885Z</time>
      </trkpt>
      <trkpt lat="48.36093" lon="2.74505">
        <ele>134</ele>
        <time>2014-05-08T09:21:29.872Z</time>
      </trkpt>
      <trkpt lat="48.36098" lon="2.74513">
        <ele>133</ele>
        <time>2014-05-08T09:21:32.868Z</time>
      </trkpt>
      <trkpt lat="48.36099" lon="2.74515">
        <ele>133</ele>
        <time>2014-05-08T09:21:33.873Z</time>
      </trkpt>
      <trkpt lat="48.36103" lon="2.74525">
        <ele>132</ele>
        <time>2014-05-08T09:21:37.885Z</time>
      </trkpt>
      <trkpt lat="48.36104" lon="2.74528">
        <ele>132</ele>
        <time>2014-05-08T09:21:38.870Z</time>
      </trkpt>
      <trkpt lat="48.36106" lon="2.7454">
        <ele>132</ele>
        <time>2014-05-08T09:21:43.883Z</time>
      </trkpt>
      <trkpt lat="48.36106" lon="2.74542">
        <ele>132</ele>
        <time>2014-05-08T09:21:44.876Z</time>
      </trkpt>
      <trkpt lat="48.3611" lon="2.74554">
        <ele>132</ele>
        <time>2014-05-08T09:21:48.873Z</time>
      </trkpt>
      <trkpt lat="48.36111" lon="2.74557">
        <ele>132</ele>
        <time>2014-05-08T09:21:49.863Z</time>
      </trkpt>
      <trkpt lat="48.36113" lon="2.74569">
        <ele>132</ele>
        <time>2014-05-08T09:21:53.863Z</time>
      </trkpt>
      <trkpt lat="48.36113" lon="2.74573">
        <ele>132</ele>
        <time>2014-05-08T09:21:54.855Z</time>
      </trkpt>
      <trkpt lat="48.36115" lon="2.74584">
        <ele>133</ele>
        <time>2014-05-08T09:21:57.908Z</time>
      </trkpt>
      <trkpt lat="48.36116" lon="2.74587">
        <ele>133</ele>
        <time>2014-05-08T09:21:58.865Z</time>
      </trkpt>
      <trkpt lat="48.36118" lon="2.74598">
        <ele>133</ele>
        <time>2014-05-08T09:22:01.883Z</time>
      </trkpt>
      <trkpt lat="48.36119" lon="2.74601">
        <ele>133</ele>
        <time>2014-05-08T09:22:02.863Z</time>
      </trkpt>
      <trkpt lat="48.36123" lon="2.74613">
        <ele>132</ele>
        <time>2014-05-08T09:22:06.881Z</time>
      </trkpt>
      <trkpt lat="48.36123" lon="2.74615">
        <ele>132</ele>
        <time>2014-05-08T09:22:07.867Z</time>
      </trkpt>
      <trkpt lat="48.36125" lon="2.74627">
        <ele>133</ele>
        <time>2014-05-08T09:22:11.877Z</time>
      </trkpt>
      <trkpt lat="48.36125" lon="2.74629">
        <ele>133</ele>
        <time>2014-05-08T09:22:12.877Z</time>
      </trkpt>
      <trkpt lat="48.36128" lon="2.74642">
        <ele>133</ele>
        <time>2014-05-08T09:22:16.882Z</time>
      </trkpt>
      <trkpt lat="48.36128" lon="2.74644">
        <ele>133</ele>
        <time>2014-05-08T09:22:17.860Z</time>
      </trkpt>
      <trkpt lat="48.3613" lon="2.74654">
        <ele>133</ele>
        <time>2014-05-08T09:22:21.878Z</time>
      </trkpt>
      <trkpt lat="48.36131" lon="2.74658">
        <ele>133</ele>
        <time>2014-05-08T09:22:22.867Z</time>
      </trkpt>
      <trkpt lat="48.36133" lon="2.74668">
        <ele>133</ele>
        <time>2014-05-08T09:22:25.878Z</time>
      </trkpt>
      <trkpt lat="48.36133" lon="2.74672">
        <ele>133</ele>
        <time>2014-05-08T09:22:26.870Z</time>
      </trkpt>
      <trkpt lat="48.36136" lon="2.74684">
        <ele>133</ele>
        <time>2014-05-08T09:22:30.864Z</time>
      </trkpt>
      <trkpt lat="48.36137" lon="2.74686">
        <ele>133</ele>
        <time>2014-05-08T09:22:31.874Z</time>
      </trkpt>
      <trkpt lat="48.36141" lon="2.74695">
        <ele>133</ele>
        <time>2014-05-08T09:22:35.865Z</time>
      </trkpt>
      <trkpt lat="48.36143" lon="2.74697">
        <ele>133</ele>
        <time>2014-05-08T09:22:36.861Z</time>
      </trkpt>
      <trkpt lat="48.36148" lon="2.74705">
        <ele>133</ele>
        <time>2014-05-08T09:22:40.858Z</time>
      </trkpt>
      <trkpt lat="48.36149" lon="2.74708">
        <ele>133</ele>
        <time>2014-05-08T09:22:41.859Z</time>
      </trkpt>
      <trkpt lat="48.36154" lon="2.74717">
        <ele>133</ele>
        <time>2014-05-08T09:22:45.868Z</time>
      </trkpt>
      <trkpt lat="48.36155" lon="2.7472">
        <ele>133</ele>
        <time>2014-05-08T09:22:46.860Z</time>
      </trkpt>
      <trkpt lat="48.3616" lon="2.7473">
        <ele>133</ele>
        <time>2014-05-08T09:22:50.881Z</time>
      </trkpt>
      <trkpt lat="48.36162" lon="2.74733">
        <ele>133</ele>
        <time>2014-05-08T09:22:51.856Z</time>
      </trkpt>
      <trkpt lat="48.36165" lon="2.74742">
        <ele>133</ele>
        <time>2014-05-08T09:22:54.873Z</time>
      </trkpt>
      <trkpt lat="48.36166" lon="2.74745">
        <ele>133</ele>
        <time>2014-05-08T09:22:55.861Z</time>
      </trkpt>
      <trkpt lat="48.36171" lon="2.74754">
        <ele>132</ele>
        <time>2014-05-08T09:22:59.457Z</time>
      </trkpt>
      <trkpt lat="48.36172" lon="2.74756">
        <ele>132</ele>
        <time>2014-05-08T09:23:00.535Z</time>
      </trkpt>
      <trkpt lat="48.36179" lon="2.74762">
        <ele>131</ele>
        <time>2014-05-08T09:23:05.538Z</time>
      </trkpt>
      <trkpt lat="48.3618" lon="2.74763">
        <ele>131</ele>
        <time>2014-05-08T09:23:06.532Z</time>
      </trkpt>
      <trkpt lat="48.36188" lon="2.74759">
        <ele>130</ele>
        <time>2014-05-08T09:23:11.531Z</time>
      </trkpt>
      <trkpt lat="48.36189" lon="2.74757">
        <ele>130</ele>
        <time>2014-05-08T09:23:12.531Z</time>
      </trkpt>
      <trkpt lat="48.36192" lon="2.74745">
        <ele>128</ele>
        <time>2014-05-08T09:23:18.537Z</time>
      </trkpt>
      <trkpt lat="48.36194" lon="2.74742">
        <ele>128</ele>
        <time>2014-05-08T09:23:19.532Z</time>
      </trkpt>
      <trkpt lat="48.36199" lon="2.74733">
        <ele>127</ele>
        <time>2014-05-08T09:23:22.545Z</time>
      </trkpt>
      <trkpt lat="48.362" lon="2.74731">
        <ele>127</ele>
        <time>2014-05-08T09:23:23.534Z</time>
      </trkpt>
      <trkpt lat="48.36202" lon="2.74719">
        <ele>126</ele>
        <time>2014-05-08T09:23:27.521Z</time>
      </trkpt>
      <trkpt lat="48.36202" lon="2.74716">
        <ele>126</ele>
        <time>2014-05-08T09:23:28.533Z</time>
      </trkpt>
      <trkpt lat="48.36203" lon="2.74705">
        <ele>126</ele>
        <time>2014-05-08T09:23:31.554Z</time>
      </trkpt>
      <trkpt lat="48.36203" lon="2.74702">
        <ele>126</ele>
        <time>2014-05-08T09:23:32.536Z</time>
      </trkpt>
      <trkpt lat="48.36202" lon="2.74691">
        <ele>126</ele>
        <time>2014-05-08T09:23:35.537Z</time>
      </trkpt>
      <trkpt lat="48.36202" lon="2.74687">
        <ele>126</ele>
        <time>2014-05-08T09:23:36.544Z</time>
      </trkpt>
      <trkpt lat="48.36201" lon="2.74675">
        <ele>126</ele>
        <time>2014-05-08T09:23:39.537Z</time>
      </trkpt>
      <trkpt lat="48.362" lon="2.74672">
        <ele>126</ele>
        <time>2014-05-08T09:23:40.527Z</time>
      </trkpt>
      <trkpt lat="48.362" lon="2.74661">
        <ele>123</ele>
        <time>2014-05-08T09:23:43.547Z</time>
      </trkpt>
      <trkpt lat="48.36201" lon="2.74658">
        <ele>123</ele>
        <time>2014-05-08T09:23:44.538Z</time>
      </trkpt>
      <trkpt lat="48.36206" lon="2.74648">
        <ele>122</ele>
        <time>2014-05-08T09:23:48.545Z</time>
      </trkpt>
      <trkpt lat="48.36207" lon="2.74645">
        <ele>122</ele>
        <time>2014-05-08T09:23:49.528Z</time>
      </trkpt>
      <trkpt lat="48.36213" lon="2.74638">
        <ele>121</ele>
        <time>2014-05-08T09:23:53.559Z</time>
      </trkpt>
      <trkpt lat="48.36215" lon="2.74636">
        <ele>121</ele>
        <time>2014-05-08T09:23:54.524Z</time>
      </trkpt>
      <trkpt lat="48.3622" lon="2.74628">
        <ele>120</ele>
        <time>2014-05-08T09:23:57.533Z</time>
      </trkpt>
      <trkpt lat="48.36222" lon="2.74624">
        <ele>120</ele>
        <time>2014-05-08T09:23:58.526Z</time>
      </trkpt>
      <trkpt lat="48.36228" lon="2.74616">
        <ele>120</ele>
        <time>2014-05-08T09:24:02.557Z</time>
      </trkpt>
      <trkpt lat="48.3623" lon="2.74613">
        <ele>119</ele>
        <time>2014-05-08T09:24:03.530Z</time>
      </trkpt>
      <trkpt lat="48.36237" lon="2.74606">
        <ele>118</ele>
        <time>2014-05-08T09:24:07.532Z</time>
      </trkpt>
      <trkpt lat="48.36238" lon="2.74604">
        <ele>118</ele>
        <time>2014-05-08T09:24:08.534Z</time>
      </trkpt>
      <trkpt lat="48.36245" lon="2.74595">
        <ele>116</ele>
        <time>2014-05-08T09:24:12.529Z</time>
      </trkpt>
      <trkpt lat="48.36247" lon="2.74594">
        <ele>116</ele>
        <time>2014-05-08T09:24:13.534Z</time>
      </trkpt>
      <trkpt lat="48.36255" lon="2.74588">
        <ele>113</ele>
        <time>2014-05-08T09:24:18.633Z</time>
      </trkpt>
      <trkpt lat="48.36256" lon="2.74587">
        <ele>113</ele>
        <time>2014-05-08T09:24:19.651Z</time>
      </trkpt>
      <trkpt lat="48.36263" lon="2.74581">
        <ele>111</ele>
        <time>2014-05-08T09:24:22.643Z</time>
      </trkpt>
      <trkpt lat="48.36265" lon="2.7458">
        <ele>111</ele>
        <time>2014-05-08T09:24:23.642Z</time>
      </trkpt>
      <trkpt lat="48.36273" lon="2.74576">
        <ele>111</ele>
        <time>2014-05-08T09:24:27.639Z</time>
      </trkpt>
      <trkpt lat="48.36275" lon="2.74576">
        <ele>110</ele>
        <time>2014-05-08T09:24:28.624Z</time>
      </trkpt>
      <trkpt lat="48.36282" lon="2.74571">
        <ele>110</ele>
        <time>2014-05-08T09:24:32.660Z</time>
      </trkpt>
      <trkpt lat="48.36284" lon="2.7457">
        <ele>110</ele>
        <time>2014-05-08T09:24:33.626Z</time>
      </trkpt>
      <trkpt lat="48.36291" lon="2.74563">
        <ele>109</ele>
        <time>2014-05-08T09:24:38.672Z</time>
      </trkpt>
      <trkpt lat="48.36293" lon="2.74561">
        <ele>109</ele>
        <time>2014-05-08T09:24:39.663Z</time>
      </trkpt>
      <trkpt lat="48.36298" lon="2.74551">
        <ele>109</ele>
        <time>2014-05-08T09:24:42.661Z</time>
      </trkpt>
      <trkpt lat="48.36299" lon="2.74547">
        <ele>109</ele>
        <time>2014-05-08T09:24:43.652Z</time>
      </trkpt>
      <trkpt lat="48.36306" lon="2.74538">
        <ele>108</ele>
        <time>2014-05-08T09:24:46.641Z</time>
      </trkpt>
      <trkpt lat="48.36308" lon="2.74537">
        <ele>108</ele>
        <time>2014-05-08T09:24:47.653Z</time>
      </trkpt>
      <trkpt lat="48.36316" lon="2.74532">
        <ele>108</ele>
        <time>2014-05-08T09:24:50.662Z</time>
      </trkpt>
      <trkpt lat="48.36319" lon="2.74531">
        <ele>108</ele>
        <time>2014-05-08T09:24:51.635Z</time>
      </trkpt>
      <trkpt lat="48.36327" lon="2.74527">
        <ele>107</ele>
        <time>2014-05-08T09:24:54.641Z</time>
      </trkpt>
      <trkpt lat="48.36329" lon="2.74527">
        <ele>107</ele>
        <time>2014-05-08T09:24:55.657Z</time>
      </trkpt>
      <trkpt lat="48.36338" lon="2.74527">
        <ele>106</ele>
        <time>2014-05-08T09:24:59.658Z</time>
      </trkpt>
      <trkpt lat="48.3634" lon="2.74526">
        <ele>106</ele>
        <time>2014-05-08T09:25:00.669Z</time>
      </trkpt>
      <trkpt lat="48.36349" lon="2.74523">
        <ele>106</ele>
        <time>2014-05-08T09:25:04.675Z</time>
      </trkpt>
      <trkpt lat="48.36351" lon="2.74523">
        <ele>106</ele>
        <time>2014-05-08T09:25:05.672Z</time>
      </trkpt>
      <trkpt lat="48.3636" lon="2.74521">
        <ele>107</ele>
        <time>2014-05-08T09:25:09.692Z</time>
      </trkpt>
      <trkpt lat="48.36362" lon="2.7452">
        <ele>107</ele>
        <time>2014-05-08T09:25:10.675Z</time>
      </trkpt>
      <trkpt lat="48.36369" lon="2.74516">
        <ele>107</ele>
        <time>2014-05-08T09:25:14.693Z</time>
      </trkpt>
      <trkpt lat="48.36371" lon="2.74516">
        <ele>107</ele>
        <time>2014-05-08T09:25:15.675Z</time>
      </trkpt>
      <trkpt lat="48.36378" lon="2.74514">
        <ele>107</ele>
        <time>2014-05-08T09:25:18.685Z</time>
      </trkpt>
      <trkpt lat="48.3638" lon="2.74514">
        <ele>107</ele>
        <time>2014-05-08T09:25:19.705Z</time>
      </trkpt>
      <trkpt lat="48.36389" lon="2.74513">
        <ele>108</ele>
        <time>2014-05-08T09:25:23.685Z</time>
      </trkpt>
      <trkpt lat="48.36391" lon="2.74513">
        <ele>108</ele>
        <time>2014-05-08T09:25:24.676Z</time>
      </trkpt>
      <trkpt lat="48.364" lon="2.74512">
        <ele>108</ele>
        <time>2014-05-08T09:25:28.688Z</time>
      </trkpt>
      <trkpt lat="48.36402" lon="2.74512">
        <ele>108</ele>
        <time>2014-05-08T09:25:29.672Z</time>
      </trkpt>
      <trkpt lat="48.3641" lon="2.74512">
        <ele>108</ele>
        <time>2014-05-08T09:25:33.673Z</time>
      </trkpt>
      <trkpt lat="48.36412" lon="2.74512">
        <ele>108</ele>
        <time>2014-05-08T09:25:34.671Z</time>
      </trkpt>
      <trkpt lat="48.3642" lon="2.74511">
        <ele>108</ele>
        <time>2014-05-08T09:25:38.698Z</time>
      </trkpt>
      <trkpt lat="48.36423" lon="2.74511">
        <ele>108</ele>
        <time>2014-05-08T09:25:39.689Z</time>
      </trkpt>
      <trkpt lat="48.3643" lon="2.7451">
        <ele>108</ele>
        <time>2014-05-08T09:25:42.680Z</time>
      </trkpt>
      <trkpt lat="48.36432" lon="2.7451">
        <ele>108</ele>
        <time>2014-05-08T09:25:43.677Z</time>
      </trkpt>
      <trkpt lat="48.36439" lon="2.74509">
        <ele>108</ele>
        <time>2014-05-08T09:25:46.683Z</time>
      </trkpt>
      <trkpt lat="48.36441" lon="2.74509">
        <ele>108</ele>
        <time>2014-05-08T09:25:47.671Z</time>
      </trkpt>
      <trkpt lat="48.3645" lon="2.74508">
        <ele>107</ele>
        <time>2014-05-08T09:25:51.681Z</time>
      </trkpt>
      <trkpt lat="48.36452" lon="2.74507">
        <ele>107</ele>
        <time>2014-05-08T09:25:52.689Z</time>
      </trkpt>
      <trkpt lat="48.36461" lon="2.74506">
        <ele>107</ele>
        <time>2014-05-08T09:25:57.685Z</time>
      </trkpt>
      <trkpt lat="48.36462" lon="2.74506">
        <ele>107</ele>
        <time>2014-05-08T09:25:58.684Z</time>
      </trkpt>
      <trkpt lat="48.3647" lon="2.74505">
        <ele>107</ele>
        <time>2014-05-08T09:26:02.654Z</time>
      </trkpt>
      <trkpt lat="48.36473" lon="2.74505">
        <ele>106</ele>
        <time>2014-05-08T09:26:03.669Z</time>
      </trkpt>
      <trkpt lat="48.36481" lon="2.74501">
        <ele>106</ele>
        <time>2014-05-08T09:26:07.685Z</time>
      </trkpt>
      <trkpt lat="48.36483" lon="2.74501">
        <ele>106</ele>
        <time>2014-05-08T09:26:08.690Z</time>
      </trkpt>
      <trkpt lat="48.36492" lon="2.74499">
        <ele>106</ele>
        <time>2014-05-08T09:26:12.691Z</time>
      </trkpt>
      <trkpt lat="48.36494" lon="2.74499">
        <ele>106</ele>
        <time>2014-05-08T09:26:13.700Z</time>
      </trkpt>
      <trkpt lat="48.36501" lon="2.74498">
        <ele>105</ele>
        <time>2014-05-08T09:26:17.695Z</time>
      </trkpt>
      <trkpt lat="48.36503" lon="2.74498">
        <ele>105</ele>
        <time>2014-05-08T09:26:18.683Z</time>
      </trkpt>
      <trkpt lat="48.36511" lon="2.74495">
        <ele>105</ele>
        <time>2014-05-08T09:26:22.714Z</time>
      </trkpt>
      <trkpt lat="48.36512" lon="2.74494">
        <ele>105</ele>
        <time>2014-05-08T09:26:23.671Z</time>
      </trkpt>
      <trkpt lat="48.3652" lon="2.74491">
        <ele>104</ele>
        <time>2014-05-08T09:26:28.675Z</time>
      </trkpt>
      <trkpt lat="48.36521" lon="2.7449">
        <ele>104</ele>
        <time>2014-05-08T09:26:29.667Z</time>
      </trkpt>
      <trkpt lat="48.36528" lon="2.74488">
        <ele>104</ele>
        <time>2014-05-08T09:26:34.676Z</time>
      </trkpt>
      <trkpt lat="48.3653" lon="2.74488">
        <ele>104</ele>
        <time>2014-05-08T09:26:35.670Z</time>
      </trkpt>
      <trkpt lat="48.36538" lon="2.74486">
        <ele>104</ele>
        <time>2014-05-08T09:26:40.681Z</time>
      </trkpt>
      <trkpt lat="48.3654" lon="2.74486">
        <ele>104</ele>
        <time>2014-05-08T09:26:41.680Z</time>
      </trkpt>
      <trkpt lat="48.36547" lon="2.74483">
        <ele>104</ele>
        <time>2014-05-08T09:26:45.704Z</time>
      </trkpt>
      <trkpt lat="48.36549" lon="2.74482">
        <ele>104</ele>
        <time>2014-05-08T09:26:46.681Z</time>
      </trkpt>
      <trkpt lat="48.36557" lon="2.7448">
        <ele>103</ele>
        <time>2014-05-08T09:26:50.681Z</time>
      </trkpt>
      <trkpt lat="48.36559" lon="2.74479">
        <ele>103</ele>
        <time>2014-05-08T09:26:51.675Z</time>
      </trkpt>
      <trkpt lat="48.36567" lon="2.74477">
        <ele>103</ele>
        <time>2014-05-08T09:26:55.690Z</time>
      </trkpt>
      <trkpt lat="48.36569" lon="2.74476">
        <ele>103</ele>
        <time>2014-05-08T09:26:56.681Z</time>
      </trkpt>
      <trkpt lat="48.36577" lon="2.74473">
        <ele>103</ele>
        <time>2014-05-08T09:27:00.642Z</time>
      </trkpt>
      <trkpt lat="48.36578" lon="2.74472">
        <ele>103</ele>
        <time>2014-05-08T09:27:01.650Z</time>
      </trkpt>
      <trkpt lat="48.36587" lon="2.74471">
        <ele>103</ele>
        <time>2014-05-08T09:27:06.645Z</time>
      </trkpt>
      <trkpt lat="48.3659" lon="2.74471">
        <ele>103</ele>
        <time>2014-05-08T09:27:07.668Z</time>
      </trkpt>
      <trkpt lat="48.36597" lon="2.74469">
        <ele>103</ele>
        <time>2014-05-08T09:27:10.704Z</time>
      </trkpt>
      <trkpt lat="48.36599" lon="2.74469">
        <ele>103</ele>
        <time>2014-05-08T09:27:11.683Z</time>
      </trkpt>
      <trkpt lat="48.36607" lon="2.74469">
        <ele>104</ele>
        <time>2014-05-08T09:27:15.680Z</time>
      </trkpt>
      <trkpt lat="48.36609" lon="2.74469">
        <ele>104</ele>
        <time>2014-05-08T09:27:16.674Z</time>
      </trkpt>
      <trkpt lat="48.36617" lon="2.74466">
        <ele>104</ele>
        <time>2014-05-08T09:27:19.668Z</time>
      </trkpt>
      <trkpt lat="48.3662" lon="2.74465">
        <ele>104</ele>
        <time>2014-05-08T09:27:20.665Z</time>
      </trkpt>
      <trkpt lat="48.36627" lon="2.74464">
        <ele>104</ele>
        <time>2014-05-08T09:27:23.665Z</time>
      </trkpt>
      <trkpt lat="48.36629" lon="2.74464">
        <ele>104</ele>
        <time>2014-05-08T09:27:24.658Z</time>
      </trkpt>
      <trkpt lat="48.36636" lon="2.74462">
        <ele>104</ele>
        <time>2014-05-08T09:27:27.663Z</time>
      </trkpt>
      <trkpt lat="48.36638" lon="2.74461">
        <ele>104</ele>
        <time>2014-05-08T09:27:28.663Z</time>
      </trkpt>
      <trkpt lat="48.36645" lon="2.74458">
        <ele>104</ele>
        <time>2014-05-08T09:27:32.681Z</time>
      </trkpt>
      <trkpt lat="48.36647" lon="2.74456">
        <ele>104</ele>
        <time>2014-05-08T09:27:33.654Z</time>
      </trkpt>
      <trkpt lat="48.36656" lon="2.74456">
        <ele>105</ele>
        <time>2014-05-08T09:27:37.688Z</time>
      </trkpt>
      <trkpt lat="48.36658" lon="2.74455">
        <ele>105</ele>
        <time>2014-05-08T09:27:38.659Z</time>
      </trkpt>
      <trkpt lat="48.36666" lon="2.74451">
        <ele>105</ele>
        <time>2014-05-08T09:27:42.674Z</time>
      </trkpt>
      <trkpt lat="48.36669" lon="2.7445">
        <ele>108</ele>
        <time>2014-05-08T09:27:43.662Z</time>
      </trkpt>
      <trkpt lat="48.36676" lon="2.74446">
        <ele>108</ele>
        <time>2014-05-08T09:27:47.659Z</time>
      </trkpt>
      <trkpt lat="48.36678" lon="2.74445">
        <ele>108</ele>
        <time>2014-05-08T09:27:48.658Z</time>
      </trkpt>
      <trkpt lat="48.36686" lon="2.7444">
        <ele>109</ele>
        <time>2014-05-08T09:27:53.665Z</time>
      </trkpt>
      <trkpt lat="48.36688" lon="2.74439">
        <ele>109</ele>
        <time>2014-05-08T09:27:54.679Z</time>
      </trkpt>
      <trkpt lat="48.36696" lon="2.74441">
        <ele>109</ele>
        <time>2014-05-08T09:27:59.670Z</time>
      </trkpt>
      <trkpt lat="48.36697" lon="2.74442">
        <ele>109</ele>
        <time>2014-05-08T09:28:00.658Z</time>
      </trkpt>
      <trkpt lat="48.36704" lon="2.74447">
        <ele>110</ele>
        <time>2014-05-08T09:28:05.681Z</time>
      </trkpt>
      <trkpt lat="48.36706" lon="2.74447">
        <ele>110</ele>
        <time>2014-05-08T09:28:06.672Z</time>
      </trkpt>
      <trkpt lat="48.36714" lon="2.74447">
        <ele>110</ele>
        <time>2014-05-08T09:28:11.662Z</time>
      </trkpt>
      <trkpt lat="48.36716" lon="2.74447">
        <ele>110</ele>
        <time>2014-05-08T09:28:12.658Z</time>
      </trkpt>
      <trkpt lat="48.36724" lon="2.7445">
        <ele>111</ele>
        <time>2014-05-08T09:28:17.668Z</time>
      </trkpt>
      <trkpt lat="48.36725" lon="2.7445">
        <ele>111</ele>
        <time>2014-05-08T09:28:18.659Z</time>
      </trkpt>
      <trkpt lat="48.36733" lon="2.74454">
        <ele>111</ele>
        <time>2014-05-08T09:28:23.659Z</time>
      </trkpt>
      <trkpt lat="48.36734" lon="2.74455">
        <ele>111</ele>
        <time>2014-05-08T09:28:24.672Z</time>
      </trkpt>
      <trkpt lat="48.36742" lon="2.74457">
        <ele>111</ele>
        <time>2014-05-08T09:28:28.668Z</time>
      </trkpt>
      <trkpt lat="48.36743" lon="2.74457">
        <ele>111</ele>
        <time>2014-05-08T09:28:29.659Z</time>
      </trkpt>
      <trkpt lat="48.36751" lon="2.74462">
        <ele>118</ele>
        <time>2014-05-08T09:28:33.660Z</time>
      </trkpt>
      <trkpt lat="48.36753" lon="2.74463">
        <ele>118</ele>
        <time>2014-05-08T09:28:34.655Z</time>
      </trkpt>
      <trkpt lat="48.3676" lon="2.74465">
        <ele>118</ele>
        <time>2014-05-08T09:28:38.675Z</time>
      </trkpt>
      <trkpt lat="48.36762" lon="2.74466">
        <ele>118</ele>
        <time>2014-05-08T09:28:39.654Z</time>
      </trkpt>
      <trkpt lat="48.36769" lon="2.74469">
        <ele>118</ele>
        <time>2014-05-08T09:28:43.675Z</time>
      </trkpt>
      <trkpt lat="48.36771" lon="2.74469">
        <ele>118</ele>
        <time>2014-05-08T09:28:44.667Z</time>
      </trkpt>
      <trkpt lat="48.36778" lon="2.7447">
        <ele>119</ele>
        <time>2014-05-08T09:28:48.674Z</time>
      </trkpt>
      <trkpt lat="48.3678" lon="2.74471">
        <ele>119</ele>
        <time>2014-05-08T09:28:49.670Z</time>
      </trkpt>
      <trkpt lat="48.36788" lon="2.74471">
        <ele>120</ele>
        <time>2014-05-08T09:28:55.675Z</time>
      </trkpt>
      <trkpt lat="48.3679" lon="2.74472">
        <ele>120</ele>
        <time>2014-05-08T09:28:56.671Z</time>
      </trkpt>
      <trkpt lat="48.36798" lon="2.74472">
        <ele>120</ele>
        <time>2014-05-08T09:29:01.676Z</time>
      </trkpt>
      <trkpt lat="48.36799" lon="2.74471">
        <ele>121</ele>
        <time>2014-05-08T09:29:02.655Z</time>
      </trkpt>
      <trkpt lat="48.36808" lon="2.7447">
        <ele>121</ele>
        <time>2014-05-08T09:29:10.663Z</time>
      </trkpt>
      <trkpt lat="48.36809" lon="2.7447">
        <ele>121</ele>
        <time>2014-05-08T09:29:11.659Z</time>
      </trkpt>
      <trkpt lat="48.36817" lon="2.74469">
        <ele>122</ele>
        <time>2014-05-08T09:29:17.664Z</time>
      </trkpt>
      <trkpt lat="48.36818" lon="2.74469">
        <ele>122</ele>
        <time>2014-05-08T09:29:18.649Z</time>
      </trkpt>
      <trkpt lat="48.36826" lon="2.74464">
        <ele>122</ele>
        <time>2014-05-08T09:29:24.670Z</time>
      </trkpt>
      <trkpt lat="48.36827" lon="2.74463">
        <ele>122</ele>
        <time>2014-05-08T09:29:25.673Z</time>
      </trkpt>
      <trkpt lat="48.36833" lon="2.74456">
        <ele>123</ele>
        <time>2014-05-08T09:29:29.665Z</time>
      </trkpt>
      <trkpt lat="48.36835" lon="2.74455">
        <ele>129</ele>
        <time>2014-05-08T09:29:30.672Z</time>
      </trkpt>
      <trkpt lat="48.36841" lon="2.74446">
        <ele>130</ele>
        <time>2014-05-08T09:29:35.662Z</time>
      </trkpt>
      <trkpt lat="48.36842" lon="2.74444">
        <ele>130</ele>
        <time>2014-05-08T09:29:36.680Z</time>
      </trkpt>
      <trkpt lat="48.36848" lon="2.74435">
        <ele>130</ele>
        <time>2014-05-08T09:29:41.662Z</time>
      </trkpt>
      <trkpt lat="48.36849" lon="2.74434">
        <ele>130</ele>
        <time>2014-05-08T09:29:42.660Z</time>
      </trkpt>
      <trkpt lat="48.36857" lon="2.74428">
        <ele>130</ele>
        <time>2014-05-08T09:29:47.665Z</time>
      </trkpt>
      <trkpt lat="48.36858" lon="2.74426">
        <ele>130</ele>
        <time>2014-05-08T09:29:48.679Z</time>
      </trkpt>
      <trkpt lat="48.36864" lon="2.74419">
        <ele>130</ele>
        <time>2014-05-08T09:29:52.672Z</time>
      </trkpt>
      <trkpt lat="48.36865" lon="2.74417">
        <ele>131</ele>
        <time>2014-05-08T09:29:53.676Z</time>
      </trkpt>
      <trkpt lat="48.36872" lon="2.74408">
        <ele>132</ele>
        <time>2014-05-08T09:29:58.695Z</time>
      </trkpt>
      <trkpt lat="48.36873" lon="2.74406">
        <ele>132</ele>
        <time>2014-05-08T09:29:59.671Z</time>
      </trkpt>
      <trkpt lat="48.36879" lon="2.744">
        <ele>133</ele>
        <time>2014-05-08T09:30:03.681Z</time>
      </trkpt>
      <trkpt lat="48.36881" lon="2.74399">
        <ele>133</ele>
        <time>2014-05-08T09:30:04.659Z</time>
      </trkpt>
      <trkpt lat="48.36887" lon="2.7439">
        <ele>133</ele>
        <time>2014-05-08T09:30:09.668Z</time>
      </trkpt>
      <trkpt lat="48.36888" lon="2.74388">
        <ele>133</ele>
        <time>2014-05-08T09:30:10.609Z</time>
      </trkpt>
      <trkpt lat="48.36893" lon="2.7438">
        <ele>133</ele>
        <time>2014-05-08T09:30:14.657Z</time>
      </trkpt>
      <trkpt lat="48.36895" lon="2.74379">
        <ele>133</ele>
        <time>2014-05-08T09:30:15.669Z</time>
      </trkpt>
      <trkpt lat="48.36901" lon="2.74371">
        <ele>133</ele>
        <time>2014-05-08T09:30:19.664Z</time>
      </trkpt>
      <trkpt lat="48.36903" lon="2.74369">
        <ele>133</ele>
        <time>2014-05-08T09:30:20.663Z</time>
      </trkpt>
      <trkpt lat="48.36909" lon="2.74362">
        <ele>134</ele>
        <time>2014-05-08T09:30:24.683Z</time>
      </trkpt>
      <trkpt lat="48.3691" lon="2.7436">
        <ele>134</ele>
        <time>2014-05-08T09:30:25.663Z</time>
      </trkpt>
      <trkpt lat="48.36915" lon="2.74353">
        <ele>134</ele>
        <time>2014-05-08T09:30:29.657Z</time>
      </trkpt>
      <trkpt lat="48.36917" lon="2.74351">
        <ele>134</ele>
        <time>2014-05-08T09:30:30.653Z</time>
      </trkpt>
      <trkpt lat="48.36923" lon="2.74342">
        <ele>135</ele>
        <time>2014-05-08T09:30:34.670Z</time>
      </trkpt>
      <trkpt lat="48.36924" lon="2.7434">
        <ele>135</ele>
        <time>2014-05-08T09:30:35.656Z</time>
      </trkpt>
      <trkpt lat="48.36929" lon="2.74331">
        <ele>134</ele>
        <time>2014-05-08T09:30:39.658Z</time>
      </trkpt>
      <trkpt lat="48.3693" lon="2.74329">
        <ele>134</ele>
        <time>2014-05-08T09:30:40.653Z</time>
      </trkpt>
      <trkpt lat="48.36935" lon="2.74319">
        <ele>134</ele>
        <time>2014-05-08T09:30:44.676Z</time>
      </trkpt>
      <trkpt lat="48.36936" lon="2.74317">
        <ele>133</ele>
        <time>2014-05-08T09:30:45.650Z</time>
      </trkpt>
      <trkpt lat="48.36941" lon="2.74307">
        <ele>133</ele>
        <time>2014-05-08T09:30:49.667Z</time>
      </trkpt>
      <trkpt lat="48.36943" lon="2.74304">
        <ele>133</ele>
        <time>2014-05-08T09:30:50.672Z</time>
      </trkpt>
      <trkpt lat="48.36947" lon="2.74295">
        <ele>133</ele>
        <time>2014-05-08T09:30:54.679Z</time>
      </trkpt>
      <trkpt lat="48.36949" lon="2.74292">
        <ele>133</ele>
        <time>2014-05-08T09:30:55.661Z</time>
      </trkpt>
      <trkpt lat="48.36953" lon="2.74282">
        <ele>132</ele>
        <time>2014-05-08T09:30:59.656Z</time>
      </trkpt>
      <trkpt lat="48.36955" lon="2.7428">
        <ele>132</ele>
        <time>2014-05-08T09:31:00.667Z</time>
      </trkpt>
      <trkpt lat="48.36959" lon="2.74272">
        <ele>132</ele>
        <time>2014-05-08T09:31:03.670Z</time>
      </trkpt>
      <trkpt lat="48.36961" lon="2.7427">
        <ele>132</ele>
        <time>2014-05-08T09:31:04.670Z</time>
      </trkpt>
      <trkpt lat="48.36967" lon="2.74264">
        <ele>132</ele>
        <time>2014-05-08T09:31:07.683Z</time>
      </trkpt>
      <trkpt lat="48.36969" lon="2.74262">
        <ele>132</ele>
        <time>2014-05-08T09:31:08.674Z</time>
      </trkpt>
      <trkpt lat="48.36976" lon="2.74254">
        <ele>132</ele>
        <time>2014-05-08T09:31:12.694Z</time>
      </trkpt>
      <trkpt lat="48.36978" lon="2.74253">
        <ele>132</ele>
        <time>2014-05-08T09:31:13.681Z</time>
      </trkpt>
      <trkpt lat="48.36984" lon="2.74248">
        <ele>132</ele>
        <time>2014-05-08T09:31:16.685Z</time>
      </trkpt>
      <trkpt lat="48.36986" lon="2.74247">
        <ele>132</ele>
        <time>2014-05-08T09:31:17.671Z</time>
      </trkpt>
      <trkpt lat="48.36992" lon="2.74238">
        <ele>132</ele>
        <time>2014-05-08T09:31:21.684Z</time>
      </trkpt>
      <trkpt lat="48.36994" lon="2.74236">
        <ele>132</ele>
        <time>2014-05-08T09:31:22.667Z</time>
      </trkpt>
      <trkpt lat="48.37" lon="2.74229">
        <ele>126</ele>
        <time>2014-05-08T09:31:26.698Z</time>
      </trkpt>
      <trkpt lat="48.37002" lon="2.74227">
        <ele>126</ele>
        <time>2014-05-08T09:31:27.675Z</time>
      </trkpt>
      <trkpt lat="48.37009" lon="2.74219">
        <ele>125</ele>
        <time>2014-05-08T09:31:31.700Z</time>
      </trkpt>
      <trkpt lat="48.3701" lon="2.74217">
        <ele>125</ele>
        <time>2014-05-08T09:31:32.668Z</time>
      </trkpt>
      <trkpt lat="48.37017" lon="2.74211">
        <ele>124</ele>
        <time>2014-05-08T09:31:36.670Z</time>
      </trkpt>
      <trkpt lat="48.37019" lon="2.74209">
        <ele>124</ele>
        <time>2014-05-08T09:31:37.677Z</time>
      </trkpt>
      <trkpt lat="48.37025" lon="2.74205">
        <ele>124</ele>
        <time>2014-05-08T09:31:40.711Z</time>
      </trkpt>
      <trkpt lat="48.37027" lon="2.74203">
        <ele>123</ele>
        <time>2014-05-08T09:31:41.677Z</time>
      </trkpt>
      <trkpt lat="48.37034" lon="2.74197">
        <ele>123</ele>
        <time>2014-05-08T09:31:44.696Z</time>
      </trkpt>
      <trkpt lat="48.37036" lon="2.74194">
        <ele>122</ele>
        <time>2014-05-08T09:31:45.687Z</time>
      </trkpt>
      <trkpt lat="48.37044" lon="2.74188">
        <ele>122</ele>
        <time>2014-05-08T09:31:48.674Z</time>
      </trkpt>
      <trkpt lat="48.37046" lon="2.74186">
        <ele>121</ele>
        <time>2014-05-08T09:31:49.684Z</time>
      </trkpt>
      <trkpt lat="48.37052" lon="2.74179">
        <ele>120</ele>
        <time>2014-05-08T09:31:52.684Z</time>
      </trkpt>
      <trkpt lat="48.37054" lon="2.74177">
        <ele>120</ele>
        <time>2014-05-08T09:31:53.668Z</time>
      </trkpt>
      <trkpt lat="48.3706" lon="2.74169">
        <ele>119</ele>
        <time>2014-05-08T09:31:57.708Z</time>
      </trkpt>
      <trkpt lat="48.37061" lon="2.74167">
        <ele>118</ele>
        <time>2014-05-08T09:31:58.667Z</time>
      </trkpt>
      <trkpt lat="48.37067" lon="2.74158">
        <ele>118</ele>
        <time>2014-05-08T09:32:02.669Z</time>
      </trkpt>
      <trkpt lat="48.37069" lon="2.74155">
        <ele>118</ele>
        <time>2014-05-08T09:32:03.662Z</time>
      </trkpt>
      <trkpt lat="48.37073" lon="2.74147">
        <ele>118</ele>
        <time>2014-05-08T09:32:06.679Z</time>
      </trkpt>
      <trkpt lat="48.37075" lon="2.74144">
        <ele>119</ele>
        <time>2014-05-08T09:32:07.671Z</time>
      </trkpt>
      <trkpt lat="48.3708" lon="2.74138">
        <ele>119</ele>
        <time>2014-05-08T09:32:10.680Z</time>
      </trkpt>
      <trkpt lat="48.37082" lon="2.74136">
        <ele>119</ele>
        <time>2014-05-08T09:32:11.666Z</time>
      </trkpt>
      <trkpt lat="48.37089" lon="2.7413">
        <ele>111</ele>
        <time>2014-05-08T09:32:14.676Z</time>
      </trkpt>
      <trkpt lat="48.37091" lon="2.74128">
        <ele>111</ele>
        <time>2014-05-08T09:32:15.672Z</time>
      </trkpt>
      <trkpt lat="48.37098" lon="2.74122">
        <ele>110</ele>
        <time>2014-05-08T09:32:19.704Z</time>
      </trkpt>
      <trkpt lat="48.37099" lon="2.7412">
        <ele>110</ele>
        <time>2014-05-08T09:32:20.668Z</time>
      </trkpt>
      <trkpt lat="48.37107" lon="2.74115">
        <ele>110</ele>
        <time>2014-05-08T09:32:24.701Z</time>
      </trkpt>
      <trkpt lat="48.37108" lon="2.74114">
        <ele>110</ele>
        <time>2014-05-08T09:32:25.678Z</time>
      </trkpt>
      <trkpt lat="48.37114" lon="2.74107">
        <ele>110</ele>
        <time>2014-05-08T09:32:29.671Z</time>
      </trkpt>
      <trkpt lat="48.37116" lon="2.74104">
        <ele>110</ele>
        <time>2014-05-08T09:32:30.672Z</time>
      </trkpt>
      <trkpt lat="48.37122" lon="2.74095">
        <ele>109</ele>
        <time>2014-05-08T09:32:34.681Z</time>
      </trkpt>
      <trkpt lat="48.37123" lon="2.74094">
        <ele>109</ele>
        <time>2014-05-08T09:32:35.667Z</time>
      </trkpt>
      <trkpt lat="48.3713" lon="2.74088">
        <ele>109</ele>
        <time>2014-05-08T09:32:39.672Z</time>
      </trkpt>
      <trkpt lat="48.37131" lon="2.74086">
        <ele>109</ele>
        <time>2014-05-08T09:32:40.668Z</time>
      </trkpt>
      <trkpt lat="48.37137" lon="2.74079">
        <ele>108</ele>
        <time>2014-05-08T09:32:44.671Z</time>
      </trkpt>
      <trkpt lat="48.37138" lon="2.74077">
        <ele>108</ele>
        <time>2014-05-08T09:32:45.692Z</time>
      </trkpt>
      <trkpt lat="48.37146" lon="2.7407">
        <ele>108</ele>
        <time>2014-05-08T09:32:49.689Z</time>
      </trkpt>
      <trkpt lat="48.37147" lon="2.74069">
        <ele>107</ele>
        <time>2014-05-08T09:32:50.683Z</time>
      </trkpt>
      <trkpt lat="48.37155" lon="2.74065">
        <ele>107</ele>
        <time>2014-05-08T09:32:53.686Z</time>
      </trkpt>
      <trkpt lat="48.37157" lon="2.74064">
        <ele>107</ele>
        <time>2014-05-08T09:32:54.673Z</time>
      </trkpt>
      <trkpt lat="48.37163" lon="2.74057">
        <ele>107</ele>
        <time>2014-05-08T09:32:57.674Z</time>
      </trkpt>
      <trkpt lat="48.37165" lon="2.74056">
        <ele>107</ele>
        <time>2014-05-08T09:32:58.672Z</time>
      </trkpt>
      <trkpt lat="48.37172" lon="2.7405">
        <ele>103</ele>
        <time>2014-05-08T09:33:02.705Z</time>
      </trkpt>
      <trkpt lat="48.37174" lon="2.74048">
        <ele>103</ele>
        <time>2014-05-08T09:33:03.668Z</time>
      </trkpt>
      <trkpt lat="48.37182" lon="2.74046">
        <ele>103</ele>
        <time>2014-05-08T09:33:07.715Z</time>
      </trkpt>
      <trkpt lat="48.37184" lon="2.74045">
        <ele>102</ele>
        <time>2014-05-08T09:33:08.684Z</time>
      </trkpt>
      <trkpt lat="48.37191" lon="2.74039">
        <ele>102</ele>
        <time>2014-05-08T09:33:13.698Z</time>
      </trkpt>
      <trkpt lat="48.37193" lon="2.74038">
        <ele>102</ele>
        <time>2014-05-08T09:33:14.672Z</time>
      </trkpt>
      <trkpt lat="48.372" lon="2.74035">
        <ele>102</ele>
        <time>2014-05-08T09:33:19.690Z</time>
      </trkpt>
      <trkpt lat="48.37202" lon="2.74035">
        <ele>102</ele>
        <time>2014-05-08T09:33:20.696Z</time>
      </trkpt>
      <trkpt lat="48.3721" lon="2.74031">
        <ele>102</ele>
        <time>2014-05-08T09:33:24.693Z</time>
      </trkpt>
      <trkpt lat="48.37212" lon="2.7403">
        <ele>102</ele>
        <time>2014-05-08T09:33:25.688Z</time>
      </trkpt>
      <trkpt lat="48.37219" lon="2.74023">
        <ele>102</ele>
        <time>2014-05-08T09:33:29.686Z</time>
      </trkpt>
      <trkpt lat="48.37221" lon="2.74021">
        <ele>102</ele>
        <time>2014-05-08T09:33:30.684Z</time>
      </trkpt>
      <trkpt lat="48.37229" lon="2.74018">
        <ele>102</ele>
        <time>2014-05-08T09:33:34.678Z</time>
      </trkpt>
      <trkpt lat="48.37231" lon="2.74019">
        <ele>102</ele>
        <time>2014-05-08T09:33:35.671Z</time>
      </trkpt>
      <trkpt lat="48.37237" lon="2.74027">
        <ele>101</ele>
        <time>2014-05-08T09:33:38.697Z</time>
      </trkpt>
      <trkpt lat="48.37238" lon="2.7403">
        <ele>101</ele>
        <time>2014-05-08T09:33:39.685Z</time>
      </trkpt>
      <trkpt lat="48.37242" lon="2.74037">
        <ele>101</ele>
        <time>2014-05-08T09:33:41.695Z</time>
      </trkpt>
      <trkpt lat="48.37244" lon="2.74041">
        <ele>101</ele>
        <time>2014-05-08T09:33:42.691Z</time>
      </trkpt>
      <trkpt lat="48.37249" lon="2.74049">
        <ele>100</ele>
        <time>2014-05-08T09:33:45.685Z</time>
      </trkpt>
      <trkpt lat="48.37251" lon="2.74052">
        <ele>97</ele>
        <time>2014-05-08T09:33:46.682Z</time>
      </trkpt>
      <trkpt lat="48.37255" lon="2.7406">
        <ele>96</ele>
        <time>2014-05-08T09:33:49.695Z</time>
      </trkpt>
      <trkpt lat="48.37257" lon="2.74063">
        <ele>96</ele>
        <time>2014-05-08T09:33:50.691Z</time>
      </trkpt>
      <trkpt lat="48.37262" lon="2.74072">
        <ele>96</ele>
        <time>2014-05-08T09:33:54.687Z</time>
      </trkpt>
      <trkpt lat="48.37263" lon="2.74074">
        <ele>96</ele>
        <time>2014-05-08T09:33:55.688Z</time>
      </trkpt>
      <trkpt lat="48.37267" lon="2.74084">
        <ele>94</ele>
        <time>2014-05-08T09:33:59.676Z</time>
      </trkpt>
      <trkpt lat="48.37269" lon="2.74087">
        <ele>94</ele>
        <time>2014-05-08T09:34:00.670Z</time>
      </trkpt>
      <trkpt lat="48.37273" lon="2.74096">
        <ele>94</ele>
        <time>2014-05-08T09:34:04.677Z</time>
      </trkpt>
      <trkpt lat="48.37274" lon="2.74099">
        <ele>94</ele>
        <time>2014-05-08T09:34:05.668Z</time>
      </trkpt>
      <trkpt lat="48.37279" lon="2.7411">
        <ele>93</ele>
        <time>2014-05-08T09:34:09.680Z</time>
      </trkpt>
      <trkpt lat="48.3728" lon="2.74112">
        <ele>93</ele>
        <time>2014-05-08T09:34:10.667Z</time>
      </trkpt>
      <trkpt lat="48.37283" lon="2.74123">
        <ele>93</ele>
        <time>2014-05-08T09:34:15.678Z</time>
      </trkpt>
      <trkpt lat="48.37283" lon="2.74126">
        <ele>93</ele>
        <time>2014-05-08T09:34:16.672Z</time>
      </trkpt>
      <trkpt lat="48.37288" lon="2.74136">
        <ele>93</ele>
        <time>2014-05-08T09:34:20.693Z</time>
      </trkpt>
      <trkpt lat="48.37289" lon="2.74138">
        <ele>93</ele>
        <time>2014-05-08T09:34:21.674Z</time>
      </trkpt>
      <trkpt lat="48.37292" lon="2.7415">
        <ele>92</ele>
        <time>2014-05-08T09:34:25.688Z</time>
      </trkpt>
      <trkpt lat="48.37293" lon="2.74153">
        <ele>92</ele>
        <time>2014-05-08T09:34:26.685Z</time>
      </trkpt>
      <trkpt lat="48.37297" lon="2.74162">
        <ele>92</ele>
        <time>2014-05-08T09:34:29.685Z</time>
      </trkpt>
      <trkpt lat="48.37298" lon="2.74165">
        <ele>92</ele>
        <time>2014-05-08T09:34:30.677Z</time>
      </trkpt>
      <trkpt lat="48.373" lon="2.74176">
        <ele>92</ele>
        <time>2014-05-08T09:34:34.631Z</time>
      </trkpt>
      <trkpt lat="48.37301" lon="2.74179">
        <ele>92</ele>
        <time>2014-05-08T09:34:35.635Z</time>
      </trkpt>
      <trkpt lat="48.37303" lon="2.74192">
        <ele>92</ele>
        <time>2014-05-08T09:34:39.664Z</time>
      </trkpt>
      <trkpt lat="48.37303" lon="2.74195">
        <ele>92</ele>
        <time>2014-05-08T09:34:40.625Z</time>
      </trkpt>
      <trkpt lat="48.37304" lon="2.74206">
        <ele>92</ele>
        <time>2014-05-08T09:34:43.690Z</time>
      </trkpt>
      <trkpt lat="48.37304" lon="2.7421">
        <ele>92</ele>
        <time>2014-05-08T09:34:44.682Z</time>
      </trkpt>
      <trkpt lat="48.37304" lon="2.74221">
        <ele>92</ele>
        <time>2014-05-08T09:34:47.676Z</time>
      </trkpt>
      <trkpt lat="48.37304" lon="2.74225">
        <ele>92</ele>
        <time>2014-05-08T09:34:48.686Z</time>
      </trkpt>
      <trkpt lat="48.37305" lon="2.74235">
        <ele>92</ele>
        <time>2014-05-08T09:34:51.691Z</time>
      </trkpt>
      <trkpt lat="48.37305" lon="2.74238">
        <ele>92</ele>
        <time>2014-05-08T09:34:52.677Z</time>
      </trkpt>
      <trkpt lat="48.37306" lon="2.74248">
        <ele>92</ele>
        <time>2014-05-08T09:34:55.692Z</time>
      </trkpt>
      <trkpt lat="48.37306" lon="2.74252">
        <ele>93</ele>
        <time>2014-05-08T09:34:56.687Z</time>
      </trkpt>
      <trkpt lat="48.37307" lon="2.74265">
        <ele>93</ele>
        <time>2014-05-08T09:35:00.679Z</time>
      </trkpt>
      <trkpt lat="48.37307" lon="2.74268">
        <ele>93</ele>
        <time>2014-05-08T09:35:01.682Z</time>
      </trkpt>
      <trkpt lat="48.37307" lon="2.74281">
        <ele>94</ele>
        <time>2014-05-08T09:35:05.700Z</time>
      </trkpt>
      <trkpt lat="48.37308" lon="2.74285">
        <ele>94</ele>
        <time>2014-05-08T09:35:06.676Z</time>
      </trkpt>
      <trkpt lat="48.37308" lon="2.74298">
        <ele>94</ele>
        <time>2014-05-08T09:35:10.679Z</time>
      </trkpt>
      <trkpt lat="48.37309" lon="2.74301">
        <ele>94</ele>
        <time>2014-05-08T09:35:11.666Z</time>
      </trkpt>
      <trkpt lat="48.37309" lon="2.74313">
        <ele>94</ele>
        <time>2014-05-08T09:35:15.682Z</time>
      </trkpt>
      <trkpt lat="48.37309" lon="2.74317">
        <ele>94</ele>
        <time>2014-05-08T09:35:16.672Z</time>
      </trkpt>
      <trkpt lat="48.37308" lon="2.7433">
        <ele>94</ele>
        <time>2014-05-08T09:35:20.686Z</time>
      </trkpt>
      <trkpt lat="48.37307" lon="2.74334">
        <ele>95</ele>
        <time>2014-05-08T09:35:21.674Z</time>
      </trkpt>
      <trkpt lat="48.37306" lon="2.74346">
        <ele>96</ele>
        <time>2014-05-08T09:35:25.688Z</time>
      </trkpt>
      <trkpt lat="48.37306" lon="2.74349">
        <ele>96</ele>
        <time>2014-05-08T09:35:26.683Z</time>
      </trkpt>
      <trkpt lat="48.37305" lon="2.74361">
        <ele>96</ele>
        <time>2014-05-08T09:35:30.695Z</time>
      </trkpt>
      <trkpt lat="48.37304" lon="2.74365">
        <ele>96</ele>
        <time>2014-05-08T09:35:31.688Z</time>
      </trkpt>
      <trkpt lat="48.373" lon="2.74372">
        <ele>96</ele>
        <time>2014-05-08T09:35:34.709Z</time>
      </trkpt>
      <trkpt lat="48.37298" lon="2.74374">
        <ele>96</ele>
        <time>2014-05-08T09:35:35.671Z</time>
      </trkpt>
      <trkpt lat="48.37291" lon="2.74378">
        <ele>96</ele>
        <time>2014-05-08T09:35:38.683Z</time>
      </trkpt>
      <trkpt lat="48.37289" lon="2.74379">
        <ele>96</ele>
        <time>2014-05-08T09:35:39.671Z</time>
      </trkpt>
      <trkpt lat="48.37281" lon="2.74382">
        <ele>96</ele>
        <time>2014-05-08T09:35:44.675Z</time>
      </trkpt>
      <trkpt lat="48.37279" lon="2.74383">
        <ele>96</ele>
        <time>2014-05-08T09:35:45.669Z</time>
      </trkpt>
      <trkpt lat="48.37272" lon="2.74388">
        <ele>96</ele>
        <time>2014-05-08T09:35:49.687Z</time>
      </trkpt>
      <trkpt lat="48.3727" lon="2.74389">
        <ele>96</ele>
        <time>2014-05-08T09:35:50.682Z</time>
      </trkpt>
      <trkpt lat="48.37262" lon="2.74395">
        <ele>96</ele>
        <time>2014-05-08T09:35:54.681Z</time>
      </trkpt>
      <trkpt lat="48.37261" lon="2.74396">
        <ele>96</ele>
        <time>2014-05-08T09:35:55.679Z</time>
      </trkpt>
      <trkpt lat="48.37254" lon="2.74404">
        <ele>96</ele>
        <time>2014-05-08T09:35:59.688Z</time>
      </trkpt>
      <trkpt lat="48.37253" lon="2.74407">
        <ele>97</ele>
        <time>2014-05-08T09:36:00.670Z</time>
      </trkpt>
      <trkpt lat="48.37247" lon="2.74414">
        <ele>97</ele>
        <time>2014-05-08T09:36:04.674Z</time>
      </trkpt>
      <trkpt lat="48.37245" lon="2.74416">
        <ele>97</ele>
        <time>2014-05-08T09:36:05.672Z</time>
      </trkpt>
      <trkpt lat="48.3724" lon="2.74423">
        <ele>98</ele>
        <time>2014-05-08T09:36:09.671Z</time>
      </trkpt>
      <trkpt lat="48.37238" lon="2.74425">
        <ele>98</ele>
        <time>2014-05-08T09:36:10.664Z</time>
      </trkpt>
      <trkpt lat="48.37233" lon="2.74434">
        <ele>99</ele>
        <time>2014-05-08T09:36:15.676Z</time>
      </trkpt>
      <trkpt lat="48.37232" lon="2.74435">
        <ele>99</ele>
        <time>2014-05-08T09:36:16.675Z</time>
      </trkpt>
      <trkpt lat="48.37225" lon="2.74444">
        <ele>99</ele>
        <time>2014-05-08T09:36:21.678Z</time>
      </trkpt>
      <trkpt lat="48.37224" lon="2.74445">
        <ele>99</ele>
        <time>2014-05-08T09:36:22.687Z</time>
      </trkpt>
      <trkpt lat="48.37216" lon="2.74451">
        <ele>100</ele>
        <time>2014-05-08T09:36:26.689Z</time>
      </trkpt>
      <trkpt lat="48.37214" lon="2.74452">
        <ele>100</ele>
        <time>2014-05-08T09:36:27.675Z</time>
      </trkpt>
      <trkpt lat="48.37207" lon="2.74452">
        <ele>100</ele>
        <time>2014-05-08T09:36:32.678Z</time>
      </trkpt>
      <trkpt lat="48.37205" lon="2.74451">
        <ele>100</ele>
        <time>2014-05-08T09:36:33.687Z</time>
      </trkpt>
      <trkpt lat="48.37198" lon="2.74444">
        <ele>101</ele>
        <time>2014-05-08T09:36:38.690Z</time>
      </trkpt>
      <trkpt lat="48.37197" lon="2.74443">
        <ele>101</ele>
        <time>2014-05-08T09:36:39.693Z</time>
      </trkpt>
      <trkpt lat="48.3719" lon="2.74437">
        <ele>101</ele>
        <time>2014-05-08T09:36:44.708Z</time>
      </trkpt>
      <trkpt lat="48.37189" lon="2.74436">
        <ele>101</ele>
        <time>2014-05-08T09:36:45.674Z</time>
      </trkpt>
      <trkpt lat="48.37181" lon="2.74431">
        <ele>102</ele>
        <time>2014-05-08T09:36:50.686Z</time>
      </trkpt>
      <trkpt lat="48.3718" lon="2.74431">
        <ele>102</ele>
        <time>2014-05-08T09:36:51.670Z</time>
      </trkpt>
      <trkpt lat="48.37172" lon="2.74434">
        <ele>102</ele>
        <time>2014-05-08T09:36:59.695Z</time>
      </trkpt>
      <trkpt lat="48.37171" lon="2.74435">
        <ele>102</ele>
        <time>2014-05-08T09:37:00.684Z</time>
      </trkpt>
      <trkpt lat="48.37164" lon="2.74442">
        <ele>107</ele>
        <time>2014-05-08T09:37:08.673Z</time>
      </trkpt>
      <trkpt lat="48.37163" lon="2.74442">
        <ele>107</ele>
        <time>2014-05-08T09:37:09.681Z</time>
      </trkpt>
      <trkpt lat="48.37154" lon="2.74442">
        <ele>108</ele>
        <time>2014-05-08T09:37:17.688Z</time>
      </trkpt>
      <trkpt lat="48.37153" lon="2.74442">
        <ele>108</ele>
        <time>2014-05-08T09:37:18.681Z</time>
      </trkpt>
      <trkpt lat="48.37145" lon="2.74442">
        <ele>108</ele>
        <time>2014-05-08T09:37:22.705Z</time>
      </trkpt>
      <trkpt lat="48.37143" lon="2.74442">
        <ele>109</ele>
        <time>2014-05-08T09:37:23.680Z</time>
      </trkpt>
      <trkpt lat="48.37135" lon="2.7444">
        <ele>109</ele>
        <time>2014-05-08T09:37:26.699Z</time>
      </trkpt>
      <trkpt lat="48.37133" lon="2.7444">
        <ele>109</ele>
        <time>2014-05-08T09:37:27.673Z</time>
      </trkpt>
      <trkpt lat="48.37126" lon="2.74437">
        <ele>110</ele>
        <time>2014-05-08T09:37:30.690Z</time>
      </trkpt>
      <trkpt lat="48.37124" lon="2.74436">
        <ele>110</ele>
        <time>2014-05-08T09:37:31.682Z</time>
      </trkpt>
      <trkpt lat="48.37116" lon="2.74435">
        <ele>111</ele>
        <time>2014-05-08T09:37:35.723Z</time>
      </trkpt>
      <trkpt lat="48.37115" lon="2.74434">
        <ele>111</ele>
        <time>2014-05-08T09:37:36.671Z</time>
      </trkpt>
      <trkpt lat="48.37107" lon="2.74437">
        <ele>111</ele>
        <time>2014-05-08T09:37:42.699Z</time>
      </trkpt>
      <trkpt lat="48.37106" lon="2.74437">
        <ele>111</ele>
        <time>2014-05-08T09:37:43.690Z</time>
      </trkpt>
      <trkpt lat="48.37097" lon="2.74438">
        <ele>112</ele>
        <time>2014-05-08T09:37:50.697Z</time>
      </trkpt>
      <trkpt lat="48.37095" lon="2.74438">
        <ele>112</ele>
        <time>2014-05-08T09:37:51.686Z</time>
      </trkpt>
      <trkpt lat="48.37087" lon="2.74439">
        <ele>112</ele>
        <time>2014-05-08T09:37:56.690Z</time>
      </trkpt>
      <trkpt lat="48.37086" lon="2.7444">
        <ele>112</ele>
        <time>2014-05-08T09:37:57.678Z</time>
      </trkpt>
      <trkpt lat="48.37078" lon="2.74442">
        <ele>120</ele>
        <time>2014-05-08T09:38:02.687Z</time>
      </trkpt>
      <trkpt lat="48.37077" lon="2.74443">
        <ele>120</ele>
        <time>2014-05-08T09:38:03.703Z</time>
      </trkpt>
      <trkpt lat="48.37068" lon="2.74441">
        <ele>120</ele>
        <time>2014-05-08T09:38:09.736Z</time>
      </trkpt>
      <trkpt lat="48.37067" lon="2.74441">
        <ele>120</ele>
        <time>2014-05-08T09:38:10.674Z</time>
      </trkpt>
      <trkpt lat="48.37059" lon="2.74437">
        <ele>121</ele>
        <time>2014-05-08T09:38:18.689Z</time>
      </trkpt>
      <trkpt lat="48.37058" lon="2.74436">
        <ele>121</ele>
        <time>2014-05-08T09:38:19.692Z</time>
      </trkpt>
      <trkpt lat="48.37049" lon="2.74434">
        <ele>122</ele>
        <time>2014-05-08T09:38:26.699Z</time>
      </trkpt>
      <trkpt lat="48.37048" lon="2.74433">
        <ele>122</ele>
        <time>2014-05-08T09:38:27.679Z</time>
      </trkpt>
      <trkpt lat="48.37039" lon="2.7443">
        <ele>123</ele>
        <time>2014-05-08T09:38:36.677Z</time>
      </trkpt>
      <trkpt lat="48.37038" lon="2.7443">
        <ele>123</ele>
        <time>2014-05-08T09:38:37.705Z</time>
      </trkpt>
      <trkpt lat="48.37031" lon="2.74424">
        <ele>124</ele>
        <time>2014-05-08T09:38:43.693Z</time>
      </trkpt>
      <trkpt lat="48.3703" lon="2.74423">
        <ele>124</ele>
        <time>2014-05-08T09:38:44.689Z</time>
      </trkpt>
      <trkpt lat="48.37023" lon="2.74431">
        <ele>125</ele>
        <time>2014-05-08T09:38:52.701Z</time>
      </trkpt>
      <trkpt lat="48.37023" lon="2.74432">
        <ele>125</ele>
        <time>2014-05-08T09:38:53.683Z</time>
      </trkpt>
      <trkpt lat="48.37018" lon="2.74443">
        <ele>125</ele>
        <time>2014-05-08T09:38:59.703Z</time>
      </trkpt>
      <trkpt lat="48.37017" lon="2.74444">
        <ele>125</ele>
        <time>2014-05-08T09:39:00.675Z</time>
      </trkpt>
      <trkpt lat="48.3701" lon="2.7445">
        <ele>125</ele>
        <time>2014-05-08T09:39:07.700Z</time>
      </trkpt>
      <trkpt lat="48.37009" lon="2.74451">
        <ele>126</ele>
        <time>2014-05-08T09:39:08.675Z</time>
      </trkpt>
      <trkpt lat="48.37001" lon="2.74452">
        <ele>126</ele>
        <time>2014-05-08T09:39:14.674Z</time>
      </trkpt>
      <trkpt lat="48.36999" lon="2.74452">
        <ele>131</ele>
        <time>2014-05-08T09:39:15.685Z</time>
      </trkpt>
      <trkpt lat="48.3699" lon="2.74453">
        <ele>132</ele>
        <time>2014-05-08T09:39:21.690Z</time>
      </trkpt>
      <trkpt lat="48.36989" lon="2.74454">
        <ele>132</ele>
        <time>2014-05-08T09:39:22.678Z</time>
      </trkpt>
      <trkpt lat="48.36988" lon="2.74466">
        <ele>132</ele>
        <time>2014-05-08T09:39:27.677Z</time>
      </trkpt>
      <trkpt lat="48.36988" lon="2.74468">
        <ele>132</ele>
        <time>2014-05-08T09:39:28.672Z</time>
      </trkpt>
      <trkpt lat="48.3699" lon="2.74479">
        <ele>132</ele>
        <time>2014-05-08T09:39:33.674Z</time>
      </trkpt>
      <trkpt lat="48.3699" lon="2.74482">
        <ele>132</ele>
        <time>2014-05-08T09:39:34.671Z</time>
      </trkpt>
      <trkpt lat="48.36991" lon="2.74494">
        <ele>132</ele>
        <time>2014-05-08T09:39:40.696Z</time>
      </trkpt>
      <trkpt lat="48.36992" lon="2.74496">
        <ele>132</ele>
        <time>2014-05-08T09:39:41.688Z</time>
      </trkpt>
      <trkpt lat="48.36993" lon="2.74509">
        <ele>132</ele>
        <time>2014-05-08T09:39:46.636Z</time>
      </trkpt>
      <trkpt lat="48.36993" lon="2.74511">
        <ele>132</ele>
        <time>2014-05-08T09:39:47.666Z</time>
      </trkpt>
      <trkpt lat="48.36994" lon="2.74522">
        <ele>132</ele>
        <time>2014-05-08T09:39:52.694Z</time>
      </trkpt>
      <trkpt lat="48.36994" lon="2.74525">
        <ele>132</ele>
        <time>2014-05-08T09:39:53.675Z</time>
      </trkpt>
      <trkpt lat="48.36995" lon="2.74538">
        <ele>132</ele>
        <time>2014-05-08T09:39:57.680Z</time>
      </trkpt>
      <trkpt lat="48.36995" lon="2.74541">
        <ele>132</ele>
        <time>2014-05-08T09:39:58.677Z</time>
      </trkpt>
      <trkpt lat="48.36996" lon="2.74554">
        <ele>132</ele>
        <time>2014-05-08T09:40:02.699Z</time>
      </trkpt>
      <trkpt lat="48.36995" lon="2.74557">
        <ele>132</ele>
        <time>2014-05-08T09:40:03.682Z</time>
      </trkpt>
      <trkpt lat="48.36995" lon="2.74568">
        <ele>132</ele>
        <time>2014-05-08T09:40:07.689Z</time>
      </trkpt>
      <trkpt lat="48.36995" lon="2.74571">
        <ele>132</ele>
        <time>2014-05-08T09:40:08.693Z</time>
      </trkpt>
      <trkpt lat="48.36996" lon="2.74583">
        <ele>132</ele>
        <time>2014-05-08T09:40:12.702Z</time>
      </trkpt>
      <trkpt lat="48.36996" lon="2.74585">
        <ele>132</ele>
        <time>2014-05-08T09:40:13.682Z</time>
      </trkpt>
      <trkpt lat="48.36996" lon="2.74599">
        <ele>132</ele>
        <time>2014-05-08T09:40:17.682Z</time>
      </trkpt>
      <trkpt lat="48.36996" lon="2.74602">
        <ele>132</ele>
        <time>2014-05-08T09:40:18.689Z</time>
      </trkpt>
      <trkpt lat="48.36996" lon="2.74613">
        <ele>132</ele>
        <time>2014-05-08T09:40:21.694Z</time>
      </trkpt>
      <trkpt lat="48.36996" lon="2.74617">
        <ele>132</ele>
        <time>2014-05-08T09:40:22.687Z</time>
      </trkpt>
      <trkpt lat="48.36995" lon="2.74629">
        <ele>132</ele>
        <time>2014-05-08T09:40:26.691Z</time>
      </trkpt>
      <trkpt lat="48.36995" lon="2.74632">
        <ele>132</ele>
        <time>2014-05-08T09:40:27.692Z</time>
      </trkpt>
      <trkpt lat="48.36993" lon="2.74645">
        <ele>132</ele>
        <time>2014-05-08T09:40:31.687Z</time>
      </trkpt>
      <trkpt lat="48.36992" lon="2.74648">
        <ele>132</ele>
        <time>2014-05-08T09:40:32.670Z</time>
      </trkpt>
      <trkpt lat="48.36989" lon="2.74659">
        <ele>132</ele>
        <time>2014-05-08T09:40:36.692Z</time>
      </trkpt>
      <trkpt lat="48.36988" lon="2.74661">
        <ele>132</ele>
        <time>2014-05-08T09:40:37.700Z</time>
      </trkpt>
      <trkpt lat="48.36986" lon="2.74673">
        <ele>132</ele>
        <time>2014-05-08T09:40:41.710Z</time>
      </trkpt>
      <trkpt lat="48.36985" lon="2.74676">
        <ele>132</ele>
        <time>2014-05-08T09:40:42.668Z</time>
      </trkpt>
      <trkpt lat="48.36984" lon="2.74687">
        <ele>132</ele>
        <time>2014-05-08T09:40:45.704Z</time>
      </trkpt>
      <trkpt lat="48.36984" lon="2.7469">
        <ele>132</ele>
        <time>2014-05-08T09:40:46.684Z</time>
      </trkpt>
      <trkpt lat="48.36983" lon="2.747">
        <ele>132</ele>
        <time>2014-05-08T09:40:49.693Z</time>
      </trkpt>
      <trkpt lat="48.36983" lon="2.74704">
        <ele>132</ele>
        <time>2014-05-08T09:40:50.696Z</time>
      </trkpt>
      <trkpt lat="48.36981" lon="2.74715">
        <ele>132</ele>
        <time>2014-05-08T09:40:53.684Z</time>
      </trkpt>
      <trkpt lat="48.36981" lon="2.74718">
        <ele>132</ele>
        <time>2014-05-08T09:40:54.683Z</time>
      </trkpt>
      <trkpt lat="48.36979" lon="2.74728">
        <ele>132</ele>
        <time>2014-05-08T09:40:57.678Z</time>
      </trkpt>
      <trkpt lat="48.36978" lon="2.74731">
        <ele>132</ele>
        <time>2014-05-08T09:40:58.675Z</time>
      </trkpt>
      <trkpt lat="48.36977" lon="2.74743">
        <ele>132</ele>
        <time>2014-05-08T09:41:02.685Z</time>
      </trkpt>
      <trkpt lat="48.36977" lon="2.74746">
        <ele>132</ele>
        <time>2014-05-08T09:41:03.664Z</time>
      </trkpt>
      <trkpt lat="48.36977" lon="2.74758">
        <ele>132</ele>
        <time>2014-05-08T09:41:07.692Z</time>
      </trkpt>
      <trkpt lat="48.36977" lon="2.7476">
        <ele>132</ele>
        <time>2014-05-08T09:41:08.694Z</time>
      </trkpt>
      <trkpt lat="48.36974" lon="2.74771">
        <ele>132</ele>
        <time>2014-05-08T09:41:12.688Z</time>
      </trkpt>
      <trkpt lat="48.36973" lon="2.74774">
        <ele>132</ele>
        <time>2014-05-08T09:41:13.694Z</time>
      </trkpt>
      <trkpt lat="48.36971" lon="2.74787">
        <ele>131</ele>
        <time>2014-05-08T09:41:17.676Z</time>
      </trkpt>
      <trkpt lat="48.36971" lon="2.7479">
        <ele>131</ele>
        <time>2014-05-08T09:41:18.683Z</time>
      </trkpt>
      <trkpt lat="48.36969" lon="2.74802">
        <ele>131</ele>
        <time>2014-05-08T09:41:22.708Z</time>
      </trkpt>
      <trkpt lat="48.36968" lon="2.74805">
        <ele>131</ele>
        <time>2014-05-08T09:41:23.678Z</time>
      </trkpt>
      <trkpt lat="48.36966" lon="2.74816">
        <ele>131</ele>
        <time>2014-05-08T09:41:27.684Z</time>
      </trkpt>
      <trkpt lat="48.36966" lon="2.74819">
        <ele>131</ele>
        <time>2014-05-08T09:41:28.664Z</time>
      </trkpt>
      <trkpt lat="48.36964" lon="2.74831">
        <ele>131</ele>
        <time>2014-05-08T09:41:32.684Z</time>
      </trkpt>
      <trkpt lat="48.36964" lon="2.74834">
        <ele>131</ele>
        <time>2014-05-08T09:41:33.696Z</time>
      </trkpt>
      <trkpt lat="48.36961" lon="2.74846">
        <ele>131</ele>
        <time>2014-05-08T09:41:37.698Z</time>
      </trkpt>
      <trkpt lat="48.36961" lon="2.74849">
        <ele>131</ele>
        <time>2014-05-08T09:41:38.683Z</time>
      </trkpt>
      <trkpt lat="48.36959" lon="2.74859">
        <ele>131</ele>
        <time>2014-05-08T09:41:42.701Z</time>
      </trkpt>
      <trkpt lat="48.36959" lon="2.74863">
        <ele>131</ele>
        <time>2014-05-08T09:41:43.682Z</time>
      </trkpt>
      <trkpt lat="48.36957" lon="2.74875">
        <ele>132</ele>
        <time>2014-05-08T09:41:47.687Z</time>
      </trkpt>
      <trkpt lat="48.36956" lon="2.74878">
        <ele>132</ele>
        <time>2014-05-08T09:41:48.679Z</time>
      </trkpt>
      <trkpt lat="48.36955" lon="2.7489">
        <ele>132</ele>
        <time>2014-05-08T09:41:52.696Z</time>
      </trkpt>
      <trkpt lat="48.36955" lon="2.74893">
        <ele>132</ele>
        <time>2014-05-08T09:41:53.689Z</time>
      </trkpt>
      <trkpt lat="48.36954" lon="2.74904">
        <ele>132</ele>
        <time>2014-05-08T09:41:55.719Z</time>
      </trkpt>
      <trkpt lat="48.36953" lon="2.7491">
        <ele>132</ele>
        <time>2014-05-08T09:41:56.687Z</time>
      </trkpt>
      <trkpt lat="48.36952" lon="2.74919">
        <ele>132</ele>
        <time>2014-05-08T09:41:58.691Z</time>
      </trkpt>
      <trkpt lat="48.36951" lon="2.74923">
        <ele>132</ele>
        <time>2014-05-08T09:41:59.673Z</time>
      </trkpt>
      <trkpt lat="48.36949" lon="2.74934">
        <ele>132</ele>
        <time>2014-05-08T09:42:02.684Z</time>
      </trkpt>
      <trkpt lat="48.36949" lon="2.74938">
        <ele>133</ele>
        <time>2014-05-08T09:42:03.677Z</time>
      </trkpt>
      <trkpt lat="48.36947" lon="2.74948">
        <ele>133</ele>
        <time>2014-05-08T09:42:06.683Z</time>
      </trkpt>
      <trkpt lat="48.36946" lon="2.74951">
        <ele>133</ele>
        <time>2014-05-08T09:42:07.687Z</time>
      </trkpt>
      <trkpt lat="48.36943" lon="2.74963">
        <ele>133</ele>
        <time>2014-05-08T09:42:11.683Z</time>
      </trkpt>
      <trkpt lat="48.36942" lon="2.74966">
        <ele>133</ele>
        <time>2014-05-08T09:42:12.671Z</time>
      </trkpt>
      <trkpt lat="48.36938" lon="2.74977">
        <ele>133</ele>
        <time>2014-05-08T09:42:16.714Z</time>
      </trkpt>
      <trkpt lat="48.36938" lon="2.74979">
        <ele>133</ele>
        <time>2014-05-08T09:42:17.676Z</time>
      </trkpt>
      <trkpt lat="48.36933" lon="2.74988">
        <ele>133</ele>
        <time>2014-05-08T09:42:21.675Z</time>
      </trkpt>
      <trkpt lat="48.36931" lon="2.74991">
        <ele>133</ele>
        <time>2014-05-08T09:42:22.699Z</time>
      </trkpt>
      <trkpt lat="48.36926" lon="2.75001">
        <ele>134</ele>
        <time>2014-05-08T09:42:26.711Z</time>
      </trkpt>
      <trkpt lat="48.36925" lon="2.75004">
        <ele>134</ele>
        <time>2014-05-08T09:42:27.674Z</time>
      </trkpt>
      <trkpt lat="48.36921" lon="2.75015">
        <ele>133</ele>
        <time>2014-05-08T09:42:31.694Z</time>
      </trkpt>
      <trkpt lat="48.3692" lon="2.75018">
        <ele>133</ele>
        <time>2014-05-08T09:42:32.673Z</time>
      </trkpt>
      <trkpt lat="48.36918" lon="2.75027">
        <ele>133</ele>
        <time>2014-05-08T09:42:35.697Z</time>
      </trkpt>
      <trkpt lat="48.36917" lon="2.75031">
        <ele>134</ele>
        <time>2014-05-08T09:42:36.675Z</time>
      </trkpt>
      <trkpt lat="48.36913" lon="2.75042">
        <ele>134</ele>
        <time>2014-05-08T09:42:39.682Z</time>
      </trkpt>
      <trkpt lat="48.36912" lon="2.75045">
        <ele>134</ele>
        <time>2014-05-08T09:42:40.687Z</time>
      </trkpt>
      <trkpt lat="48.3691" lon="2.75055">
        <ele>134</ele>
        <time>2014-05-08T09:42:43.686Z</time>
      </trkpt>
      <trkpt lat="48.3691" lon="2.75059">
        <ele>134</ele>
        <time>2014-05-08T09:42:44.689Z</time>
      </trkpt>
      <trkpt lat="48.36907" lon="2.75071">
        <ele>134</ele>
        <time>2014-05-08T09:42:48.676Z</time>
      </trkpt>
      <trkpt lat="48.36907" lon="2.75074">
        <ele>134</ele>
        <time>2014-05-08T09:42:49.663Z</time>
      </trkpt>
      <trkpt lat="48.36902" lon="2.75085">
        <ele>134</ele>
        <time>2014-05-08T09:42:53.657Z</time>
      </trkpt>
      <trkpt lat="48.36902" lon="2.75089">
        <ele>134</ele>
        <time>2014-05-08T09:42:54.656Z</time>
      </trkpt>
      <trkpt lat="48.36898" lon="2.75101">
        <ele>134</ele>
        <time>2014-05-08T09:42:58.683Z</time>
      </trkpt>
      <trkpt lat="48.36897" lon="2.75103">
        <ele>134</ele>
        <time>2014-05-08T09:42:59.675Z</time>
      </trkpt>
      <trkpt lat="48.36894" lon="2.75114">
        <ele>133</ele>
        <time>2014-05-08T09:43:03.681Z</time>
      </trkpt>
      <trkpt lat="48.36893" lon="2.75117">
        <ele>133</ele>
        <time>2014-05-08T09:43:04.680Z</time>
      </trkpt>
      <trkpt lat="48.3689" lon="2.75129">
        <ele>133</ele>
        <time>2014-05-08T09:43:08.685Z</time>
      </trkpt>
      <trkpt lat="48.3689" lon="2.75132">
        <ele>133</ele>
        <time>2014-05-08T09:43:09.674Z</time>
      </trkpt>
      <trkpt lat="48.36886" lon="2.75144">
        <ele>133</ele>
        <time>2014-05-08T09:43:13.689Z</time>
      </trkpt>
      <trkpt lat="48.36885" lon="2.75146">
        <ele>133</ele>
        <time>2014-05-08T09:43:14.676Z</time>
      </trkpt>
      <trkpt lat="48.36882" lon="2.75157">
        <ele>133</ele>
        <time>2014-05-08T09:43:18.721Z</time>
      </trkpt>
      <trkpt lat="48.36881" lon="2.75159">
        <ele>133</ele>
        <time>2014-05-08T09:43:19.695Z</time>
      </trkpt>
      <trkpt lat="48.3688" lon="2.75171">
        <ele>132</ele>
        <time>2014-05-08T09:43:23.689Z</time>
      </trkpt>
      <trkpt lat="48.36879" lon="2.75174">
        <ele>132</ele>
        <time>2014-05-08T09:43:24.688Z</time>
      </trkpt>
      <trkpt lat="48.36876" lon="2.75186">
        <ele>132</ele>
        <time>2014-05-08T09:43:28.699Z</time>
      </trkpt>
      <trkpt lat="48.36875" lon="2.75189">
        <ele>132</ele>
        <time>2014-05-08T09:43:29.708Z</time>
      </trkpt>
      <trkpt lat="48.36874" lon="2.752">
        <ele>132</ele>
        <time>2014-05-08T09:43:33.676Z</time>
      </trkpt>
      <trkpt lat="48.36873" lon="2.75203">
        <ele>132</ele>
        <time>2014-05-08T09:43:34.674Z</time>
      </trkpt>
      <trkpt lat="48.3687" lon="2.75215">
        <ele>132</ele>
        <time>2014-05-08T09:43:38.703Z</time>
      </trkpt>
      <trkpt lat="48.36869" lon="2.75218">
        <ele>132</ele>
        <time>2014-05-08T09:43:39.672Z</time>
      </trkpt>
      <trkpt lat="48.36865" lon="2.75228">
        <ele>133</ele>
        <time>2014-05-08T09:43:43.686Z</time>
      </trkpt>
      <trkpt lat="48.36864" lon="2.7523">
        <ele>133</ele>
        <time>2014-05-08T09:43:44.682Z</time>
      </trkpt>
      <trkpt lat="48.36861" lon="2.75242">
        <ele>133</ele>
        <time>2014-05-08T09:43:48.732Z</time>
      </trkpt>
      <trkpt lat="48.36861" lon="2.75245">
        <ele>133</ele>
        <time>2014-05-08T09:43:49.688Z</time>
      </trkpt>
      <trkpt lat="48.36859" lon="2.75257">
        <ele>133</ele>
        <time>2014-05-08T09:43:53.684Z</time>
      </trkpt>
      <trkpt lat="48.36858" lon="2.7526">
        <ele>133</ele>
        <time>2014-05-08T09:43:54.681Z</time>
      </trkpt>
      <trkpt lat="48.36855" lon="2.75271">
        <ele>133</ele>
        <time>2014-05-08T09:43:58.694Z</time>
      </trkpt>
      <trkpt lat="48.36854" lon="2.75274">
        <ele>133</ele>
        <time>2014-05-08T09:43:59.675Z</time>
      </trkpt>
      <trkpt lat="48.36852" lon="2.75285">
        <ele>133</ele>
        <time>2014-05-08T09:44:03.690Z</time>
      </trkpt>
      <trkpt lat="48.36851" lon="2.75288">
        <ele>133</ele>
        <time>2014-05-08T09:44:04.670Z</time>
      </trkpt>
      <trkpt lat="48.36848" lon="2.75299">
        <ele>133</ele>
        <time>2014-05-08T09:44:09.688Z</time>
      </trkpt>
      <trkpt lat="48.36847" lon="2.75302">
        <ele>133</ele>
        <time>2014-05-08T09:44:10.675Z</time>
      </trkpt>
      <trkpt lat="48.36843" lon="2.75313">
        <ele>134</ele>
        <time>2014-05-08T09:44:14.679Z</time>
      </trkpt>
      <trkpt lat="48.36843" lon="2.75316">
        <ele>134</ele>
        <time>2014-05-08T09:44:15.675Z</time>
      </trkpt>
      <trkpt lat="48.36841" lon="2.75326">
        <ele>135</ele>
        <time>2014-05-08T09:44:18.685Z</time>
      </trkpt>
      <trkpt lat="48.3684" lon="2.75329">
        <ele>135</ele>
        <time>2014-05-08T09:44:19.692Z</time>
      </trkpt>
      <trkpt lat="48.36837" lon="2.75341">
        <ele>135</ele>
        <time>2014-05-08T09:44:23.691Z</time>
      </trkpt>
      <trkpt lat="48.36837" lon="2.75344">
        <ele>134</ele>
        <time>2014-05-08T09:44:24.679Z</time>
      </trkpt>
      <trkpt lat="48.36834" lon="2.75355">
        <ele>133</ele>
        <time>2014-05-08T09:44:28.709Z</time>
      </trkpt>
      <trkpt lat="48.36833" lon="2.75357">
        <ele>136</ele>
        <time>2014-05-08T09:44:29.677Z</time>
      </trkpt>
      <trkpt lat="48.36829" lon="2.75369">
        <ele>136</ele>
        <time>2014-05-08T09:44:33.686Z</time>
      </trkpt>
      <trkpt lat="48.36828" lon="2.75371">
        <ele>136</ele>
        <time>2014-05-08T09:44:34.677Z</time>
      </trkpt>
      <trkpt lat="48.36825" lon="2.75382">
        <ele>136</ele>
        <time>2014-05-08T09:44:38.678Z</time>
      </trkpt>
      <trkpt lat="48.36824" lon="2.75385">
        <ele>136</ele>
        <time>2014-05-08T09:44:39.676Z</time>
      </trkpt>
      <trkpt lat="48.36821" lon="2.75396">
        <ele>136</ele>
        <time>2014-05-08T09:44:43.698Z</time>
      </trkpt>
      <trkpt lat="48.3682" lon="2.75399">
        <ele>136</ele>
        <time>2014-05-08T09:44:44.680Z</time>
      </trkpt>
      <trkpt lat="48.36817" lon="2.75411">
        <ele>136</ele>
        <time>2014-05-08T09:44:48.686Z</time>
      </trkpt>
      <trkpt lat="48.36817" lon="2.75414">
        <ele>136</ele>
        <time>2014-05-08T09:44:49.691Z</time>
      </trkpt>
      <trkpt lat="48.36816" lon="2.75425">
        <ele>136</ele>
        <time>2014-05-08T09:44:53.704Z</time>
      </trkpt>
      <trkpt lat="48.36815" lon="2.75428">
        <ele>136</ele>
        <time>2014-05-08T09:44:54.687Z</time>
      </trkpt>
      <trkpt lat="48.36811" lon="2.75438">
        <ele>136</ele>
        <time>2014-05-08T09:44:58.696Z</time>
      </trkpt>
      <trkpt lat="48.3681" lon="2.7544">
        <ele>136</ele>
        <time>2014-05-08T09:44:59.686Z</time>
      </trkpt>
      <trkpt lat="48.36806" lon="2.75451">
        <ele>136</ele>
        <time>2014-05-08T09:45:03.689Z</time>
      </trkpt>
      <trkpt lat="48.36805" lon="2.75454">
        <ele>136</ele>
        <time>2014-05-08T09:45:04.698Z</time>
      </trkpt>
      <trkpt lat="48.36803" lon="2.75464">
        <ele>135</ele>
        <time>2014-05-08T09:45:08.710Z</time>
      </trkpt>
      <trkpt lat="48.36802" lon="2.75467">
        <ele>135</ele>
        <time>2014-05-08T09:45:09.679Z</time>
      </trkpt>
      <trkpt lat="48.368" lon="2.75479">
        <ele>135</ele>
        <time>2014-05-08T09:45:13.709Z</time>
      </trkpt>
      <trkpt lat="48.36799" lon="2.75481">
        <ele>135</ele>
        <time>2014-05-08T09:45:14.678Z</time>
      </trkpt>
      <trkpt lat="48.36796" lon="2.75492">
        <ele>135</ele>
        <time>2014-05-08T09:45:18.733Z</time>
      </trkpt>
      <trkpt lat="48.36796" lon="2.75494">
        <ele>135</ele>
        <time>2014-05-08T09:45:19.715Z</time>
      </trkpt>
      <trkpt lat="48.36794" lon="2.75506">
        <ele>134</ele>
        <time>2014-05-08T09:45:23.692Z</time>
      </trkpt>
      <trkpt lat="48.36793" lon="2.75509">
        <ele>134</ele>
        <time>2014-05-08T09:45:24.682Z</time>
      </trkpt>
      <trkpt lat="48.3679" lon="2.7552">
        <ele>134</ele>
        <time>2014-05-08T09:45:28.679Z</time>
      </trkpt>
      <trkpt lat="48.36789" lon="2.75523">
        <ele>134</ele>
        <time>2014-05-08T09:45:29.681Z</time>
      </trkpt>
      <trkpt lat="48.36785" lon="2.75533">
        <ele>134</ele>
        <time>2014-05-08T09:45:34.683Z</time>
      </trkpt>
      <trkpt lat="48.36784" lon="2.75535">
        <ele>134</ele>
        <time>2014-05-08T09:45:35.672Z</time>
      </trkpt>
      <trkpt lat="48.36781" lon="2.75545">
        <ele>134</ele>
        <time>2014-05-08T09:45:39.671Z</time>
      </trkpt>
      <trkpt lat="48.3678" lon="2.75548">
        <ele>134</ele>
        <time>2014-05-08T09:45:40.669Z</time>
      </trkpt>
      <trkpt lat="48.36777" lon="2.7556">
        <ele>134</ele>
        <time>2014-05-08T09:45:44.699Z</time>
      </trkpt>
      <trkpt lat="48.36776" lon="2.75563">
        <ele>134</ele>
        <time>2014-05-08T09:45:45.680Z</time>
      </trkpt>
      <trkpt lat="48.36773" lon="2.75574">
        <ele>134</ele>
        <time>2014-05-08T09:45:49.705Z</time>
      </trkpt>
      <trkpt lat="48.36773" lon="2.75576">
        <ele>134</ele>
        <time>2014-05-08T09:45:50.687Z</time>
      </trkpt>
      <trkpt lat="48.3677" lon="2.75587">
        <ele>133</ele>
        <time>2014-05-08T09:45:54.682Z</time>
      </trkpt>
      <trkpt lat="48.36769" lon="2.7559">
        <ele>133</ele>
        <time>2014-05-08T09:45:55.684Z</time>
      </trkpt>
      <trkpt lat="48.36765" lon="2.75602">
        <ele>133</ele>
        <time>2014-05-08T09:45:59.682Z</time>
      </trkpt>
      <trkpt lat="48.36764" lon="2.75605">
        <ele>133</ele>
        <time>2014-05-08T09:46:00.664Z</time>
      </trkpt>
      <trkpt lat="48.3676" lon="2.75614">
        <ele>133</ele>
        <time>2014-05-08T09:46:03.687Z</time>
      </trkpt>
      <trkpt lat="48.36759" lon="2.75617">
        <ele>133</ele>
        <time>2014-05-08T09:46:04.690Z</time>
      </trkpt>
      <trkpt lat="48.36757" lon="2.75627">
        <ele>132</ele>
        <time>2014-05-08T09:46:07.700Z</time>
      </trkpt>
      <trkpt lat="48.36756" lon="2.7563">
        <ele>132</ele>
        <time>2014-05-08T09:46:08.678Z</time>
      </trkpt>
      <trkpt lat="48.36755" lon="2.75641">
        <ele>132</ele>
        <time>2014-05-08T09:46:12.683Z</time>
      </trkpt>
      <trkpt lat="48.36754" lon="2.75644">
        <ele>132</ele>
        <time>2014-05-08T09:46:13.696Z</time>
      </trkpt>
      <trkpt lat="48.36752" lon="2.75656">
        <ele>133</ele>
        <time>2014-05-08T09:46:17.703Z</time>
      </trkpt>
      <trkpt lat="48.36752" lon="2.75659">
        <ele>133</ele>
        <time>2014-05-08T09:46:18.687Z</time>
      </trkpt>
      <trkpt lat="48.36749" lon="2.75671">
        <ele>132</ele>
        <time>2014-05-08T09:46:22.697Z</time>
      </trkpt>
      <trkpt lat="48.36749" lon="2.75674">
        <ele>131</ele>
        <time>2014-05-08T09:46:23.671Z</time>
      </trkpt>
      <trkpt lat="48.36746" lon="2.75684">
        <ele>129</ele>
        <time>2014-05-08T09:46:27.690Z</time>
      </trkpt>
      <trkpt lat="48.36746" lon="2.75687">
        <ele>128</ele>
        <time>2014-05-08T09:46:28.678Z</time>
      </trkpt>
      <trkpt lat="48.36745" lon="2.75697">
        <ele>127</ele>
        <time>2014-05-08T09:46:31.683Z</time>
      </trkpt>
      <trkpt lat="48.36744" lon="2.75701">
        <ele>127</ele>
        <time>2014-05-08T09:46:32.674Z</time>
      </trkpt>
      <trkpt lat="48.3674" lon="2.75712">
        <ele>127</ele>
        <time>2014-05-08T09:46:36.693Z</time>
      </trkpt>
      <trkpt lat="48.36739" lon="2.75714">
        <ele>126</ele>
        <time>2014-05-08T09:46:37.694Z</time>
      </trkpt>
      <trkpt lat="48.36736" lon="2.75702">
        <ele>127</ele>
        <time>2014-05-08T09:46:43.694Z</time>
      </trkpt>
      <trkpt lat="48.36736" lon="2.75699">
        <ele>127</ele>
        <time>2014-05-08T09:46:44.676Z</time>
      </trkpt>
      <trkpt lat="48.36734" lon="2.75688">
        <ele>127</ele>
        <time>2014-05-08T09:46:49.704Z</time>
      </trkpt>
      <trkpt lat="48.36733" lon="2.75685">
        <ele>127</ele>
        <time>2014-05-08T09:46:50.686Z</time>
      </trkpt>
      <trkpt lat="48.36731" lon="2.75674">
        <ele>128</ele>
        <time>2014-05-08T09:46:54.699Z</time>
      </trkpt>
      <trkpt lat="48.36731" lon="2.75672">
        <ele>128</ele>
        <time>2014-05-08T09:46:55.690Z</time>
      </trkpt>
      <trkpt lat="48.3673" lon="2.7566">
        <ele>129</ele>
        <time>2014-05-08T09:46:59.683Z</time>
      </trkpt>
      <trkpt lat="48.36729" lon="2.75658">
        <ele>129</ele>
        <time>2014-05-08T09:47:00.684Z</time>
      </trkpt>
      <trkpt lat="48.36727" lon="2.75646">
        <ele>129</ele>
        <time>2014-05-08T09:47:05.677Z</time>
      </trkpt>
      <trkpt lat="48.36727" lon="2.75644">
        <ele>129</ele>
        <time>2014-05-08T09:47:06.675Z</time>
      </trkpt>
      <trkpt lat="48.36724" lon="2.75633">
        <ele>128</ele>
        <time>2014-05-08T09:47:10.687Z</time>
      </trkpt>
      <trkpt lat="48.36724" lon="2.7563">
        <ele>128</ele>
        <time>2014-05-08T09:47:11.668Z</time>
      </trkpt>
      <trkpt lat="48.36721" lon="2.75618">
        <ele>128</ele>
        <time>2014-05-08T09:47:16.685Z</time>
      </trkpt>
      <trkpt lat="48.3672" lon="2.75616">
        <ele>128</ele>
        <time>2014-05-08T09:47:17.679Z</time>
      </trkpt>
      <trkpt lat="48.36719" lon="2.75604">
        <ele>129</ele>
        <time>2014-05-08T09:47:21.683Z</time>
      </trkpt>
      <trkpt lat="48.36719" lon="2.75602">
        <ele>129</ele>
        <time>2014-05-08T09:47:22.686Z</time>
      </trkpt>
      <trkpt lat="48.36717" lon="2.7559">
        <ele>129</ele>
        <time>2014-05-08T09:47:26.715Z</time>
      </trkpt>
      <trkpt lat="48.36717" lon="2.75587">
        <ele>129</ele>
        <time>2014-05-08T09:47:27.670Z</time>
      </trkpt>
      <trkpt lat="48.36715" lon="2.75575">
        <ele>130</ele>
        <time>2014-05-08T09:47:31.707Z</time>
      </trkpt>
      <trkpt lat="48.36715" lon="2.75572">
        <ele>130</ele>
        <time>2014-05-08T09:47:32.671Z</time>
      </trkpt>
      <trkpt lat="48.36713" lon="2.75562">
        <ele>130</ele>
        <time>2014-05-08T09:47:35.686Z</time>
      </trkpt>
      <trkpt lat="48.36713" lon="2.75559">
        <ele>130</ele>
        <time>2014-05-08T09:47:36.677Z</time>
      </trkpt>
      <trkpt lat="48.3671" lon="2.75547">
        <ele>130</ele>
        <time>2014-05-08T09:47:40.697Z</time>
      </trkpt>
      <trkpt lat="48.3671" lon="2.75544">
        <ele>130</ele>
        <time>2014-05-08T09:47:41.680Z</time>
      </trkpt>
      <trkpt lat="48.36709" lon="2.75532">
        <ele>130</ele>
        <time>2014-05-08T09:47:45.690Z</time>
      </trkpt>
      <trkpt lat="48.36709" lon="2.7553">
        <ele>130</ele>
        <time>2014-05-08T09:47:46.683Z</time>
      </trkpt>
      <trkpt lat="48.3671" lon="2.75518">
        <ele>130</ele>
        <time>2014-05-08T09:47:50.688Z</time>
      </trkpt>
      <trkpt lat="48.36711" lon="2.75515">
        <ele>130</ele>
        <time>2014-05-08T09:47:51.684Z</time>
      </trkpt>
      <trkpt lat="48.36715" lon="2.75505">
        <ele>131</ele>
        <time>2014-05-08T09:47:56.682Z</time>
      </trkpt>
      <trkpt lat="48.36716" lon="2.75503">
        <ele>131</ele>
        <time>2014-05-08T09:47:57.668Z</time>
      </trkpt>
      <trkpt lat="48.36721" lon="2.75493">
        <ele>132</ele>
        <time>2014-05-08T09:48:01.694Z</time>
      </trkpt>
      <trkpt lat="48.36722" lon="2.75491">
        <ele>132</ele>
        <time>2014-05-08T09:48:02.680Z</time>
      </trkpt>
      <trkpt lat="48.36726" lon="2.75481">
        <ele>132</ele>
        <time>2014-05-08T09:48:06.672Z</time>
      </trkpt>
      <trkpt lat="48.36727" lon="2.75479">
        <ele>132</ele>
        <time>2014-05-08T09:48:07.683Z</time>
      </trkpt>
      <trkpt lat="48.36732" lon="2.75469">
        <ele>132</ele>
        <time>2014-05-08T09:48:11.677Z</time>
      </trkpt>
      <trkpt lat="48.36732" lon="2.75466">
        <ele>132</ele>
        <time>2014-05-08T09:48:12.664Z</time>
      </trkpt>
      <trkpt lat="48.36735" lon="2.75454">
        <ele>133</ele>
        <time>2014-05-08T09:48:16.681Z</time>
      </trkpt>
      <trkpt lat="48.36735" lon="2.75451">
        <ele>133</ele>
        <time>2014-05-08T09:48:17.668Z</time>
      </trkpt>
      <trkpt lat="48.36736" lon="2.75441">
        <ele>133</ele>
        <time>2014-05-08T09:48:20.680Z</time>
      </trkpt>
      <trkpt lat="48.36736" lon="2.75437">
        <ele>133</ele>
        <time>2014-05-08T09:48:21.673Z</time>
      </trkpt>
      <trkpt lat="48.36737" lon="2.75424">
        <ele>135</ele>
        <time>2014-05-08T09:48:25.688Z</time>
      </trkpt>
      <trkpt lat="48.36737" lon="2.7542">
        <ele>135</ele>
        <time>2014-05-08T09:48:26.672Z</time>
      </trkpt>
      <trkpt lat="48.36738" lon="2.7541">
        <ele>135</ele>
        <time>2014-05-08T09:48:29.676Z</time>
      </trkpt>
      <trkpt lat="48.36738" lon="2.75407">
        <ele>134</ele>
        <time>2014-05-08T09:48:30.662Z</time>
      </trkpt>
      <trkpt lat="48.36739" lon="2.75394">
        <ele>133</ele>
        <time>2014-05-08T09:48:34.662Z</time>
      </trkpt>
      <trkpt lat="48.36739" lon="2.75391">
        <ele>133</ele>
        <time>2014-05-08T09:48:35.660Z</time>
      </trkpt>
      <trkpt lat="48.36739" lon="2.75378">
        <ele>133</ele>
        <time>2014-05-08T09:48:39.689Z</time>
      </trkpt>
      <trkpt lat="48.36739" lon="2.75376">
        <ele>133</ele>
        <time>2014-05-08T09:48:40.682Z</time>
      </trkpt>
      <trkpt lat="48.36738" lon="2.75363">
        <ele>133</ele>
        <time>2014-05-08T09:48:45.678Z</time>
      </trkpt>
      <trkpt lat="48.36738" lon="2.75361">
        <ele>133</ele>
        <time>2014-05-08T09:48:46.669Z</time>
      </trkpt>
      <trkpt lat="48.36739" lon="2.75349">
        <ele>134</ele>
        <time>2014-05-08T09:48:50.678Z</time>
      </trkpt>
      <trkpt lat="48.3674" lon="2.75346">
        <ele>134</ele>
        <time>2014-05-08T09:48:51.681Z</time>
      </trkpt>
      <trkpt lat="48.36741" lon="2.75334">
        <ele>135</ele>
        <time>2014-05-08T09:48:55.688Z</time>
      </trkpt>
      <trkpt lat="48.36742" lon="2.7533">
        <ele>135</ele>
        <time>2014-05-08T09:48:56.670Z</time>
      </trkpt>
      <trkpt lat="48.36744" lon="2.75319">
        <ele>134</ele>
        <time>2014-05-08T09:49:00.692Z</time>
      </trkpt>
      <trkpt lat="48.36744" lon="2.75316">
        <ele>134</ele>
        <time>2014-05-08T09:49:01.681Z</time>
      </trkpt>
      <trkpt lat="48.36746" lon="2.75303">
        <ele>134</ele>
        <time>2014-05-08T09:49:06.676Z</time>
      </trkpt>
      <trkpt lat="48.36746" lon="2.75301">
        <ele>133</ele>
        <time>2014-05-08T09:49:07.676Z</time>
      </trkpt>
      <trkpt lat="48.36747" lon="2.75288">
        <ele>133</ele>
        <time>2014-05-08T09:49:12.681Z</time>
      </trkpt>
      <trkpt lat="48.36748" lon="2.75286">
        <ele>133</ele>
        <time>2014-05-08T09:49:13.682Z</time>
      </trkpt>
      <trkpt lat="48.36749" lon="2.75274">
        <ele>134</ele>
        <time>2014-05-08T09:49:18.689Z</time>
      </trkpt>
      <trkpt lat="48.36749" lon="2.75271">
        <ele>134</ele>
        <time>2014-05-08T09:49:19.689Z</time>
      </trkpt>
      <trkpt lat="48.36747" lon="2.7526">
        <ele>135</ele>
        <time>2014-05-08T09:49:23.689Z</time>
      </trkpt>
      <trkpt lat="48.36746" lon="2.75258">
        <ele>135</ele>
        <time>2014-05-08T09:49:24.675Z</time>
      </trkpt>
      <trkpt lat="48.36739" lon="2.75254">
        <ele>134</ele>
        <time>2014-05-08T09:49:27.676Z</time>
      </trkpt>
      <trkpt lat="48.36736" lon="2.75253">
        <ele>134</ele>
        <time>2014-05-08T09:49:28.654Z</time>
      </trkpt>
      <trkpt lat="48.36729" lon="2.75251">
        <ele>133</ele>
        <time>2014-05-08T09:49:31.695Z</time>
      </trkpt>
      <trkpt lat="48.36727" lon="2.75251">
        <ele>133</ele>
        <time>2014-05-08T09:49:32.679Z</time>
      </trkpt>
      <trkpt lat="48.36719" lon="2.75251">
        <ele>133</ele>
        <time>2014-05-08T09:49:35.700Z</time>
      </trkpt>
      <trkpt lat="48.36717" lon="2.75251">
        <ele>132</ele>
        <time>2014-05-08T09:49:36.670Z</time>
      </trkpt>
      <trkpt lat="48.3671" lon="2.75254">
        <ele>132</ele>
        <time>2014-05-08T09:49:39.691Z</time>
      </trkpt>
      <trkpt lat="48.36707" lon="2.75255">
        <ele>132</ele>
        <time>2014-05-08T09:49:40.680Z</time>
      </trkpt>
      <trkpt lat="48.36701" lon="2.75259">
        <ele>131</ele>
        <time>2014-05-08T09:49:43.714Z</time>
      </trkpt>
      <trkpt lat="48.36699" lon="2.7526">
        <ele>131</ele>
        <time>2014-05-08T09:49:44.677Z</time>
      </trkpt>
      <trkpt lat="48.3669" lon="2.75264">
        <ele>131</ele>
        <time>2014-05-08T09:49:48.717Z</time>
      </trkpt>
      <trkpt lat="48.36688" lon="2.75265">
        <ele>131</ele>
        <time>2014-05-08T09:49:49.698Z</time>
      </trkpt>
      <trkpt lat="48.36681" lon="2.75269">
        <ele>130</ele>
        <time>2014-05-08T09:49:52.694Z</time>
      </trkpt>
      <trkpt lat="48.36679" lon="2.7527">
        <ele>130</ele>
        <time>2014-05-08T09:49:53.681Z</time>
      </trkpt>
      <trkpt lat="48.36672" lon="2.75275">
        <ele>130</ele>
        <time>2014-05-08T09:49:56.699Z</time>
      </trkpt>
      <trkpt lat="48.3667" lon="2.75276">
        <ele>130</ele>
        <time>2014-05-08T09:49:57.678Z</time>
      </trkpt>
      <trkpt lat="48.36662" lon="2.75282">
        <ele>123</ele>
        <time>2014-05-08T09:50:01.696Z</time>
      </trkpt>
      <trkpt lat="48.36661" lon="2.75284">
        <ele>123</ele>
        <time>2014-05-08T09:50:02.677Z</time>
      </trkpt>
      <trkpt lat="48.36654" lon="2.75289">
        <ele>122</ele>
        <time>2014-05-08T09:50:06.704Z</time>
      </trkpt>
      <trkpt lat="48.36652" lon="2.7529">
        <ele>122</ele>
        <time>2014-05-08T09:50:07.689Z</time>
      </trkpt>
      <trkpt lat="48.36645" lon="2.75293">
        <ele>122</ele>
        <time>2014-05-08T09:50:11.677Z</time>
      </trkpt>
      <trkpt lat="48.36643" lon="2.75294">
        <ele>121</ele>
        <time>2014-05-08T09:50:12.664Z</time>
      </trkpt>
      <trkpt lat="48.36636" lon="2.75297">
        <ele>121</ele>
        <time>2014-05-08T09:50:15.642Z</time>
      </trkpt>
      <trkpt lat="48.36634" lon="2.75298">
        <ele>121</ele>
        <time>2014-05-08T09:50:16.647Z</time>
      </trkpt>
      <trkpt lat="48.36625" lon="2.75301">
        <ele>120</ele>
        <time>2014-05-08T09:50:20.628Z</time>
      </trkpt>
      <trkpt lat="48.36623" lon="2.75301">
        <ele>120</ele>
        <time>2014-05-08T09:50:21.638Z</time>
      </trkpt>
      <trkpt lat="48.36615" lon="2.75303">
        <ele>119</ele>
        <time>2014-05-08T09:50:25.693Z</time>
      </trkpt>
      <trkpt lat="48.36612" lon="2.75304">
        <ele>119</ele>
        <time>2014-05-08T09:50:26.683Z</time>
      </trkpt>
      <trkpt lat="48.36605" lon="2.75305">
        <ele>118</ele>
        <time>2014-05-08T09:50:29.699Z</time>
      </trkpt>
      <trkpt lat="48.36603" lon="2.75305">
        <ele>118</ele>
        <time>2014-05-08T09:50:30.673Z</time>
      </trkpt>
      <trkpt lat="48.36594" lon="2.75306">
        <ele>117</ele>
        <time>2014-05-08T09:50:34.672Z</time>
      </trkpt>
      <trkpt lat="48.36591" lon="2.75306">
        <ele>117</ele>
        <time>2014-05-08T09:50:35.679Z</time>
      </trkpt>
      <trkpt lat="48.36583" lon="2.75307">
        <ele>111</ele>
        <time>2014-05-08T09:50:39.662Z</time>
      </trkpt>
      <trkpt lat="48.36581" lon="2.75307">
        <ele>110</ele>
        <time>2014-05-08T09:50:40.681Z</time>
      </trkpt>
      <trkpt lat="48.36573" lon="2.75311">
        <ele>110</ele>
        <time>2014-05-08T09:50:44.684Z</time>
      </trkpt>
      <trkpt lat="48.3657" lon="2.75311">
        <ele>110</ele>
        <time>2014-05-08T09:50:45.675Z</time>
      </trkpt>
      <trkpt lat="48.36562" lon="2.75315">
        <ele>110</ele>
        <time>2014-05-08T09:50:48.678Z</time>
      </trkpt>
      <trkpt lat="48.3656" lon="2.75316">
        <ele>110</ele>
        <time>2014-05-08T09:50:49.680Z</time>
      </trkpt>
      <trkpt lat="48.36552" lon="2.75318">
        <ele>109</ele>
        <time>2014-05-08T09:50:52.691Z</time>
      </trkpt>
      <trkpt lat="48.3655" lon="2.75319">
        <ele>109</ele>
        <time>2014-05-08T09:50:53.674Z</time>
      </trkpt>
      <trkpt lat="48.36543" lon="2.75321">
        <ele>108</ele>
        <time>2014-05-08T09:50:56.686Z</time>
      </trkpt>
      <trkpt lat="48.36541" lon="2.75321">
        <ele>108</ele>
        <time>2014-05-08T09:50:57.670Z</time>
      </trkpt>
      <trkpt lat="48.36534" lon="2.75323">
        <ele>107</ele>
        <time>2014-05-08T09:51:00.662Z</time>
      </trkpt>
      <trkpt lat="48.36532" lon="2.75324">
        <ele>107</ele>
        <time>2014-05-08T09:51:01.683Z</time>
      </trkpt>
      <trkpt lat="48.36525" lon="2.75326">
        <ele>106</ele>
        <time>2014-05-08T09:51:04.693Z</time>
      </trkpt>
      <trkpt lat="48.36522" lon="2.75326">
        <ele>106</ele>
        <time>2014-05-08T09:51:05.667Z</time>
      </trkpt>
      <trkpt lat="48.36515" lon="2.75328">
        <ele>105</ele>
        <time>2014-05-08T09:51:08.679Z</time>
      </trkpt>
      <trkpt lat="48.36512" lon="2.75328">
        <ele>105</ele>
        <time>2014-05-08T09:51:09.659Z</time>
      </trkpt>
      <trkpt lat="48.36505" lon="2.75331">
        <ele>103</ele>
        <time>2014-05-08T09:51:12.693Z</time>
      </trkpt>
      <trkpt lat="48.36503" lon="2.75332">
        <ele>103</ele>
        <time>2014-05-08T09:51:13.666Z</time>
      </trkpt>
      <trkpt lat="48.36496" lon="2.75334">
        <ele>102</ele>
        <time>2014-05-08T09:51:16.690Z</time>
      </trkpt>
      <trkpt lat="48.36494" lon="2.75335">
        <ele>102</ele>
        <time>2014-05-08T09:51:17.671Z</time>
      </trkpt>
      <trkpt lat="48.36487" lon="2.75338">
        <ele>102</ele>
        <time>2014-05-08T09:51:20.709Z</time>
      </trkpt>
      <trkpt lat="48.36484" lon="2.75339">
        <ele>102</ele>
        <time>2014-05-08T09:51:21.682Z</time>
      </trkpt>
      <trkpt lat="48.36477" lon="2.75343">
        <ele>102</ele>
        <time>2014-05-08T09:51:24.673Z</time>
      </trkpt>
      <trkpt lat="48.36475" lon="2.75345">
        <ele>102</ele>
        <time>2014-05-08T09:51:25.690Z</time>
      </trkpt>
      <trkpt lat="48.36469" lon="2.75349">
        <ele>102</ele>
        <time>2014-05-08T09:51:28.682Z</time>
      </trkpt>
      <trkpt lat="48.36467" lon="2.75351">
        <ele>102</ele>
        <time>2014-05-08T09:51:29.674Z</time>
      </trkpt>
      <trkpt lat="48.36459" lon="2.75357">
        <ele>102</ele>
        <time>2014-05-08T09:51:33.696Z</time>
      </trkpt>
      <trkpt lat="48.36458" lon="2.75358">
        <ele>102</ele>
        <time>2014-05-08T09:51:34.671Z</time>
      </trkpt>
      <trkpt lat="48.3645" lon="2.75364">
        <ele>102</ele>
        <time>2014-05-08T09:51:38.675Z</time>
      </trkpt>
      <trkpt lat="48.36448" lon="2.75366">
        <ele>102</ele>
        <time>2014-05-08T09:51:39.671Z</time>
      </trkpt>
      <trkpt lat="48.36442" lon="2.75372">
        <ele>102</ele>
        <time>2014-05-08T09:51:43.682Z</time>
      </trkpt>
      <trkpt lat="48.3644" lon="2.75373">
        <ele>102</ele>
        <time>2014-05-08T09:51:44.672Z</time>
      </trkpt>
      <trkpt lat="48.36433" lon="2.75379">
        <ele>101</ele>
        <time>2014-05-08T09:51:49.689Z</time>
      </trkpt>
      <trkpt lat="48.36432" lon="2.75381">
        <ele>101</ele>
        <time>2014-05-08T09:51:50.671Z</time>
      </trkpt>
      <trkpt lat="48.36425" lon="2.75385">
        <ele>101</ele>
        <time>2014-05-08T09:51:54.697Z</time>
      </trkpt>
      <trkpt lat="48.36423" lon="2.75386">
        <ele>101</ele>
        <time>2014-05-08T09:51:55.688Z</time>
      </trkpt>
      <trkpt lat="48.36416" lon="2.7539">
        <ele>102</ele>
        <time>2014-05-08T09:51:59.673Z</time>
      </trkpt>
      <trkpt lat="48.36415" lon="2.75391">
        <ele>102</ele>
        <time>2014-05-08T09:52:00.675Z</time>
      </trkpt>
      <trkpt lat="48.36408" lon="2.75394">
        <ele>102</ele>
        <time>2014-05-08T09:52:04.682Z</time>
      </trkpt>
      <trkpt lat="48.36406" lon="2.75395">
        <ele>102</ele>
        <time>2014-05-08T09:52:05.672Z</time>
      </trkpt>
      <trkpt lat="48.36399" lon="2.754">
        <ele>102</ele>
        <time>2014-05-08T09:52:09.668Z</time>
      </trkpt>
      <trkpt lat="48.36397" lon="2.75402">
        <ele>102</ele>
        <time>2014-05-08T09:52:10.680Z</time>
      </trkpt>
      <trkpt lat="48.3639" lon="2.75407">
        <ele>102</ele>
        <time>2014-05-08T09:52:14.690Z</time>
      </trkpt>
      <trkpt lat="48.36388" lon="2.75408">
        <ele>102</ele>
        <time>2014-05-08T09:52:15.682Z</time>
      </trkpt>
      <trkpt lat="48.36381" lon="2.75415">
        <ele>102</ele>
        <time>2014-05-08T09:52:20.699Z</time>
      </trkpt>
      <trkpt lat="48.3638" lon="2.75417">
        <ele>102</ele>
        <time>2014-05-08T09:52:21.674Z</time>
      </trkpt>
      <trkpt lat="48.36372" lon="2.75423">
        <ele>100</ele>
        <time>2014-05-08T09:52:26.713Z</time>
      </trkpt>
      <trkpt lat="48.3637" lon="2.75424">
        <ele>100</ele>
        <time>2014-05-08T09:52:27.671Z</time>
      </trkpt>
      <trkpt lat="48.36363" lon="2.7543">
        <ele>100</ele>
        <time>2014-05-08T09:52:32.678Z</time>
      </trkpt>
      <trkpt lat="48.36362" lon="2.75432">
        <ele>100</ele>
        <time>2014-05-08T09:52:33.673Z</time>
      </trkpt>
      <trkpt lat="48.36356" lon="2.75438">
        <ele>101</ele>
        <time>2014-05-08T09:52:38.694Z</time>
      </trkpt>
      <trkpt lat="48.36354" lon="2.75439">
        <ele>101</ele>
        <time>2014-05-08T09:52:39.680Z</time>
      </trkpt>
      <trkpt lat="48.36348" lon="2.75444">
        <ele>101</ele>
        <time>2014-05-08T09:52:43.712Z</time>
      </trkpt>
      <trkpt lat="48.36346" lon="2.75446">
        <ele>101</ele>
        <time>2014-05-08T09:52:44.677Z</time>
      </trkpt>
      <trkpt lat="48.36338" lon="2.7545">
        <ele>100</ele>
        <time>2014-05-08T09:52:48.693Z</time>
      </trkpt>
      <trkpt lat="48.36337" lon="2.75451">
        <ele>100</ele>
        <time>2014-05-08T09:52:49.720Z</time>
      </trkpt>
      <trkpt lat="48.36329" lon="2.75452">
        <ele>103</ele>
        <time>2014-05-08T09:52:54.692Z</time>
      </trkpt>
      <trkpt lat="48.36328" lon="2.75453">
        <ele>103</ele>
        <time>2014-05-08T09:52:55.710Z</time>
      </trkpt>
      <trkpt lat="48.36321" lon="2.75458">
        <ele>103</ele>
        <time>2014-05-08T09:52:59.685Z</time>
      </trkpt>
      <trkpt lat="48.36318" lon="2.75459">
        <ele>103</ele>
        <time>2014-05-08T09:53:00.676Z</time>
      </trkpt>
      <trkpt lat="48.36312" lon="2.75465">
        <ele>103</ele>
        <time>2014-05-08T09:53:03.706Z</time>
      </trkpt>
      <trkpt lat="48.3631" lon="2.75467">
        <ele>103</ele>
        <time>2014-05-08T09:53:04.689Z</time>
      </trkpt>
      <trkpt lat="48.36304" lon="2.75474">
        <ele>103</ele>
        <time>2014-05-08T09:53:07.708Z</time>
      </trkpt>
      <trkpt lat="48.36303" lon="2.75476">
        <ele>103</ele>
        <time>2014-05-08T09:53:08.681Z</time>
      </trkpt>
      <trkpt lat="48.36297" lon="2.75482">
        <ele>103</ele>
        <time>2014-05-08T09:53:11.686Z</time>
      </trkpt>
      <trkpt lat="48.36295" lon="2.75484">
        <ele>103</ele>
        <time>2014-05-08T09:53:12.671Z</time>
      </trkpt>
      <trkpt lat="48.36288" lon="2.75492">
        <ele>103</ele>
        <time>2014-05-08T09:53:16.700Z</time>
      </trkpt>
      <trkpt lat="48.36286" lon="2.75494">
        <ele>103</ele>
        <time>2014-05-08T09:53:17.674Z</time>
      </trkpt>
      <trkpt lat="48.3628" lon="2.75499">
        <ele>103</ele>
        <time>2014-05-08T09:53:20.645Z</time>
      </trkpt>
      <trkpt lat="48.36278" lon="2.75501">
        <ele>102</ele>
        <time>2014-05-08T09:53:21.684Z</time>
      </trkpt>
      <trkpt lat="48.36271" lon="2.75508">
        <ele>103</ele>
        <time>2014-05-08T09:53:25.719Z</time>
      </trkpt>
      <trkpt lat="48.36269" lon="2.7551">
        <ele>103</ele>
        <time>2014-05-08T09:53:26.685Z</time>
      </trkpt>
      <trkpt lat="48.36261" lon="2.75516">
        <ele>103</ele>
        <time>2014-05-08T09:53:30.686Z</time>
      </trkpt>
      <trkpt lat="48.36259" lon="2.75517">
        <ele>103</ele>
        <time>2014-05-08T09:53:31.693Z</time>
      </trkpt>
      <trkpt lat="48.36253" lon="2.75524">
        <ele>103</ele>
        <time>2014-05-08T09:53:35.681Z</time>
      </trkpt>
      <trkpt lat="48.36251" lon="2.75525">
        <ele>103</ele>
        <time>2014-05-08T09:53:36.672Z</time>
      </trkpt>
      <trkpt lat="48.36244" lon="2.75531">
        <ele>104</ele>
        <time>2014-05-08T09:53:40.677Z</time>
      </trkpt>
      <trkpt lat="48.36243" lon="2.75532">
        <ele>104</ele>
        <time>2014-05-08T09:53:41.639Z</time>
      </trkpt>
      <trkpt lat="48.36236" lon="2.75539">
        <ele>104</ele>
        <time>2014-05-08T09:53:45.683Z</time>
      </trkpt>
      <trkpt lat="48.36235" lon="2.7554">
        <ele>104</ele>
        <time>2014-05-08T09:53:46.674Z</time>
      </trkpt>
      <trkpt lat="48.36229" lon="2.75547">
        <ele>104</ele>
        <time>2014-05-08T09:53:50.696Z</time>
      </trkpt>
      <trkpt lat="48.36227" lon="2.75549">
        <ele>104</ele>
        <time>2014-05-08T09:53:51.678Z</time>
      </trkpt>
      <trkpt lat="48.36221" lon="2.75558">
        <ele>104</ele>
        <time>2014-05-08T09:53:55.712Z</time>
      </trkpt>
      <trkpt lat="48.36219" lon="2.7556">
        <ele>104</ele>
        <time>2014-05-08T09:53:56.682Z</time>
      </trkpt>
      <trkpt lat="48.36212" lon="2.75567">
        <ele>104</ele>
        <time>2014-05-08T09:54:00.693Z</time>
      </trkpt>
      <trkpt lat="48.3621" lon="2.75568">
        <ele>104</ele>
        <time>2014-05-08T09:54:01.695Z</time>
      </trkpt>
      <trkpt lat="48.36202" lon="2.75567">
        <ele>104</ele>
        <time>2014-05-08T09:54:05.684Z</time>
      </trkpt>
      <trkpt lat="48.36201" lon="2.75565">
        <ele>104</ele>
        <time>2014-05-08T09:54:06.673Z</time>
      </trkpt>
      <trkpt lat="48.36202" lon="2.75552">
        <ele>104</ele>
        <time>2014-05-08T09:54:11.680Z</time>
      </trkpt>
      <trkpt lat="48.36203" lon="2.75549">
        <ele>104</ele>
        <time>2014-05-08T09:54:12.673Z</time>
      </trkpt>
      <trkpt lat="48.36204" lon="2.75537">
        <ele>104</ele>
        <time>2014-05-08T09:54:17.684Z</time>
      </trkpt>
      <trkpt lat="48.36204" lon="2.75534">
        <ele>104</ele>
        <time>2014-05-08T09:54:18.683Z</time>
      </trkpt>
      <trkpt lat="48.36206" lon="2.75522">
        <ele>105</ele>
        <time>2014-05-08T09:54:23.689Z</time>
      </trkpt>
      <trkpt lat="48.36206" lon="2.7552">
        <ele>105</ele>
        <time>2014-05-08T09:54:24.688Z</time>
      </trkpt>
      <trkpt lat="48.36208" lon="2.75507">
        <ele>105</ele>
        <time>2014-05-08T09:54:30.677Z</time>
      </trkpt>
      <trkpt lat="48.36208" lon="2.75505">
        <ele>105</ele>
        <time>2014-05-08T09:54:31.693Z</time>
      </trkpt>
      <trkpt lat="48.36208" lon="2.75491">
        <ele>107</ele>
        <time>2014-05-08T09:54:37.714Z</time>
      </trkpt>
      <trkpt lat="48.36208" lon="2.75489">
        <ele>107</ele>
        <time>2014-05-08T09:54:38.679Z</time>
      </trkpt>
      <trkpt lat="48.36209" lon="2.75477">
        <ele>107</ele>
        <time>2014-05-08T09:54:44.691Z</time>
      </trkpt>
      <trkpt lat="48.36209" lon="2.75474">
        <ele>107</ele>
        <time>2014-05-08T09:54:45.685Z</time>
      </trkpt>
      <trkpt lat="48.36211" lon="2.75464">
        <ele>107</ele>
        <time>2014-05-08T09:54:49.707Z</time>
      </trkpt>
      <trkpt lat="48.36212" lon="2.75461">
        <ele>107</ele>
        <time>2014-05-08T09:54:50.686Z</time>
      </trkpt>
      <trkpt lat="48.36214" lon="2.7545">
        <ele>107</ele>
        <time>2014-05-08T09:54:54.746Z</time>
      </trkpt>
      <trkpt lat="48.36214" lon="2.75447">
        <ele>107</ele>
        <time>2014-05-08T09:54:55.696Z</time>
      </trkpt>
      <trkpt lat="48.36216" lon="2.75435">
        <ele>107</ele>
        <time>2014-05-08T09:55:01.696Z</time>
      </trkpt>
      <trkpt lat="48.36217" lon="2.75433">
        <ele>107</ele>
        <time>2014-05-08T09:55:02.670Z</time>
      </trkpt>
      <trkpt lat="48.36218" lon="2.75422">
        <ele>107</ele>
        <time>2014-05-08T09:55:06.694Z</time>
      </trkpt>
      <trkpt lat="48.36219" lon="2.75419">
        <ele>107</ele>
        <time>2014-05-08T09:55:07.680Z</time>
      </trkpt>
      <trkpt lat="48.36221" lon="2.75409">
        <ele>108</ele>
        <time>2014-05-08T09:55:10.702Z</time>
      </trkpt>
      <trkpt lat="48.36221" lon="2.75406">
        <ele>109</ele>
        <time>2014-05-08T09:55:11.673Z</time>
      </trkpt>
      <trkpt lat="48.36223" lon="2.75396">
        <ele>109</ele>
        <time>2014-05-08T09:55:14.671Z</time>
      </trkpt>
      <trkpt lat="48.36224" lon="2.75392">
        <ele>109</ele>
        <time>2014-05-08T09:55:15.668Z</time>
      </trkpt>
      <trkpt lat="48.36225" lon="2.75382">
        <ele>109</ele>
        <time>2014-05-08T09:55:18.671Z</time>
      </trkpt>
      <trkpt lat="48.36226" lon="2.75379">
        <ele>109</ele>
        <time>2014-05-08T09:55:19.691Z</time>
      </trkpt>
      <trkpt lat="48.36227" lon="2.75366">
        <ele>109</ele>
        <time>2014-05-08T09:55:23.687Z</time>
      </trkpt>
      <trkpt lat="48.36227" lon="2.75363">
        <ele>109</ele>
        <time>2014-05-08T09:55:24.669Z</time>
      </trkpt>
      <trkpt lat="48.36229" lon="2.75352">
        <ele>109</ele>
        <time>2014-05-08T09:55:28.674Z</time>
      </trkpt>
      <trkpt lat="48.36229" lon="2.7535">
        <ele>109</ele>
        <time>2014-05-08T09:55:29.676Z</time>
      </trkpt>
      <trkpt lat="48.3623" lon="2.75337">
        <ele>109</ele>
        <time>2014-05-08T09:55:34.675Z</time>
      </trkpt>
      <trkpt lat="48.3623" lon="2.75334">
        <ele>109</ele>
        <time>2014-05-08T09:55:35.670Z</time>
      </trkpt>
      <trkpt lat="48.36231" lon="2.75322">
        <ele>111</ele>
        <time>2014-05-08T09:55:40.722Z</time>
      </trkpt>
      <trkpt lat="48.36231" lon="2.75319">
        <ele>111</ele>
        <time>2014-05-08T09:55:41.668Z</time>
      </trkpt>
      <trkpt lat="48.36234" lon="2.75309">
        <ele>112</ele>
        <time>2014-05-08T09:55:45.673Z</time>
      </trkpt>
      <trkpt lat="48.36234" lon="2.75306">
        <ele>112</ele>
        <time>2014-05-08T09:55:46.676Z</time>
      </trkpt>
      <trkpt lat="48.36236" lon="2.75293">
        <ele>112</ele>
        <time>2014-05-08T09:55:51.721Z</time>
      </trkpt>
      <trkpt lat="48.36236" lon="2.7529">
        <ele>112</ele>
        <time>2014-05-08T09:55:52.680Z</time>
      </trkpt>
      <trkpt lat="48.36238" lon="2.75279">
        <ele>112</ele>
        <time>2014-05-08T09:55:56.687Z</time>
      </trkpt>
      <trkpt lat="48.36238" lon="2.75277">
        <ele>112</ele>
        <time>2014-05-08T09:55:57.674Z</time>
      </trkpt>
      <trkpt lat="48.36241" lon="2.75266">
        <ele>112</ele>
        <time>2014-05-08T09:56:01.691Z</time>
      </trkpt>
      <trkpt lat="48.36241" lon="2.75263">
        <ele>111</ele>
        <time>2014-05-08T09:56:02.669Z</time>
      </trkpt>
      <trkpt lat="48.36243" lon="2.75251">
        <ele>111</ele>
        <time>2014-05-08T09:56:06.682Z</time>
      </trkpt>
      <trkpt lat="48.36244" lon="2.75249">
        <ele>112</ele>
        <time>2014-05-08T09:56:07.686Z</time>
      </trkpt>
      <trkpt lat="48.36246" lon="2.75237">
        <ele>113</ele>
        <time>2014-05-08T09:56:12.690Z</time>
      </trkpt>
      <trkpt lat="48.36246" lon="2.75234">
        <ele>113</ele>
        <time>2014-05-08T09:56:13.696Z</time>
      </trkpt>
      <trkpt lat="48.36248" lon="2.75221">
        <ele>114</ele>
        <time>2014-05-08T09:56:18.677Z</time>
      </trkpt>
      <trkpt lat="48.36248" lon="2.75219">
        <ele>114</ele>
        <time>2014-05-08T09:56:19.700Z</time>
      </trkpt>
      <trkpt lat="48.3625" lon="2.75207">
        <ele>115</ele>
        <time>2014-05-08T09:56:23.689Z</time>
      </trkpt>
      <trkpt lat="48.3625" lon="2.75204">
        <ele>111</ele>
        <time>2014-05-08T09:56:24.676Z</time>
      </trkpt>
      <trkpt lat="48.36252" lon="2.75192">
        <ele>111</ele>
        <time>2014-05-08T09:56:28.683Z</time>
      </trkpt>
      <trkpt lat="48.36252" lon="2.75188">
        <ele>111</ele>
        <time>2014-05-08T09:56:29.668Z</time>
      </trkpt>
      <trkpt lat="48.36254" lon="2.75175">
        <ele>112</ele>
        <time>2014-05-08T09:56:34.671Z</time>
      </trkpt>
      <trkpt lat="48.36254" lon="2.75173">
        <ele>112</ele>
        <time>2014-05-08T09:56:35.674Z</time>
      </trkpt>
      <trkpt lat="48.3625" lon="2.75162">
        <ele>113</ele>
        <time>2014-05-08T09:56:41.692Z</time>
      </trkpt>
      <trkpt lat="48.36249" lon="2.75161">
        <ele>115</ele>
        <time>2014-05-08T09:56:42.685Z</time>
      </trkpt>
      <trkpt lat="48.36241" lon="2.7516">
        <ele>116</ele>
        <time>2014-05-08T09:56:48.680Z</time>
      </trkpt>
      <trkpt lat="48.3624" lon="2.7516">
        <ele>116</ele>
        <time>2014-05-08T09:56:49.706Z</time>
      </trkpt>
      <trkpt lat="48.36232" lon="2.7516">
        <ele>117</ele>
        <time>2014-05-08T09:56:54.684Z</time>
      </trkpt>
      <trkpt lat="48.3623" lon="2.7516">
        <ele>118</ele>
        <time>2014-05-08T09:56:55.689Z</time>
      </trkpt>
      <trkpt lat="48.36223" lon="2.75156">
        <ele>119</ele>
        <time>2014-05-08T09:57:00.676Z</time>
      </trkpt>
      <trkpt lat="48.36221" lon="2.75156">
        <ele>119</ele>
        <time>2014-05-08T09:57:01.707Z</time>
      </trkpt>
      <trkpt lat="48.36213" lon="2.75151">
        <ele>120</ele>
        <time>2014-05-08T09:57:07.689Z</time>
      </trkpt>
      <trkpt lat="48.36211" lon="2.75149">
        <ele>120</ele>
        <time>2014-05-08T09:57:08.681Z</time>
      </trkpt>
      <trkpt lat="48.36204" lon="2.75145">
        <ele>121</ele>
        <time>2014-05-08T09:57:13.707Z</time>
      </trkpt>
      <trkpt lat="48.36201" lon="2.75145">
        <ele>121</ele>
        <time>2014-05-08T09:57:14.665Z</time>
      </trkpt>
      <trkpt lat="48.36193" lon="2.75142">
        <ele>122</ele>
        <time>2014-05-08T09:57:18.679Z</time>
      </trkpt>
      <trkpt lat="48.36191" lon="2.75142">
        <ele>122</ele>
        <time>2014-05-08T09:57:19.692Z</time>
      </trkpt>
      <trkpt lat="48.36182" lon="2.75139">
        <ele>122</ele>
        <time>2014-05-08T09:57:24.698Z</time>
      </trkpt>
      <trkpt lat="48.36181" lon="2.75139">
        <ele>122</ele>
        <time>2014-05-08T09:57:25.699Z</time>
      </trkpt>
      <trkpt lat="48.36174" lon="2.75134">
        <ele>123</ele>
        <time>2014-05-08T09:57:29.688Z</time>
      </trkpt>
      <trkpt lat="48.36172" lon="2.75133">
        <ele>123</ele>
        <time>2014-05-08T09:57:30.682Z</time>
      </trkpt>
      <trkpt lat="48.36166" lon="2.75128">
        <ele>126</ele>
        <time>2014-05-08T09:57:34.695Z</time>
      </trkpt>
      <trkpt lat="48.36164" lon="2.75126">
        <ele>126</ele>
        <time>2014-05-08T09:57:35.678Z</time>
      </trkpt>
      <trkpt lat="48.36159" lon="2.75116">
        <ele>126</ele>
        <time>2014-05-08T09:57:39.694Z</time>
      </trkpt>
      <trkpt lat="48.36158" lon="2.75114">
        <ele>127</ele>
        <time>2014-05-08T09:57:40.676Z</time>
      </trkpt>
      <trkpt lat="48.36157" lon="2.75102">
        <ele>127</ele>
        <time>2014-05-08T09:57:45.688Z</time>
      </trkpt>
      <trkpt lat="48.36156" lon="2.75099">
        <ele>127</ele>
        <time>2014-05-08T09:57:46.680Z</time>
      </trkpt>
      <trkpt lat="48.36155" lon="2.75087">
        <ele>127</ele>
        <time>2014-05-08T09:57:51.679Z</time>
      </trkpt>
      <trkpt lat="48.36155" lon="2.75084">
        <ele>127</ele>
        <time>2014-05-08T09:57:52.689Z</time>
      </trkpt>
      <trkpt lat="48.36155" lon="2.75072">
        <ele>128</ele>
        <time>2014-05-08T09:57:58.675Z</time>
      </trkpt>
      <trkpt lat="48.36156" lon="2.7507">
        <ele>128</ele>
        <time>2014-05-08T09:57:59.677Z</time>
      </trkpt>
      <trkpt lat="48.36157" lon="2.75058">
        <ele>128</ele>
        <time>2014-05-08T09:58:05.642Z</time>
      </trkpt>
      <trkpt lat="48.36158" lon="2.75055">
        <ele>128</ele>
        <time>2014-05-08T09:58:06.646Z</time>
      </trkpt>
      <trkpt lat="48.36159" lon="2.75042">
        <ele>128</ele>
        <time>2014-05-08T09:58:11.691Z</time>
      </trkpt>
      <trkpt lat="48.36159" lon="2.7504">
        <ele>128</ele>
        <time>2014-05-08T09:58:12.670Z</time>
      </trkpt>
      <trkpt lat="48.36159" lon="2.75026">
        <ele>129</ele>
        <time>2014-05-08T09:58:17.672Z</time>
      </trkpt>
      <trkpt lat="48.36159" lon="2.75024">
        <ele>129</ele>
        <time>2014-05-08T09:58:18.664Z</time>
      </trkpt>
      <trkpt lat="48.36157" lon="2.75012">
        <ele>130</ele>
        <time>2014-05-08T09:58:23.673Z</time>
      </trkpt>
      <trkpt lat="48.36156" lon="2.7501">
        <ele>130</ele>
        <time>2014-05-08T09:58:24.679Z</time>
      </trkpt>
      <trkpt lat="48.36148" lon="2.7501">
        <ele>129</ele>
        <time>2014-05-08T09:58:32.710Z</time>
      </trkpt>
      <trkpt lat="48.36147" lon="2.75012">
        <ele>129</ele>
        <time>2014-05-08T09:58:33.672Z</time>
      </trkpt>
      <trkpt lat="48.36141" lon="2.75018">
        <ele>128</ele>
        <time>2014-05-08T09:58:37.715Z</time>
      </trkpt>
      <trkpt lat="48.36139" lon="2.75019">
        <ele>128</ele>
        <time>2014-05-08T09:58:38.684Z</time>
      </trkpt>
      <trkpt lat="48.36131" lon="2.75015">
        <ele>128</ele>
        <time>2014-05-08T09:58:43.703Z</time>
      </trkpt>
      <trkpt lat="48.3613" lon="2.75013">
        <ele>128</ele>
        <time>2014-05-08T09:58:44.675Z</time>
      </trkpt>
      <trkpt lat="48.36126" lon="2.75001">
        <ele>128</ele>
        <time>2014-05-08T09:58:49.702Z</time>
      </trkpt>
      <trkpt lat="48.36125" lon="2.74998">
        <ele>129</ele>
        <time>2014-05-08T09:58:50.676Z</time>
      </trkpt>
      <trkpt lat="48.36123" lon="2.74988">
        <ele>129</ele>
        <time>2014-05-08T09:58:54.692Z</time>
      </trkpt>
      <trkpt lat="48.36122" lon="2.74986">
        <ele>129</ele>
        <time>2014-05-08T09:58:55.697Z</time>
      </trkpt>
      <trkpt lat="48.3612" lon="2.74975">
        <ele>129</ele>
        <time>2014-05-08T09:58:59.676Z</time>
      </trkpt>
      <trkpt lat="48.3612" lon="2.74972">
        <ele>129</ele>
        <time>2014-05-08T09:59:00.665Z</time>
      </trkpt>
      <trkpt lat="48.36117" lon="2.74959">
        <ele>129</ele>
        <time>2014-05-08T09:59:05.677Z</time>
      </trkpt>
      <trkpt lat="48.36117" lon="2.74957">
        <ele>129</ele>
        <time>2014-05-08T09:59:06.683Z</time>
      </trkpt>
      <trkpt lat="48.36116" lon="2.74946">
        <ele>129</ele>
        <time>2014-05-08T09:59:10.685Z</time>
      </trkpt>
      <trkpt lat="48.36116" lon="2.74943">
        <ele>129</ele>
        <time>2014-05-08T09:59:11.678Z</time>
      </trkpt>
      <trkpt lat="48.36114" lon="2.74931">
        <ele>129</ele>
        <time>2014-05-08T09:59:16.682Z</time>
      </trkpt>
      <trkpt lat="48.36114" lon="2.74929">
        <ele>129</ele>
        <time>2014-05-08T09:59:17.687Z</time>
      </trkpt>
      <trkpt lat="48.36111" lon="2.74918">
        <ele>129</ele>
        <time>2014-05-08T09:59:21.679Z</time>
      </trkpt>
      <trkpt lat="48.3611" lon="2.74915">
        <ele>130</ele>
        <time>2014-05-08T09:59:22.686Z</time>
      </trkpt>
      <trkpt lat="48.36108" lon="2.74903">
        <ele>130</ele>
        <time>2014-05-08T09:59:27.676Z</time>
      </trkpt>
      <trkpt lat="48.36107" lon="2.749">
        <ele>131</ele>
        <time>2014-05-08T09:59:28.666Z</time>
      </trkpt>
      <trkpt lat="48.36105" lon="2.74887">
        <ele>131</ele>
        <time>2014-05-08T09:59:32.670Z</time>
      </trkpt>
      <trkpt lat="48.36104" lon="2.74884">
        <ele>131</ele>
        <time>2014-05-08T09:59:33.667Z</time>
      </trkpt>
      <trkpt lat="48.36103" lon="2.74871">
        <ele>131</ele>
        <time>2014-05-08T09:59:37.687Z</time>
      </trkpt>
      <trkpt lat="48.36102" lon="2.74868">
        <ele>131</ele>
        <time>2014-05-08T09:59:38.661Z</time>
      </trkpt>
      <trkpt lat="48.36099" lon="2.74857">
        <ele>132</ele>
        <time>2014-05-08T09:59:41.679Z</time>
      </trkpt>
      <trkpt lat="48.36098" lon="2.74854">
        <ele>132</ele>
        <time>2014-05-08T09:59:42.658Z</time>
      </trkpt>
      <trkpt lat="48.36093" lon="2.74843">
        <ele>131</ele>
        <time>2014-05-08T09:59:46.968Z</time>
      </trkpt>
      <trkpt lat="48.34773" lon="2.73967">
        <ele>142</ele>
        <time>2014-05-08T10:26:40.714Z</time>
      </trkpt>
      <trkpt lat="48.34773" lon="2.73967">
        <ele>142</ele>
        <time>2014-05-08T10:26:40.745Z</time>
      </trkpt>
      <trkpt lat="48.34769" lon="2.73965">
        <ele>142</ele>
        <time>2014-05-08T10:26:41.696Z</time>
      </trkpt>
      <trkpt lat="48.34767" lon="2.73965">
        <ele>142</ele>
        <time>2014-05-08T10:26:43.726Z</time>
      </trkpt>
      <trkpt lat="48.34765" lon="2.73964">
        <ele>142</ele>
        <time>2014-05-08T10:26:44.699Z</time>
      </trkpt>
      <trkpt lat="48.34765" lon="2.73964">
        <ele>142</ele>
        <time>2014-05-08T10:26:46.704Z</time>
      </trkpt>
      <trkpt lat="48.34765" lon="2.73964">
        <ele>142</ele>
        <time>2014-05-08T10:26:47.694Z</time>
      </trkpt>
      <trkpt lat="48.34765" lon="2.73964">
        <ele>142</ele>
        <time>2014-05-08T10:26:47.698Z</time>
      </trkpt>
      <trkpt lat="48.3476" lon="2.73964">
        <ele>142</ele>
        <time>2014-05-08T10:26:48.692Z</time>
      </trkpt>
      <trkpt lat="48.3476" lon="2.73964">
        <ele>142</ele>
        <time>2014-05-08T10:26:48.697Z</time>
      </trkpt>
      <trkpt lat="48.3476" lon="2.73964">
        <ele>142</ele>
        <time>2014-05-08T10:26:49.701Z</time>
      </trkpt>
      <trkpt lat="48.3476" lon="2.73965">
        <ele>142</ele>
        <time>2014-05-08T10:26:52.687Z</time>
      </trkpt>
      <trkpt lat="48.3476" lon="2.73965">
        <ele>142</ele>
        <time>2014-05-08T10:26:53.689Z</time>
      </trkpt>
      <trkpt lat="48.3476" lon="2.73965">
        <ele>142</ele>
        <time>2014-05-08T10:26:55.717Z</time>
      </trkpt>
      <trkpt lat="48.3476" lon="2.73965">
        <ele>142</ele>
        <time>2014-05-08T10:26:56.690Z</time>
      </trkpt>
      <trkpt lat="48.34753" lon="2.7396">
        <ele>142</ele>
        <time>2014-05-08T10:26:58.712Z</time>
      </trkpt>
      <trkpt lat="48.3475" lon="2.7396">
        <ele>139</ele>
        <time>2014-05-08T10:26:59.708Z</time>
      </trkpt>
      <trkpt lat="48.3475" lon="2.7396">
        <ele>139</ele>
        <time>2014-05-08T10:26:59.716Z</time>
      </trkpt>
      <trkpt lat="48.34747" lon="2.7396">
        <ele>139</ele>
        <time>2014-05-08T10:27:02.689Z</time>
      </trkpt>
      <trkpt lat="48.34741" lon="2.73957">
        <ele>139</ele>
        <time>2014-05-08T10:27:03.709Z</time>
      </trkpt>
      <trkpt lat="48.34741" lon="2.73957">
        <ele>139</ele>
        <time>2014-05-08T10:27:03.717Z</time>
      </trkpt>
      <trkpt lat="48.34739" lon="2.73956">
        <ele>138</ele>
        <time>2014-05-08T10:27:04.695Z</time>
      </trkpt>
      <trkpt lat="48.34732" lon="2.73949">
        <ele>138</ele>
        <time>2014-05-08T10:27:19.760Z</time>
      </trkpt>
      <trkpt lat="48.34732" lon="2.73949">
        <ele>138</ele>
        <time>2014-05-08T10:27:20.695Z</time>
      </trkpt>
      <trkpt lat="48.34732" lon="2.73949">
        <ele>138</ele>
        <time>2014-05-08T10:27:38.701Z</time>
      </trkpt>
      <trkpt lat="48.34732" lon="2.73949">
        <ele>138</ele>
        <time>2014-05-08T10:27:39.698Z</time>
      </trkpt>
      <trkpt lat="48.34732" lon="2.73949">
        <ele>138</ele>
        <time>2014-05-08T10:27:39.708Z</time>
      </trkpt>
      <trkpt lat="48.34725" lon="2.73947">
        <ele>138</ele>
        <time>2014-05-08T10:27:40.702Z</time>
      </trkpt>
      <trkpt lat="48.34723" lon="2.73947">
        <ele>138</ele>
        <time>2014-05-08T10:27:49.729Z</time>
      </trkpt>
      <trkpt lat="48.34723" lon="2.73947">
        <ele>138</ele>
        <time>2014-05-08T10:27:50.738Z</time>
      </trkpt>
      <trkpt lat="48.34723" lon="2.73947">
        <ele>138</ele>
        <time>2014-05-08T10:27:50.742Z</time>
      </trkpt>
      <trkpt lat="48.34718" lon="2.73946">
        <ele>138</ele>
        <time>2014-05-08T10:27:51.703Z</time>
      </trkpt>
      <trkpt lat="48.34715" lon="2.73943">
        <ele>138</ele>
        <time>2014-05-08T10:27:53.694Z</time>
      </trkpt>
      <trkpt lat="48.34714" lon="2.73942">
        <ele>138</ele>
        <time>2014-05-08T10:27:54.706Z</time>
      </trkpt>
      <trkpt lat="48.34708" lon="2.73942">
        <ele>138</ele>
        <time>2014-05-08T10:28:07.740Z</time>
      </trkpt>
      <trkpt lat="48.34703" lon="2.73944">
        <ele>138</ele>
        <time>2014-05-08T10:28:08.698Z</time>
      </trkpt>
      <trkpt lat="48.34703" lon="2.73944">
        <ele>138</ele>
        <time>2014-05-08T10:28:08.703Z</time>
      </trkpt>
      <trkpt lat="48.34696" lon="2.7394">
        <ele>137</ele>
        <time>2014-05-08T10:28:37.729Z</time>
      </trkpt>
      <trkpt lat="48.34692" lon="2.7394">
        <ele>137</ele>
        <time>2014-05-08T10:28:38.691Z</time>
      </trkpt>
      <trkpt lat="48.3469" lon="2.7394">
        <ele>137</ele>
        <time>2014-05-08T10:28:40.692Z</time>
      </trkpt>
      <trkpt lat="48.34691" lon="2.73937">
        <ele>137</ele>
        <time>2014-05-08T10:28:41.680Z</time>
      </trkpt>
      <trkpt lat="48.34687" lon="2.73931">
        <ele>137</ele>
        <time>2014-05-08T10:28:59.742Z</time>
      </trkpt>
      <trkpt lat="48.34683" lon="2.73927">
        <ele>137</ele>
        <time>2014-05-08T10:29:00.693Z</time>
      </trkpt>
      <trkpt lat="48.34683" lon="2.73927">
        <ele>137</ele>
        <time>2014-05-08T10:29:00.697Z</time>
      </trkpt>
      <trkpt lat="48.34681" lon="2.73926">
        <ele>136</ele>
        <time>2014-05-08T10:29:01.726Z</time>
      </trkpt>
      <trkpt lat="48.34679" lon="2.73926">
        <ele>136</ele>
        <time>2014-05-08T10:29:03.713Z</time>
      </trkpt>
      <trkpt lat="48.34663" lon="2.73924">
        <ele>135</ele>
        <time>2014-05-08T10:29:04.712Z</time>
      </trkpt>
      <trkpt lat="48.34663" lon="2.73924">
        <ele>135</ele>
        <time>2014-05-08T10:29:04.723Z</time>
      </trkpt>
      <trkpt lat="48.3465" lon="2.73922">
        <ele>135</ele>
        <time>2014-05-08T10:29:05.698Z</time>
      </trkpt>
      <trkpt lat="48.3465" lon="2.73922">
        <ele>135</ele>
        <time>2014-05-08T10:29:05.704Z</time>
      </trkpt>
      <trkpt lat="48.3464" lon="2.73919">
        <ele>135</ele>
        <time>2014-05-08T10:29:06.700Z</time>
      </trkpt>
      <trkpt lat="48.3464" lon="2.73919">
        <ele>135</ele>
        <time>2014-05-08T10:29:06.703Z</time>
      </trkpt>
      <trkpt lat="48.34633" lon="2.73918">
        <ele>135</ele>
        <time>2014-05-08T10:29:07.722Z</time>
      </trkpt>
      <trkpt lat="48.34626" lon="2.73917">
        <ele>135</ele>
        <time>2014-05-08T10:29:08.692Z</time>
      </trkpt>
      <trkpt lat="48.34626" lon="2.73917">
        <ele>135</ele>
        <time>2014-05-08T10:29:08.698Z</time>
      </trkpt>
      <trkpt lat="48.3462" lon="2.73917">
        <ele>134</ele>
        <time>2014-05-08T10:29:09.707Z</time>
      </trkpt>
      <trkpt lat="48.34613" lon="2.73915">
        <ele>134</ele>
        <time>2014-05-08T10:29:10.711Z</time>
      </trkpt>
      <trkpt lat="48.34613" lon="2.73915">
        <ele>134</ele>
        <time>2014-05-08T10:29:10.718Z</time>
      </trkpt>
      <trkpt lat="48.34599" lon="2.73913">
        <ele>134</ele>
        <time>2014-05-08T10:29:11.700Z</time>
      </trkpt>
      <trkpt lat="48.34599" lon="2.73913">
        <ele>134</ele>
        <time>2014-05-08T10:29:11.708Z</time>
      </trkpt>
      <trkpt lat="48.34592" lon="2.73908">
        <ele>134</ele>
        <time>2014-05-08T10:29:12.703Z</time>
      </trkpt>
      <trkpt lat="48.34592" lon="2.73909">
        <ele>134</ele>
        <time>2014-05-08T10:29:13.733Z</time>
      </trkpt>
      <trkpt lat="48.34585" lon="2.73909">
        <ele>134</ele>
        <time>2014-05-08T10:29:14.709Z</time>
      </trkpt>
      <trkpt lat="48.34585" lon="2.73909">
        <ele>134</ele>
        <time>2014-05-08T10:29:15.735Z</time>
      </trkpt>
      <trkpt lat="48.3458" lon="2.73909">
        <ele>133</ele>
        <time>2014-05-08T10:29:16.741Z</time>
      </trkpt>
      <trkpt lat="48.34578" lon="2.73907">
        <ele>133</ele>
        <time>2014-05-08T10:29:17.707Z</time>
      </trkpt>
      <trkpt lat="48.34575" lon="2.73904">
        <ele>133</ele>
        <time>2014-05-08T10:29:18.713Z</time>
      </trkpt>
      <trkpt lat="48.34573" lon="2.73902">
        <ele>133</ele>
        <time>2014-05-08T10:29:19.732Z</time>
      </trkpt>
      <trkpt lat="48.34573" lon="2.73902">
        <ele>133</ele>
        <time>2014-05-08T10:29:20.739Z</time>
      </trkpt>
      <trkpt lat="48.34567" lon="2.73896">
        <ele>133</ele>
        <time>2014-05-08T10:29:23.718Z</time>
      </trkpt>
      <trkpt lat="48.34565" lon="2.73894">
        <ele>133</ele>
        <time>2014-05-08T10:29:24.763Z</time>
      </trkpt>
      <trkpt lat="48.34565" lon="2.73894">
        <ele>133</ele>
        <time>2014-05-08T10:29:24.769Z</time>
      </trkpt>
      <trkpt lat="48.3456" lon="2.73888">
        <ele>133</ele>
        <time>2014-05-08T10:29:32.671Z</time>
      </trkpt>
      <trkpt lat="48.34558" lon="2.73885">
        <ele>133</ele>
        <time>2014-05-08T10:29:33.690Z</time>
      </trkpt>
      <trkpt lat="48.34558" lon="2.73885">
        <ele>133</ele>
        <time>2014-05-08T10:29:42.719Z</time>
      </trkpt>
      <trkpt lat="48.34553" lon="2.73885">
        <ele>132</ele>
        <time>2014-05-08T10:29:43.736Z</time>
      </trkpt>
      <trkpt lat="48.34548" lon="2.73881">
        <ele>132</ele>
        <time>2014-05-08T10:29:54.734Z</time>
      </trkpt>
      <trkpt lat="48.34545" lon="2.73875">
        <ele>132</ele>
        <time>2014-05-08T10:29:55.714Z</time>
      </trkpt>
      <trkpt lat="48.34545" lon="2.73875">
        <ele>132</ele>
        <time>2014-05-08T10:29:55.722Z</time>
      </trkpt>
      <trkpt lat="48.34543" lon="2.73874">
        <ele>132</ele>
        <time>2014-05-08T10:30:04.708Z</time>
      </trkpt>
      <trkpt lat="48.34535" lon="2.73871">
        <ele>132</ele>
        <time>2014-05-08T10:30:05.693Z</time>
      </trkpt>
      <trkpt lat="48.34535" lon="2.73871">
        <ele>132</ele>
        <time>2014-05-08T10:30:05.699Z</time>
      </trkpt>
      <trkpt lat="48.34532" lon="2.73869">
        <ele>132</ele>
        <time>2014-05-08T10:30:06.693Z</time>
      </trkpt>
      <trkpt lat="48.34526" lon="2.73871">
        <ele>132</ele>
        <time>2014-05-08T10:30:14.719Z</time>
      </trkpt>
      <trkpt lat="48.34524" lon="2.73871">
        <ele>132</ele>
        <time>2014-05-08T10:30:15.735Z</time>
      </trkpt>
      <trkpt lat="48.34522" lon="2.73867">
        <ele>132</ele>
        <time>2014-05-08T10:30:17.735Z</time>
      </trkpt>
      <trkpt lat="48.34522" lon="2.73867">
        <ele>132</ele>
        <time>2014-05-08T10:30:18.713Z</time>
      </trkpt>
      <trkpt lat="48.34522" lon="2.73867">
        <ele>132</ele>
        <time>2014-05-08T10:30:22.749Z</time>
      </trkpt>
      <trkpt lat="48.34522" lon="2.73867">
        <ele>132</ele>
        <time>2014-05-08T10:30:23.724Z</time>
      </trkpt>
      <trkpt lat="48.34522" lon="2.73867">
        <ele>132</ele>
        <time>2014-05-08T10:30:26.765Z</time>
      </trkpt>
      <trkpt lat="48.34522" lon="2.73867">
        <ele>132</ele>
        <time>2014-05-08T10:30:27.702Z</time>
      </trkpt>
      <trkpt lat="48.34516" lon="2.73865">
        <ele>132</ele>
        <time>2014-05-08T10:30:33.713Z</time>
      </trkpt>
      <trkpt lat="48.34516" lon="2.73863">
        <ele>132</ele>
        <time>2014-05-08T10:30:34.699Z</time>
      </trkpt>
      <trkpt lat="48.34516" lon="2.73863">
        <ele>132</ele>
        <time>2014-05-08T10:30:34.715Z</time>
      </trkpt>
      <trkpt lat="48.34516" lon="2.73862">
        <ele>132</ele>
        <time>2014-05-08T10:30:35.726Z</time>
      </trkpt>
      <trkpt lat="48.34516" lon="2.73862">
        <ele>132</ele>
        <time>2014-05-08T10:30:46.684Z</time>
      </trkpt>
    </trkseg>
  </trk>
</gpx>